<?xml version="1.0" encoding="UTF-8" standalone="no" ?>
<gpx xmlns="http://www.topografix.com/GPX/1/1" xmlns:xsi="http://www.w3.org/2001/XMLSchema-instance" xsi:schemaLocation="http://www.topografix.com/GPX/1/1 http://www.topografix.com/GPX/1/1/gpx.xsd" version="1.1" creator="VisuGPX - https://www.visugpx.com">
  <metadata>
    <name>rando bassies par videssos</name>
    <desc><![CDATA[rando 900m de D  etangs de bassies et refuge par videssos en AR]]></desc>
  </metadata>
  <trk>
    <name><![CDATA[ACTIVE LOG101208]]></name>
    <trkseg>
      <trkpt lat="42.74291" lon="1.46275">
        <ele>854.567</ele>
        <time>2012-06-24T08:12:08Z</time>
      </trkpt>
      <trkpt lat="42.74291" lon="1.46275">
        <ele>854.001</ele>
        <time>2012-06-24T08:12:09Z</time>
      </trkpt>
      <trkpt lat="42.74292" lon="1.46276">
        <ele>852.281</ele>
        <time>2012-06-24T08:12:20Z</time>
      </trkpt>
      <trkpt lat="42.74293" lon="1.46273">
        <ele>853.328</ele>
        <time>2012-06-24T08:12:34Z</time>
      </trkpt>
      <trkpt lat="42.74293" lon="1.46271">
        <ele>849.522</ele>
        <time>2012-06-24T08:12:46Z</time>
      </trkpt>
      <trkpt lat="42.74293" lon="1.46271">
        <ele>852.553</ele>
        <time>2012-06-24T08:12:47Z</time>
      </trkpt>
      <trkpt lat="42.74292" lon="1.46271">
        <ele>856.191</ele>
        <time>2012-06-24T08:12:50Z</time>
      </trkpt>
      <trkpt lat="42.74292" lon="1.4627">
        <ele>853.185</ele>
        <time>2012-06-24T08:12:54Z</time>
      </trkpt>
      <trkpt lat="42.74293" lon="1.4627">
        <ele>851.377</ele>
        <time>2012-06-24T08:13:11Z</time>
      </trkpt>
      <trkpt lat="42.74293" lon="1.4627">
        <ele>854.401</ele>
        <time>2012-06-24T08:13:13Z</time>
      </trkpt>
      <trkpt lat="42.74293" lon="1.4627">
        <ele>850.122</ele>
        <time>2012-06-24T08:13:14Z</time>
      </trkpt>
      <trkpt lat="42.74292" lon="1.4627">
        <ele>855.601</ele>
        <time>2012-06-24T08:13:15Z</time>
      </trkpt>
      <trkpt lat="42.74292" lon="1.4627">
        <ele>851.258</ele>
        <time>2012-06-24T08:13:16Z</time>
      </trkpt>
      <trkpt lat="42.74292" lon="1.4627">
        <ele>856.107</ele>
        <time>2012-06-24T08:13:17Z</time>
      </trkpt>
      <trkpt lat="42.74291" lon="1.46268">
        <ele>852.205</ele>
        <time>2012-06-24T08:13:19Z</time>
      </trkpt>
      <trkpt lat="42.74291" lon="1.46268">
        <ele>852.339</ele>
        <time>2012-06-24T08:13:20Z</time>
      </trkpt>
      <trkpt lat="42.74286" lon="1.46257">
        <ele>849.264</ele>
        <time>2012-06-24T08:13:37Z</time>
      </trkpt>
      <trkpt lat="42.74277" lon="1.46255">
        <ele>848.312</ele>
        <time>2012-06-24T08:13:56Z</time>
      </trkpt>
      <trkpt lat="42.74287" lon="1.46227">
        <ele>846.605</ele>
        <time>2012-06-24T08:14:19Z</time>
      </trkpt>
      <trkpt lat="42.7429" lon="1.46224">
        <ele>846.759</ele>
        <time>2012-06-24T08:14:22Z</time>
      </trkpt>
      <trkpt lat="42.74292" lon="1.46214">
        <ele>848.066</ele>
        <time>2012-06-24T08:14:30Z</time>
      </trkpt>
      <trkpt lat="42.74289" lon="1.46216">
        <ele>849.467</ele>
        <time>2012-06-24T08:14:36Z</time>
      </trkpt>
      <trkpt lat="42.74284" lon="1.46221">
        <ele>850.025</ele>
        <time>2012-06-24T08:14:41Z</time>
      </trkpt>
      <trkpt lat="42.74279" lon="1.46222">
        <ele>850.735</ele>
        <time>2012-06-24T08:14:47Z</time>
      </trkpt>
      <trkpt lat="42.74275" lon="1.4622">
        <ele>853.987</ele>
        <time>2012-06-24T08:14:53Z</time>
      </trkpt>
      <trkpt lat="42.74274" lon="1.46219">
        <ele>854.215</ele>
        <time>2012-06-24T08:14:54Z</time>
      </trkpt>
      <trkpt lat="42.74273" lon="1.46217">
        <ele>846.525</ele>
        <time>2012-06-24T08:14:57Z</time>
      </trkpt>
      <trkpt lat="42.74272" lon="1.46216">
        <ele>855.285</ele>
        <time>2012-06-24T08:14:58Z</time>
      </trkpt>
      <trkpt lat="42.74268" lon="1.46217">
        <ele>852.992</ele>
        <time>2012-06-24T08:15:01Z</time>
      </trkpt>
      <trkpt lat="42.74262" lon="1.4621">
        <ele>853.941</ele>
        <time>2012-06-24T08:15:09Z</time>
      </trkpt>
      <trkpt lat="42.74253" lon="1.46212">
        <ele>854.928</ele>
        <time>2012-06-24T08:15:18Z</time>
      </trkpt>
      <trkpt lat="42.74248" lon="1.46211">
        <ele>856.272</ele>
        <time>2012-06-24T08:15:23Z</time>
      </trkpt>
      <trkpt lat="42.74242" lon="1.46207">
        <ele>857.307</ele>
        <time>2012-06-24T08:15:31Z</time>
      </trkpt>
      <trkpt lat="42.74237" lon="1.46207">
        <ele>858.414</ele>
        <time>2012-06-24T08:15:36Z</time>
      </trkpt>
      <trkpt lat="42.74227" lon="1.46208">
        <ele>859.466</ele>
        <time>2012-06-24T08:15:45Z</time>
      </trkpt>
      <trkpt lat="42.74225" lon="1.462">
        <ele>859.944</ele>
        <time>2012-06-24T08:15:52Z</time>
      </trkpt>
      <trkpt lat="42.74218" lon="1.46188">
        <ele>861.355</ele>
        <time>2012-06-24T08:16:04Z</time>
      </trkpt>
      <trkpt lat="42.74214" lon="1.46186">
        <ele>862.529</ele>
        <time>2012-06-24T08:16:10Z</time>
      </trkpt>
      <trkpt lat="42.74209" lon="1.46181">
        <ele>863.205</ele>
        <time>2012-06-24T08:16:16Z</time>
      </trkpt>
      <trkpt lat="42.74205" lon="1.46179">
        <ele>864.096</ele>
        <time>2012-06-24T08:16:21Z</time>
      </trkpt>
      <trkpt lat="42.74203" lon="1.46176">
        <ele>864.133</ele>
        <time>2012-06-24T08:16:24Z</time>
      </trkpt>
      <trkpt lat="42.74195" lon="1.4617">
        <ele>865.209</ele>
        <time>2012-06-24T08:16:32Z</time>
      </trkpt>
      <trkpt lat="42.74191" lon="1.4617">
        <ele>866.509</ele>
        <time>2012-06-24T08:16:38Z</time>
      </trkpt>
      <trkpt lat="42.74187" lon="1.46173">
        <ele>867.45</ele>
        <time>2012-06-24T08:16:43Z</time>
      </trkpt>
      <trkpt lat="42.74181" lon="1.46176">
        <ele>868.888</ele>
        <time>2012-06-24T08:16:49Z</time>
      </trkpt>
      <trkpt lat="42.74177" lon="1.46175">
        <ele>869.779</ele>
        <time>2012-06-24T08:16:54Z</time>
      </trkpt>
      <trkpt lat="42.74172" lon="1.46175">
        <ele>870.665</ele>
        <time>2012-06-24T08:17:01Z</time>
      </trkpt>
      <trkpt lat="42.74166" lon="1.4617">
        <ele>872.761</ele>
        <time>2012-06-24T08:17:08Z</time>
      </trkpt>
      <trkpt lat="42.74166" lon="1.46171">
        <ele>872.944</ele>
        <time>2012-06-24T08:17:09Z</time>
      </trkpt>
      <trkpt lat="42.74161" lon="1.46172">
        <ele>874.577</ele>
        <time>2012-06-24T08:17:17Z</time>
      </trkpt>
      <trkpt lat="42.74157" lon="1.4617">
        <ele>876.125</ele>
        <time>2012-06-24T08:17:21Z</time>
      </trkpt>
      <trkpt lat="42.74151" lon="1.46163">
        <ele>876.812</ele>
        <time>2012-06-24T08:17:28Z</time>
      </trkpt>
      <trkpt lat="42.74149" lon="1.46146">
        <ele>878.255</ele>
        <time>2012-06-24T08:17:36Z</time>
      </trkpt>
      <trkpt lat="42.74146" lon="1.46132">
        <ele>876.842</ele>
        <time>2012-06-24T08:17:45Z</time>
      </trkpt>
      <trkpt lat="42.7414" lon="1.46123">
        <ele>876.483</ele>
        <time>2012-06-24T08:17:52Z</time>
      </trkpt>
      <trkpt lat="42.74135" lon="1.46123">
        <ele>876.693</ele>
        <time>2012-06-24T08:17:57Z</time>
      </trkpt>
      <trkpt lat="42.74132" lon="1.46117">
        <ele>876.009</ele>
        <time>2012-06-24T08:18:03Z</time>
      </trkpt>
      <trkpt lat="42.74124" lon="1.46105">
        <ele>875.041</ele>
        <time>2012-06-24T08:18:14Z</time>
      </trkpt>
      <trkpt lat="42.74118" lon="1.46101">
        <ele>875.155</ele>
        <time>2012-06-24T08:18:19Z</time>
      </trkpt>
      <trkpt lat="42.74112" lon="1.46096">
        <ele>875.178</ele>
        <time>2012-06-24T08:18:25Z</time>
      </trkpt>
      <trkpt lat="42.74107" lon="1.46093">
        <ele>874.594</ele>
        <time>2012-06-24T08:18:30Z</time>
      </trkpt>
      <trkpt lat="42.74102" lon="1.46085">
        <ele>877.569</ele>
        <time>2012-06-24T08:18:36Z</time>
      </trkpt>
      <trkpt lat="42.74098" lon="1.4608">
        <ele>874.134</ele>
        <time>2012-06-24T08:18:40Z</time>
      </trkpt>
      <trkpt lat="42.74094" lon="1.46077">
        <ele>876.699</ele>
        <time>2012-06-24T08:18:44Z</time>
      </trkpt>
      <trkpt lat="42.74092" lon="1.46075">
        <ele>872.488</ele>
        <time>2012-06-24T08:18:46Z</time>
      </trkpt>
      <trkpt lat="42.74092" lon="1.46074">
        <ele>876.278</ele>
        <time>2012-06-24T08:18:47Z</time>
      </trkpt>
      <trkpt lat="42.74089" lon="1.4607">
        <ele>875.582</ele>
        <time>2012-06-24T08:18:51Z</time>
      </trkpt>
      <trkpt lat="42.74082" lon="1.46071">
        <ele>877.384</ele>
        <time>2012-06-24T08:18:58Z</time>
      </trkpt>
      <trkpt lat="42.74079" lon="1.46071">
        <ele>876.036</ele>
        <time>2012-06-24T08:19:01Z</time>
      </trkpt>
      <trkpt lat="42.74074" lon="1.46068">
        <ele>877.045</ele>
        <time>2012-06-24T08:19:06Z</time>
      </trkpt>
      <trkpt lat="42.74069" lon="1.46064">
        <ele>878.18</ele>
        <time>2012-06-24T08:19:12Z</time>
      </trkpt>
      <trkpt lat="42.74063" lon="1.46058">
        <ele>879.366</ele>
        <time>2012-06-24T08:19:19Z</time>
      </trkpt>
      <trkpt lat="42.74056" lon="1.46056">
        <ele>881.23</ele>
        <time>2012-06-24T08:19:27Z</time>
      </trkpt>
      <trkpt lat="42.7405" lon="1.46052">
        <ele>882.529</ele>
        <time>2012-06-24T08:19:34Z</time>
      </trkpt>
      <trkpt lat="42.74043" lon="1.46031">
        <ele>885.733</ele>
        <time>2012-06-24T08:19:50Z</time>
      </trkpt>
      <trkpt lat="42.74039" lon="1.4603">
        <ele>886.953</ele>
        <time>2012-06-24T08:19:58Z</time>
      </trkpt>
      <trkpt lat="42.74029" lon="1.46032">
        <ele>889.112</ele>
        <time>2012-06-24T08:20:07Z</time>
      </trkpt>
      <trkpt lat="42.74024" lon="1.46031">
        <ele>889.856</ele>
        <time>2012-06-24T08:20:12Z</time>
      </trkpt>
      <trkpt lat="42.74016" lon="1.46021">
        <ele>892.705</ele>
        <time>2012-06-24T08:20:25Z</time>
      </trkpt>
      <trkpt lat="42.74013" lon="1.46017">
        <ele>893.29</ele>
        <time>2012-06-24T08:20:30Z</time>
      </trkpt>
      <trkpt lat="42.7401" lon="1.4601">
        <ele>894.225</ele>
        <time>2012-06-24T08:20:36Z</time>
      </trkpt>
      <trkpt lat="42.74006" lon="1.46007">
        <ele>895.472</ele>
        <time>2012-06-24T08:20:41Z</time>
      </trkpt>
      <trkpt lat="42.74001" lon="1.46004">
        <ele>896.405</ele>
        <time>2012-06-24T08:20:46Z</time>
      </trkpt>
      <trkpt lat="42.73998" lon="1.46003">
        <ele>897.636</ele>
        <time>2012-06-24T08:20:49Z</time>
      </trkpt>
      <trkpt lat="42.73994" lon="1.46">
        <ele>898.197</ele>
        <time>2012-06-24T08:20:54Z</time>
      </trkpt>
      <trkpt lat="42.7399" lon="1.45996">
        <ele>898.793</ele>
        <time>2012-06-24T08:21:00Z</time>
      </trkpt>
      <trkpt lat="42.73983" lon="1.45991">
        <ele>899.88</ele>
        <time>2012-06-24T08:21:06Z</time>
      </trkpt>
      <trkpt lat="42.73982" lon="1.45985">
        <ele>900.665</ele>
        <time>2012-06-24T08:21:11Z</time>
      </trkpt>
      <trkpt lat="42.7398" lon="1.45978">
        <ele>901.111</ele>
        <time>2012-06-24T08:21:16Z</time>
      </trkpt>
      <trkpt lat="42.73974" lon="1.45969">
        <ele>901.04</ele>
        <time>2012-06-24T08:21:22Z</time>
      </trkpt>
      <trkpt lat="42.73968" lon="1.4597">
        <ele>900.651</ele>
        <time>2012-06-24T08:21:28Z</time>
      </trkpt>
      <trkpt lat="42.73964" lon="1.45972">
        <ele>901.726</ele>
        <time>2012-06-24T08:21:33Z</time>
      </trkpt>
      <trkpt lat="42.73963" lon="1.45971">
        <ele>901.726</ele>
        <time>2012-06-24T08:21:34Z</time>
      </trkpt>
      <trkpt lat="42.7395" lon="1.45971">
        <ele>902.759</ele>
        <time>2012-06-24T08:21:42Z</time>
      </trkpt>
      <trkpt lat="42.73945" lon="1.4597">
        <ele>902.808</ele>
        <time>2012-06-24T08:21:46Z</time>
      </trkpt>
      <trkpt lat="42.73943" lon="1.45971">
        <ele>903.43</ele>
        <time>2012-06-24T08:21:48Z</time>
      </trkpt>
      <trkpt lat="42.73937" lon="1.45972">
        <ele>904.482</ele>
        <time>2012-06-24T08:21:54Z</time>
      </trkpt>
      <trkpt lat="42.73934" lon="1.45969">
        <ele>906.178</ele>
        <time>2012-06-24T08:22:00Z</time>
      </trkpt>
      <trkpt lat="42.73927" lon="1.45968">
        <ele>907.35</ele>
        <time>2012-06-24T08:22:06Z</time>
      </trkpt>
      <trkpt lat="42.73924" lon="1.45963">
        <ele>908.316</ele>
        <time>2012-06-24T08:22:11Z</time>
      </trkpt>
      <trkpt lat="42.73915" lon="1.45958">
        <ele>909.578</ele>
        <time>2012-06-24T08:22:18Z</time>
      </trkpt>
      <trkpt lat="42.73908" lon="1.45961">
        <ele>910.776</ele>
        <time>2012-06-24T08:22:24Z</time>
      </trkpt>
      <trkpt lat="42.73903" lon="1.45956">
        <ele>911.145</ele>
        <time>2012-06-24T08:22:29Z</time>
      </trkpt>
      <trkpt lat="42.73899" lon="1.45951">
        <ele>911.955</ele>
        <time>2012-06-24T08:22:33Z</time>
      </trkpt>
      <trkpt lat="42.73894" lon="1.45944">
        <ele>914.29</ele>
        <time>2012-06-24T08:22:41Z</time>
      </trkpt>
      <trkpt lat="42.73888" lon="1.4594">
        <ele>914.91</ele>
        <time>2012-06-24T08:22:47Z</time>
      </trkpt>
      <trkpt lat="42.73886" lon="1.4594">
        <ele>916.401</ele>
        <time>2012-06-24T08:22:52Z</time>
      </trkpt>
      <trkpt lat="42.73885" lon="1.45939">
        <ele>917.058</ele>
        <time>2012-06-24T08:22:54Z</time>
      </trkpt>
      <trkpt lat="42.73878" lon="1.45935">
        <ele>918.692</ele>
        <time>2012-06-24T08:23:03Z</time>
      </trkpt>
      <trkpt lat="42.73876" lon="1.45925">
        <ele>919.793</ele>
        <time>2012-06-24T08:23:09Z</time>
      </trkpt>
      <trkpt lat="42.73874" lon="1.45914">
        <ele>921.785</ele>
        <time>2012-06-24T08:23:15Z</time>
      </trkpt>
      <trkpt lat="42.73873" lon="1.45911">
        <ele>922.214</ele>
        <time>2012-06-24T08:23:19Z</time>
      </trkpt>
      <trkpt lat="42.73872" lon="1.45908">
        <ele>923.921</ele>
        <time>2012-06-24T08:23:22Z</time>
      </trkpt>
      <trkpt lat="42.7387" lon="1.45894">
        <ele>924.912</ele>
        <time>2012-06-24T08:23:29Z</time>
      </trkpt>
      <trkpt lat="42.73872" lon="1.45893">
        <ele>927</ele>
        <time>2012-06-24T08:23:38Z</time>
      </trkpt>
      <trkpt lat="42.73869" lon="1.45886">
        <ele>929.716</ele>
        <time>2012-06-24T08:23:49Z</time>
      </trkpt>
      <trkpt lat="42.73864" lon="1.45882">
        <ele>931.062</ele>
        <time>2012-06-24T08:23:55Z</time>
      </trkpt>
      <trkpt lat="42.73859" lon="1.4588">
        <ele>931.625</ele>
        <time>2012-06-24T08:24:00Z</time>
      </trkpt>
      <trkpt lat="42.73852" lon="1.45859">
        <ele>934.832</ele>
        <time>2012-06-24T08:24:18Z</time>
      </trkpt>
      <trkpt lat="42.73846" lon="1.45848">
        <ele>937.02</ele>
        <time>2012-06-24T08:24:33Z</time>
      </trkpt>
      <trkpt lat="42.73841" lon="1.45844">
        <ele>938.141</ele>
        <time>2012-06-24T08:24:39Z</time>
      </trkpt>
      <trkpt lat="42.73837" lon="1.45841">
        <ele>939.95</ele>
        <time>2012-06-24T08:24:48Z</time>
      </trkpt>
      <trkpt lat="42.73836" lon="1.45833">
        <ele>941.947</ele>
        <time>2012-06-24T08:24:54Z</time>
      </trkpt>
      <trkpt lat="42.73834" lon="1.45823">
        <ele>942.395</ele>
        <time>2012-06-24T08:25:02Z</time>
      </trkpt>
      <trkpt lat="42.73835" lon="1.45819">
        <ele>942.942</ele>
        <time>2012-06-24T08:25:06Z</time>
      </trkpt>
      <trkpt lat="42.73836" lon="1.4579">
        <ele>944.798</ele>
        <time>2012-06-24T08:25:29Z</time>
      </trkpt>
      <trkpt lat="42.73839" lon="1.45785">
        <ele>946.251</ele>
        <time>2012-06-24T08:25:37Z</time>
      </trkpt>
      <trkpt lat="42.7384" lon="1.45779">
        <ele>949.512</ele>
        <time>2012-06-24T08:25:53Z</time>
      </trkpt>
      <trkpt lat="42.73852" lon="1.45775">
        <ele>950.458</ele>
        <time>2012-06-24T08:26:02Z</time>
      </trkpt>
      <trkpt lat="42.73851" lon="1.45767">
        <ele>951.593</ele>
        <time>2012-06-24T08:26:07Z</time>
      </trkpt>
      <trkpt lat="42.73852" lon="1.45765">
        <ele>952.222</ele>
        <time>2012-06-24T08:26:09Z</time>
      </trkpt>
      <trkpt lat="42.73857" lon="1.45765">
        <ele>953.873</ele>
        <time>2012-06-24T08:26:16Z</time>
      </trkpt>
      <trkpt lat="42.73869" lon="1.45757">
        <ele>956.122</ele>
        <time>2012-06-24T08:26:31Z</time>
      </trkpt>
      <trkpt lat="42.73871" lon="1.45756">
        <ele>958.417</ele>
        <time>2012-06-24T08:26:38Z</time>
      </trkpt>
      <trkpt lat="42.73876" lon="1.45753">
        <ele>961.625</ele>
        <time>2012-06-24T08:26:51Z</time>
      </trkpt>
      <trkpt lat="42.73881" lon="1.45753">
        <ele>963.009</ele>
        <time>2012-06-24T08:26:57Z</time>
      </trkpt>
      <trkpt lat="42.73885" lon="1.45748">
        <ele>966.393</ele>
        <time>2012-06-24T08:27:09Z</time>
      </trkpt>
      <trkpt lat="42.73888" lon="1.45738">
        <ele>969.686</ele>
        <time>2012-06-24T08:27:21Z</time>
      </trkpt>
      <trkpt lat="42.73902" lon="1.45743">
        <ele>973.173</ele>
        <time>2012-06-24T08:27:36Z</time>
      </trkpt>
      <trkpt lat="42.73899" lon="1.45736">
        <ele>974.183</ele>
        <time>2012-06-24T08:27:41Z</time>
      </trkpt>
      <trkpt lat="42.73907" lon="1.45735">
        <ele>977.427</ele>
        <time>2012-06-24T08:27:52Z</time>
      </trkpt>
      <trkpt lat="42.73909" lon="1.45736">
        <ele>978.484</ele>
        <time>2012-06-24T08:27:56Z</time>
      </trkpt>
      <trkpt lat="42.73909" lon="1.45738">
        <ele>979.655</ele>
        <time>2012-06-24T08:28:02Z</time>
      </trkpt>
      <trkpt lat="42.73913" lon="1.45746">
        <ele>981.486</ele>
        <time>2012-06-24T08:28:10Z</time>
      </trkpt>
      <trkpt lat="42.73915" lon="1.45731">
        <ele>983.256</ele>
        <time>2012-06-24T08:28:21Z</time>
      </trkpt>
      <trkpt lat="42.73923" lon="1.4573">
        <ele>985.893</ele>
        <time>2012-06-24T08:28:32Z</time>
      </trkpt>
      <trkpt lat="42.73925" lon="1.45728">
        <ele>987.131</ele>
        <time>2012-06-24T08:28:37Z</time>
      </trkpt>
      <trkpt lat="42.73926" lon="1.45728">
        <ele>987.202</ele>
        <time>2012-06-24T08:28:38Z</time>
      </trkpt>
      <trkpt lat="42.73931" lon="1.45724">
        <ele>988.275</ele>
        <time>2012-06-24T08:28:46Z</time>
      </trkpt>
      <trkpt lat="42.73951" lon="1.4573">
        <ele>991.014</ele>
        <time>2012-06-24T08:29:04Z</time>
      </trkpt>
      <trkpt lat="42.73966" lon="1.45728">
        <ele>994.087</ele>
        <time>2012-06-24T08:29:18Z</time>
      </trkpt>
      <trkpt lat="42.7397" lon="1.45733">
        <ele>994.195</ele>
        <time>2012-06-24T08:29:23Z</time>
      </trkpt>
      <trkpt lat="42.73969" lon="1.4573">
        <ele>995.009</ele>
        <time>2012-06-24T08:29:29Z</time>
      </trkpt>
      <trkpt lat="42.7396" lon="1.45724">
        <ele>996.623</ele>
        <time>2012-06-24T08:29:38Z</time>
      </trkpt>
      <trkpt lat="42.73956" lon="1.45719">
        <ele>996.969</ele>
        <time>2012-06-24T08:29:43Z</time>
      </trkpt>
      <trkpt lat="42.73951" lon="1.4571">
        <ele>998.052</ele>
        <time>2012-06-24T08:29:49Z</time>
      </trkpt>
      <trkpt lat="42.73947" lon="1.45704">
        <ele>999.098</ele>
        <time>2012-06-24T08:29:56Z</time>
      </trkpt>
      <trkpt lat="42.73943" lon="1.45697">
        <ele>1000.26</ele>
        <time>2012-06-24T08:30:02Z</time>
      </trkpt>
      <trkpt lat="42.73942" lon="1.45688">
        <ele>1001.763</ele>
        <time>2012-06-24T08:30:08Z</time>
      </trkpt>
      <trkpt lat="42.73947" lon="1.45691">
        <ele>1002.695</ele>
        <time>2012-06-24T08:30:13Z</time>
      </trkpt>
      <trkpt lat="42.73952" lon="1.45689">
        <ele>1004.104</ele>
        <time>2012-06-24T08:30:19Z</time>
      </trkpt>
      <trkpt lat="42.73958" lon="1.45688">
        <ele>1004.482</ele>
        <time>2012-06-24T08:30:25Z</time>
      </trkpt>
      <trkpt lat="42.73962" lon="1.45689">
        <ele>1005.865</ele>
        <time>2012-06-24T08:30:32Z</time>
      </trkpt>
      <trkpt lat="42.7397" lon="1.45688">
        <ele>1006.586</ele>
        <time>2012-06-24T08:30:38Z</time>
      </trkpt>
      <trkpt lat="42.73978" lon="1.45695">
        <ele>1010.092</ele>
        <time>2012-06-24T08:30:51Z</time>
      </trkpt>
      <trkpt lat="42.73984" lon="1.457">
        <ele>1011.215</ele>
        <time>2012-06-24T08:30:59Z</time>
      </trkpt>
      <trkpt lat="42.7399" lon="1.45701">
        <ele>1012.353</ele>
        <time>2012-06-24T08:31:06Z</time>
      </trkpt>
      <trkpt lat="42.73998" lon="1.45701">
        <ele>1014.237</ele>
        <time>2012-06-24T08:31:16Z</time>
      </trkpt>
      <trkpt lat="42.74004" lon="1.457">
        <ele>1015.615</ele>
        <time>2012-06-24T08:31:24Z</time>
      </trkpt>
      <trkpt lat="42.74009" lon="1.45697">
        <ele>1016.644</ele>
        <time>2012-06-24T08:31:30Z</time>
      </trkpt>
      <trkpt lat="42.74014" lon="1.45699">
        <ele>1017.413</ele>
        <time>2012-06-24T08:31:36Z</time>
      </trkpt>
      <trkpt lat="42.74013" lon="1.45697">
        <ele>1020.725</ele>
        <time>2012-06-24T08:31:48Z</time>
      </trkpt>
      <trkpt lat="42.74008" lon="1.4569">
        <ele>1022.283</ele>
        <time>2012-06-24T08:31:56Z</time>
      </trkpt>
      <trkpt lat="42.74003" lon="1.45684">
        <ele>1023.697</ele>
        <time>2012-06-24T08:32:03Z</time>
      </trkpt>
      <trkpt lat="42.74" lon="1.45681">
        <ele>1024.953</ele>
        <time>2012-06-24T08:32:08Z</time>
      </trkpt>
      <trkpt lat="42.73998" lon="1.45675">
        <ele>1025.672</ele>
        <time>2012-06-24T08:32:13Z</time>
      </trkpt>
      <trkpt lat="42.73994" lon="1.45668">
        <ele>1026.848</ele>
        <time>2012-06-24T08:32:19Z</time>
      </trkpt>
      <trkpt lat="42.73992" lon="1.45666">
        <ele>1028.019</ele>
        <time>2012-06-24T08:32:22Z</time>
      </trkpt>
      <trkpt lat="42.73988" lon="1.45659">
        <ele>1029.137</ele>
        <time>2012-06-24T08:32:29Z</time>
      </trkpt>
      <trkpt lat="42.73987" lon="1.45655">
        <ele>1030.663</ele>
        <time>2012-06-24T08:32:34Z</time>
      </trkpt>
      <trkpt lat="42.73983" lon="1.45637">
        <ele>1033.757</ele>
        <time>2012-06-24T08:32:48Z</time>
      </trkpt>
      <trkpt lat="42.73982" lon="1.45632">
        <ele>1033.959</ele>
        <time>2012-06-24T08:32:53Z</time>
      </trkpt>
      <trkpt lat="42.73986" lon="1.4563">
        <ele>1034.793</ele>
        <time>2012-06-24T08:32:59Z</time>
      </trkpt>
      <trkpt lat="42.73992" lon="1.45636">
        <ele>1037.046</ele>
        <time>2012-06-24T08:33:05Z</time>
      </trkpt>
      <trkpt lat="42.73997" lon="1.4564">
        <ele>1037.597</ele>
        <time>2012-06-24T08:33:09Z</time>
      </trkpt>
      <trkpt lat="42.74003" lon="1.45638">
        <ele>1039.598</ele>
        <time>2012-06-24T08:33:17Z</time>
      </trkpt>
      <trkpt lat="42.74001" lon="1.45635">
        <ele>1041.257</ele>
        <time>2012-06-24T08:33:27Z</time>
      </trkpt>
      <trkpt lat="42.73998" lon="1.45622">
        <ele>1044.906</ele>
        <time>2012-06-24T08:33:41Z</time>
      </trkpt>
      <trkpt lat="42.73997" lon="1.45616">
        <ele>1046.156</ele>
        <time>2012-06-24T08:33:50Z</time>
      </trkpt>
      <trkpt lat="42.74004" lon="1.45618">
        <ele>1049.362</ele>
        <time>2012-06-24T08:34:08Z</time>
      </trkpt>
      <trkpt lat="42.74008" lon="1.45621">
        <ele>1049.644</ele>
        <time>2012-06-24T08:34:13Z</time>
      </trkpt>
      <trkpt lat="42.74014" lon="1.45625">
        <ele>1052.186</ele>
        <time>2012-06-24T08:34:19Z</time>
      </trkpt>
      <trkpt lat="42.74017" lon="1.45628">
        <ele>1052.915</ele>
        <time>2012-06-24T08:34:23Z</time>
      </trkpt>
      <trkpt lat="42.74021" lon="1.45634">
        <ele>1052.471</ele>
        <time>2012-06-24T08:34:27Z</time>
      </trkpt>
      <trkpt lat="42.74025" lon="1.45633">
        <ele>1054.998</ele>
        <time>2012-06-24T08:34:35Z</time>
      </trkpt>
      <trkpt lat="42.74026" lon="1.45628">
        <ele>1056.31</ele>
        <time>2012-06-24T08:34:43Z</time>
      </trkpt>
      <trkpt lat="42.74025" lon="1.45624">
        <ele>1057.184</ele>
        <time>2012-06-24T08:34:52Z</time>
      </trkpt>
      <trkpt lat="42.74026" lon="1.45607">
        <ele>1057.715</ele>
        <time>2012-06-24T08:35:15Z</time>
      </trkpt>
      <trkpt lat="42.74024" lon="1.45611">
        <ele>1058.602</ele>
        <time>2012-06-24T08:35:20Z</time>
      </trkpt>
      <trkpt lat="42.74019" lon="1.45607">
        <ele>1061.822</ele>
        <time>2012-06-24T08:35:31Z</time>
      </trkpt>
      <trkpt lat="42.74018" lon="1.456">
        <ele>1062.656</ele>
        <time>2012-06-24T08:35:36Z</time>
      </trkpt>
      <trkpt lat="42.74027" lon="1.45596">
        <ele>1064.754</ele>
        <time>2012-06-24T08:35:45Z</time>
      </trkpt>
      <trkpt lat="42.7403" lon="1.45595">
        <ele>1065.769</ele>
        <time>2012-06-24T08:35:49Z</time>
      </trkpt>
      <trkpt lat="42.74035" lon="1.45598">
        <ele>1066.548</ele>
        <time>2012-06-24T08:35:55Z</time>
      </trkpt>
      <trkpt lat="42.74042" lon="1.45601">
        <ele>1067.875</ele>
        <time>2012-06-24T08:36:04Z</time>
      </trkpt>
      <trkpt lat="42.74048" lon="1.456">
        <ele>1069.464</ele>
        <time>2012-06-24T08:36:13Z</time>
      </trkpt>
      <trkpt lat="42.74041" lon="1.45599">
        <ele>1071.829</ele>
        <time>2012-06-24T08:36:23Z</time>
      </trkpt>
      <trkpt lat="42.74037" lon="1.45593">
        <ele>1073.092</ele>
        <time>2012-06-24T08:36:30Z</time>
      </trkpt>
      <trkpt lat="42.74041" lon="1.45587">
        <ele>1074.464</ele>
        <time>2012-06-24T08:36:39Z</time>
      </trkpt>
      <trkpt lat="42.74048" lon="1.45589">
        <ele>1075.563</ele>
        <time>2012-06-24T08:36:46Z</time>
      </trkpt>
      <trkpt lat="42.74055" lon="1.45587">
        <ele>1077.455</ele>
        <time>2012-06-24T08:36:53Z</time>
      </trkpt>
      <trkpt lat="42.74062" lon="1.45588">
        <ele>1080.93</ele>
        <time>2012-06-24T08:37:11Z</time>
      </trkpt>
      <trkpt lat="42.74053" lon="1.45581">
        <ele>1084.077</ele>
        <time>2012-06-24T08:37:26Z</time>
      </trkpt>
      <trkpt lat="42.74051" lon="1.45571">
        <ele>1086.244</ele>
        <time>2012-06-24T08:37:33Z</time>
      </trkpt>
      <trkpt lat="42.74049" lon="1.45563">
        <ele>1087.221</ele>
        <time>2012-06-24T08:37:41Z</time>
      </trkpt>
      <trkpt lat="42.74061" lon="1.45564">
        <ele>1089.636</ele>
        <time>2012-06-24T08:37:54Z</time>
      </trkpt>
      <trkpt lat="42.74069" lon="1.45567">
        <ele>1091.813</ele>
        <time>2012-06-24T08:38:02Z</time>
      </trkpt>
      <trkpt lat="42.74077" lon="1.4557">
        <ele>1093.147</ele>
        <time>2012-06-24T08:38:10Z</time>
      </trkpt>
      <trkpt lat="42.74081" lon="1.45574">
        <ele>1093.968</ele>
        <time>2012-06-24T08:38:15Z</time>
      </trkpt>
      <trkpt lat="42.74085" lon="1.45577">
        <ele>1096.972</ele>
        <time>2012-06-24T08:38:26Z</time>
      </trkpt>
      <trkpt lat="42.74083" lon="1.45575">
        <ele>1098.281</ele>
        <time>2012-06-24T08:38:30Z</time>
      </trkpt>
      <trkpt lat="42.74077" lon="1.45567">
        <ele>1099.161</ele>
        <time>2012-06-24T08:38:38Z</time>
      </trkpt>
      <trkpt lat="42.74073" lon="1.45558">
        <ele>1101.328</ele>
        <time>2012-06-24T08:38:46Z</time>
      </trkpt>
      <trkpt lat="42.74072" lon="1.45553">
        <ele>1102.985</ele>
        <time>2012-06-24T08:38:52Z</time>
      </trkpt>
      <trkpt lat="42.74069" lon="1.45546">
        <ele>1104.178</ele>
        <time>2012-06-24T08:38:57Z</time>
      </trkpt>
      <trkpt lat="42.74066" lon="1.4554">
        <ele>1104.701</ele>
        <time>2012-06-24T08:39:02Z</time>
      </trkpt>
      <trkpt lat="42.74063" lon="1.45533">
        <ele>1106.24</ele>
        <time>2012-06-24T08:39:08Z</time>
      </trkpt>
      <trkpt lat="42.74062" lon="1.45532">
        <ele>1106.494</ele>
        <time>2012-06-24T08:39:09Z</time>
      </trkpt>
      <trkpt lat="42.74061" lon="1.45525">
        <ele>1107.561</ele>
        <time>2012-06-24T08:39:16Z</time>
      </trkpt>
      <trkpt lat="42.74068" lon="1.45525">
        <ele>1109.187</ele>
        <time>2012-06-24T08:39:23Z</time>
      </trkpt>
      <trkpt lat="42.74074" lon="1.45526">
        <ele>1109.88</ele>
        <time>2012-06-24T08:39:29Z</time>
      </trkpt>
      <trkpt lat="42.74082" lon="1.4553">
        <ele>1111.156</ele>
        <time>2012-06-24T08:39:36Z</time>
      </trkpt>
      <trkpt lat="42.74087" lon="1.45535">
        <ele>1111.779</ele>
        <time>2012-06-24T08:39:41Z</time>
      </trkpt>
      <trkpt lat="42.74091" lon="1.45536">
        <ele>1112.998</ele>
        <time>2012-06-24T08:39:47Z</time>
      </trkpt>
      <trkpt lat="42.74094" lon="1.45541">
        <ele>1113.979</ele>
        <time>2012-06-24T08:39:52Z</time>
      </trkpt>
      <trkpt lat="42.7409" lon="1.45535">
        <ele>1115.378</ele>
        <time>2012-06-24T08:40:00Z</time>
      </trkpt>
      <trkpt lat="42.74086" lon="1.45526">
        <ele>1117.569</ele>
        <time>2012-06-24T08:40:11Z</time>
      </trkpt>
      <trkpt lat="42.74091" lon="1.45524">
        <ele>1119.983</ele>
        <time>2012-06-24T08:40:21Z</time>
      </trkpt>
      <trkpt lat="42.74098" lon="1.45524">
        <ele>1122.051</ele>
        <time>2012-06-24T08:40:29Z</time>
      </trkpt>
      <trkpt lat="42.74105" lon="1.45528">
        <ele>1122.848</ele>
        <time>2012-06-24T08:40:36Z</time>
      </trkpt>
      <trkpt lat="42.74116" lon="1.45534">
        <ele>1126.165</ele>
        <time>2012-06-24T08:40:50Z</time>
      </trkpt>
      <trkpt lat="42.74109" lon="1.45527">
        <ele>1129.506</ele>
        <time>2012-06-24T08:41:04Z</time>
      </trkpt>
      <trkpt lat="42.74108" lon="1.45517">
        <ele>1131.414</ele>
        <time>2012-06-24T08:41:13Z</time>
      </trkpt>
      <trkpt lat="42.74114" lon="1.45513">
        <ele>1133.072</ele>
        <time>2012-06-24T08:41:22Z</time>
      </trkpt>
      <trkpt lat="42.74116" lon="1.45511">
        <ele>1134.91</ele>
        <time>2012-06-24T08:41:29Z</time>
      </trkpt>
      <trkpt lat="42.74112" lon="1.45505">
        <ele>1136.638</ele>
        <time>2012-06-24T08:41:36Z</time>
      </trkpt>
      <trkpt lat="42.74124" lon="1.45513">
        <ele>1138.515</ele>
        <time>2012-06-24T08:41:48Z</time>
      </trkpt>
      <trkpt lat="42.74131" lon="1.45512">
        <ele>1139.889</ele>
        <time>2012-06-24T08:41:56Z</time>
      </trkpt>
      <trkpt lat="42.74124" lon="1.45507">
        <ele>1143.128</ele>
        <time>2012-06-24T08:42:10Z</time>
      </trkpt>
      <trkpt lat="42.74123" lon="1.45501">
        <ele>1144.427</ele>
        <time>2012-06-24T08:42:17Z</time>
      </trkpt>
      <trkpt lat="42.74129" lon="1.45495">
        <ele>1146.594</ele>
        <time>2012-06-24T08:42:25Z</time>
      </trkpt>
      <trkpt lat="42.74134" lon="1.45495">
        <ele>1147.412</ele>
        <time>2012-06-24T08:42:30Z</time>
      </trkpt>
      <trkpt lat="42.74139" lon="1.45501">
        <ele>1149.006</ele>
        <time>2012-06-24T08:42:40Z</time>
      </trkpt>
      <trkpt lat="42.74143" lon="1.45506">
        <ele>1151.359</ele>
        <time>2012-06-24T08:42:51Z</time>
      </trkpt>
      <trkpt lat="42.74148" lon="1.45506">
        <ele>1152.705</ele>
        <time>2012-06-24T08:42:57Z</time>
      </trkpt>
      <trkpt lat="42.74147" lon="1.45503">
        <ele>1154.821</ele>
        <time>2012-06-24T08:43:06Z</time>
      </trkpt>
      <trkpt lat="42.74146" lon="1.45496">
        <ele>1157.482</ele>
        <time>2012-06-24T08:43:16Z</time>
      </trkpt>
      <trkpt lat="42.74147" lon="1.45492">
        <ele>1159.564</ele>
        <time>2012-06-24T08:43:26Z</time>
      </trkpt>
      <trkpt lat="42.74155" lon="1.45495">
        <ele>1161.25</ele>
        <time>2012-06-24T08:43:34Z</time>
      </trkpt>
      <trkpt lat="42.74162" lon="1.455">
        <ele>1162.705</ele>
        <time>2012-06-24T08:43:43Z</time>
      </trkpt>
      <trkpt lat="42.74163" lon="1.45501">
        <ele>1163.191</ele>
        <time>2012-06-24T08:43:52Z</time>
      </trkpt>
      <trkpt lat="42.74163" lon="1.45509">
        <ele>1162.514</ele>
        <time>2012-06-24T08:44:16Z</time>
      </trkpt>
      <trkpt lat="42.74162" lon="1.45517">
        <ele>1161.699</ele>
        <time>2012-06-24T08:44:34Z</time>
      </trkpt>
      <trkpt lat="42.74161" lon="1.45527">
        <ele>1162.033</ele>
        <time>2012-06-24T08:44:42Z</time>
      </trkpt>
      <trkpt lat="42.74162" lon="1.45529">
        <ele>1162.183</ele>
        <time>2012-06-24T08:44:43Z</time>
      </trkpt>
      <trkpt lat="42.7416" lon="1.4554">
        <ele>1162.412</ele>
        <time>2012-06-24T08:44:51Z</time>
      </trkpt>
      <trkpt lat="42.74162" lon="1.45556">
        <ele>1162.311</ele>
        <time>2012-06-24T08:45:00Z</time>
      </trkpt>
      <trkpt lat="42.74162" lon="1.45566">
        <ele>1162.307</ele>
        <time>2012-06-24T08:45:06Z</time>
      </trkpt>
      <trkpt lat="42.74171" lon="1.4558">
        <ele>1162.079</ele>
        <time>2012-06-24T08:45:16Z</time>
      </trkpt>
      <trkpt lat="42.74178" lon="1.4559">
        <ele>1161.599</ele>
        <time>2012-06-24T08:45:23Z</time>
      </trkpt>
      <trkpt lat="42.74178" lon="1.45591">
        <ele>1161.742</ele>
        <time>2012-06-24T08:45:24Z</time>
      </trkpt>
      <trkpt lat="42.74187" lon="1.45604">
        <ele>1161.897</ele>
        <time>2012-06-24T08:45:33Z</time>
      </trkpt>
      <trkpt lat="42.74198" lon="1.45615">
        <ele>1161.569</ele>
        <time>2012-06-24T08:45:42Z</time>
      </trkpt>
      <trkpt lat="42.74203" lon="1.45618">
        <ele>1161.203</ele>
        <time>2012-06-24T08:45:46Z</time>
      </trkpt>
      <trkpt lat="42.74212" lon="1.45622">
        <ele>1161.44</ele>
        <time>2012-06-24T08:45:52Z</time>
      </trkpt>
      <trkpt lat="42.74214" lon="1.45623">
        <ele>1161.247</ele>
        <time>2012-06-24T08:45:54Z</time>
      </trkpt>
      <trkpt lat="42.74226" lon="1.4563">
        <ele>1161.253</ele>
        <time>2012-06-24T08:46:04Z</time>
      </trkpt>
      <trkpt lat="42.74232" lon="1.45633">
        <ele>1161.583</ele>
        <time>2012-06-24T08:46:10Z</time>
      </trkpt>
      <trkpt lat="42.74234" lon="1.45636">
        <ele>1161.153</ele>
        <time>2012-06-24T08:46:12Z</time>
      </trkpt>
      <trkpt lat="42.74244" lon="1.45634">
        <ele>1161.348</ele>
        <time>2012-06-24T08:46:19Z</time>
      </trkpt>
      <trkpt lat="42.74255" lon="1.45631">
        <ele>1161.975</ele>
        <time>2012-06-24T08:46:27Z</time>
      </trkpt>
      <trkpt lat="42.74264" lon="1.45632">
        <ele>1161.754</ele>
        <time>2012-06-24T08:46:34Z</time>
      </trkpt>
      <trkpt lat="42.74267" lon="1.4563">
        <ele>1161.516</ele>
        <time>2012-06-24T08:46:36Z</time>
      </trkpt>
      <trkpt lat="42.74277" lon="1.45622">
        <ele>1161.422</ele>
        <time>2012-06-24T08:46:44Z</time>
      </trkpt>
      <trkpt lat="42.74287" lon="1.45612">
        <ele>1161.581</ele>
        <time>2012-06-24T08:46:52Z</time>
      </trkpt>
      <trkpt lat="42.74294" lon="1.4561">
        <ele>1161.612</ele>
        <time>2012-06-24T08:46:59Z</time>
      </trkpt>
      <trkpt lat="42.74303" lon="1.45605">
        <ele>1161.495</ele>
        <time>2012-06-24T08:47:06Z</time>
      </trkpt>
      <trkpt lat="42.74311" lon="1.45598">
        <ele>1161.106</ele>
        <time>2012-06-24T08:47:14Z</time>
      </trkpt>
      <trkpt lat="42.7432" lon="1.45587">
        <ele>1161.142</ele>
        <time>2012-06-24T08:47:21Z</time>
      </trkpt>
      <trkpt lat="42.74326" lon="1.45579">
        <ele>1161.438</ele>
        <time>2012-06-24T08:47:28Z</time>
      </trkpt>
      <trkpt lat="42.74332" lon="1.45572">
        <ele>1160.946</ele>
        <time>2012-06-24T08:47:34Z</time>
      </trkpt>
      <trkpt lat="42.74338" lon="1.45562">
        <ele>1161.102</ele>
        <time>2012-06-24T08:47:41Z</time>
      </trkpt>
      <trkpt lat="42.74343" lon="1.45555">
        <ele>1160.971</ele>
        <time>2012-06-24T08:47:47Z</time>
      </trkpt>
      <trkpt lat="42.74348" lon="1.45546">
        <ele>1160.465</ele>
        <time>2012-06-24T08:47:54Z</time>
      </trkpt>
      <trkpt lat="42.74349" lon="1.45545">
        <ele>1160.883</ele>
        <time>2012-06-24T08:47:55Z</time>
      </trkpt>
      <trkpt lat="42.7436" lon="1.45541">
        <ele>1160.614</ele>
        <time>2012-06-24T08:48:02Z</time>
      </trkpt>
      <trkpt lat="42.74366" lon="1.45537">
        <ele>1160.514</ele>
        <time>2012-06-24T08:48:08Z</time>
      </trkpt>
      <trkpt lat="42.74379" lon="1.45531">
        <ele>1160.676</ele>
        <time>2012-06-24T08:48:16Z</time>
      </trkpt>
      <trkpt lat="42.74389" lon="1.45527">
        <ele>1161.066</ele>
        <time>2012-06-24T08:48:24Z</time>
      </trkpt>
      <trkpt lat="42.74399" lon="1.45523">
        <ele>1160.673</ele>
        <time>2012-06-24T08:48:32Z</time>
      </trkpt>
      <trkpt lat="42.74407" lon="1.45514">
        <ele>1160.895</ele>
        <time>2012-06-24T08:48:39Z</time>
      </trkpt>
      <trkpt lat="42.74415" lon="1.45506">
        <ele>1161.232</ele>
        <time>2012-06-24T08:48:47Z</time>
      </trkpt>
      <trkpt lat="42.74417" lon="1.45502">
        <ele>1160.625</ele>
        <time>2012-06-24T08:48:52Z</time>
      </trkpt>
      <trkpt lat="42.74423" lon="1.45502">
        <ele>1161.114</ele>
        <time>2012-06-24T08:49:02Z</time>
      </trkpt>
      <trkpt lat="42.74436" lon="1.45497">
        <ele>1160.854</ele>
        <time>2012-06-24T08:49:12Z</time>
      </trkpt>
      <trkpt lat="42.74443" lon="1.4549">
        <ele>1161.013</ele>
        <time>2012-06-24T08:49:18Z</time>
      </trkpt>
      <trkpt lat="42.74449" lon="1.45491">
        <ele>1161.347</ele>
        <time>2012-06-24T08:49:24Z</time>
      </trkpt>
      <trkpt lat="42.74455" lon="1.45492">
        <ele>1161.876</ele>
        <time>2012-06-24T08:49:29Z</time>
      </trkpt>
      <trkpt lat="42.74461" lon="1.45487">
        <ele>1161.166</ele>
        <time>2012-06-24T08:49:34Z</time>
      </trkpt>
      <trkpt lat="42.74469" lon="1.45482">
        <ele>1161.034</ele>
        <time>2012-06-24T08:49:42Z</time>
      </trkpt>
      <trkpt lat="42.74476" lon="1.4548">
        <ele>1161.183</ele>
        <time>2012-06-24T08:49:51Z</time>
      </trkpt>
      <trkpt lat="42.74482" lon="1.45479">
        <ele>1161.025</ele>
        <time>2012-06-24T08:49:57Z</time>
      </trkpt>
      <trkpt lat="42.74492" lon="1.45473">
        <ele>1160.582</ele>
        <time>2012-06-24T08:50:04Z</time>
      </trkpt>
      <trkpt lat="42.74504" lon="1.45473">
        <ele>1161.115</ele>
        <time>2012-06-24T08:50:12Z</time>
      </trkpt>
      <trkpt lat="42.74511" lon="1.45468">
        <ele>1160.529</ele>
        <time>2012-06-24T08:50:19Z</time>
      </trkpt>
      <trkpt lat="42.74517" lon="1.45462">
        <ele>1161.156</ele>
        <time>2012-06-24T08:50:24Z</time>
      </trkpt>
      <trkpt lat="42.74525" lon="1.45457">
        <ele>1160.6</ele>
        <time>2012-06-24T08:50:30Z</time>
      </trkpt>
      <trkpt lat="42.74535" lon="1.45456">
        <ele>1160.985</ele>
        <time>2012-06-24T08:50:37Z</time>
      </trkpt>
      <trkpt lat="42.74538" lon="1.45454">
        <ele>1160.813</ele>
        <time>2012-06-24T08:50:39Z</time>
      </trkpt>
      <trkpt lat="42.74547" lon="1.45456">
        <ele>1160.968</ele>
        <time>2012-06-24T08:50:46Z</time>
      </trkpt>
      <trkpt lat="42.74559" lon="1.4546">
        <ele>1160.642</ele>
        <time>2012-06-24T08:50:54Z</time>
      </trkpt>
      <trkpt lat="42.74568" lon="1.4546">
        <ele>1160.62</ele>
        <time>2012-06-24T08:51:01Z</time>
      </trkpt>
      <trkpt lat="42.7458" lon="1.45458">
        <ele>1160.835</ele>
        <time>2012-06-24T08:51:10Z</time>
      </trkpt>
      <trkpt lat="42.74588" lon="1.45456">
        <ele>1160.419</ele>
        <time>2012-06-24T08:51:17Z</time>
      </trkpt>
      <trkpt lat="42.74592" lon="1.45452">
        <ele>1160.612</ele>
        <time>2012-06-24T08:51:22Z</time>
      </trkpt>
      <trkpt lat="42.74596" lon="1.45444">
        <ele>1161.768</ele>
        <time>2012-06-24T08:51:30Z</time>
      </trkpt>
      <trkpt lat="42.74603" lon="1.45441">
        <ele>1161.948</ele>
        <time>2012-06-24T08:51:35Z</time>
      </trkpt>
      <trkpt lat="42.74611" lon="1.45441">
        <ele>1162.599</ele>
        <time>2012-06-24T08:51:41Z</time>
      </trkpt>
      <trkpt lat="42.74616" lon="1.45449">
        <ele>1162.784</ele>
        <time>2012-06-24T08:51:48Z</time>
      </trkpt>
      <trkpt lat="42.7462" lon="1.45453">
        <ele>1162.875</ele>
        <time>2012-06-24T08:51:54Z</time>
      </trkpt>
      <trkpt lat="42.7462" lon="1.45452">
        <ele>1162.944</ele>
        <time>2012-06-24T08:52:02Z</time>
      </trkpt>
      <trkpt lat="42.74622" lon="1.45454">
        <ele>1163.217</ele>
        <time>2012-06-24T08:52:10Z</time>
      </trkpt>
      <trkpt lat="42.74624" lon="1.45461">
        <ele>1161.267</ele>
        <time>2012-06-24T08:52:18Z</time>
      </trkpt>
      <trkpt lat="42.74629" lon="1.45478">
        <ele>1161.218</ele>
        <time>2012-06-24T08:52:27Z</time>
      </trkpt>
      <trkpt lat="42.74628" lon="1.45488">
        <ele>1161.305</ele>
        <time>2012-06-24T08:52:34Z</time>
      </trkpt>
      <trkpt lat="42.74625" lon="1.45483">
        <ele>1161.529</ele>
        <time>2012-06-24T08:52:36Z</time>
      </trkpt>
      <trkpt lat="42.74619" lon="1.45481">
        <ele>1162.014</ele>
        <time>2012-06-24T08:52:41Z</time>
      </trkpt>
      <trkpt lat="42.74615" lon="1.45491">
        <ele>1161.982</ele>
        <time>2012-06-24T08:52:44Z</time>
      </trkpt>
      <trkpt lat="42.74607" lon="1.45502">
        <ele>1161.819</ele>
        <time>2012-06-24T08:52:48Z</time>
      </trkpt>
      <trkpt lat="42.74611" lon="1.45511">
        <ele>1161.919</ele>
        <time>2012-06-24T08:52:54Z</time>
      </trkpt>
      <trkpt lat="42.74617" lon="1.45518">
        <ele>1162.021</ele>
        <time>2012-06-24T08:52:58Z</time>
      </trkpt>
      <trkpt lat="42.74623" lon="1.45524">
        <ele>1161.944</ele>
        <time>2012-06-24T08:53:02Z</time>
      </trkpt>
      <trkpt lat="42.74628" lon="1.45539">
        <ele>1161.702</ele>
        <time>2012-06-24T08:53:11Z</time>
      </trkpt>
      <trkpt lat="42.74632" lon="1.45559">
        <ele>1161.761</ele>
        <time>2012-06-24T08:53:21Z</time>
      </trkpt>
      <trkpt lat="42.74634" lon="1.4557">
        <ele>1161.909</ele>
        <time>2012-06-24T08:53:29Z</time>
      </trkpt>
      <trkpt lat="42.74641" lon="1.45584">
        <ele>1161.507</ele>
        <time>2012-06-24T08:53:39Z</time>
      </trkpt>
      <trkpt lat="42.74647" lon="1.45592">
        <ele>1160.681</ele>
        <time>2012-06-24T08:53:47Z</time>
      </trkpt>
      <trkpt lat="42.7465" lon="1.45592">
        <ele>1161.656</ele>
        <time>2012-06-24T08:53:53Z</time>
      </trkpt>
      <trkpt lat="42.7465" lon="1.45592">
        <ele>1162.425</ele>
        <time>2012-06-24T08:53:55Z</time>
      </trkpt>
      <trkpt lat="42.74646" lon="1.45587">
        <ele>1163.913</ele>
        <time>2012-06-24T08:54:03Z</time>
      </trkpt>
      <trkpt lat="42.74645" lon="1.45582">
        <ele>1164.836</ele>
        <time>2012-06-24T08:54:09Z</time>
      </trkpt>
      <trkpt lat="42.74644" lon="1.45577">
        <ele>1166.442</ele>
        <time>2012-06-24T08:54:16Z</time>
      </trkpt>
      <trkpt lat="42.74645" lon="1.45573">
        <ele>1167.717</ele>
        <time>2012-06-24T08:54:22Z</time>
      </trkpt>
      <trkpt lat="42.7465" lon="1.45576">
        <ele>1168.579</ele>
        <time>2012-06-24T08:54:27Z</time>
      </trkpt>
      <trkpt lat="42.74656" lon="1.45578">
        <ele>1169.773</ele>
        <time>2012-06-24T08:54:35Z</time>
      </trkpt>
      <trkpt lat="42.74661" lon="1.45577">
        <ele>1170.508</ele>
        <time>2012-06-24T08:54:41Z</time>
      </trkpt>
      <trkpt lat="42.74666" lon="1.45577">
        <ele>1172.244</ele>
        <time>2012-06-24T08:54:49Z</time>
      </trkpt>
      <trkpt lat="42.74665" lon="1.45572">
        <ele>1172.878</ele>
        <time>2012-06-24T08:54:55Z</time>
      </trkpt>
      <trkpt lat="42.74665" lon="1.45564">
        <ele>1173.834</ele>
        <time>2012-06-24T08:55:03Z</time>
      </trkpt>
      <trkpt lat="42.74664" lon="1.45561">
        <ele>1174.061</ele>
        <time>2012-06-24T08:55:06Z</time>
      </trkpt>
      <trkpt lat="42.74667" lon="1.45557">
        <ele>1175.83</ele>
        <time>2012-06-24T08:55:14Z</time>
      </trkpt>
      <trkpt lat="42.7467" lon="1.4556">
        <ele>1177.566</ele>
        <time>2012-06-24T08:55:20Z</time>
      </trkpt>
      <trkpt lat="42.74672" lon="1.45552">
        <ele>1179.092</ele>
        <time>2012-06-24T08:55:32Z</time>
      </trkpt>
      <trkpt lat="42.74676" lon="1.45552">
        <ele>1179.967</ele>
        <time>2012-06-24T08:55:40Z</time>
      </trkpt>
      <trkpt lat="42.74678" lon="1.45552">
        <ele>1181.204</ele>
        <time>2012-06-24T08:55:42Z</time>
      </trkpt>
      <trkpt lat="42.7468" lon="1.45547">
        <ele>1182.91</ele>
        <time>2012-06-24T08:55:53Z</time>
      </trkpt>
      <trkpt lat="42.74679" lon="1.45541">
        <ele>1183.608</ele>
        <time>2012-06-24T08:55:58Z</time>
      </trkpt>
      <trkpt lat="42.74683" lon="1.4554">
        <ele>1184.683</ele>
        <time>2012-06-24T08:56:03Z</time>
      </trkpt>
      <trkpt lat="42.74686" lon="1.45539">
        <ele>1185.031</ele>
        <time>2012-06-24T08:56:09Z</time>
      </trkpt>
      <trkpt lat="42.74692" lon="1.45539">
        <ele>1188.913</ele>
        <time>2012-06-24T08:56:21Z</time>
      </trkpt>
      <trkpt lat="42.74692" lon="1.45535">
        <ele>1188.844</ele>
        <time>2012-06-24T08:56:27Z</time>
      </trkpt>
      <trkpt lat="42.74691" lon="1.45532">
        <ele>1189.746</ele>
        <time>2012-06-24T08:56:32Z</time>
      </trkpt>
      <trkpt lat="42.74686" lon="1.45528">
        <ele>1190.27</ele>
        <time>2012-06-24T08:56:39Z</time>
      </trkpt>
      <trkpt lat="42.74684" lon="1.4552">
        <ele>1191.657</ele>
        <time>2012-06-24T08:56:46Z</time>
      </trkpt>
      <trkpt lat="42.74686" lon="1.45513">
        <ele>1192.374</ele>
        <time>2012-06-24T08:56:53Z</time>
      </trkpt>
      <trkpt lat="42.74692" lon="1.45513">
        <ele>1194.027</ele>
        <time>2012-06-24T08:57:01Z</time>
      </trkpt>
      <trkpt lat="42.74694" lon="1.45508">
        <ele>1195.822</ele>
        <time>2012-06-24T08:57:09Z</time>
      </trkpt>
      <trkpt lat="42.74692" lon="1.45502">
        <ele>1196.778</ele>
        <time>2012-06-24T08:57:17Z</time>
      </trkpt>
      <trkpt lat="42.74696" lon="1.45502">
        <ele>1198.208</ele>
        <time>2012-06-24T08:57:22Z</time>
      </trkpt>
      <trkpt lat="42.74702" lon="1.45502">
        <ele>1198.823</ele>
        <time>2012-06-24T08:57:29Z</time>
      </trkpt>
      <trkpt lat="42.74711" lon="1.45497">
        <ele>1200.988</ele>
        <time>2012-06-24T08:57:42Z</time>
      </trkpt>
      <trkpt lat="42.74712" lon="1.45491">
        <ele>1202.082</ele>
        <time>2012-06-24T08:57:49Z</time>
      </trkpt>
      <trkpt lat="42.74711" lon="1.45483">
        <ele>1204.198</ele>
        <time>2012-06-24T08:57:59Z</time>
      </trkpt>
      <trkpt lat="42.74712" lon="1.4548">
        <ele>1206.569</ele>
        <time>2012-06-24T08:58:12Z</time>
      </trkpt>
      <trkpt lat="42.74717" lon="1.45479">
        <ele>1208.644</ele>
        <time>2012-06-24T08:58:17Z</time>
      </trkpt>
      <trkpt lat="42.74724" lon="1.45475">
        <ele>1209.199</ele>
        <time>2012-06-24T08:58:23Z</time>
      </trkpt>
      <trkpt lat="42.74729" lon="1.45477">
        <ele>1211.116</ele>
        <time>2012-06-24T08:58:30Z</time>
      </trkpt>
      <trkpt lat="42.74733" lon="1.45479">
        <ele>1212.154</ele>
        <time>2012-06-24T08:58:36Z</time>
      </trkpt>
      <trkpt lat="42.74732" lon="1.45478">
        <ele>1214.608</ele>
        <time>2012-06-24T08:58:50Z</time>
      </trkpt>
      <trkpt lat="42.74731" lon="1.45476">
        <ele>1215.242</ele>
        <time>2012-06-24T08:58:52Z</time>
      </trkpt>
      <trkpt lat="42.74729" lon="1.45476">
        <ele>1216.01</ele>
        <time>2012-06-24T08:58:54Z</time>
      </trkpt>
      <trkpt lat="42.74726" lon="1.45468">
        <ele>1216.622</ele>
        <time>2012-06-24T08:59:01Z</time>
      </trkpt>
      <trkpt lat="42.74727" lon="1.4546">
        <ele>1217.997</ele>
        <time>2012-06-24T08:59:07Z</time>
      </trkpt>
      <trkpt lat="42.74728" lon="1.45457">
        <ele>1218.262</ele>
        <time>2012-06-24T08:59:10Z</time>
      </trkpt>
      <trkpt lat="42.74727" lon="1.45455">
        <ele>1219.168</ele>
        <time>2012-06-24T08:59:12Z</time>
      </trkpt>
      <trkpt lat="42.74728" lon="1.45448">
        <ele>1220.327</ele>
        <time>2012-06-24T08:59:18Z</time>
      </trkpt>
      <trkpt lat="42.74729" lon="1.45442">
        <ele>1221.816</ele>
        <time>2012-06-24T08:59:24Z</time>
      </trkpt>
      <trkpt lat="42.7473" lon="1.45437">
        <ele>1222.423</ele>
        <time>2012-06-24T08:59:29Z</time>
      </trkpt>
      <trkpt lat="42.74731" lon="1.45431">
        <ele>1223.496</ele>
        <time>2012-06-24T08:59:35Z</time>
      </trkpt>
      <trkpt lat="42.74731" lon="1.45418">
        <ele>1225.151</ele>
        <time>2012-06-24T08:59:43Z</time>
      </trkpt>
      <trkpt lat="42.74734" lon="1.4541">
        <ele>1226.361</ele>
        <time>2012-06-24T08:59:49Z</time>
      </trkpt>
      <trkpt lat="42.74742" lon="1.45413">
        <ele>1227.633</ele>
        <time>2012-06-24T08:59:56Z</time>
      </trkpt>
      <trkpt lat="42.74749" lon="1.45418">
        <ele>1228.842</ele>
        <time>2012-06-24T09:00:04Z</time>
      </trkpt>
      <trkpt lat="42.74754" lon="1.45419">
        <ele>1229.502</ele>
        <time>2012-06-24T09:00:12Z</time>
      </trkpt>
      <trkpt lat="42.74754" lon="1.45416">
        <ele>1231.265</ele>
        <time>2012-06-24T09:00:19Z</time>
      </trkpt>
      <trkpt lat="42.74754" lon="1.45413">
        <ele>1232.928</ele>
        <time>2012-06-24T09:00:25Z</time>
      </trkpt>
      <trkpt lat="42.74761" lon="1.45414">
        <ele>1234.069</ele>
        <time>2012-06-24T09:00:32Z</time>
      </trkpt>
      <trkpt lat="42.74764" lon="1.45418">
        <ele>1235.128</ele>
        <time>2012-06-24T09:00:38Z</time>
      </trkpt>
      <trkpt lat="42.74768" lon="1.45417">
        <ele>1236.177</ele>
        <time>2012-06-24T09:00:44Z</time>
      </trkpt>
      <trkpt lat="42.74768" lon="1.45411">
        <ele>1237.824</ele>
        <time>2012-06-24T09:00:52Z</time>
      </trkpt>
      <trkpt lat="42.74771" lon="1.45405">
        <ele>1238.955</ele>
        <time>2012-06-24T09:01:00Z</time>
      </trkpt>
      <trkpt lat="42.74777" lon="1.45404">
        <ele>1240.455</ele>
        <time>2012-06-24T09:01:06Z</time>
      </trkpt>
      <trkpt lat="42.74781" lon="1.4541">
        <ele>1241.493</ele>
        <time>2012-06-24T09:01:13Z</time>
      </trkpt>
      <trkpt lat="42.74784" lon="1.45409">
        <ele>1241.918</ele>
        <time>2012-06-24T09:01:19Z</time>
      </trkpt>
      <trkpt lat="42.74787" lon="1.45405">
        <ele>1243.278</ele>
        <time>2012-06-24T09:01:24Z</time>
      </trkpt>
      <trkpt lat="42.74794" lon="1.45408">
        <ele>1244.796</ele>
        <time>2012-06-24T09:01:30Z</time>
      </trkpt>
      <trkpt lat="42.74795" lon="1.454">
        <ele>1246.03</ele>
        <time>2012-06-24T09:01:43Z</time>
      </trkpt>
      <trkpt lat="42.74797" lon="1.45402">
        <ele>1247.584</ele>
        <time>2012-06-24T09:01:50Z</time>
      </trkpt>
      <trkpt lat="42.74796" lon="1.45395">
        <ele>1250.122</ele>
        <time>2012-06-24T09:02:00Z</time>
      </trkpt>
      <trkpt lat="42.74798" lon="1.45395">
        <ele>1253.197</ele>
        <time>2012-06-24T09:02:16Z</time>
      </trkpt>
      <trkpt lat="42.74806" lon="1.45398">
        <ele>1254.823</ele>
        <time>2012-06-24T09:02:23Z</time>
      </trkpt>
      <trkpt lat="42.74811" lon="1.454">
        <ele>1255.488</ele>
        <time>2012-06-24T09:02:28Z</time>
      </trkpt>
      <trkpt lat="42.7481" lon="1.45395">
        <ele>1257.857</ele>
        <time>2012-06-24T09:02:40Z</time>
      </trkpt>
      <trkpt lat="42.74807" lon="1.4539">
        <ele>1259.861</ele>
        <time>2012-06-24T09:02:48Z</time>
      </trkpt>
      <trkpt lat="42.74808" lon="1.45384">
        <ele>1261.367</ele>
        <time>2012-06-24T09:02:56Z</time>
      </trkpt>
      <trkpt lat="42.74807" lon="1.45379">
        <ele>1263.261</ele>
        <time>2012-06-24T09:03:05Z</time>
      </trkpt>
      <trkpt lat="42.74804" lon="1.45373">
        <ele>1265.619</ele>
        <time>2012-06-24T09:03:19Z</time>
      </trkpt>
      <trkpt lat="42.74804" lon="1.45364">
        <ele>1267.194</ele>
        <time>2012-06-24T09:03:27Z</time>
      </trkpt>
      <trkpt lat="42.74804" lon="1.45355">
        <ele>1269.828</ele>
        <time>2012-06-24T09:03:36Z</time>
      </trkpt>
      <trkpt lat="42.74805" lon="1.45348">
        <ele>1271.21</ele>
        <time>2012-06-24T09:03:43Z</time>
      </trkpt>
      <trkpt lat="42.74804" lon="1.45344">
        <ele>1272.437</ele>
        <time>2012-06-24T09:03:48Z</time>
      </trkpt>
      <trkpt lat="42.74804" lon="1.45336">
        <ele>1272.615</ele>
        <time>2012-06-24T09:03:54Z</time>
      </trkpt>
      <trkpt lat="42.74802" lon="1.45335">
        <ele>1273.169</ele>
        <time>2012-06-24T09:03:59Z</time>
      </trkpt>
      <trkpt lat="42.74802" lon="1.45329">
        <ele>1273.963</ele>
        <time>2012-06-24T09:04:03Z</time>
      </trkpt>
      <trkpt lat="42.74805" lon="1.45314">
        <ele>1276.294</ele>
        <time>2012-06-24T09:04:13Z</time>
      </trkpt>
      <trkpt lat="42.74807" lon="1.45305">
        <ele>1277.294</ele>
        <time>2012-06-24T09:04:20Z</time>
      </trkpt>
      <trkpt lat="42.74807" lon="1.45298">
        <ele>1278.259</ele>
        <time>2012-06-24T09:04:27Z</time>
      </trkpt>
      <trkpt lat="42.74806" lon="1.45289">
        <ele>1278.679</ele>
        <time>2012-06-24T09:04:34Z</time>
      </trkpt>
      <trkpt lat="42.74806" lon="1.4528">
        <ele>1279.476</ele>
        <time>2012-06-24T09:04:41Z</time>
      </trkpt>
      <trkpt lat="42.74808" lon="1.45272">
        <ele>1281.057</ele>
        <time>2012-06-24T09:04:48Z</time>
      </trkpt>
      <trkpt lat="42.7481" lon="1.45265">
        <ele>1282.045</ele>
        <time>2012-06-24T09:04:55Z</time>
      </trkpt>
      <trkpt lat="42.74813" lon="1.45262">
        <ele>1282.987</ele>
        <time>2012-06-24T09:05:01Z</time>
      </trkpt>
      <trkpt lat="42.74815" lon="1.45258">
        <ele>1284.84</ele>
        <time>2012-06-24T09:05:08Z</time>
      </trkpt>
      <trkpt lat="42.74816" lon="1.45258">
        <ele>1284.948</ele>
        <time>2012-06-24T09:05:10Z</time>
      </trkpt>
      <trkpt lat="42.74819" lon="1.45268">
        <ele>1286.319</ele>
        <time>2012-06-24T09:05:18Z</time>
      </trkpt>
      <trkpt lat="42.74821" lon="1.45276">
        <ele>1287.062</ele>
        <time>2012-06-24T09:05:25Z</time>
      </trkpt>
      <trkpt lat="42.74822" lon="1.45275">
        <ele>1288.042</ele>
        <time>2012-06-24T09:05:31Z</time>
      </trkpt>
      <trkpt lat="42.74826" lon="1.45275">
        <ele>1290.376</ele>
        <time>2012-06-24T09:05:41Z</time>
      </trkpt>
      <trkpt lat="42.74827" lon="1.45283">
        <ele>1290.892</ele>
        <time>2012-06-24T09:05:49Z</time>
      </trkpt>
      <trkpt lat="42.74828" lon="1.45289">
        <ele>1293.012</ele>
        <time>2012-06-24T09:05:58Z</time>
      </trkpt>
      <trkpt lat="42.7483" lon="1.45289">
        <ele>1293.59</ele>
        <time>2012-06-24T09:06:04Z</time>
      </trkpt>
      <trkpt lat="42.74833" lon="1.45288">
        <ele>1295.162</ele>
        <time>2012-06-24T09:06:11Z</time>
      </trkpt>
      <trkpt lat="42.74838" lon="1.45289">
        <ele>1296.891</ele>
        <time>2012-06-24T09:06:21Z</time>
      </trkpt>
      <trkpt lat="42.74839" lon="1.45293">
        <ele>1297.906</ele>
        <time>2012-06-24T09:06:27Z</time>
      </trkpt>
      <trkpt lat="42.74845" lon="1.45296">
        <ele>1298.743</ele>
        <time>2012-06-24T09:06:35Z</time>
      </trkpt>
      <trkpt lat="42.74849" lon="1.453">
        <ele>1300.159</ele>
        <time>2012-06-24T09:06:42Z</time>
      </trkpt>
      <trkpt lat="42.74853" lon="1.45303">
        <ele>1301.761</ele>
        <time>2012-06-24T09:06:50Z</time>
      </trkpt>
      <trkpt lat="42.74856" lon="1.45309">
        <ele>1302.314</ele>
        <time>2012-06-24T09:06:58Z</time>
      </trkpt>
      <trkpt lat="42.74859" lon="1.45312">
        <ele>1303.934</ele>
        <time>2012-06-24T09:07:04Z</time>
      </trkpt>
      <trkpt lat="42.74862" lon="1.45315">
        <ele>1304.988</ele>
        <time>2012-06-24T09:07:11Z</time>
      </trkpt>
      <trkpt lat="42.74863" lon="1.4531">
        <ele>1306.598</ele>
        <time>2012-06-24T09:07:18Z</time>
      </trkpt>
      <trkpt lat="42.74867" lon="1.45304">
        <ele>1308.818</ele>
        <time>2012-06-24T09:07:35Z</time>
      </trkpt>
      <trkpt lat="42.74871" lon="1.45294">
        <ele>1311.426</ele>
        <time>2012-06-24T09:07:46Z</time>
      </trkpt>
      <trkpt lat="42.74872" lon="1.45287">
        <ele>1312.419</ele>
        <time>2012-06-24T09:07:55Z</time>
      </trkpt>
      <trkpt lat="42.74872" lon="1.45284">
        <ele>1313.674</ele>
        <time>2012-06-24T09:08:02Z</time>
      </trkpt>
      <trkpt lat="42.74874" lon="1.45275">
        <ele>1315.149</ele>
        <time>2012-06-24T09:08:10Z</time>
      </trkpt>
      <trkpt lat="42.74876" lon="1.45265">
        <ele>1316.674</ele>
        <time>2012-06-24T09:08:19Z</time>
      </trkpt>
      <trkpt lat="42.74877" lon="1.45259">
        <ele>1316.857</ele>
        <time>2012-06-24T09:08:25Z</time>
      </trkpt>
      <trkpt lat="42.74878" lon="1.4526">
        <ele>1317.571</ele>
        <time>2012-06-24T09:08:27Z</time>
      </trkpt>
      <trkpt lat="42.74885" lon="1.45261">
        <ele>1318.996</ele>
        <time>2012-06-24T09:08:34Z</time>
      </trkpt>
      <trkpt lat="42.74889" lon="1.45263">
        <ele>1320.244</ele>
        <time>2012-06-24T09:08:42Z</time>
      </trkpt>
      <trkpt lat="42.74893" lon="1.45264">
        <ele>1321.34</ele>
        <time>2012-06-24T09:08:48Z</time>
      </trkpt>
      <trkpt lat="42.74897" lon="1.45264">
        <ele>1322.056</ele>
        <time>2012-06-24T09:08:55Z</time>
      </trkpt>
      <trkpt lat="42.74897" lon="1.4526">
        <ele>1323.489</ele>
        <time>2012-06-24T09:09:01Z</time>
      </trkpt>
      <trkpt lat="42.74897" lon="1.45254">
        <ele>1324.979</ele>
        <time>2012-06-24T09:09:11Z</time>
      </trkpt>
      <trkpt lat="42.74898" lon="1.45247">
        <ele>1326.91</ele>
        <time>2012-06-24T09:09:19Z</time>
      </trkpt>
      <trkpt lat="42.74896" lon="1.45242">
        <ele>1328.074</ele>
        <time>2012-06-24T09:09:26Z</time>
      </trkpt>
      <trkpt lat="42.74895" lon="1.45236">
        <ele>1328.9</ele>
        <time>2012-06-24T09:09:34Z</time>
      </trkpt>
      <trkpt lat="42.74895" lon="1.45227">
        <ele>1330.75</ele>
        <time>2012-06-24T09:09:43Z</time>
      </trkpt>
      <trkpt lat="42.74895" lon="1.45224">
        <ele>1331.818</ele>
        <time>2012-06-24T09:09:49Z</time>
      </trkpt>
      <trkpt lat="42.74896" lon="1.45218">
        <ele>1332.558</ele>
        <time>2012-06-24T09:09:56Z</time>
      </trkpt>
      <trkpt lat="42.74898" lon="1.45211">
        <ele>1333.971</ele>
        <time>2012-06-24T09:10:05Z</time>
      </trkpt>
      <trkpt lat="42.749" lon="1.45196">
        <ele>1335.588</ele>
        <time>2012-06-24T09:10:16Z</time>
      </trkpt>
      <trkpt lat="42.74905" lon="1.45191">
        <ele>1337.115</ele>
        <time>2012-06-24T09:10:25Z</time>
      </trkpt>
      <trkpt lat="42.74909" lon="1.45197">
        <ele>1338.542</ele>
        <time>2012-06-24T09:10:33Z</time>
      </trkpt>
      <trkpt lat="42.74913" lon="1.45204">
        <ele>1339.696</ele>
        <time>2012-06-24T09:10:42Z</time>
      </trkpt>
      <trkpt lat="42.74919" lon="1.45207">
        <ele>1341.212</ele>
        <time>2012-06-24T09:10:50Z</time>
      </trkpt>
      <trkpt lat="42.74923" lon="1.4521">
        <ele>1342.586</ele>
        <time>2012-06-24T09:10:56Z</time>
      </trkpt>
      <trkpt lat="42.74926" lon="1.45205">
        <ele>1343.462</ele>
        <time>2012-06-24T09:11:04Z</time>
      </trkpt>
      <trkpt lat="42.74927" lon="1.45201">
        <ele>1345.397</ele>
        <time>2012-06-24T09:11:11Z</time>
      </trkpt>
      <trkpt lat="42.7493" lon="1.45197">
        <ele>1346.731</ele>
        <time>2012-06-24T09:11:18Z</time>
      </trkpt>
      <trkpt lat="42.7493" lon="1.45192">
        <ele>1347.829</ele>
        <time>2012-06-24T09:11:26Z</time>
      </trkpt>
      <trkpt lat="42.74932" lon="1.45185">
        <ele>1348.991</ele>
        <time>2012-06-24T09:11:35Z</time>
      </trkpt>
      <trkpt lat="42.74934" lon="1.45179">
        <ele>1350.461</ele>
        <time>2012-06-24T09:11:43Z</time>
      </trkpt>
      <trkpt lat="42.74942" lon="1.4518">
        <ele>1352.413</ele>
        <time>2012-06-24T09:11:52Z</time>
      </trkpt>
      <trkpt lat="42.74943" lon="1.45174">
        <ele>1353.589</ele>
        <time>2012-06-24T09:11:59Z</time>
      </trkpt>
      <trkpt lat="42.74941" lon="1.45167">
        <ele>1353.872</ele>
        <time>2012-06-24T09:12:08Z</time>
      </trkpt>
      <trkpt lat="42.7494" lon="1.45166">
        <ele>1357.498</ele>
        <time>2012-06-24T09:13:02Z</time>
      </trkpt>
      <trkpt lat="42.7494" lon="1.45166">
        <ele>1352.135</ele>
        <time>2012-06-24T09:13:03Z</time>
      </trkpt>
      <trkpt lat="42.7494" lon="1.45166">
        <ele>1358.282</ele>
        <time>2012-06-24T09:13:06Z</time>
      </trkpt>
      <trkpt lat="42.7494" lon="1.45166">
        <ele>1353.682</ele>
        <time>2012-06-24T09:13:09Z</time>
      </trkpt>
      <trkpt lat="42.7494" lon="1.45166">
        <ele>1353.685</ele>
        <time>2012-06-24T09:13:10Z</time>
      </trkpt>
      <trkpt lat="42.7494" lon="1.45166">
        <ele>1355.15</ele>
        <time>2012-06-24T09:13:12Z</time>
      </trkpt>
      <trkpt lat="42.74939" lon="1.45166">
        <ele>1354.565</ele>
        <time>2012-06-24T09:13:29Z</time>
      </trkpt>
      <trkpt lat="42.74938" lon="1.45163">
        <ele>1354.498</ele>
        <time>2012-06-24T09:13:31Z</time>
      </trkpt>
      <trkpt lat="42.74937" lon="1.45152">
        <ele>1355.282</ele>
        <time>2012-06-24T09:13:39Z</time>
      </trkpt>
      <trkpt lat="42.74939" lon="1.45142">
        <ele>1357.108</ele>
        <time>2012-06-24T09:13:48Z</time>
      </trkpt>
      <trkpt lat="42.74942" lon="1.45135">
        <ele>1358.649</ele>
        <time>2012-06-24T09:13:56Z</time>
      </trkpt>
      <trkpt lat="42.74947" lon="1.45126">
        <ele>1359.928</ele>
        <time>2012-06-24T09:14:05Z</time>
      </trkpt>
      <trkpt lat="42.74951" lon="1.45121">
        <ele>1361.19</ele>
        <time>2012-06-24T09:14:13Z</time>
      </trkpt>
      <trkpt lat="42.74954" lon="1.45116">
        <ele>1363.255</ele>
        <time>2012-06-24T09:14:20Z</time>
      </trkpt>
      <trkpt lat="42.74957" lon="1.45111">
        <ele>1364.715</ele>
        <time>2012-06-24T09:14:27Z</time>
      </trkpt>
      <trkpt lat="42.74958" lon="1.45111">
        <ele>1364.899</ele>
        <time>2012-06-24T09:14:28Z</time>
      </trkpt>
      <trkpt lat="42.74963" lon="1.45114">
        <ele>1366.133</ele>
        <time>2012-06-24T09:14:35Z</time>
      </trkpt>
      <trkpt lat="42.74966" lon="1.45118">
        <ele>1367.113</ele>
        <time>2012-06-24T09:14:40Z</time>
      </trkpt>
      <trkpt lat="42.74966" lon="1.45115">
        <ele>1368.466</ele>
        <time>2012-06-24T09:14:48Z</time>
      </trkpt>
      <trkpt lat="42.74969" lon="1.45119">
        <ele>1369.133</ele>
        <time>2012-06-24T09:14:54Z</time>
      </trkpt>
      <trkpt lat="42.7497" lon="1.45115">
        <ele>1370.524</ele>
        <time>2012-06-24T09:15:00Z</time>
      </trkpt>
      <trkpt lat="42.74973" lon="1.45107">
        <ele>1373.018</ele>
        <time>2012-06-24T09:15:10Z</time>
      </trkpt>
      <trkpt lat="42.74976" lon="1.45101">
        <ele>1374.122</ele>
        <time>2012-06-24T09:15:18Z</time>
      </trkpt>
      <trkpt lat="42.74978" lon="1.45105">
        <ele>1375.516</ele>
        <time>2012-06-24T09:15:24Z</time>
      </trkpt>
      <trkpt lat="42.7498" lon="1.45119">
        <ele>1376.146</ele>
        <time>2012-06-24T09:15:33Z</time>
      </trkpt>
      <trkpt lat="42.74979" lon="1.45122">
        <ele>1376.972</ele>
        <time>2012-06-24T09:15:35Z</time>
      </trkpt>
      <trkpt lat="42.74979" lon="1.45126">
        <ele>1377.605</ele>
        <time>2012-06-24T09:15:40Z</time>
      </trkpt>
      <trkpt lat="42.74983" lon="1.45132">
        <ele>1378.428</ele>
        <time>2012-06-24T09:15:47Z</time>
      </trkpt>
      <trkpt lat="42.74986" lon="1.45138">
        <ele>1380.535</ele>
        <time>2012-06-24T09:15:55Z</time>
      </trkpt>
      <trkpt lat="42.74988" lon="1.45137">
        <ele>1381.172</ele>
        <time>2012-06-24T09:16:02Z</time>
      </trkpt>
      <trkpt lat="42.74989" lon="1.45133">
        <ele>1382.248</ele>
        <time>2012-06-24T09:16:08Z</time>
      </trkpt>
      <trkpt lat="42.7499" lon="1.45128">
        <ele>1384.033</ele>
        <time>2012-06-24T09:16:15Z</time>
      </trkpt>
      <trkpt lat="42.74993" lon="1.45132">
        <ele>1385.188</ele>
        <time>2012-06-24T09:16:22Z</time>
      </trkpt>
      <trkpt lat="42.74995" lon="1.45134">
        <ele>1386.468</ele>
        <time>2012-06-24T09:16:28Z</time>
      </trkpt>
      <trkpt lat="42.74999" lon="1.45135">
        <ele>1387.64</ele>
        <time>2012-06-24T09:16:34Z</time>
      </trkpt>
      <trkpt lat="42.75" lon="1.45131">
        <ele>1388.323</ele>
        <time>2012-06-24T09:16:39Z</time>
      </trkpt>
      <trkpt lat="42.75002" lon="1.45123">
        <ele>1389.469</ele>
        <time>2012-06-24T09:16:47Z</time>
      </trkpt>
      <trkpt lat="42.75003" lon="1.45118">
        <ele>1391.497</ele>
        <time>2012-06-24T09:16:56Z</time>
      </trkpt>
      <trkpt lat="42.75006" lon="1.45115">
        <ele>1392.344</ele>
        <time>2012-06-24T09:17:03Z</time>
      </trkpt>
      <trkpt lat="42.75008" lon="1.45119">
        <ele>1393.201</ele>
        <time>2012-06-24T09:17:09Z</time>
      </trkpt>
      <trkpt lat="42.75012" lon="1.45122">
        <ele>1394.705</ele>
        <time>2012-06-24T09:17:16Z</time>
      </trkpt>
      <trkpt lat="42.75013" lon="1.45122">
        <ele>1395.377</ele>
        <time>2012-06-24T09:17:18Z</time>
      </trkpt>
      <trkpt lat="42.75015" lon="1.45118">
        <ele>1396.365</ele>
        <time>2012-06-24T09:17:24Z</time>
      </trkpt>
      <trkpt lat="42.7502" lon="1.45111">
        <ele>1399.138</ele>
        <time>2012-06-24T09:17:38Z</time>
      </trkpt>
      <trkpt lat="42.75027" lon="1.45106">
        <ele>1402.721</ele>
        <time>2012-06-24T09:17:55Z</time>
      </trkpt>
      <trkpt lat="42.75028" lon="1.45109">
        <ele>1402.729</ele>
        <time>2012-06-24T09:17:57Z</time>
      </trkpt>
      <trkpt lat="42.75033" lon="1.45116">
        <ele>1403.459</ele>
        <time>2012-06-24T09:18:05Z</time>
      </trkpt>
      <trkpt lat="42.75036" lon="1.45122">
        <ele>1405.473</ele>
        <time>2012-06-24T09:18:12Z</time>
      </trkpt>
      <trkpt lat="42.75036" lon="1.45127">
        <ele>1406.524</ele>
        <time>2012-06-24T09:18:18Z</time>
      </trkpt>
      <trkpt lat="42.75036" lon="1.45129">
        <ele>1409.565</ele>
        <time>2012-06-24T09:18:34Z</time>
      </trkpt>
      <trkpt lat="42.75043" lon="1.45111">
        <ele>1412.933</ele>
        <time>2012-06-24T09:18:55Z</time>
      </trkpt>
      <trkpt lat="42.75047" lon="1.45102">
        <ele>1415.255</ele>
        <time>2012-06-24T09:19:08Z</time>
      </trkpt>
      <trkpt lat="42.75051" lon="1.45098">
        <ele>1416.821</ele>
        <time>2012-06-24T09:19:15Z</time>
      </trkpt>
      <trkpt lat="42.75056" lon="1.45092">
        <ele>1418.797</ele>
        <time>2012-06-24T09:19:29Z</time>
      </trkpt>
      <trkpt lat="42.75058" lon="1.45105">
        <ele>1420.843</ele>
        <time>2012-06-24T09:19:41Z</time>
      </trkpt>
      <trkpt lat="42.7506" lon="1.45106">
        <ele>1421.935</ele>
        <time>2012-06-24T09:19:49Z</time>
      </trkpt>
      <trkpt lat="42.75062" lon="1.45102">
        <ele>1423.432</ele>
        <time>2012-06-24T09:19:55Z</time>
      </trkpt>
      <trkpt lat="42.75064" lon="1.45116">
        <ele>1426.313</ele>
        <time>2012-06-24T09:20:10Z</time>
      </trkpt>
      <trkpt lat="42.75063" lon="1.45135">
        <ele>1429.678</ele>
        <time>2012-06-24T09:20:30Z</time>
      </trkpt>
      <trkpt lat="42.75065" lon="1.45141">
        <ele>1429.964</ele>
        <time>2012-06-24T09:20:36Z</time>
      </trkpt>
      <trkpt lat="42.75067" lon="1.45149">
        <ele>1433.013</ele>
        <time>2012-06-24T09:20:45Z</time>
      </trkpt>
      <trkpt lat="42.75068" lon="1.45153">
        <ele>1433.973</ele>
        <time>2012-06-24T09:20:50Z</time>
      </trkpt>
      <trkpt lat="42.75068" lon="1.45152">
        <ele>1435.319</ele>
        <time>2012-06-24T09:20:59Z</time>
      </trkpt>
      <trkpt lat="42.75071" lon="1.45135">
        <ele>1437.671</ele>
        <time>2012-06-24T09:21:13Z</time>
      </trkpt>
      <trkpt lat="42.75073" lon="1.45141">
        <ele>1439.303</ele>
        <time>2012-06-24T09:21:23Z</time>
      </trkpt>
      <trkpt lat="42.75074" lon="1.45146">
        <ele>1440.462</ele>
        <time>2012-06-24T09:21:28Z</time>
      </trkpt>
      <trkpt lat="42.7508" lon="1.45136">
        <ele>1443.177</ele>
        <time>2012-06-24T09:21:45Z</time>
      </trkpt>
      <trkpt lat="42.75084" lon="1.45129">
        <ele>1446.259</ele>
        <time>2012-06-24T09:21:57Z</time>
      </trkpt>
      <trkpt lat="42.75086" lon="1.45124">
        <ele>1446.953</ele>
        <time>2012-06-24T09:22:04Z</time>
      </trkpt>
      <trkpt lat="42.75089" lon="1.45118">
        <ele>1448.006</ele>
        <time>2012-06-24T09:22:12Z</time>
      </trkpt>
      <trkpt lat="42.75095" lon="1.45107">
        <ele>1450.385</ele>
        <time>2012-06-24T09:22:25Z</time>
      </trkpt>
      <trkpt lat="42.75103" lon="1.45096">
        <ele>1453.436</ele>
        <time>2012-06-24T09:22:42Z</time>
      </trkpt>
      <trkpt lat="42.75107" lon="1.45092">
        <ele>1455.32</ele>
        <time>2012-06-24T09:22:48Z</time>
      </trkpt>
      <trkpt lat="42.7511" lon="1.45089">
        <ele>1456.31</ele>
        <time>2012-06-24T09:22:55Z</time>
      </trkpt>
      <trkpt lat="42.75109" lon="1.45097">
        <ele>1457.27</ele>
        <time>2012-06-24T09:23:03Z</time>
      </trkpt>
      <trkpt lat="42.75111" lon="1.45109">
        <ele>1459.254</ele>
        <time>2012-06-24T09:23:15Z</time>
      </trkpt>
      <trkpt lat="42.75114" lon="1.45105">
        <ele>1461.247</ele>
        <time>2012-06-24T09:23:25Z</time>
      </trkpt>
      <trkpt lat="42.75116" lon="1.451">
        <ele>1461.914</ele>
        <time>2012-06-24T09:23:32Z</time>
      </trkpt>
      <trkpt lat="42.75117" lon="1.45095">
        <ele>1462.856</ele>
        <time>2012-06-24T09:23:38Z</time>
      </trkpt>
      <trkpt lat="42.7512" lon="1.45091">
        <ele>1463.676</ele>
        <time>2012-06-24T09:23:47Z</time>
      </trkpt>
      <trkpt lat="42.7512" lon="1.45096">
        <ele>1465.187</ele>
        <time>2012-06-24T09:23:54Z</time>
      </trkpt>
      <trkpt lat="42.75123" lon="1.45093">
        <ele>1466.932</ele>
        <time>2012-06-24T09:24:04Z</time>
      </trkpt>
      <trkpt lat="42.75125" lon="1.45084">
        <ele>1468.414</ele>
        <time>2012-06-24T09:24:13Z</time>
      </trkpt>
      <trkpt lat="42.75127" lon="1.45077">
        <ele>1469.501</ele>
        <time>2012-06-24T09:24:21Z</time>
      </trkpt>
      <trkpt lat="42.7513" lon="1.45072">
        <ele>1471.752</ele>
        <time>2012-06-24T09:24:30Z</time>
      </trkpt>
      <trkpt lat="42.75131" lon="1.4507">
        <ele>1472.207</ele>
        <time>2012-06-24T09:24:33Z</time>
      </trkpt>
      <trkpt lat="42.75133" lon="1.45065">
        <ele>1473.353</ele>
        <time>2012-06-24T09:24:39Z</time>
      </trkpt>
      <trkpt lat="42.75136" lon="1.45062">
        <ele>1474.753</ele>
        <time>2012-06-24T09:24:44Z</time>
      </trkpt>
      <trkpt lat="42.75139" lon="1.45056">
        <ele>1476.221</ele>
        <time>2012-06-24T09:24:51Z</time>
      </trkpt>
      <trkpt lat="42.75141" lon="1.45052">
        <ele>1476.576</ele>
        <time>2012-06-24T09:24:58Z</time>
      </trkpt>
      <trkpt lat="42.75144" lon="1.45047">
        <ele>1477.93</ele>
        <time>2012-06-24T09:25:04Z</time>
      </trkpt>
      <trkpt lat="42.75152" lon="1.45037">
        <ele>1479.032</ele>
        <time>2012-06-24T09:25:15Z</time>
      </trkpt>
      <trkpt lat="42.75155" lon="1.45033">
        <ele>1479.422</ele>
        <time>2012-06-24T09:25:21Z</time>
      </trkpt>
      <trkpt lat="42.7516" lon="1.45026">
        <ele>1480.81</ele>
        <time>2012-06-24T09:25:32Z</time>
      </trkpt>
      <trkpt lat="42.75163" lon="1.4502">
        <ele>1482.549</ele>
        <time>2012-06-24T09:25:40Z</time>
      </trkpt>
      <trkpt lat="42.75169" lon="1.45012">
        <ele>1484.378</ele>
        <time>2012-06-24T09:25:53Z</time>
      </trkpt>
      <trkpt lat="42.75171" lon="1.45005">
        <ele>1485.891</ele>
        <time>2012-06-24T09:26:00Z</time>
      </trkpt>
      <trkpt lat="42.75176" lon="1.45001">
        <ele>1488.338</ele>
        <time>2012-06-24T09:26:12Z</time>
      </trkpt>
      <trkpt lat="42.75183" lon="1.44998">
        <ele>1490.75</ele>
        <time>2012-06-24T09:26:25Z</time>
      </trkpt>
      <trkpt lat="42.75189" lon="1.45007">
        <ele>1492.53</ele>
        <time>2012-06-24T09:26:33Z</time>
      </trkpt>
      <trkpt lat="42.75191" lon="1.45017">
        <ele>1493.772</ele>
        <time>2012-06-24T09:26:43Z</time>
      </trkpt>
      <trkpt lat="42.75193" lon="1.45017">
        <ele>1496.734</ele>
        <time>2012-06-24T09:27:00Z</time>
      </trkpt>
      <trkpt lat="42.75197" lon="1.45012">
        <ele>1497.612</ele>
        <time>2012-06-24T09:27:07Z</time>
      </trkpt>
      <trkpt lat="42.75199" lon="1.4501">
        <ele>1498.581</ele>
        <time>2012-06-24T09:27:12Z</time>
      </trkpt>
      <trkpt lat="42.75203" lon="1.45008">
        <ele>1500.094</ele>
        <time>2012-06-24T09:27:19Z</time>
      </trkpt>
      <trkpt lat="42.75206" lon="1.44999">
        <ele>1501.156</ele>
        <time>2012-06-24T09:27:28Z</time>
      </trkpt>
      <trkpt lat="42.75209" lon="1.44993">
        <ele>1502.407</ele>
        <time>2012-06-24T09:27:34Z</time>
      </trkpt>
      <trkpt lat="42.7521" lon="1.44985">
        <ele>1503.599</ele>
        <time>2012-06-24T09:27:40Z</time>
      </trkpt>
      <trkpt lat="42.75212" lon="1.4498">
        <ele>1504.712</ele>
        <time>2012-06-24T09:27:47Z</time>
      </trkpt>
      <trkpt lat="42.75214" lon="1.44976">
        <ele>1506.249</ele>
        <time>2012-06-24T09:27:53Z</time>
      </trkpt>
      <trkpt lat="42.75217" lon="1.44965">
        <ele>1508.341</ele>
        <time>2012-06-24T09:28:05Z</time>
      </trkpt>
      <trkpt lat="42.75221" lon="1.44958">
        <ele>1509.973</ele>
        <time>2012-06-24T09:28:15Z</time>
      </trkpt>
      <trkpt lat="42.75224" lon="1.44952">
        <ele>1510.845</ele>
        <time>2012-06-24T09:28:21Z</time>
      </trkpt>
      <trkpt lat="42.75227" lon="1.44946">
        <ele>1512.175</ele>
        <time>2012-06-24T09:28:28Z</time>
      </trkpt>
      <trkpt lat="42.75233" lon="1.44939">
        <ele>1513.793</ele>
        <time>2012-06-24T09:28:40Z</time>
      </trkpt>
      <trkpt lat="42.75237" lon="1.44933">
        <ele>1514.625</ele>
        <time>2012-06-24T09:28:47Z</time>
      </trkpt>
      <trkpt lat="42.75241" lon="1.44928">
        <ele>1516.421</ele>
        <time>2012-06-24T09:28:54Z</time>
      </trkpt>
      <trkpt lat="42.75244" lon="1.44922">
        <ele>1517.57</ele>
        <time>2012-06-24T09:29:02Z</time>
      </trkpt>
      <trkpt lat="42.75246" lon="1.44913">
        <ele>1518.449</ele>
        <time>2012-06-24T09:29:09Z</time>
      </trkpt>
      <trkpt lat="42.7525" lon="1.44909">
        <ele>1520.36</ele>
        <time>2012-06-24T09:29:16Z</time>
      </trkpt>
      <trkpt lat="42.75253" lon="1.44901">
        <ele>1521.183</ele>
        <time>2012-06-24T09:29:23Z</time>
      </trkpt>
      <trkpt lat="42.75253" lon="1.44898">
        <ele>1521.047</ele>
        <time>2012-06-24T09:29:25Z</time>
      </trkpt>
      <trkpt lat="42.75256" lon="1.44888">
        <ele>1522.171</ele>
        <time>2012-06-24T09:29:32Z</time>
      </trkpt>
      <trkpt lat="42.75262" lon="1.44879">
        <ele>1522.715</ele>
        <time>2012-06-24T09:29:41Z</time>
      </trkpt>
      <trkpt lat="42.75266" lon="1.44874">
        <ele>1523.113</ele>
        <time>2012-06-24T09:29:47Z</time>
      </trkpt>
      <trkpt lat="42.75272" lon="1.44863">
        <ele>1523.256</ele>
        <time>2012-06-24T09:29:57Z</time>
      </trkpt>
      <trkpt lat="42.75276" lon="1.44848">
        <ele>1524.669</ele>
        <time>2012-06-24T09:30:07Z</time>
      </trkpt>
      <trkpt lat="42.75279" lon="1.44837">
        <ele>1525.547</ele>
        <time>2012-06-24T09:30:16Z</time>
      </trkpt>
      <trkpt lat="42.75282" lon="1.44827">
        <ele>1526.7</ele>
        <time>2012-06-24T09:30:24Z</time>
      </trkpt>
      <trkpt lat="42.75285" lon="1.44822">
        <ele>1527.69</ele>
        <time>2012-06-24T09:30:30Z</time>
      </trkpt>
      <trkpt lat="42.75285" lon="1.44819">
        <ele>1528.027</ele>
        <time>2012-06-24T09:30:33Z</time>
      </trkpt>
      <trkpt lat="42.75288" lon="1.44814">
        <ele>1528.682</ele>
        <time>2012-06-24T09:30:39Z</time>
      </trkpt>
      <trkpt lat="42.7529" lon="1.44803">
        <ele>1529.22</ele>
        <time>2012-06-24T09:30:48Z</time>
      </trkpt>
      <trkpt lat="42.75294" lon="1.4479">
        <ele>1530.845</ele>
        <time>2012-06-24T09:30:59Z</time>
      </trkpt>
      <trkpt lat="42.75298" lon="1.4478">
        <ele>1532.217</ele>
        <time>2012-06-24T09:31:08Z</time>
      </trkpt>
      <trkpt lat="42.75301" lon="1.44773">
        <ele>1532.936</ele>
        <time>2012-06-24T09:31:16Z</time>
      </trkpt>
      <trkpt lat="42.75301" lon="1.44767">
        <ele>1534.168</ele>
        <time>2012-06-24T09:31:21Z</time>
      </trkpt>
      <trkpt lat="42.75302" lon="1.44763">
        <ele>1534.658</ele>
        <time>2012-06-24T09:31:27Z</time>
      </trkpt>
      <trkpt lat="42.75304" lon="1.44758">
        <ele>1537.011</ele>
        <time>2012-06-24T09:31:35Z</time>
      </trkpt>
      <trkpt lat="42.75308" lon="1.44758">
        <ele>1539.884</ele>
        <time>2012-06-24T09:31:47Z</time>
      </trkpt>
      <trkpt lat="42.75305" lon="1.44749">
        <ele>1540.59</ele>
        <time>2012-06-24T09:31:56Z</time>
      </trkpt>
      <trkpt lat="42.75307" lon="1.44745">
        <ele>1541.858</ele>
        <time>2012-06-24T09:32:04Z</time>
      </trkpt>
      <trkpt lat="42.75307" lon="1.44743">
        <ele>1542.853</ele>
        <time>2012-06-24T09:32:06Z</time>
      </trkpt>
      <trkpt lat="42.75307" lon="1.44737">
        <ele>1543.583</ele>
        <time>2012-06-24T09:32:12Z</time>
      </trkpt>
      <trkpt lat="42.75307" lon="1.44732">
        <ele>1544.9</ele>
        <time>2012-06-24T09:32:20Z</time>
      </trkpt>
      <trkpt lat="42.75305" lon="1.44726">
        <ele>1546.559</ele>
        <time>2012-06-24T09:32:27Z</time>
      </trkpt>
      <trkpt lat="42.75306" lon="1.44721">
        <ele>1547.916</ele>
        <time>2012-06-24T09:32:33Z</time>
      </trkpt>
      <trkpt lat="42.75311" lon="1.44725">
        <ele>1548.462</ele>
        <time>2012-06-24T09:32:41Z</time>
      </trkpt>
      <trkpt lat="42.75314" lon="1.4473">
        <ele>1549.948</ele>
        <time>2012-06-24T09:32:48Z</time>
      </trkpt>
      <trkpt lat="42.75313" lon="1.44724">
        <ele>1551.107</ele>
        <time>2012-06-24T09:32:56Z</time>
      </trkpt>
      <trkpt lat="42.75313" lon="1.44717">
        <ele>1552.879</ele>
        <time>2012-06-24T09:33:03Z</time>
      </trkpt>
      <trkpt lat="42.75316" lon="1.44716">
        <ele>1554.504</ele>
        <time>2012-06-24T09:33:11Z</time>
      </trkpt>
      <trkpt lat="42.75325" lon="1.44724">
        <ele>1554.867</ele>
        <time>2012-06-24T09:33:20Z</time>
      </trkpt>
      <trkpt lat="42.75329" lon="1.44728">
        <ele>1555.205</ele>
        <time>2012-06-24T09:33:25Z</time>
      </trkpt>
      <trkpt lat="42.75328" lon="1.44735">
        <ele>1555.854</ele>
        <time>2012-06-24T09:33:33Z</time>
      </trkpt>
      <trkpt lat="42.75327" lon="1.44736">
        <ele>1555.806</ele>
        <time>2012-06-24T09:33:34Z</time>
      </trkpt>
      <trkpt lat="42.75327" lon="1.44744">
        <ele>1556.743</ele>
        <time>2012-06-24T09:33:41Z</time>
      </trkpt>
      <trkpt lat="42.75327" lon="1.44745">
        <ele>1556.805</ele>
        <time>2012-06-24T09:33:42Z</time>
      </trkpt>
      <trkpt lat="42.75328" lon="1.44754">
        <ele>1558.69</ele>
        <time>2012-06-24T09:33:50Z</time>
      </trkpt>
      <trkpt lat="42.75327" lon="1.44763">
        <ele>1560.118</ele>
        <time>2012-06-24T09:33:58Z</time>
      </trkpt>
      <trkpt lat="42.7533" lon="1.44769">
        <ele>1561.207</ele>
        <time>2012-06-24T09:34:05Z</time>
      </trkpt>
      <trkpt lat="42.75332" lon="1.44776">
        <ele>1562.526</ele>
        <time>2012-06-24T09:34:12Z</time>
      </trkpt>
      <trkpt lat="42.75332" lon="1.44781">
        <ele>1562.539</ele>
        <time>2012-06-24T09:34:18Z</time>
      </trkpt>
      <trkpt lat="42.75332" lon="1.44786">
        <ele>1563.704</ele>
        <time>2012-06-24T09:34:24Z</time>
      </trkpt>
      <trkpt lat="42.75333" lon="1.44783">
        <ele>1564.265</ele>
        <time>2012-06-24T09:34:31Z</time>
      </trkpt>
      <trkpt lat="42.75334" lon="1.44777">
        <ele>1565.265</ele>
        <time>2012-06-24T09:34:37Z</time>
      </trkpt>
      <trkpt lat="42.75336" lon="1.4477">
        <ele>1566.183</ele>
        <time>2012-06-24T09:34:44Z</time>
      </trkpt>
      <trkpt lat="42.75338" lon="1.44765">
        <ele>1567.548</ele>
        <time>2012-06-24T09:34:51Z</time>
      </trkpt>
      <trkpt lat="42.75342" lon="1.44771">
        <ele>1568.63</ele>
        <time>2012-06-24T09:34:58Z</time>
      </trkpt>
      <trkpt lat="42.75344" lon="1.44776">
        <ele>1569.98</ele>
        <time>2012-06-24T09:35:04Z</time>
      </trkpt>
      <trkpt lat="42.75346" lon="1.44781">
        <ele>1571.171</ele>
        <time>2012-06-24T09:35:10Z</time>
      </trkpt>
      <trkpt lat="42.75348" lon="1.44775">
        <ele>1573.112</ele>
        <time>2012-06-24T09:35:19Z</time>
      </trkpt>
      <trkpt lat="42.75348" lon="1.44767">
        <ele>1573.995</ele>
        <time>2012-06-24T09:35:26Z</time>
      </trkpt>
      <trkpt lat="42.75349" lon="1.44757">
        <ele>1574.892</ele>
        <time>2012-06-24T09:35:35Z</time>
      </trkpt>
      <trkpt lat="42.75351" lon="1.44753">
        <ele>1575.728</ele>
        <time>2012-06-24T09:35:41Z</time>
      </trkpt>
      <trkpt lat="42.75352" lon="1.44745">
        <ele>1577.161</ele>
        <time>2012-06-24T09:35:49Z</time>
      </trkpt>
      <trkpt lat="42.75352" lon="1.44741">
        <ele>1577.999</ele>
        <time>2012-06-24T09:35:55Z</time>
      </trkpt>
      <trkpt lat="42.75355" lon="1.44735">
        <ele>1579.557</ele>
        <time>2012-06-24T09:36:02Z</time>
      </trkpt>
      <trkpt lat="42.75358" lon="1.44725">
        <ele>1581.163</ele>
        <time>2012-06-24T09:36:13Z</time>
      </trkpt>
      <trkpt lat="42.75359" lon="1.44719">
        <ele>1582.204</ele>
        <time>2012-06-24T09:36:19Z</time>
      </trkpt>
      <trkpt lat="42.75363" lon="1.44712">
        <ele>1584.182</ele>
        <time>2012-06-24T09:36:29Z</time>
      </trkpt>
      <trkpt lat="42.75366" lon="1.44704">
        <ele>1585.714</ele>
        <time>2012-06-24T09:36:40Z</time>
      </trkpt>
      <trkpt lat="42.75368" lon="1.44696">
        <ele>1587.363</ele>
        <time>2012-06-24T09:36:48Z</time>
      </trkpt>
      <trkpt lat="42.75372" lon="1.44689">
        <ele>1588.761</ele>
        <time>2012-06-24T09:36:56Z</time>
      </trkpt>
      <trkpt lat="42.75374" lon="1.4468">
        <ele>1590.281</ele>
        <time>2012-06-24T09:37:05Z</time>
      </trkpt>
      <trkpt lat="42.75374" lon="1.44678">
        <ele>1589.954</ele>
        <time>2012-06-24T09:37:14Z</time>
      </trkpt>
      <trkpt lat="42.75373" lon="1.44669">
        <ele>1590.675</ele>
        <time>2012-06-24T09:37:23Z</time>
      </trkpt>
      <trkpt lat="42.75374" lon="1.44665">
        <ele>1591.708</ele>
        <time>2012-06-24T09:37:27Z</time>
      </trkpt>
      <trkpt lat="42.75374" lon="1.44659">
        <ele>1592.524</ele>
        <time>2012-06-24T09:37:33Z</time>
      </trkpt>
      <trkpt lat="42.75379" lon="1.44644">
        <ele>1592.314</ele>
        <time>2012-06-24T09:37:45Z</time>
      </trkpt>
      <trkpt lat="42.75382" lon="1.44633">
        <ele>1592.462</ele>
        <time>2012-06-24T09:37:54Z</time>
      </trkpt>
      <trkpt lat="42.75385" lon="1.44619">
        <ele>1592.614</ele>
        <time>2012-06-24T09:38:05Z</time>
      </trkpt>
      <trkpt lat="42.75387" lon="1.4461">
        <ele>1591.209</ele>
        <time>2012-06-24T09:38:13Z</time>
      </trkpt>
      <trkpt lat="42.75387" lon="1.44606">
        <ele>1589.884</ele>
        <time>2012-06-24T09:38:19Z</time>
      </trkpt>
      <trkpt lat="42.75387" lon="1.44605">
        <ele>1590.377</ele>
        <time>2012-06-24T09:38:34Z</time>
      </trkpt>
      <trkpt lat="42.75385" lon="1.44603">
        <ele>1590.087</ele>
        <time>2012-06-24T09:38:41Z</time>
      </trkpt>
      <trkpt lat="42.75389" lon="1.44595">
        <ele>1588.616</ele>
        <time>2012-06-24T09:38:49Z</time>
      </trkpt>
      <trkpt lat="42.7539" lon="1.44588">
        <ele>1586.833</ele>
        <time>2012-06-24T09:38:56Z</time>
      </trkpt>
      <trkpt lat="42.75391" lon="1.44583">
        <ele>1586.312</ele>
        <time>2012-06-24T09:39:01Z</time>
      </trkpt>
      <trkpt lat="42.75392" lon="1.44576">
        <ele>1584.606</ele>
        <time>2012-06-24T09:39:07Z</time>
      </trkpt>
      <trkpt lat="42.75396" lon="1.44562">
        <ele>1583.045</ele>
        <time>2012-06-24T09:39:18Z</time>
      </trkpt>
      <trkpt lat="42.75398" lon="1.44546">
        <ele>1582.202</ele>
        <time>2012-06-24T09:39:29Z</time>
      </trkpt>
      <trkpt lat="42.75399" lon="1.44542">
        <ele>1582.223</ele>
        <time>2012-06-24T09:39:32Z</time>
      </trkpt>
      <trkpt lat="42.75406" lon="1.44528">
        <ele>1582.405</ele>
        <time>2012-06-24T09:39:43Z</time>
      </trkpt>
      <trkpt lat="42.75407" lon="1.44522">
        <ele>1583.166</ele>
        <time>2012-06-24T09:39:49Z</time>
      </trkpt>
      <trkpt lat="42.75408" lon="1.44519">
        <ele>1582.854</ele>
        <time>2012-06-24T09:39:52Z</time>
      </trkpt>
      <trkpt lat="42.7541" lon="1.44515">
        <ele>1583.043</ele>
        <time>2012-06-24T09:39:55Z</time>
      </trkpt>
      <trkpt lat="42.75413" lon="1.44508">
        <ele>1583.19</ele>
        <time>2012-06-24T09:40:02Z</time>
      </trkpt>
      <trkpt lat="42.7542" lon="1.44501">
        <ele>1583.489</ele>
        <time>2012-06-24T09:40:10Z</time>
      </trkpt>
      <trkpt lat="42.75423" lon="1.44498">
        <ele>1584.04</ele>
        <time>2012-06-24T09:40:14Z</time>
      </trkpt>
      <trkpt lat="42.75422" lon="1.4449">
        <ele>1583.625</ele>
        <time>2012-06-24T09:40:20Z</time>
      </trkpt>
      <trkpt lat="42.75425" lon="1.44486">
        <ele>1584.661</ele>
        <time>2012-06-24T09:40:24Z</time>
      </trkpt>
      <trkpt lat="42.75428" lon="1.44479">
        <ele>1584.196</ele>
        <time>2012-06-24T09:40:29Z</time>
      </trkpt>
      <trkpt lat="42.75431" lon="1.44466">
        <ele>1584.888</ele>
        <time>2012-06-24T09:40:38Z</time>
      </trkpt>
      <trkpt lat="42.75432" lon="1.44465">
        <ele>1585.154</ele>
        <time>2012-06-24T09:40:39Z</time>
      </trkpt>
      <trkpt lat="42.75438" lon="1.44459">
        <ele>1585.226</ele>
        <time>2012-06-24T09:40:46Z</time>
      </trkpt>
      <trkpt lat="42.7544" lon="1.44454">
        <ele>1585.189</ele>
        <time>2012-06-24T09:40:50Z</time>
      </trkpt>
      <trkpt lat="42.75442" lon="1.44448">
        <ele>1585.289</ele>
        <time>2012-06-24T09:40:55Z</time>
      </trkpt>
      <trkpt lat="42.75445" lon="1.44443">
        <ele>1584.98</ele>
        <time>2012-06-24T09:41:00Z</time>
      </trkpt>
      <trkpt lat="42.75449" lon="1.4443">
        <ele>1585.891</ele>
        <time>2012-06-24T09:41:10Z</time>
      </trkpt>
      <trkpt lat="42.75454" lon="1.44426">
        <ele>1586.533</ele>
        <time>2012-06-24T09:41:16Z</time>
      </trkpt>
      <trkpt lat="42.7546" lon="1.44414">
        <ele>1586.685</ele>
        <time>2012-06-24T09:41:26Z</time>
      </trkpt>
      <trkpt lat="42.75461" lon="1.44411">
        <ele>1586.768</ele>
        <time>2012-06-24T09:41:29Z</time>
      </trkpt>
      <trkpt lat="42.75465" lon="1.44398">
        <ele>1587.079</ele>
        <time>2012-06-24T09:41:39Z</time>
      </trkpt>
      <trkpt lat="42.75466" lon="1.44397">
        <ele>1586.761</ele>
        <time>2012-06-24T09:41:40Z</time>
      </trkpt>
      <trkpt lat="42.75468" lon="1.4438">
        <ele>1589.012</ele>
        <time>2012-06-24T09:41:52Z</time>
      </trkpt>
      <trkpt lat="42.75468" lon="1.44378">
        <ele>1589.546</ele>
        <time>2012-06-24T09:41:54Z</time>
      </trkpt>
      <trkpt lat="42.75471" lon="1.4437">
        <ele>1589.427</ele>
        <time>2012-06-24T09:42:00Z</time>
      </trkpt>
      <trkpt lat="42.75474" lon="1.44361">
        <ele>1590.412</ele>
        <time>2012-06-24T09:42:08Z</time>
      </trkpt>
      <trkpt lat="42.75476" lon="1.44358">
        <ele>1590.562</ele>
        <time>2012-06-24T09:42:17Z</time>
      </trkpt>
      <trkpt lat="42.75476" lon="1.44358">
        <ele>1590.979</ele>
        <time>2012-06-24T09:42:44Z</time>
      </trkpt>
      <trkpt lat="42.75478" lon="1.44352">
        <ele>1590.57</ele>
        <time>2012-06-24T09:42:52Z</time>
      </trkpt>
      <trkpt lat="42.75479" lon="1.44348">
        <ele>1591.618</ele>
        <time>2012-06-24T09:42:58Z</time>
      </trkpt>
      <trkpt lat="42.7548" lon="1.44347">
        <ele>1591.378</ele>
        <time>2012-06-24T09:42:59Z</time>
      </trkpt>
      <trkpt lat="42.75481" lon="1.44338">
        <ele>1591.229</ele>
        <time>2012-06-24T09:43:06Z</time>
      </trkpt>
      <trkpt lat="42.75482" lon="1.44332">
        <ele>1591.246</ele>
        <time>2012-06-24T09:43:11Z</time>
      </trkpt>
      <trkpt lat="42.75488" lon="1.44316">
        <ele>1591.658</ele>
        <time>2012-06-24T09:43:22Z</time>
      </trkpt>
      <trkpt lat="42.75489" lon="1.44314">
        <ele>1591.824</ele>
        <time>2012-06-24T09:43:24Z</time>
      </trkpt>
      <trkpt lat="42.75496" lon="1.44305">
        <ele>1593.085</ele>
        <time>2012-06-24T09:43:33Z</time>
      </trkpt>
      <trkpt lat="42.75502" lon="1.44299">
        <ele>1593.979</ele>
        <time>2012-06-24T09:43:40Z</time>
      </trkpt>
      <trkpt lat="42.75511" lon="1.44289">
        <ele>1595.253</ele>
        <time>2012-06-24T09:43:52Z</time>
      </trkpt>
      <trkpt lat="42.75517" lon="1.44284">
        <ele>1596</ele>
        <time>2012-06-24T09:43:59Z</time>
      </trkpt>
      <trkpt lat="42.7552" lon="1.44277">
        <ele>1595.642</ele>
        <time>2012-06-24T09:44:07Z</time>
      </trkpt>
      <trkpt lat="42.75522" lon="1.44275">
        <ele>1597.387</ele>
        <time>2012-06-24T09:44:11Z</time>
      </trkpt>
      <trkpt lat="42.75524" lon="1.44273">
        <ele>1596.727</ele>
        <time>2012-06-24T09:44:26Z</time>
      </trkpt>
      <trkpt lat="42.75533" lon="1.44266">
        <ele>1596.148</ele>
        <time>2012-06-24T09:44:35Z</time>
      </trkpt>
      <trkpt lat="42.75538" lon="1.44257">
        <ele>1596.926</ele>
        <time>2012-06-24T09:44:43Z</time>
      </trkpt>
      <trkpt lat="42.7554" lon="1.44255">
        <ele>1596.612</ele>
        <time>2012-06-24T09:44:45Z</time>
      </trkpt>
      <trkpt lat="42.7554" lon="1.44248">
        <ele>1596.827</ele>
        <time>2012-06-24T09:44:53Z</time>
      </trkpt>
      <trkpt lat="42.7554" lon="1.44237">
        <ele>1596.844</ele>
        <time>2012-06-24T09:45:01Z</time>
      </trkpt>
      <trkpt lat="42.75539" lon="1.44231">
        <ele>1596.643</ele>
        <time>2012-06-24T09:45:07Z</time>
      </trkpt>
      <trkpt lat="42.75537" lon="1.4422">
        <ele>1597.378</ele>
        <time>2012-06-24T09:45:16Z</time>
      </trkpt>
      <trkpt lat="42.75538" lon="1.44216">
        <ele>1597.357</ele>
        <time>2012-06-24T09:45:19Z</time>
      </trkpt>
      <trkpt lat="42.75546" lon="1.44203">
        <ele>1598.306</ele>
        <time>2012-06-24T09:45:31Z</time>
      </trkpt>
      <trkpt lat="42.75551" lon="1.4419">
        <ele>1598.01</ele>
        <time>2012-06-24T09:45:41Z</time>
      </trkpt>
      <trkpt lat="42.75554" lon="1.44179">
        <ele>1598.254</ele>
        <time>2012-06-24T09:45:49Z</time>
      </trkpt>
      <trkpt lat="42.75556" lon="1.44172">
        <ele>1598.97</ele>
        <time>2012-06-24T09:45:54Z</time>
      </trkpt>
      <trkpt lat="42.75557" lon="1.44168">
        <ele>1598.561</ele>
        <time>2012-06-24T09:45:57Z</time>
      </trkpt>
      <trkpt lat="42.7556" lon="1.44163">
        <ele>1598.862</ele>
        <time>2012-06-24T09:46:05Z</time>
      </trkpt>
      <trkpt lat="42.75564" lon="1.44155">
        <ele>1598.382</ele>
        <time>2012-06-24T09:46:13Z</time>
      </trkpt>
      <trkpt lat="42.75564" lon="1.44152">
        <ele>1598.559</ele>
        <time>2012-06-24T09:46:16Z</time>
      </trkpt>
      <trkpt lat="42.75566" lon="1.44141">
        <ele>1597.752</ele>
        <time>2012-06-24T09:46:23Z</time>
      </trkpt>
      <trkpt lat="42.75571" lon="1.44132">
        <ele>1597.9</ele>
        <time>2012-06-24T09:46:30Z</time>
      </trkpt>
      <trkpt lat="42.75574" lon="1.44119">
        <ele>1598.483</ele>
        <time>2012-06-24T09:46:39Z</time>
      </trkpt>
      <trkpt lat="42.75576" lon="1.44113">
        <ele>1598.212</ele>
        <time>2012-06-24T09:46:43Z</time>
      </trkpt>
      <trkpt lat="42.75583" lon="1.44103">
        <ele>1599.113</ele>
        <time>2012-06-24T09:46:53Z</time>
      </trkpt>
      <trkpt lat="42.75589" lon="1.4409">
        <ele>1599.883</ele>
        <time>2012-06-24T09:47:03Z</time>
      </trkpt>
      <trkpt lat="42.75591" lon="1.44086">
        <ele>1599.713</ele>
        <time>2012-06-24T09:47:07Z</time>
      </trkpt>
      <trkpt lat="42.75599" lon="1.44078">
        <ele>1599.973</ele>
        <time>2012-06-24T09:47:16Z</time>
      </trkpt>
      <trkpt lat="42.75604" lon="1.44072">
        <ele>1599.935</ele>
        <time>2012-06-24T09:47:23Z</time>
      </trkpt>
      <trkpt lat="42.75611" lon="1.44064">
        <ele>1600.163</ele>
        <time>2012-06-24T09:47:32Z</time>
      </trkpt>
      <trkpt lat="42.75616" lon="1.44058">
        <ele>1600.315</ele>
        <time>2012-06-24T09:47:40Z</time>
      </trkpt>
      <trkpt lat="42.75617" lon="1.44057">
        <ele>1600.47</ele>
        <time>2012-06-24T09:47:49Z</time>
      </trkpt>
      <trkpt lat="42.75616" lon="1.44054">
        <ele>1599.765</ele>
        <time>2012-06-24T09:48:20Z</time>
      </trkpt>
      <trkpt lat="42.75619" lon="1.44047">
        <ele>1599.931</ele>
        <time>2012-06-24T09:48:27Z</time>
      </trkpt>
      <trkpt lat="42.75619" lon="1.44039">
        <ele>1599.633</ele>
        <time>2012-06-24T09:48:33Z</time>
      </trkpt>
      <trkpt lat="42.75625" lon="1.44026">
        <ele>1599.383</ele>
        <time>2012-06-24T09:48:43Z</time>
      </trkpt>
      <trkpt lat="42.75633" lon="1.44015">
        <ele>1599.668</ele>
        <time>2012-06-24T09:48:54Z</time>
      </trkpt>
      <trkpt lat="42.7564" lon="1.44007">
        <ele>1599.864</ele>
        <time>2012-06-24T09:49:03Z</time>
      </trkpt>
      <trkpt lat="42.75644" lon="1.43997">
        <ele>1599.907</ele>
        <time>2012-06-24T09:49:11Z</time>
      </trkpt>
      <trkpt lat="42.75645" lon="1.43995">
        <ele>1600.27</ele>
        <time>2012-06-24T09:49:13Z</time>
      </trkpt>
      <trkpt lat="42.7565" lon="1.43988">
        <ele>1600.015</ele>
        <time>2012-06-24T09:49:19Z</time>
      </trkpt>
      <trkpt lat="42.75654" lon="1.43983">
        <ele>1600.09</ele>
        <time>2012-06-24T09:49:23Z</time>
      </trkpt>
      <trkpt lat="42.75659" lon="1.43979">
        <ele>1600.61</ele>
        <time>2012-06-24T09:49:29Z</time>
      </trkpt>
      <trkpt lat="42.75667" lon="1.43969">
        <ele>1600.726</ele>
        <time>2012-06-24T09:49:40Z</time>
      </trkpt>
      <trkpt lat="42.75673" lon="1.43963">
        <ele>1600.392</ele>
        <time>2012-06-24T09:49:48Z</time>
      </trkpt>
      <trkpt lat="42.75676" lon="1.43953">
        <ele>1598.938</ele>
        <time>2012-06-24T09:49:57Z</time>
      </trkpt>
      <trkpt lat="42.75683" lon="1.43945">
        <ele>1599.952</ele>
        <time>2012-06-24T09:50:05Z</time>
      </trkpt>
      <trkpt lat="42.75686" lon="1.43942">
        <ele>1599.962</ele>
        <time>2012-06-24T09:50:09Z</time>
      </trkpt>
      <trkpt lat="42.7569" lon="1.43936">
        <ele>1600.065</ele>
        <time>2012-06-24T09:50:17Z</time>
      </trkpt>
      <trkpt lat="42.75693" lon="1.43934">
        <ele>1601.113</ele>
        <time>2012-06-24T09:50:23Z</time>
      </trkpt>
      <trkpt lat="42.75693" lon="1.43928">
        <ele>1600.814</ele>
        <time>2012-06-24T09:50:31Z</time>
      </trkpt>
      <trkpt lat="42.75692" lon="1.43927">
        <ele>1600.901</ele>
        <time>2012-06-24T09:50:32Z</time>
      </trkpt>
      <trkpt lat="42.75694" lon="1.43918">
        <ele>1600.969</ele>
        <time>2012-06-24T09:50:39Z</time>
      </trkpt>
      <trkpt lat="42.75699" lon="1.43909">
        <ele>1600.435</ele>
        <time>2012-06-24T09:50:47Z</time>
      </trkpt>
      <trkpt lat="42.75704" lon="1.43899">
        <ele>1601.015</ele>
        <time>2012-06-24T09:50:55Z</time>
      </trkpt>
      <trkpt lat="42.75708" lon="1.43893">
        <ele>1601.528</ele>
        <time>2012-06-24T09:51:02Z</time>
      </trkpt>
      <trkpt lat="42.75711" lon="1.43881">
        <ele>1602.359</ele>
        <time>2012-06-24T09:51:12Z</time>
      </trkpt>
      <trkpt lat="42.75715" lon="1.43869">
        <ele>1602.778</ele>
        <time>2012-06-24T09:51:22Z</time>
      </trkpt>
      <trkpt lat="42.75721" lon="1.43861">
        <ele>1603.215</ele>
        <time>2012-06-24T09:51:30Z</time>
      </trkpt>
      <trkpt lat="42.75721" lon="1.43859">
        <ele>1603.534</ele>
        <time>2012-06-24T09:51:32Z</time>
      </trkpt>
      <trkpt lat="42.75723" lon="1.43851">
        <ele>1602.586</ele>
        <time>2012-06-24T09:51:37Z</time>
      </trkpt>
      <trkpt lat="42.75731" lon="1.43844">
        <ele>1604.166</ele>
        <time>2012-06-24T09:51:46Z</time>
      </trkpt>
      <trkpt lat="42.75734" lon="1.43842">
        <ele>1603.614</ele>
        <time>2012-06-24T09:51:50Z</time>
      </trkpt>
      <trkpt lat="42.75737" lon="1.43838">
        <ele>1604.112</ele>
        <time>2012-06-24T09:51:54Z</time>
      </trkpt>
      <trkpt lat="42.75742" lon="1.43836">
        <ele>1604.63</ele>
        <time>2012-06-24T09:51:59Z</time>
      </trkpt>
      <trkpt lat="42.75748" lon="1.43828">
        <ele>1604.972</ele>
        <time>2012-06-24T09:52:07Z</time>
      </trkpt>
      <trkpt lat="42.75747" lon="1.43826">
        <ele>1604.811</ele>
        <time>2012-06-24T09:52:09Z</time>
      </trkpt>
      <trkpt lat="42.75753" lon="1.43816">
        <ele>1604.915</ele>
        <time>2012-06-24T09:52:19Z</time>
      </trkpt>
      <trkpt lat="42.75754" lon="1.43814">
        <ele>1604.759</ele>
        <time>2012-06-24T09:52:21Z</time>
      </trkpt>
      <trkpt lat="42.75764" lon="1.43804">
        <ele>1605.772</ele>
        <time>2012-06-24T09:52:33Z</time>
      </trkpt>
      <trkpt lat="42.75766" lon="1.43801">
        <ele>1605.714</ele>
        <time>2012-06-24T09:52:36Z</time>
      </trkpt>
      <trkpt lat="42.75771" lon="1.43792">
        <ele>1605.167</ele>
        <time>2012-06-24T09:52:43Z</time>
      </trkpt>
      <trkpt lat="42.75782" lon="1.43781">
        <ele>1605.974</ele>
        <time>2012-06-24T09:52:54Z</time>
      </trkpt>
      <trkpt lat="42.7579" lon="1.43774">
        <ele>1607.104</ele>
        <time>2012-06-24T09:53:03Z</time>
      </trkpt>
      <trkpt lat="42.75792" lon="1.43771">
        <ele>1606.495</ele>
        <time>2012-06-24T09:53:07Z</time>
      </trkpt>
      <trkpt lat="42.75797" lon="1.43768">
        <ele>1606.418</ele>
        <time>2012-06-24T09:53:12Z</time>
      </trkpt>
      <trkpt lat="42.75804" lon="1.43761">
        <ele>1607.046</ele>
        <time>2012-06-24T09:53:20Z</time>
      </trkpt>
      <trkpt lat="42.75804" lon="1.43755">
        <ele>1606.985</ele>
        <time>2012-06-24T09:53:24Z</time>
      </trkpt>
      <trkpt lat="42.7581" lon="1.43743">
        <ele>1607.74</ele>
        <time>2012-06-24T09:53:34Z</time>
      </trkpt>
      <trkpt lat="42.75814" lon="1.43736">
        <ele>1608.891</ele>
        <time>2012-06-24T09:53:42Z</time>
      </trkpt>
      <trkpt lat="42.75815" lon="1.43734">
        <ele>1609.392</ele>
        <time>2012-06-24T09:53:44Z</time>
      </trkpt>
      <trkpt lat="42.75821" lon="1.43718">
        <ele>1609.322</ele>
        <time>2012-06-24T09:53:55Z</time>
      </trkpt>
      <trkpt lat="42.75827" lon="1.43711">
        <ele>1609.264</ele>
        <time>2012-06-24T09:54:03Z</time>
      </trkpt>
      <trkpt lat="42.75835" lon="1.43703">
        <ele>1608.103</ele>
        <time>2012-06-24T09:54:13Z</time>
      </trkpt>
      <trkpt lat="42.75839" lon="1.437">
        <ele>1607.74</ele>
        <time>2012-06-24T09:54:18Z</time>
      </trkpt>
      <trkpt lat="42.75847" lon="1.43694">
        <ele>1607.997</ele>
        <time>2012-06-24T09:54:26Z</time>
      </trkpt>
      <trkpt lat="42.7585" lon="1.4369">
        <ele>1608.021</ele>
        <time>2012-06-24T09:54:31Z</time>
      </trkpt>
      <trkpt lat="42.7586" lon="1.43679">
        <ele>1607.924</ele>
        <time>2012-06-24T09:54:41Z</time>
      </trkpt>
      <trkpt lat="42.75866" lon="1.43667">
        <ele>1608.734</ele>
        <time>2012-06-24T09:54:51Z</time>
      </trkpt>
      <trkpt lat="42.75874" lon="1.43653">
        <ele>1608.38</ele>
        <time>2012-06-24T09:55:03Z</time>
      </trkpt>
      <trkpt lat="42.75879" lon="1.43644">
        <ele>1608.82</ele>
        <time>2012-06-24T09:55:11Z</time>
      </trkpt>
      <trkpt lat="42.75882" lon="1.43634">
        <ele>1608.82</ele>
        <time>2012-06-24T09:55:20Z</time>
      </trkpt>
      <trkpt lat="42.75886" lon="1.43621">
        <ele>1609.04</ele>
        <time>2012-06-24T09:55:30Z</time>
      </trkpt>
      <trkpt lat="42.75886" lon="1.43619">
        <ele>1608.727</ele>
        <time>2012-06-24T09:55:33Z</time>
      </trkpt>
      <trkpt lat="42.75888" lon="1.43608">
        <ele>1608.762</ele>
        <time>2012-06-24T09:55:42Z</time>
      </trkpt>
      <trkpt lat="42.7589" lon="1.43596">
        <ele>1608.283</ele>
        <time>2012-06-24T09:55:51Z</time>
      </trkpt>
      <trkpt lat="42.75891" lon="1.43592">
        <ele>1609.211</ele>
        <time>2012-06-24T09:55:54Z</time>
      </trkpt>
      <trkpt lat="42.759" lon="1.4358">
        <ele>1609.659</ele>
        <time>2012-06-24T09:56:05Z</time>
      </trkpt>
      <trkpt lat="42.75907" lon="1.4357">
        <ele>1610.264</ele>
        <time>2012-06-24T09:56:15Z</time>
      </trkpt>
      <trkpt lat="42.75909" lon="1.43568">
        <ele>1610.103</ele>
        <time>2012-06-24T09:56:17Z</time>
      </trkpt>
      <trkpt lat="42.75911" lon="1.43552">
        <ele>1610.32</ele>
        <time>2012-06-24T09:56:28Z</time>
      </trkpt>
      <trkpt lat="42.75916" lon="1.43543">
        <ele>1609.322</ele>
        <time>2012-06-24T09:56:36Z</time>
      </trkpt>
      <trkpt lat="42.7592" lon="1.4353">
        <ele>1609.283</ele>
        <time>2012-06-24T09:56:46Z</time>
      </trkpt>
      <trkpt lat="42.75922" lon="1.43514">
        <ele>1609.641</ele>
        <time>2012-06-24T09:56:56Z</time>
      </trkpt>
      <trkpt lat="42.75927" lon="1.435">
        <ele>1610.522</ele>
        <time>2012-06-24T09:57:05Z</time>
      </trkpt>
      <trkpt lat="42.75929" lon="1.43497">
        <ele>1610.843</ele>
        <time>2012-06-24T09:57:08Z</time>
      </trkpt>
      <trkpt lat="42.75929" lon="1.43487">
        <ele>1611.438</ele>
        <time>2012-06-24T09:57:16Z</time>
      </trkpt>
      <trkpt lat="42.75931" lon="1.43483">
        <ele>1611.806</ele>
        <time>2012-06-24T09:57:20Z</time>
      </trkpt>
      <trkpt lat="42.75932" lon="1.4348">
        <ele>1611.89</ele>
        <time>2012-06-24T09:57:22Z</time>
      </trkpt>
      <trkpt lat="42.75933" lon="1.43468">
        <ele>1612.692</ele>
        <time>2012-06-24T09:57:32Z</time>
      </trkpt>
      <trkpt lat="42.75934" lon="1.43459">
        <ele>1613.371</ele>
        <time>2012-06-24T09:57:39Z</time>
      </trkpt>
      <trkpt lat="42.75938" lon="1.43448">
        <ele>1614.355</ele>
        <time>2012-06-24T09:57:49Z</time>
      </trkpt>
      <trkpt lat="42.75941" lon="1.43442">
        <ele>1614.77</ele>
        <time>2012-06-24T09:57:57Z</time>
      </trkpt>
      <trkpt lat="42.75944" lon="1.43435">
        <ele>1615.852</ele>
        <time>2012-06-24T09:58:05Z</time>
      </trkpt>
      <trkpt lat="42.75944" lon="1.43427">
        <ele>1615.629</ele>
        <time>2012-06-24T09:58:13Z</time>
      </trkpt>
      <trkpt lat="42.75946" lon="1.43421">
        <ele>1616.485</ele>
        <time>2012-06-24T09:58:20Z</time>
      </trkpt>
      <trkpt lat="42.75945" lon="1.43412">
        <ele>1617.152</ele>
        <time>2012-06-24T09:58:28Z</time>
      </trkpt>
      <trkpt lat="42.75951" lon="1.43407">
        <ele>1618.164</ele>
        <time>2012-06-24T09:58:36Z</time>
      </trkpt>
      <trkpt lat="42.75951" lon="1.43397">
        <ele>1619.858</ele>
        <time>2012-06-24T09:58:45Z</time>
      </trkpt>
      <trkpt lat="42.7595" lon="1.43392">
        <ele>1620.393</ele>
        <time>2012-06-24T09:58:54Z</time>
      </trkpt>
      <trkpt lat="42.75951" lon="1.43383">
        <ele>1620.75</ele>
        <time>2012-06-24T09:59:02Z</time>
      </trkpt>
      <trkpt lat="42.75953" lon="1.4337">
        <ele>1621.093</ele>
        <time>2012-06-24T09:59:11Z</time>
      </trkpt>
      <trkpt lat="42.75956" lon="1.43358">
        <ele>1621.79</ele>
        <time>2012-06-24T09:59:19Z</time>
      </trkpt>
      <trkpt lat="42.75959" lon="1.43349">
        <ele>1621.209</ele>
        <time>2012-06-24T09:59:26Z</time>
      </trkpt>
      <trkpt lat="42.75966" lon="1.43341">
        <ele>1621.568</ele>
        <time>2012-06-24T09:59:34Z</time>
      </trkpt>
      <trkpt lat="42.7597" lon="1.43331">
        <ele>1621.25</ele>
        <time>2012-06-24T09:59:41Z</time>
      </trkpt>
      <trkpt lat="42.75971" lon="1.43315">
        <ele>1622.392</ele>
        <time>2012-06-24T09:59:53Z</time>
      </trkpt>
      <trkpt lat="42.75972" lon="1.43302">
        <ele>1623.81</ele>
        <time>2012-06-24T10:00:02Z</time>
      </trkpt>
      <trkpt lat="42.75972" lon="1.43292">
        <ele>1624.457</ele>
        <time>2012-06-24T10:00:09Z</time>
      </trkpt>
      <trkpt lat="42.75974" lon="1.43283">
        <ele>1625.131</ele>
        <time>2012-06-24T10:00:16Z</time>
      </trkpt>
      <trkpt lat="42.75981" lon="1.43272">
        <ele>1624.958</ele>
        <time>2012-06-24T10:00:27Z</time>
      </trkpt>
      <trkpt lat="42.75991" lon="1.43263">
        <ele>1625.379</ele>
        <time>2012-06-24T10:00:38Z</time>
      </trkpt>
      <trkpt lat="42.75999" lon="1.43254">
        <ele>1625.622</ele>
        <time>2012-06-24T10:00:47Z</time>
      </trkpt>
      <trkpt lat="42.76007" lon="1.43245">
        <ele>1625.487</ele>
        <time>2012-06-24T10:00:57Z</time>
      </trkpt>
      <trkpt lat="42.76009" lon="1.43244">
        <ele>1625.397</ele>
        <time>2012-06-24T10:00:59Z</time>
      </trkpt>
      <trkpt lat="42.76014" lon="1.43237">
        <ele>1625.313</ele>
        <time>2012-06-24T10:01:09Z</time>
      </trkpt>
      <trkpt lat="42.76016" lon="1.43236">
        <ele>1625.253</ele>
        <time>2012-06-24T10:01:19Z</time>
      </trkpt>
      <trkpt lat="42.76021" lon="1.43234">
        <ele>1625.179</ele>
        <time>2012-06-24T10:01:24Z</time>
      </trkpt>
      <trkpt lat="42.76032" lon="1.43227">
        <ele>1625.711</ele>
        <time>2012-06-24T10:01:35Z</time>
      </trkpt>
      <trkpt lat="42.76041" lon="1.43222">
        <ele>1626.379</ele>
        <time>2012-06-24T10:01:44Z</time>
      </trkpt>
      <trkpt lat="42.76047" lon="1.43216">
        <ele>1625.674</ele>
        <time>2012-06-24T10:01:51Z</time>
      </trkpt>
      <trkpt lat="42.76048" lon="1.43214">
        <ele>1625.515</ele>
        <time>2012-06-24T10:01:53Z</time>
      </trkpt>
      <trkpt lat="42.76054" lon="1.4321">
        <ele>1624.945</ele>
        <time>2012-06-24T10:01:58Z</time>
      </trkpt>
      <trkpt lat="42.7606" lon="1.4321">
        <ele>1625.641</ele>
        <time>2012-06-24T10:02:02Z</time>
      </trkpt>
      <trkpt lat="42.76061" lon="1.43209">
        <ele>1625.21</ele>
        <time>2012-06-24T10:02:03Z</time>
      </trkpt>
      <trkpt lat="42.7607" lon="1.43202">
        <ele>1625.425</ele>
        <time>2012-06-24T10:02:13Z</time>
      </trkpt>
      <trkpt lat="42.76078" lon="1.43195">
        <ele>1624.883</ele>
        <time>2012-06-24T10:02:22Z</time>
      </trkpt>
      <trkpt lat="42.76088" lon="1.43187">
        <ele>1625.232</ele>
        <time>2012-06-24T10:02:32Z</time>
      </trkpt>
      <trkpt lat="42.76091" lon="1.43182">
        <ele>1625.604</ele>
        <time>2012-06-24T10:02:37Z</time>
      </trkpt>
      <trkpt lat="42.76091" lon="1.43165">
        <ele>1625.732</ele>
        <time>2012-06-24T10:02:48Z</time>
      </trkpt>
      <trkpt lat="42.76091" lon="1.43162">
        <ele>1627.085</ele>
        <time>2012-06-24T10:02:51Z</time>
      </trkpt>
      <trkpt lat="42.7609" lon="1.43147">
        <ele>1627.347</ele>
        <time>2012-06-24T10:03:01Z</time>
      </trkpt>
      <trkpt lat="42.76091" lon="1.43138">
        <ele>1627.371</ele>
        <time>2012-06-24T10:03:07Z</time>
      </trkpt>
      <trkpt lat="42.76093" lon="1.43123">
        <ele>1627.722</ele>
        <time>2012-06-24T10:03:18Z</time>
      </trkpt>
      <trkpt lat="42.76094" lon="1.43112">
        <ele>1628.52</ele>
        <time>2012-06-24T10:03:27Z</time>
      </trkpt>
      <trkpt lat="42.76094" lon="1.43112">
        <ele>1628.282</ele>
        <time>2012-06-24T10:03:32Z</time>
      </trkpt>
      <trkpt lat="42.76101" lon="1.43111">
        <ele>1628.559</ele>
        <time>2012-06-24T10:03:39Z</time>
      </trkpt>
      <trkpt lat="42.76101" lon="1.43112">
        <ele>1629.863</ele>
        <time>2012-06-24T10:03:46Z</time>
      </trkpt>
      <trkpt lat="42.761" lon="1.43112">
        <ele>1630.172</ele>
        <time>2012-06-24T10:04:14Z</time>
      </trkpt>
      <trkpt lat="42.76101" lon="1.43112">
        <ele>1629.397</ele>
        <time>2012-06-24T10:04:51Z</time>
      </trkpt>
      <trkpt lat="42.76104" lon="1.43114">
        <ele>1628.89</ele>
        <time>2012-06-24T10:04:58Z</time>
      </trkpt>
      <trkpt lat="42.76112" lon="1.43111">
        <ele>1628.458</ele>
        <time>2012-06-24T10:05:08Z</time>
      </trkpt>
      <trkpt lat="42.76112" lon="1.43111">
        <ele>1628.259</ele>
        <time>2012-06-24T10:05:30Z</time>
      </trkpt>
      <trkpt lat="42.76117" lon="1.43112">
        <ele>1627.506</ele>
        <time>2012-06-24T10:05:45Z</time>
      </trkpt>
      <trkpt lat="42.76125" lon="1.43109">
        <ele>1626.367</ele>
        <time>2012-06-24T10:05:54Z</time>
      </trkpt>
      <trkpt lat="42.76126" lon="1.43107">
        <ele>1626.112</ele>
        <time>2012-06-24T10:05:56Z</time>
      </trkpt>
      <trkpt lat="42.76133" lon="1.43097">
        <ele>1625.352</ele>
        <time>2012-06-24T10:06:06Z</time>
      </trkpt>
      <trkpt lat="42.76138" lon="1.43089">
        <ele>1625.293</ele>
        <time>2012-06-24T10:06:15Z</time>
      </trkpt>
      <trkpt lat="42.76144" lon="1.43081">
        <ele>1625.613</ele>
        <time>2012-06-24T10:06:23Z</time>
      </trkpt>
      <trkpt lat="42.76146" lon="1.43074">
        <ele>1626.145</ele>
        <time>2012-06-24T10:06:29Z</time>
      </trkpt>
      <trkpt lat="42.76147" lon="1.43069">
        <ele>1626.141</ele>
        <time>2012-06-24T10:06:37Z</time>
      </trkpt>
      <trkpt lat="42.76146" lon="1.43061">
        <ele>1626.701</ele>
        <time>2012-06-24T10:06:52Z</time>
      </trkpt>
      <trkpt lat="42.76151" lon="1.43055">
        <ele>1627.071</ele>
        <time>2012-06-24T10:06:58Z</time>
      </trkpt>
      <trkpt lat="42.76155" lon="1.43043">
        <ele>1627.292</ele>
        <time>2012-06-24T10:07:08Z</time>
      </trkpt>
      <trkpt lat="42.76156" lon="1.43042">
        <ele>1627.304</ele>
        <time>2012-06-24T10:07:19Z</time>
      </trkpt>
      <trkpt lat="42.76158" lon="1.4304">
        <ele>1627.518</ele>
        <time>2012-06-24T10:07:28Z</time>
      </trkpt>
      <trkpt lat="42.76159" lon="1.43037">
        <ele>1627.65</ele>
        <time>2012-06-24T10:07:56Z</time>
      </trkpt>
      <trkpt lat="42.76159" lon="1.43036">
        <ele>1627.321</ele>
        <time>2012-06-24T10:07:57Z</time>
      </trkpt>
      <trkpt lat="42.76161" lon="1.43031">
        <ele>1628.549</ele>
        <time>2012-06-24T10:08:01Z</time>
      </trkpt>
      <trkpt lat="42.76164" lon="1.43027">
        <ele>1628.376</ele>
        <time>2012-06-24T10:08:05Z</time>
      </trkpt>
      <trkpt lat="42.76169" lon="1.43013">
        <ele>1628.401</ele>
        <time>2012-06-24T10:08:15Z</time>
      </trkpt>
      <trkpt lat="42.76173" lon="1.43005">
        <ele>1627.85</ele>
        <time>2012-06-24T10:08:22Z</time>
      </trkpt>
      <trkpt lat="42.76176" lon="1.43004">
        <ele>1627.789</ele>
        <time>2012-06-24T10:08:25Z</time>
      </trkpt>
      <trkpt lat="42.76178" lon="1.43002">
        <ele>1627.067</ele>
        <time>2012-06-24T10:08:27Z</time>
      </trkpt>
      <trkpt lat="42.76179" lon="1.42998">
        <ele>1627.556</ele>
        <time>2012-06-24T10:08:30Z</time>
      </trkpt>
      <trkpt lat="42.76185" lon="1.42991">
        <ele>1627.894</ele>
        <time>2012-06-24T10:08:38Z</time>
      </trkpt>
      <trkpt lat="42.76187" lon="1.42981">
        <ele>1628.896</ele>
        <time>2012-06-24T10:08:47Z</time>
      </trkpt>
      <trkpt lat="42.76188" lon="1.42979">
        <ele>1629.036</ele>
        <time>2012-06-24T10:08:48Z</time>
      </trkpt>
      <trkpt lat="42.76192" lon="1.42967">
        <ele>1629.524</ele>
        <time>2012-06-24T10:08:58Z</time>
      </trkpt>
      <trkpt lat="42.76195" lon="1.42955">
        <ele>1630.929</ele>
        <time>2012-06-24T10:09:07Z</time>
      </trkpt>
      <trkpt lat="42.76197" lon="1.42942">
        <ele>1632.255</ele>
        <time>2012-06-24T10:09:17Z</time>
      </trkpt>
      <trkpt lat="42.76197" lon="1.42938">
        <ele>1632.042</ele>
        <time>2012-06-24T10:09:20Z</time>
      </trkpt>
      <trkpt lat="42.76201" lon="1.42929">
        <ele>1632.884</ele>
        <time>2012-06-24T10:09:28Z</time>
      </trkpt>
      <trkpt lat="42.76202" lon="1.42928">
        <ele>1632.641</ele>
        <time>2012-06-24T10:09:29Z</time>
      </trkpt>
      <trkpt lat="42.76204" lon="1.42925">
        <ele>1631.657</ele>
        <time>2012-06-24T10:09:31Z</time>
      </trkpt>
      <trkpt lat="42.76208" lon="1.42918">
        <ele>1631.673</ele>
        <time>2012-06-24T10:09:38Z</time>
      </trkpt>
      <trkpt lat="42.76211" lon="1.42906">
        <ele>1631.362</ele>
        <time>2012-06-24T10:09:46Z</time>
      </trkpt>
      <trkpt lat="42.76216" lon="1.42895">
        <ele>1631.055</ele>
        <time>2012-06-24T10:09:55Z</time>
      </trkpt>
      <trkpt lat="42.76219" lon="1.42885">
        <ele>1630.008</ele>
        <time>2012-06-24T10:10:03Z</time>
      </trkpt>
      <trkpt lat="42.76219" lon="1.42881">
        <ele>1630.001</ele>
        <time>2012-06-24T10:10:06Z</time>
      </trkpt>
      <trkpt lat="42.7622" lon="1.42868">
        <ele>1631.52</ele>
        <time>2012-06-24T10:10:15Z</time>
      </trkpt>
      <trkpt lat="42.76221" lon="1.42859">
        <ele>1631.755</ele>
        <time>2012-06-24T10:10:23Z</time>
      </trkpt>
      <trkpt lat="42.76221" lon="1.42848">
        <ele>1632.493</ele>
        <time>2012-06-24T10:10:31Z</time>
      </trkpt>
      <trkpt lat="42.76218" lon="1.42838">
        <ele>1633.497</ele>
        <time>2012-06-24T10:10:39Z</time>
      </trkpt>
      <trkpt lat="42.76215" lon="1.42827">
        <ele>1634.69</ele>
        <time>2012-06-24T10:10:48Z</time>
      </trkpt>
      <trkpt lat="42.76217" lon="1.42824">
        <ele>1635.014</ele>
        <time>2012-06-24T10:10:51Z</time>
      </trkpt>
      <trkpt lat="42.76221" lon="1.42817">
        <ele>1635.107</ele>
        <time>2012-06-24T10:10:59Z</time>
      </trkpt>
      <trkpt lat="42.76222" lon="1.42807">
        <ele>1636.327</ele>
        <time>2012-06-24T10:11:08Z</time>
      </trkpt>
      <trkpt lat="42.76228" lon="1.42796">
        <ele>1637.272</ele>
        <time>2012-06-24T10:11:16Z</time>
      </trkpt>
      <trkpt lat="42.76234" lon="1.42787">
        <ele>1637.996</ele>
        <time>2012-06-24T10:11:24Z</time>
      </trkpt>
      <trkpt lat="42.7624" lon="1.42786">
        <ele>1640.244</ele>
        <time>2012-06-24T10:11:31Z</time>
      </trkpt>
      <trkpt lat="42.76243" lon="1.42785">
        <ele>1642.001</ele>
        <time>2012-06-24T10:11:40Z</time>
      </trkpt>
      <trkpt lat="42.76242" lon="1.42782">
        <ele>1642.155</ele>
        <time>2012-06-24T10:11:49Z</time>
      </trkpt>
      <trkpt lat="42.76243" lon="1.42784">
        <ele>1642.03</ele>
        <time>2012-06-24T10:11:59Z</time>
      </trkpt>
      <trkpt lat="42.76247" lon="1.42785">
        <ele>1642.321</ele>
        <time>2012-06-24T10:12:05Z</time>
      </trkpt>
      <trkpt lat="42.76249" lon="1.42782">
        <ele>1643.074</ele>
        <time>2012-06-24T10:12:08Z</time>
      </trkpt>
      <trkpt lat="42.7625" lon="1.42777">
        <ele>1643.563</ele>
        <time>2012-06-24T10:12:13Z</time>
      </trkpt>
      <trkpt lat="42.76254" lon="1.42769">
        <ele>1642.551</ele>
        <time>2012-06-24T10:12:21Z</time>
      </trkpt>
      <trkpt lat="42.76257" lon="1.42763">
        <ele>1641.56</ele>
        <time>2012-06-24T10:12:28Z</time>
      </trkpt>
      <trkpt lat="42.76261" lon="1.42758">
        <ele>1642.284</ele>
        <time>2012-06-24T10:12:36Z</time>
      </trkpt>
      <trkpt lat="42.76263" lon="1.42753">
        <ele>1641.812</ele>
        <time>2012-06-24T10:12:46Z</time>
      </trkpt>
      <trkpt lat="42.76267" lon="1.42746">
        <ele>1640.743</ele>
        <time>2012-06-24T10:12:55Z</time>
      </trkpt>
      <trkpt lat="42.76268" lon="1.42742">
        <ele>1640.335</ele>
        <time>2012-06-24T10:12:59Z</time>
      </trkpt>
      <trkpt lat="42.76275" lon="1.42733">
        <ele>1640.753</ele>
        <time>2012-06-24T10:13:08Z</time>
      </trkpt>
      <trkpt lat="42.76279" lon="1.42725">
        <ele>1641.973</ele>
        <time>2012-06-24T10:13:16Z</time>
      </trkpt>
      <trkpt lat="42.76285" lon="1.42721">
        <ele>1643.597</ele>
        <time>2012-06-24T10:13:24Z</time>
      </trkpt>
      <trkpt lat="42.76289" lon="1.42718">
        <ele>1645.009</ele>
        <time>2012-06-24T10:13:31Z</time>
      </trkpt>
      <trkpt lat="42.76292" lon="1.42711">
        <ele>1645.015</ele>
        <time>2012-06-24T10:13:39Z</time>
      </trkpt>
      <trkpt lat="42.76297" lon="1.42703">
        <ele>1645.831</ele>
        <time>2012-06-24T10:13:48Z</time>
      </trkpt>
      <trkpt lat="42.76297" lon="1.42701">
        <ele>1644.911</ele>
        <time>2012-06-24T10:13:50Z</time>
      </trkpt>
      <trkpt lat="42.76302" lon="1.42691">
        <ele>1645.693</ele>
        <time>2012-06-24T10:14:00Z</time>
      </trkpt>
      <trkpt lat="42.76306" lon="1.42685">
        <ele>1646.096</ele>
        <time>2012-06-24T10:14:08Z</time>
      </trkpt>
      <trkpt lat="42.7631" lon="1.42682">
        <ele>1647.529</ele>
        <time>2012-06-24T10:14:12Z</time>
      </trkpt>
      <trkpt lat="42.76314" lon="1.42674">
        <ele>1649.522</ele>
        <time>2012-06-24T10:14:22Z</time>
      </trkpt>
      <trkpt lat="42.76318" lon="1.4267">
        <ele>1651.531</ele>
        <time>2012-06-24T10:14:29Z</time>
      </trkpt>
      <trkpt lat="42.7632" lon="1.42671">
        <ele>1653.83</ele>
        <time>2012-06-24T10:14:36Z</time>
      </trkpt>
      <trkpt lat="42.76323" lon="1.42665">
        <ele>1654.708</ele>
        <time>2012-06-24T10:14:45Z</time>
      </trkpt>
      <trkpt lat="42.76325" lon="1.42669">
        <ele>1656.013</ele>
        <time>2012-06-24T10:14:50Z</time>
      </trkpt>
      <trkpt lat="42.76328" lon="1.42669">
        <ele>1656.885</ele>
        <time>2012-06-24T10:14:59Z</time>
      </trkpt>
      <trkpt lat="42.76331" lon="1.42662">
        <ele>1658.723</ele>
        <time>2012-06-24T10:15:07Z</time>
      </trkpt>
      <trkpt lat="42.76334" lon="1.42655">
        <ele>1659.404</ele>
        <time>2012-06-24T10:15:15Z</time>
      </trkpt>
      <trkpt lat="42.76337" lon="1.42652">
        <ele>1661.52</ele>
        <time>2012-06-24T10:15:22Z</time>
      </trkpt>
      <trkpt lat="42.76338" lon="1.42648">
        <ele>1662.149</ele>
        <time>2012-06-24T10:15:28Z</time>
      </trkpt>
      <trkpt lat="42.76342" lon="1.42649">
        <ele>1664.045</ele>
        <time>2012-06-24T10:15:35Z</time>
      </trkpt>
      <trkpt lat="42.76344" lon="1.42646">
        <ele>1665.384</ele>
        <time>2012-06-24T10:15:42Z</time>
      </trkpt>
      <trkpt lat="42.76347" lon="1.42641">
        <ele>1667.074</ele>
        <time>2012-06-24T10:15:49Z</time>
      </trkpt>
      <trkpt lat="42.76348" lon="1.42634">
        <ele>1668.398</ele>
        <time>2012-06-24T10:15:57Z</time>
      </trkpt>
      <trkpt lat="42.76347" lon="1.42634">
        <ele>1667.902</ele>
        <time>2012-06-24T10:15:58Z</time>
      </trkpt>
      <trkpt lat="42.76347" lon="1.42626">
        <ele>1668.421</ele>
        <time>2012-06-24T10:16:04Z</time>
      </trkpt>
      <trkpt lat="42.76348" lon="1.42623">
        <ele>1668.019</ele>
        <time>2012-06-24T10:16:07Z</time>
      </trkpt>
      <trkpt lat="42.76349" lon="1.4262">
        <ele>1668.844</ele>
        <time>2012-06-24T10:16:10Z</time>
      </trkpt>
      <trkpt lat="42.76353" lon="1.42607">
        <ele>1668.54</ele>
        <time>2012-06-24T10:16:21Z</time>
      </trkpt>
      <trkpt lat="42.76355" lon="1.42601">
        <ele>1667.415</ele>
        <time>2012-06-24T10:16:27Z</time>
      </trkpt>
      <trkpt lat="42.7636" lon="1.42597">
        <ele>1667.276</ele>
        <time>2012-06-24T10:16:33Z</time>
      </trkpt>
      <trkpt lat="42.76366" lon="1.42588">
        <ele>1667.313</ele>
        <time>2012-06-24T10:16:42Z</time>
      </trkpt>
      <trkpt lat="42.76367" lon="1.42587">
        <ele>1666.983</ele>
        <time>2012-06-24T10:16:43Z</time>
      </trkpt>
      <trkpt lat="42.76368" lon="1.42582">
        <ele>1666.494</ele>
        <time>2012-06-24T10:16:47Z</time>
      </trkpt>
      <trkpt lat="42.76367" lon="1.42571">
        <ele>1667.616</ele>
        <time>2012-06-24T10:16:55Z</time>
      </trkpt>
      <trkpt lat="42.76368" lon="1.42561">
        <ele>1669.066</ele>
        <time>2012-06-24T10:17:04Z</time>
      </trkpt>
      <trkpt lat="42.76368" lon="1.42559">
        <ele>1669.059</ele>
        <time>2012-06-24T10:17:07Z</time>
      </trkpt>
      <trkpt lat="42.76375" lon="1.42553">
        <ele>1669.446</ele>
        <time>2012-06-24T10:17:17Z</time>
      </trkpt>
      <trkpt lat="42.76379" lon="1.42546">
        <ele>1670.097</ele>
        <time>2012-06-24T10:17:24Z</time>
      </trkpt>
      <trkpt lat="42.76379" lon="1.42545">
        <ele>1669.695</ele>
        <time>2012-06-24T10:17:25Z</time>
      </trkpt>
      <trkpt lat="42.76385" lon="1.42534">
        <ele>1669.961</ele>
        <time>2012-06-24T10:17:34Z</time>
      </trkpt>
      <trkpt lat="42.76391" lon="1.42529">
        <ele>1670.461</ele>
        <time>2012-06-24T10:17:41Z</time>
      </trkpt>
      <trkpt lat="42.76394" lon="1.42524">
        <ele>1671.471</ele>
        <time>2012-06-24T10:17:46Z</time>
      </trkpt>
      <trkpt lat="42.76401" lon="1.42521">
        <ele>1671.711</ele>
        <time>2012-06-24T10:17:54Z</time>
      </trkpt>
      <trkpt lat="42.76403" lon="1.42518">
        <ele>1670.551</ele>
        <time>2012-06-24T10:18:03Z</time>
      </trkpt>
      <trkpt lat="42.76406" lon="1.42514">
        <ele>1668.783</ele>
        <time>2012-06-24T10:18:15Z</time>
      </trkpt>
      <trkpt lat="42.76406" lon="1.42509">
        <ele>1666.156</ele>
        <time>2012-06-24T10:18:21Z</time>
      </trkpt>
      <trkpt lat="42.76409" lon="1.42505">
        <ele>1665.835</ele>
        <time>2012-06-24T10:18:28Z</time>
      </trkpt>
      <trkpt lat="42.76409" lon="1.42494">
        <ele>1666.33</ele>
        <time>2012-06-24T10:18:37Z</time>
      </trkpt>
      <trkpt lat="42.76412" lon="1.42489">
        <ele>1665.834</ele>
        <time>2012-06-24T10:18:41Z</time>
      </trkpt>
      <trkpt lat="42.76416" lon="1.42475">
        <ele>1666.013</ele>
        <time>2012-06-24T10:18:51Z</time>
      </trkpt>
      <trkpt lat="42.76415" lon="1.42466">
        <ele>1666.217</ele>
        <time>2012-06-24T10:18:59Z</time>
      </trkpt>
      <trkpt lat="42.76415" lon="1.42456">
        <ele>1665.384</ele>
        <time>2012-06-24T10:19:07Z</time>
      </trkpt>
      <trkpt lat="42.76416" lon="1.42451">
        <ele>1665.314</ele>
        <time>2012-06-24T10:19:13Z</time>
      </trkpt>
      <trkpt lat="42.76416" lon="1.4245">
        <ele>1665.641</ele>
        <time>2012-06-24T10:19:14Z</time>
      </trkpt>
      <trkpt lat="42.76419" lon="1.42439">
        <ele>1664.713</ele>
        <time>2012-06-24T10:19:22Z</time>
      </trkpt>
      <trkpt lat="42.76418" lon="1.42429">
        <ele>1666.34</ele>
        <time>2012-06-24T10:19:29Z</time>
      </trkpt>
      <trkpt lat="42.76418" lon="1.42419">
        <ele>1666.538</ele>
        <time>2012-06-24T10:19:37Z</time>
      </trkpt>
      <trkpt lat="42.76417" lon="1.4241">
        <ele>1666.297</ele>
        <time>2012-06-24T10:19:45Z</time>
      </trkpt>
      <trkpt lat="42.76416" lon="1.42398">
        <ele>1665.365</ele>
        <time>2012-06-24T10:19:54Z</time>
      </trkpt>
      <trkpt lat="42.76418" lon="1.42391">
        <ele>1665.432</ele>
        <time>2012-06-24T10:19:59Z</time>
      </trkpt>
      <trkpt lat="42.76417" lon="1.42384">
        <ele>1666.272</ele>
        <time>2012-06-24T10:20:05Z</time>
      </trkpt>
      <trkpt lat="42.76414" lon="1.42376">
        <ele>1666.827</ele>
        <time>2012-06-24T10:20:13Z</time>
      </trkpt>
      <trkpt lat="42.76417" lon="1.42367">
        <ele>1666.164</ele>
        <time>2012-06-24T10:20:21Z</time>
      </trkpt>
      <trkpt lat="42.76417" lon="1.42363">
        <ele>1665.841</ele>
        <time>2012-06-24T10:20:24Z</time>
      </trkpt>
      <trkpt lat="42.76413" lon="1.42352">
        <ele>1665.722</ele>
        <time>2012-06-24T10:20:34Z</time>
      </trkpt>
      <trkpt lat="42.76409" lon="1.42343">
        <ele>1665.45</ele>
        <time>2012-06-24T10:20:42Z</time>
      </trkpt>
      <trkpt lat="42.76409" lon="1.42335">
        <ele>1665.657</ele>
        <time>2012-06-24T10:20:49Z</time>
      </trkpt>
      <trkpt lat="42.76406" lon="1.42323">
        <ele>1664.252</ele>
        <time>2012-06-24T10:20:58Z</time>
      </trkpt>
      <trkpt lat="42.76405" lon="1.4232">
        <ele>1663.153</ele>
        <time>2012-06-24T10:21:00Z</time>
      </trkpt>
      <trkpt lat="42.76404" lon="1.42316">
        <ele>1663.61</ele>
        <time>2012-06-24T10:21:03Z</time>
      </trkpt>
      <trkpt lat="42.76406" lon="1.42309">
        <ele>1663.247</ele>
        <time>2012-06-24T10:21:08Z</time>
      </trkpt>
      <trkpt lat="42.76408" lon="1.42303">
        <ele>1662.557</ele>
        <time>2012-06-24T10:21:15Z</time>
      </trkpt>
      <trkpt lat="42.76408" lon="1.42302">
        <ele>1662.419</ele>
        <time>2012-06-24T10:21:16Z</time>
      </trkpt>
      <trkpt lat="42.76411" lon="1.4229">
        <ele>1661.281</ele>
        <time>2012-06-24T10:21:26Z</time>
      </trkpt>
      <trkpt lat="42.76411" lon="1.42289">
        <ele>1661.202</ele>
        <time>2012-06-24T10:21:36Z</time>
      </trkpt>
      <trkpt lat="42.76412" lon="1.42288">
        <ele>1660.959</ele>
        <time>2012-06-24T10:21:37Z</time>
      </trkpt>
      <trkpt lat="42.76413" lon="1.42284">
        <ele>1659.469</ele>
        <time>2012-06-24T10:21:40Z</time>
      </trkpt>
      <trkpt lat="42.76414" lon="1.42279">
        <ele>1659.894</ele>
        <time>2012-06-24T10:21:44Z</time>
      </trkpt>
      <trkpt lat="42.76417" lon="1.42272">
        <ele>1658.776</ele>
        <time>2012-06-24T10:21:49Z</time>
      </trkpt>
      <trkpt lat="42.76424" lon="1.42261">
        <ele>1657.671</ele>
        <time>2012-06-24T10:21:58Z</time>
      </trkpt>
      <trkpt lat="42.76429" lon="1.42252">
        <ele>1658.073</ele>
        <time>2012-06-24T10:22:07Z</time>
      </trkpt>
      <trkpt lat="42.76433" lon="1.42249">
        <ele>1658.065</ele>
        <time>2012-06-24T10:22:12Z</time>
      </trkpt>
      <trkpt lat="42.76438" lon="1.4224">
        <ele>1657.76</ele>
        <time>2012-06-24T10:22:20Z</time>
      </trkpt>
      <trkpt lat="42.76441" lon="1.42238">
        <ele>1656.223</ele>
        <time>2012-06-24T10:22:23Z</time>
      </trkpt>
      <trkpt lat="42.76444" lon="1.42237">
        <ele>1657.177</ele>
        <time>2012-06-24T10:22:26Z</time>
      </trkpt>
      <trkpt lat="42.76446" lon="1.42234">
        <ele>1656.473</ele>
        <time>2012-06-24T10:22:29Z</time>
      </trkpt>
      <trkpt lat="42.76449" lon="1.42227">
        <ele>1656.198</ele>
        <time>2012-06-24T10:22:35Z</time>
      </trkpt>
      <trkpt lat="42.76446" lon="1.42221">
        <ele>1656.393</ele>
        <time>2012-06-24T10:22:42Z</time>
      </trkpt>
      <trkpt lat="42.76444" lon="1.42214">
        <ele>1656.884</ele>
        <time>2012-06-24T10:22:48Z</time>
      </trkpt>
      <trkpt lat="42.76443" lon="1.42205">
        <ele>1658.378</ele>
        <time>2012-06-24T10:22:56Z</time>
      </trkpt>
      <trkpt lat="42.76442" lon="1.4219">
        <ele>1657.758</ele>
        <time>2012-06-24T10:23:06Z</time>
      </trkpt>
      <trkpt lat="42.76448" lon="1.42179">
        <ele>1657.31</ele>
        <time>2012-06-24T10:23:15Z</time>
      </trkpt>
      <trkpt lat="42.76452" lon="1.42177">
        <ele>1656.927</ele>
        <time>2012-06-24T10:23:19Z</time>
      </trkpt>
      <trkpt lat="42.76452" lon="1.42172">
        <ele>1657.657</ele>
        <time>2012-06-24T10:23:23Z</time>
      </trkpt>
      <trkpt lat="42.76447" lon="1.42162">
        <ele>1657.007</ele>
        <time>2012-06-24T10:23:31Z</time>
      </trkpt>
      <trkpt lat="42.76447" lon="1.42159">
        <ele>1656.374</ele>
        <time>2012-06-24T10:23:33Z</time>
      </trkpt>
      <trkpt lat="42.76449" lon="1.42152">
        <ele>1656.065</ele>
        <time>2012-06-24T10:23:38Z</time>
      </trkpt>
      <trkpt lat="42.7645" lon="1.42151">
        <ele>1656.357</ele>
        <time>2012-06-24T10:23:39Z</time>
      </trkpt>
      <trkpt lat="42.76452" lon="1.42138">
        <ele>1654.97</ele>
        <time>2012-06-24T10:23:48Z</time>
      </trkpt>
      <trkpt lat="42.76454" lon="1.42131">
        <ele>1654.593</ele>
        <time>2012-06-24T10:23:53Z</time>
      </trkpt>
      <trkpt lat="42.76455" lon="1.42126">
        <ele>1654.922</ele>
        <time>2012-06-24T10:23:57Z</time>
      </trkpt>
      <trkpt lat="42.76459" lon="1.42119">
        <ele>1653.892</ele>
        <time>2012-06-24T10:24:03Z</time>
      </trkpt>
      <trkpt lat="42.7646" lon="1.42115">
        <ele>1653.026</ele>
        <time>2012-06-24T10:24:06Z</time>
      </trkpt>
      <trkpt lat="42.7647" lon="1.42099">
        <ele>1652.494</ele>
        <time>2012-06-24T10:24:18Z</time>
      </trkpt>
      <trkpt lat="42.76471" lon="1.42098">
        <ele>1652.342</ele>
        <time>2012-06-24T10:24:19Z</time>
      </trkpt>
      <trkpt lat="42.76475" lon="1.42091">
        <ele>1651.357</ele>
        <time>2012-06-24T10:24:24Z</time>
      </trkpt>
      <trkpt lat="42.76479" lon="1.42086">
        <ele>1651.868</ele>
        <time>2012-06-24T10:24:29Z</time>
      </trkpt>
      <trkpt lat="42.76483" lon="1.42077">
        <ele>1649.845</ele>
        <time>2012-06-24T10:24:38Z</time>
      </trkpt>
      <trkpt lat="42.76485" lon="1.42073">
        <ele>1648.886</ele>
        <time>2012-06-24T10:24:44Z</time>
      </trkpt>
      <trkpt lat="42.76486" lon="1.4207">
        <ele>1648.151</ele>
        <time>2012-06-24T10:24:47Z</time>
      </trkpt>
      <trkpt lat="42.7649" lon="1.42066">
        <ele>1648.352</ele>
        <time>2012-06-24T10:24:52Z</time>
      </trkpt>
      <trkpt lat="42.76494" lon="1.42056">
        <ele>1647.24</ele>
        <time>2012-06-24T10:25:01Z</time>
      </trkpt>
      <trkpt lat="42.76495" lon="1.42052">
        <ele>1647.071</ele>
        <time>2012-06-24T10:25:06Z</time>
      </trkpt>
      <trkpt lat="42.765" lon="1.42047">
        <ele>1647.696</ele>
        <time>2012-06-24T10:25:12Z</time>
      </trkpt>
      <trkpt lat="42.76503" lon="1.42042">
        <ele>1648.589</ele>
        <time>2012-06-24T10:25:18Z</time>
      </trkpt>
      <trkpt lat="42.76505" lon="1.42038">
        <ele>1648.182</ele>
        <time>2012-06-24T10:25:27Z</time>
      </trkpt>
      <trkpt lat="42.76505" lon="1.42034">
        <ele>1647.303</ele>
        <time>2012-06-24T10:25:34Z</time>
      </trkpt>
      <trkpt lat="42.76507" lon="1.42029">
        <ele>1646.972</ele>
        <time>2012-06-24T10:25:40Z</time>
      </trkpt>
      <trkpt lat="42.76508" lon="1.42026">
        <ele>1646.504</ele>
        <time>2012-06-24T10:25:43Z</time>
      </trkpt>
      <trkpt lat="42.76512" lon="1.4202">
        <ele>1646.804</ele>
        <time>2012-06-24T10:25:49Z</time>
      </trkpt>
      <trkpt lat="42.76514" lon="1.42011">
        <ele>1646.861</ele>
        <time>2012-06-24T10:25:57Z</time>
      </trkpt>
      <trkpt lat="42.76513" lon="1.42005">
        <ele>1647.403</ele>
        <time>2012-06-24T10:26:03Z</time>
      </trkpt>
      <trkpt lat="42.76514" lon="1.41999">
        <ele>1647.261</ele>
        <time>2012-06-24T10:26:12Z</time>
      </trkpt>
      <trkpt lat="42.76514" lon="1.41998">
        <ele>1646.922</ele>
        <time>2012-06-24T10:26:13Z</time>
      </trkpt>
      <trkpt lat="42.76515" lon="1.41995">
        <ele>1646.839</ele>
        <time>2012-06-24T10:26:15Z</time>
      </trkpt>
      <trkpt lat="42.76518" lon="1.41986">
        <ele>1648.194</ele>
        <time>2012-06-24T10:26:22Z</time>
      </trkpt>
      <trkpt lat="42.7652" lon="1.41979">
        <ele>1649.28</ele>
        <time>2012-06-24T10:26:29Z</time>
      </trkpt>
      <trkpt lat="42.76522" lon="1.41974">
        <ele>1650</ele>
        <time>2012-06-24T10:26:36Z</time>
      </trkpt>
      <trkpt lat="42.76524" lon="1.41971">
        <ele>1650.667</ele>
        <time>2012-06-24T10:26:42Z</time>
      </trkpt>
      <trkpt lat="42.76529" lon="1.4196">
        <ele>1650.252</ele>
        <time>2012-06-24T10:26:52Z</time>
      </trkpt>
      <trkpt lat="42.76528" lon="1.41957">
        <ele>1650.547</ele>
        <time>2012-06-24T10:26:55Z</time>
      </trkpt>
      <trkpt lat="42.76532" lon="1.4195">
        <ele>1649.076</ele>
        <time>2012-06-24T10:27:03Z</time>
      </trkpt>
      <trkpt lat="42.76535" lon="1.41943">
        <ele>1648.196</ele>
        <time>2012-06-24T10:27:12Z</time>
      </trkpt>
      <trkpt lat="42.76536" lon="1.41936">
        <ele>1647.139</ele>
        <time>2012-06-24T10:27:20Z</time>
      </trkpt>
      <trkpt lat="42.76539" lon="1.41928">
        <ele>1646.406</ele>
        <time>2012-06-24T10:27:28Z</time>
      </trkpt>
      <trkpt lat="42.7654" lon="1.41926">
        <ele>1646.256</ele>
        <time>2012-06-24T10:27:30Z</time>
      </trkpt>
      <trkpt lat="42.76545" lon="1.41922">
        <ele>1647.096</ele>
        <time>2012-06-24T10:27:36Z</time>
      </trkpt>
      <trkpt lat="42.76552" lon="1.41913">
        <ele>1646.997</ele>
        <time>2012-06-24T10:27:44Z</time>
      </trkpt>
      <trkpt lat="42.76558" lon="1.41903">
        <ele>1647.467</ele>
        <time>2012-06-24T10:27:54Z</time>
      </trkpt>
      <trkpt lat="42.7656" lon="1.41891">
        <ele>1647.089</ele>
        <time>2012-06-24T10:28:02Z</time>
      </trkpt>
      <trkpt lat="42.76564" lon="1.41883">
        <ele>1647.185</ele>
        <time>2012-06-24T10:28:08Z</time>
      </trkpt>
      <trkpt lat="42.76567" lon="1.41881">
        <ele>1647.901</ele>
        <time>2012-06-24T10:28:13Z</time>
      </trkpt>
      <trkpt lat="42.7657" lon="1.4188">
        <ele>1649.027</ele>
        <time>2012-06-24T10:28:17Z</time>
      </trkpt>
      <trkpt lat="42.76574" lon="1.41874">
        <ele>1649.654</ele>
        <time>2012-06-24T10:28:23Z</time>
      </trkpt>
      <trkpt lat="42.76577" lon="1.41871">
        <ele>1650.674</ele>
        <time>2012-06-24T10:28:28Z</time>
      </trkpt>
      <trkpt lat="42.76581" lon="1.41868">
        <ele>1652.01</ele>
        <time>2012-06-24T10:28:33Z</time>
      </trkpt>
      <trkpt lat="42.76587" lon="1.41863">
        <ele>1653.737</ele>
        <time>2012-06-24T10:28:44Z</time>
      </trkpt>
      <trkpt lat="42.76588" lon="1.41862">
        <ele>1654.487</ele>
        <time>2012-06-24T10:28:46Z</time>
      </trkpt>
      <trkpt lat="42.76591" lon="1.41861">
        <ele>1655.213</ele>
        <time>2012-06-24T10:28:51Z</time>
      </trkpt>
      <trkpt lat="42.76592" lon="1.41856">
        <ele>1656.569</ele>
        <time>2012-06-24T10:28:57Z</time>
      </trkpt>
      <trkpt lat="42.76594" lon="1.4185">
        <ele>1657.308</ele>
        <time>2012-06-24T10:29:04Z</time>
      </trkpt>
      <trkpt lat="42.76593" lon="1.41846">
        <ele>1657.484</ele>
        <time>2012-06-24T10:29:07Z</time>
      </trkpt>
      <trkpt lat="42.76598" lon="1.41843">
        <ele>1657.338</ele>
        <time>2012-06-24T10:29:14Z</time>
      </trkpt>
      <trkpt lat="42.766" lon="1.41839">
        <ele>1658.065</ele>
        <time>2012-06-24T10:29:21Z</time>
      </trkpt>
      <trkpt lat="42.76603" lon="1.41837">
        <ele>1658.214</ele>
        <time>2012-06-24T10:29:25Z</time>
      </trkpt>
      <trkpt lat="42.76605" lon="1.41826">
        <ele>1658.818</ele>
        <time>2012-06-24T10:29:34Z</time>
      </trkpt>
      <trkpt lat="42.76611" lon="1.41816">
        <ele>1659.349</ele>
        <time>2012-06-24T10:29:43Z</time>
      </trkpt>
      <trkpt lat="42.76612" lon="1.41811">
        <ele>1659.297</ele>
        <time>2012-06-24T10:29:49Z</time>
      </trkpt>
      <trkpt lat="42.76617" lon="1.41802">
        <ele>1660.078</ele>
        <time>2012-06-24T10:29:58Z</time>
      </trkpt>
      <trkpt lat="42.76619" lon="1.41797">
        <ele>1660.013</ele>
        <time>2012-06-24T10:30:03Z</time>
      </trkpt>
      <trkpt lat="42.76623" lon="1.41788">
        <ele>1659.379</ele>
        <time>2012-06-24T10:30:11Z</time>
      </trkpt>
      <trkpt lat="42.76626" lon="1.4178">
        <ele>1660.104</ele>
        <time>2012-06-24T10:30:19Z</time>
      </trkpt>
      <trkpt lat="42.76627" lon="1.41772">
        <ele>1659.36</ele>
        <time>2012-06-24T10:30:25Z</time>
      </trkpt>
      <trkpt lat="42.76628" lon="1.41769">
        <ele>1658.933</ele>
        <time>2012-06-24T10:30:27Z</time>
      </trkpt>
      <trkpt lat="42.76631" lon="1.4176">
        <ele>1659.63</ele>
        <time>2012-06-24T10:30:35Z</time>
      </trkpt>
      <trkpt lat="42.76631" lon="1.41759">
        <ele>1659.037</ele>
        <time>2012-06-24T10:30:36Z</time>
      </trkpt>
      <trkpt lat="42.7663" lon="1.41756">
        <ele>1659.452</ele>
        <time>2012-06-24T10:30:38Z</time>
      </trkpt>
      <trkpt lat="42.76619" lon="1.41748">
        <ele>1659.084</ele>
        <time>2012-06-24T10:30:47Z</time>
      </trkpt>
      <trkpt lat="42.76617" lon="1.41742">
        <ele>1659.564</ele>
        <time>2012-06-24T10:30:52Z</time>
      </trkpt>
      <trkpt lat="42.76613" lon="1.41735">
        <ele>1658.59</ele>
        <time>2012-06-24T10:30:58Z</time>
      </trkpt>
      <trkpt lat="42.76609" lon="1.41732">
        <ele>1658.529</ele>
        <time>2012-06-24T10:31:02Z</time>
      </trkpt>
      <trkpt lat="42.76602" lon="1.41717">
        <ele>1656.451</ele>
        <time>2012-06-24T10:31:13Z</time>
      </trkpt>
      <trkpt lat="42.766" lon="1.41713">
        <ele>1656.686</ele>
        <time>2012-06-24T10:31:16Z</time>
      </trkpt>
      <trkpt lat="42.76595" lon="1.41708">
        <ele>1656.34</ele>
        <time>2012-06-24T10:31:22Z</time>
      </trkpt>
      <trkpt lat="42.76593" lon="1.41697">
        <ele>1657.374</ele>
        <time>2012-06-24T10:31:30Z</time>
      </trkpt>
      <trkpt lat="42.76592" lon="1.41694">
        <ele>1657.184</ele>
        <time>2012-06-24T10:31:32Z</time>
      </trkpt>
      <trkpt lat="42.7659" lon="1.41686">
        <ele>1657.77</ele>
        <time>2012-06-24T10:31:37Z</time>
      </trkpt>
      <trkpt lat="42.76594" lon="1.41672">
        <ele>1658.994</ele>
        <time>2012-06-24T10:31:47Z</time>
      </trkpt>
      <trkpt lat="42.76599" lon="1.41662">
        <ele>1659.615</ele>
        <time>2012-06-24T10:31:56Z</time>
      </trkpt>
      <trkpt lat="42.76602" lon="1.41659">
        <ele>1661.037</ele>
        <time>2012-06-24T10:32:01Z</time>
      </trkpt>
      <trkpt lat="42.76603" lon="1.41658">
        <ele>1661.274</ele>
        <time>2012-06-24T10:32:03Z</time>
      </trkpt>
      <trkpt lat="42.7661" lon="1.41654">
        <ele>1662.278</ele>
        <time>2012-06-24T10:32:12Z</time>
      </trkpt>
      <trkpt lat="42.76613" lon="1.41649">
        <ele>1661.286</ele>
        <time>2012-06-24T10:32:17Z</time>
      </trkpt>
      <trkpt lat="42.76619" lon="1.41633">
        <ele>1659.034</ele>
        <time>2012-06-24T10:32:28Z</time>
      </trkpt>
      <trkpt lat="42.76626" lon="1.4162">
        <ele>1659.147</ele>
        <time>2012-06-24T10:32:39Z</time>
      </trkpt>
      <trkpt lat="42.76633" lon="1.41607">
        <ele>1658.434</ele>
        <time>2012-06-24T10:32:49Z</time>
      </trkpt>
      <trkpt lat="42.76636" lon="1.41593">
        <ele>1658.575</ele>
        <time>2012-06-24T10:32:58Z</time>
      </trkpt>
      <trkpt lat="42.76635" lon="1.41577">
        <ele>1657.109</ele>
        <time>2012-06-24T10:33:07Z</time>
      </trkpt>
      <trkpt lat="42.76635" lon="1.41572">
        <ele>1657.525</ele>
        <time>2012-06-24T10:33:10Z</time>
      </trkpt>
      <trkpt lat="42.76637" lon="1.41566">
        <ele>1656.321</ele>
        <time>2012-06-24T10:33:14Z</time>
      </trkpt>
      <trkpt lat="42.76638" lon="1.41558">
        <ele>1656.544</ele>
        <time>2012-06-24T10:33:20Z</time>
      </trkpt>
      <trkpt lat="42.76641" lon="1.4155">
        <ele>1656.442</ele>
        <time>2012-06-24T10:33:26Z</time>
      </trkpt>
      <trkpt lat="42.76646" lon="1.41532">
        <ele>1656.997</ele>
        <time>2012-06-24T10:33:37Z</time>
      </trkpt>
      <trkpt lat="42.76652" lon="1.41521">
        <ele>1658.327</ele>
        <time>2012-06-24T10:33:46Z</time>
      </trkpt>
      <trkpt lat="42.76655" lon="1.41512">
        <ele>1658.682</ele>
        <time>2012-06-24T10:33:54Z</time>
      </trkpt>
      <trkpt lat="42.76657" lon="1.4151">
        <ele>1659.283</ele>
        <time>2012-06-24T10:33:56Z</time>
      </trkpt>
      <trkpt lat="42.7666" lon="1.41499">
        <ele>1659.462</ele>
        <time>2012-06-24T10:34:04Z</time>
      </trkpt>
      <trkpt lat="42.76658" lon="1.41492">
        <ele>1660.443</ele>
        <time>2012-06-24T10:34:10Z</time>
      </trkpt>
      <trkpt lat="42.76658" lon="1.41487">
        <ele>1660.599</ele>
        <time>2012-06-24T10:34:14Z</time>
      </trkpt>
      <trkpt lat="42.76655" lon="1.41484">
        <ele>1661.005</ele>
        <time>2012-06-24T10:34:17Z</time>
      </trkpt>
      <trkpt lat="42.76642" lon="1.41486">
        <ele>1659.999</ele>
        <time>2012-06-24T10:34:28Z</time>
      </trkpt>
      <trkpt lat="42.76641" lon="1.41485">
        <ele>1660.001</ele>
        <time>2012-06-24T10:34:29Z</time>
      </trkpt>
      <trkpt lat="42.76642" lon="1.41474">
        <ele>1659.596</ele>
        <time>2012-06-24T10:34:39Z</time>
      </trkpt>
      <trkpt lat="42.76641" lon="1.41473">
        <ele>1659.354</ele>
        <time>2012-06-24T10:34:41Z</time>
      </trkpt>
      <trkpt lat="42.76634" lon="1.41459">
        <ele>1659.202</ele>
        <time>2012-06-24T10:34:52Z</time>
      </trkpt>
      <trkpt lat="42.76629" lon="1.41446">
        <ele>1660.628</ele>
        <time>2012-06-24T10:35:02Z</time>
      </trkpt>
      <trkpt lat="42.76624" lon="1.41438">
        <ele>1661.719</ele>
        <time>2012-06-24T10:35:11Z</time>
      </trkpt>
      <trkpt lat="42.76621" lon="1.41432">
        <ele>1660.184</ele>
        <time>2012-06-24T10:35:18Z</time>
      </trkpt>
      <trkpt lat="42.7662" lon="1.4143">
        <ele>1659.953</ele>
        <time>2012-06-24T10:35:21Z</time>
      </trkpt>
      <trkpt lat="42.76613" lon="1.41427">
        <ele>1658.07</ele>
        <time>2012-06-24T10:35:30Z</time>
      </trkpt>
      <trkpt lat="42.76609" lon="1.41419">
        <ele>1656.906</ele>
        <time>2012-06-24T10:35:40Z</time>
      </trkpt>
      <trkpt lat="42.76606" lon="1.41412">
        <ele>1655.416</ele>
        <time>2012-06-24T10:35:47Z</time>
      </trkpt>
      <trkpt lat="42.76603" lon="1.41407">
        <ele>1654.462</ele>
        <time>2012-06-24T10:35:52Z</time>
      </trkpt>
      <trkpt lat="42.76594" lon="1.41402">
        <ele>1652.414</ele>
        <time>2012-06-24T10:36:02Z</time>
      </trkpt>
      <trkpt lat="42.76592" lon="1.41401">
        <ele>1652.146</ele>
        <time>2012-06-24T10:36:04Z</time>
      </trkpt>
      <trkpt lat="42.76579" lon="1.41394">
        <ele>1650.987</ele>
        <time>2012-06-24T10:36:15Z</time>
      </trkpt>
      <trkpt lat="42.7657" lon="1.41388">
        <ele>1651.829</ele>
        <time>2012-06-24T10:36:25Z</time>
      </trkpt>
      <trkpt lat="42.76566" lon="1.41386">
        <ele>1651.931</ele>
        <time>2012-06-24T10:36:30Z</time>
      </trkpt>
      <trkpt lat="42.76552" lon="1.41382">
        <ele>1651.66</ele>
        <time>2012-06-24T10:36:43Z</time>
      </trkpt>
      <trkpt lat="42.76545" lon="1.41375">
        <ele>1651.64</ele>
        <time>2012-06-24T10:36:52Z</time>
      </trkpt>
      <trkpt lat="42.76542" lon="1.41373">
        <ele>1652.898</ele>
        <time>2012-06-24T10:36:57Z</time>
      </trkpt>
      <trkpt lat="42.76537" lon="1.41376">
        <ele>1654.354</ele>
        <time>2012-06-24T10:37:04Z</time>
      </trkpt>
      <trkpt lat="42.76536" lon="1.41376">
        <ele>1654.568</ele>
        <time>2012-06-24T10:37:05Z</time>
      </trkpt>
      <trkpt lat="42.7653" lon="1.41373">
        <ele>1655.629</ele>
        <time>2012-06-24T10:37:13Z</time>
      </trkpt>
      <trkpt lat="42.76526" lon="1.41365">
        <ele>1656.374</ele>
        <time>2012-06-24T10:37:22Z</time>
      </trkpt>
      <trkpt lat="42.76521" lon="1.4136">
        <ele>1656.065</ele>
        <time>2012-06-24T10:37:28Z</time>
      </trkpt>
      <trkpt lat="42.7652" lon="1.41354">
        <ele>1657.891</ele>
        <time>2012-06-24T10:37:38Z</time>
      </trkpt>
      <trkpt lat="42.76521" lon="1.41353">
        <ele>1661.845</ele>
        <time>2012-06-24T10:37:55Z</time>
      </trkpt>
      <trkpt lat="42.76521" lon="1.41353">
        <ele>1656.116</ele>
        <time>2012-06-24T10:37:56Z</time>
      </trkpt>
      <trkpt lat="42.76521" lon="1.41353">
        <ele>1659.716</ele>
        <time>2012-06-24T10:37:57Z</time>
      </trkpt>
      <trkpt lat="42.76524" lon="1.41348">
        <ele>1657.655</ele>
        <time>2012-06-24T10:38:12Z</time>
      </trkpt>
      <trkpt lat="42.76525" lon="1.41351">
        <ele>1658.36</ele>
        <time>2012-06-24T10:38:18Z</time>
      </trkpt>
      <trkpt lat="42.76509" lon="1.41345">
        <ele>1658.119</ele>
        <time>2012-06-24T10:39:06Z</time>
      </trkpt>
      <trkpt lat="42.76512" lon="1.41344">
        <ele>1658.487</ele>
        <time>2012-06-24T10:39:19Z</time>
      </trkpt>
      <trkpt lat="42.76513" lon="1.41344">
        <ele>1661.075</ele>
        <time>2012-06-24T10:40:09Z</time>
      </trkpt>
      <trkpt lat="42.76514" lon="1.41344">
        <ele>1659.195</ele>
        <time>2012-06-24T10:40:11Z</time>
      </trkpt>
      <trkpt lat="42.76523" lon="1.41349">
        <ele>1658.67</ele>
        <time>2012-06-24T10:41:45Z</time>
      </trkpt>
      <trkpt lat="42.76525" lon="1.4135">
        <ele>1657.999</ele>
        <time>2012-06-24T10:41:52Z</time>
      </trkpt>
      <trkpt lat="42.76529" lon="1.41351">
        <ele>1658.887</ele>
        <time>2012-06-24T10:42:02Z</time>
      </trkpt>
      <trkpt lat="42.76526" lon="1.41348">
        <ele>1658.305</ele>
        <time>2012-06-24T10:42:09Z</time>
      </trkpt>
      <trkpt lat="42.76522" lon="1.41354">
        <ele>1659.064</ele>
        <time>2012-06-24T10:42:17Z</time>
      </trkpt>
      <trkpt lat="42.76518" lon="1.41351">
        <ele>1658.745</ele>
        <time>2012-06-24T10:42:29Z</time>
      </trkpt>
      <trkpt lat="42.76513" lon="1.41344">
        <ele>1659.577</ele>
        <time>2012-06-24T10:43:02Z</time>
      </trkpt>
      <trkpt lat="42.76522" lon="1.41353">
        <ele>1659.215</ele>
        <time>2012-06-24T10:43:21Z</time>
      </trkpt>
      <trkpt lat="42.76522" lon="1.41353">
        <ele>1659.462</ele>
        <time>2012-06-24T10:43:28Z</time>
      </trkpt>
      <trkpt lat="42.76523" lon="1.41357">
        <ele>1659.127</ele>
        <time>2012-06-24T10:43:34Z</time>
      </trkpt>
      <trkpt lat="42.76525" lon="1.41358">
        <ele>1659.006</ele>
        <time>2012-06-24T10:43:43Z</time>
      </trkpt>
      <trkpt lat="42.76523" lon="1.41351">
        <ele>1658.856</ele>
        <time>2012-06-24T10:43:46Z</time>
      </trkpt>
      <trkpt lat="42.7652" lon="1.41339">
        <ele>1658.214</ele>
        <time>2012-06-24T10:43:55Z</time>
      </trkpt>
      <trkpt lat="42.76519" lon="1.41338">
        <ele>1658.148</ele>
        <time>2012-06-24T10:44:21Z</time>
      </trkpt>
      <trkpt lat="42.76512" lon="1.41336">
        <ele>1658.212</ele>
        <time>2012-06-24T10:44:29Z</time>
      </trkpt>
      <trkpt lat="42.7651" lon="1.41335">
        <ele>1657.957</ele>
        <time>2012-06-24T10:44:31Z</time>
      </trkpt>
      <trkpt lat="42.76507" lon="1.41333">
        <ele>1657.756</ele>
        <time>2012-06-24T10:44:34Z</time>
      </trkpt>
      <trkpt lat="42.76507" lon="1.41341">
        <ele>1657.752</ele>
        <time>2012-06-24T10:44:42Z</time>
      </trkpt>
      <trkpt lat="42.76502" lon="1.41348">
        <ele>1656.182</ele>
        <time>2012-06-24T10:44:52Z</time>
      </trkpt>
      <trkpt lat="42.76499" lon="1.41349">
        <ele>1655.402</ele>
        <time>2012-06-24T10:45:02Z</time>
      </trkpt>
      <trkpt lat="42.76498" lon="1.41352">
        <ele>1654.231</ele>
        <time>2012-06-24T10:45:11Z</time>
      </trkpt>
      <trkpt lat="42.76498" lon="1.41353">
        <ele>1654.367</ele>
        <time>2012-06-24T10:45:39Z</time>
      </trkpt>
      <trkpt lat="42.76499" lon="1.41353">
        <ele>1654.091</ele>
        <time>2012-06-24T10:46:14Z</time>
      </trkpt>
      <trkpt lat="42.76498" lon="1.41355">
        <ele>1653.465</ele>
        <time>2012-06-24T10:46:29Z</time>
      </trkpt>
      <trkpt lat="42.76498" lon="1.41354">
        <ele>1653.623</ele>
        <time>2012-06-24T10:46:43Z</time>
      </trkpt>
      <trkpt lat="42.76492" lon="1.41358">
        <ele>1651.654</ele>
        <time>2012-06-24T10:46:52Z</time>
      </trkpt>
      <trkpt lat="42.76493" lon="1.41355">
        <ele>1649.283</ele>
        <time>2012-06-24T10:46:58Z</time>
      </trkpt>
      <trkpt lat="42.7649" lon="1.4135">
        <ele>1650.848</ele>
        <time>2012-06-24T10:47:06Z</time>
      </trkpt>
      <trkpt lat="42.76483" lon="1.41343">
        <ele>1651.453</ele>
        <time>2012-06-24T10:47:14Z</time>
      </trkpt>
      <trkpt lat="42.76483" lon="1.41342">
        <ele>1651.07</ele>
        <time>2012-06-24T10:47:15Z</time>
      </trkpt>
      <trkpt lat="42.76475" lon="1.41328">
        <ele>1652.225</ele>
        <time>2012-06-24T10:47:25Z</time>
      </trkpt>
      <trkpt lat="42.76465" lon="1.41323">
        <ele>1651.055</ele>
        <time>2012-06-24T10:47:35Z</time>
      </trkpt>
      <trkpt lat="42.7646" lon="1.41322">
        <ele>1650.851</ele>
        <time>2012-06-24T10:47:42Z</time>
      </trkpt>
      <trkpt lat="42.76458" lon="1.41322">
        <ele>1651.905</ele>
        <time>2012-06-24T10:47:44Z</time>
      </trkpt>
      <trkpt lat="42.76454" lon="1.41324">
        <ele>1652.5</ele>
        <time>2012-06-24T10:47:52Z</time>
      </trkpt>
      <trkpt lat="42.7645" lon="1.41327">
        <ele>1652.746</ele>
        <time>2012-06-24T10:47:58Z</time>
      </trkpt>
      <trkpt lat="42.76448" lon="1.41327">
        <ele>1654.583</ele>
        <time>2012-06-24T10:48:01Z</time>
      </trkpt>
      <trkpt lat="42.76446" lon="1.41328">
        <ele>1655.94</ele>
        <time>2012-06-24T10:48:08Z</time>
      </trkpt>
      <trkpt lat="42.76443" lon="1.41328">
        <ele>1658.023</ele>
        <time>2012-06-24T10:48:15Z</time>
      </trkpt>
      <trkpt lat="42.76437" lon="1.41332">
        <ele>1657.303</ele>
        <time>2012-06-24T10:48:23Z</time>
      </trkpt>
      <trkpt lat="42.76432" lon="1.41334">
        <ele>1656.612</ele>
        <time>2012-06-24T10:48:28Z</time>
      </trkpt>
      <trkpt lat="42.76422" lon="1.41332">
        <ele>1657.653</ele>
        <time>2012-06-24T10:48:38Z</time>
      </trkpt>
      <trkpt lat="42.76419" lon="1.41335">
        <ele>1658.405</ele>
        <time>2012-06-24T10:48:45Z</time>
      </trkpt>
      <trkpt lat="42.76414" lon="1.41339">
        <ele>1659.833</ele>
        <time>2012-06-24T10:48:53Z</time>
      </trkpt>
      <trkpt lat="42.7641" lon="1.4135">
        <ele>1659.012</ele>
        <time>2012-06-24T10:49:02Z</time>
      </trkpt>
      <trkpt lat="42.76404" lon="1.41353">
        <ele>1657.52</ele>
        <time>2012-06-24T10:49:09Z</time>
      </trkpt>
      <trkpt lat="42.76397" lon="1.41351">
        <ele>1657.517</ele>
        <time>2012-06-24T10:49:16Z</time>
      </trkpt>
      <trkpt lat="42.76386" lon="1.41348">
        <ele>1657.289</ele>
        <time>2012-06-24T10:49:26Z</time>
      </trkpt>
      <trkpt lat="42.7638" lon="1.4135">
        <ele>1656.828</ele>
        <time>2012-06-24T10:49:35Z</time>
      </trkpt>
      <trkpt lat="42.76382" lon="1.4135">
        <ele>1656.362</ele>
        <time>2012-06-24T10:49:42Z</time>
      </trkpt>
      <trkpt lat="42.76384" lon="1.41355">
        <ele>1658.316</ele>
        <time>2012-06-24T10:49:49Z</time>
      </trkpt>
      <trkpt lat="42.76382" lon="1.41363">
        <ele>1657.986</ele>
        <time>2012-06-24T10:49:58Z</time>
      </trkpt>
      <trkpt lat="42.76379" lon="1.41364">
        <ele>1657.347</ele>
        <time>2012-06-24T10:50:05Z</time>
      </trkpt>
      <trkpt lat="42.76377" lon="1.41363">
        <ele>1657.595</ele>
        <time>2012-06-24T10:50:14Z</time>
      </trkpt>
      <trkpt lat="42.76378" lon="1.41362">
        <ele>1656.872</ele>
        <time>2012-06-24T10:50:30Z</time>
      </trkpt>
      <trkpt lat="42.76378" lon="1.41362">
        <ele>1656.797</ele>
        <time>2012-06-24T10:50:47Z</time>
      </trkpt>
      <trkpt lat="42.76376" lon="1.41365">
        <ele>1656.799</ele>
        <time>2012-06-24T10:51:00Z</time>
      </trkpt>
      <trkpt lat="42.76375" lon="1.41366">
        <ele>1656.215</ele>
        <time>2012-06-24T10:51:10Z</time>
      </trkpt>
      <trkpt lat="42.76379" lon="1.41362">
        <ele>1656.849</ele>
        <time>2012-06-24T10:51:22Z</time>
      </trkpt>
      <trkpt lat="42.76379" lon="1.4136">
        <ele>1656.578</ele>
        <time>2012-06-24T10:51:32Z</time>
      </trkpt>
      <trkpt lat="42.76379" lon="1.41359">
        <ele>1658.123</ele>
        <time>2012-06-24T10:51:48Z</time>
      </trkpt>
      <trkpt lat="42.76379" lon="1.4136">
        <ele>1657.265</ele>
        <time>2012-06-24T10:52:15Z</time>
      </trkpt>
      <trkpt lat="42.76379" lon="1.41361">
        <ele>1656.392</ele>
        <time>2012-06-24T10:52:30Z</time>
      </trkpt>
      <trkpt lat="42.76379" lon="1.41361">
        <ele>1656.333</ele>
        <time>2012-06-24T10:52:40Z</time>
      </trkpt>
      <trkpt lat="42.76378" lon="1.41362">
        <ele>1655.927</ele>
        <time>2012-06-24T11:35:01Z</time>
      </trkpt>
      <trkpt lat="42.76377" lon="1.41361">
        <ele>1655.377</ele>
        <time>2012-06-24T11:35:38Z</time>
      </trkpt>
      <trkpt lat="42.76377" lon="1.41361">
        <ele>1655.735</ele>
        <time>2012-06-24T11:35:39Z</time>
      </trkpt>
      <trkpt lat="42.76378" lon="1.41362">
        <ele>1657.732</ele>
        <time>2012-06-24T11:35:44Z</time>
      </trkpt>
      <trkpt lat="42.76377" lon="1.41362">
        <ele>1654.512</ele>
        <time>2012-06-24T11:36:08Z</time>
      </trkpt>
      <trkpt lat="42.76377" lon="1.41362">
        <ele>1654.511</ele>
        <time>2012-06-24T11:36:09Z</time>
      </trkpt>
      <trkpt lat="42.76377" lon="1.41362">
        <ele>1659.82</ele>
        <time>2012-06-24T11:36:10Z</time>
      </trkpt>
      <trkpt lat="42.76377" lon="1.41362">
        <ele>1658.348</ele>
        <time>2012-06-24T11:36:11Z</time>
      </trkpt>
      <trkpt lat="42.76377" lon="1.41362">
        <ele>1656.893</ele>
        <time>2012-06-24T11:36:13Z</time>
      </trkpt>
      <trkpt lat="42.76377" lon="1.41362">
        <ele>1656.574</ele>
        <time>2012-06-24T11:36:24Z</time>
      </trkpt>
      <trkpt lat="42.76381" lon="1.41363">
        <ele>1659.194</ele>
        <time>2012-06-24T11:43:22Z</time>
      </trkpt>
      <trkpt lat="42.76386" lon="1.41362">
        <ele>1656.888</ele>
        <time>2012-06-24T11:43:29Z</time>
      </trkpt>
      <trkpt lat="42.76387" lon="1.41361">
        <ele>1656.977</ele>
        <time>2012-06-24T11:43:30Z</time>
      </trkpt>
      <trkpt lat="42.76388" lon="1.41354">
        <ele>1657.194</ele>
        <time>2012-06-24T11:43:35Z</time>
      </trkpt>
      <trkpt lat="42.76383" lon="1.4135">
        <ele>1656.767</ele>
        <time>2012-06-24T11:43:43Z</time>
      </trkpt>
      <trkpt lat="42.76382" lon="1.4135">
        <ele>1656.036</ele>
        <time>2012-06-24T11:43:59Z</time>
      </trkpt>
      <trkpt lat="42.76381" lon="1.41348">
        <ele>1656.054</ele>
        <time>2012-06-24T11:45:43Z</time>
      </trkpt>
      <trkpt lat="42.76381" lon="1.41348">
        <ele>1656.139</ele>
        <time>2012-06-24T11:46:02Z</time>
      </trkpt>
      <trkpt lat="42.76385" lon="1.4135">
        <ele>1656.866</ele>
        <time>2012-06-24T11:46:08Z</time>
      </trkpt>
      <trkpt lat="42.76387" lon="1.41358">
        <ele>1656.797</ele>
        <time>2012-06-24T11:46:16Z</time>
      </trkpt>
      <trkpt lat="42.76388" lon="1.41359">
        <ele>1657.399</ele>
        <time>2012-06-24T11:46:33Z</time>
      </trkpt>
      <trkpt lat="42.76389" lon="1.41361">
        <ele>1657.601</ele>
        <time>2012-06-24T11:46:42Z</time>
      </trkpt>
      <trkpt lat="42.76385" lon="1.41361">
        <ele>1658.015</ele>
        <time>2012-06-24T11:46:50Z</time>
      </trkpt>
      <trkpt lat="42.7638" lon="1.4136">
        <ele>1657.15</ele>
        <time>2012-06-24T11:47:02Z</time>
      </trkpt>
      <trkpt lat="42.76388" lon="1.41362">
        <ele>1657.254</ele>
        <time>2012-06-24T11:48:49Z</time>
      </trkpt>
      <trkpt lat="42.7639" lon="1.41361">
        <ele>1656.361</ele>
        <time>2012-06-24T11:49:07Z</time>
      </trkpt>
      <trkpt lat="42.76393" lon="1.41363">
        <ele>1655.845</ele>
        <time>2012-06-24T11:49:15Z</time>
      </trkpt>
      <trkpt lat="42.76394" lon="1.41361">
        <ele>1655.423</ele>
        <time>2012-06-24T11:49:20Z</time>
      </trkpt>
      <trkpt lat="42.764" lon="1.41359">
        <ele>1656.876</ele>
        <time>2012-06-24T11:49:27Z</time>
      </trkpt>
      <trkpt lat="42.76408" lon="1.41363">
        <ele>1657.216</ele>
        <time>2012-06-24T11:49:36Z</time>
      </trkpt>
      <trkpt lat="42.76409" lon="1.41363">
        <ele>1657.479</ele>
        <time>2012-06-24T11:49:37Z</time>
      </trkpt>
      <trkpt lat="42.7642" lon="1.41359">
        <ele>1656.172</ele>
        <time>2012-06-24T11:49:48Z</time>
      </trkpt>
      <trkpt lat="42.76424" lon="1.41352">
        <ele>1656.877</ele>
        <time>2012-06-24T11:49:55Z</time>
      </trkpt>
      <trkpt lat="42.76425" lon="1.41347">
        <ele>1656.251</ele>
        <time>2012-06-24T11:50:01Z</time>
      </trkpt>
      <trkpt lat="42.76425" lon="1.41346">
        <ele>1656.101</ele>
        <time>2012-06-24T11:50:02Z</time>
      </trkpt>
      <trkpt lat="42.76426" lon="1.41345">
        <ele>1656.448</ele>
        <time>2012-06-24T11:50:03Z</time>
      </trkpt>
      <trkpt lat="42.76436" lon="1.41342">
        <ele>1657.06</ele>
        <time>2012-06-24T11:50:14Z</time>
      </trkpt>
      <trkpt lat="42.76439" lon="1.41341">
        <ele>1656.128</ele>
        <time>2012-06-24T11:50:16Z</time>
      </trkpt>
      <trkpt lat="42.76444" lon="1.41337">
        <ele>1656.508</ele>
        <time>2012-06-24T11:50:25Z</time>
      </trkpt>
      <trkpt lat="42.76445" lon="1.41335">
        <ele>1657.688</ele>
        <time>2012-06-24T11:50:27Z</time>
      </trkpt>
      <trkpt lat="42.76447" lon="1.41332">
        <ele>1657.959</ele>
        <time>2012-06-24T11:50:33Z</time>
      </trkpt>
      <trkpt lat="42.76447" lon="1.41329">
        <ele>1657.761</ele>
        <time>2012-06-24T11:50:35Z</time>
      </trkpt>
      <trkpt lat="42.76441" lon="1.4132">
        <ele>1657.94</ele>
        <time>2012-06-24T11:50:43Z</time>
      </trkpt>
      <trkpt lat="42.76442" lon="1.41315">
        <ele>1656.299</ele>
        <time>2012-06-24T11:50:49Z</time>
      </trkpt>
      <trkpt lat="42.76444" lon="1.41314">
        <ele>1655.308</ele>
        <time>2012-06-24T11:50:55Z</time>
      </trkpt>
      <trkpt lat="42.76445" lon="1.41317">
        <ele>1653.995</ele>
        <time>2012-06-24T11:51:01Z</time>
      </trkpt>
      <trkpt lat="42.76448" lon="1.41316">
        <ele>1653.06</ele>
        <time>2012-06-24T11:51:05Z</time>
      </trkpt>
      <trkpt lat="42.76454" lon="1.41316">
        <ele>1651.143</ele>
        <time>2012-06-24T11:51:13Z</time>
      </trkpt>
      <trkpt lat="42.76459" lon="1.41322">
        <ele>1650.895</ele>
        <time>2012-06-24T11:51:21Z</time>
      </trkpt>
      <trkpt lat="42.7646" lon="1.41323">
        <ele>1649.984</ele>
        <time>2012-06-24T11:51:25Z</time>
      </trkpt>
      <trkpt lat="42.76469" lon="1.41322">
        <ele>1651.032</ele>
        <time>2012-06-24T11:51:32Z</time>
      </trkpt>
      <trkpt lat="42.7647" lon="1.41323">
        <ele>1651.259</ele>
        <time>2012-06-24T11:51:33Z</time>
      </trkpt>
      <trkpt lat="42.76478" lon="1.41335">
        <ele>1650.645</ele>
        <time>2012-06-24T11:51:42Z</time>
      </trkpt>
      <trkpt lat="42.76484" lon="1.41344">
        <ele>1650.899</ele>
        <time>2012-06-24T11:51:50Z</time>
      </trkpt>
      <trkpt lat="42.76488" lon="1.41348">
        <ele>1649.825</ele>
        <time>2012-06-24T11:51:55Z</time>
      </trkpt>
      <trkpt lat="42.76492" lon="1.41353">
        <ele>1650.439</ele>
        <time>2012-06-24T11:52:01Z</time>
      </trkpt>
      <trkpt lat="42.76495" lon="1.41356">
        <ele>1651.622</ele>
        <time>2012-06-24T11:52:07Z</time>
      </trkpt>
      <trkpt lat="42.76498" lon="1.41353">
        <ele>1653.293</ele>
        <time>2012-06-24T11:52:13Z</time>
      </trkpt>
      <trkpt lat="42.76499" lon="1.41351">
        <ele>1654.351</ele>
        <time>2012-06-24T11:52:18Z</time>
      </trkpt>
      <trkpt lat="42.76504" lon="1.41347">
        <ele>1655.641</ele>
        <time>2012-06-24T11:52:25Z</time>
      </trkpt>
      <trkpt lat="42.7651" lon="1.41342">
        <ele>1657.375</ele>
        <time>2012-06-24T11:52:32Z</time>
      </trkpt>
      <trkpt lat="42.76511" lon="1.4134">
        <ele>1657.621</ele>
        <time>2012-06-24T11:52:34Z</time>
      </trkpt>
      <trkpt lat="42.76515" lon="1.41339">
        <ele>1657.27</ele>
        <time>2012-06-24T11:52:39Z</time>
      </trkpt>
      <trkpt lat="42.76517" lon="1.4134">
        <ele>1657.771</ele>
        <time>2012-06-24T11:52:41Z</time>
      </trkpt>
      <trkpt lat="42.7652" lon="1.4135">
        <ele>1658.054</ele>
        <time>2012-06-24T11:52:49Z</time>
      </trkpt>
      <trkpt lat="42.76523" lon="1.41361">
        <ele>1657.247</ele>
        <time>2012-06-24T11:52:59Z</time>
      </trkpt>
      <trkpt lat="42.76527" lon="1.41366">
        <ele>1657.385</ele>
        <time>2012-06-24T11:53:05Z</time>
      </trkpt>
      <trkpt lat="42.76528" lon="1.41367">
        <ele>1657.178</ele>
        <time>2012-06-24T11:53:06Z</time>
      </trkpt>
      <trkpt lat="42.76537" lon="1.41372">
        <ele>1655.728</ele>
        <time>2012-06-24T11:53:17Z</time>
      </trkpt>
      <trkpt lat="42.76538" lon="1.41371">
        <ele>1654.598</ele>
        <time>2012-06-24T11:53:23Z</time>
      </trkpt>
      <trkpt lat="42.76541" lon="1.41373">
        <ele>1652.86</ele>
        <time>2012-06-24T11:53:29Z</time>
      </trkpt>
      <trkpt lat="42.76547" lon="1.41378">
        <ele>1652.14</ele>
        <time>2012-06-24T11:53:37Z</time>
      </trkpt>
      <trkpt lat="42.76555" lon="1.41381">
        <ele>1652.474</ele>
        <time>2012-06-24T11:53:44Z</time>
      </trkpt>
      <trkpt lat="42.76564" lon="1.41384">
        <ele>1651.797</ele>
        <time>2012-06-24T11:53:53Z</time>
      </trkpt>
      <trkpt lat="42.76573" lon="1.41388">
        <ele>1652.539</ele>
        <time>2012-06-24T11:54:02Z</time>
      </trkpt>
      <trkpt lat="42.7658" lon="1.41394">
        <ele>1652.5</ele>
        <time>2012-06-24T11:54:11Z</time>
      </trkpt>
      <trkpt lat="42.76585" lon="1.41398">
        <ele>1652.155</ele>
        <time>2012-06-24T11:54:16Z</time>
      </trkpt>
      <trkpt lat="42.76588" lon="1.414">
        <ele>1652.281</ele>
        <time>2012-06-24T11:54:20Z</time>
      </trkpt>
      <trkpt lat="42.76592" lon="1.41402">
        <ele>1654.049</ele>
        <time>2012-06-24T11:54:26Z</time>
      </trkpt>
      <trkpt lat="42.76598" lon="1.41405">
        <ele>1655.64</ele>
        <time>2012-06-24T11:54:34Z</time>
      </trkpt>
      <trkpt lat="42.76604" lon="1.41413">
        <ele>1656.605</ele>
        <time>2012-06-24T11:54:43Z</time>
      </trkpt>
      <trkpt lat="42.76608" lon="1.4142">
        <ele>1657.409</ele>
        <time>2012-06-24T11:54:51Z</time>
      </trkpt>
      <trkpt lat="42.76611" lon="1.41423">
        <ele>1658.607</ele>
        <time>2012-06-24T11:54:57Z</time>
      </trkpt>
      <trkpt lat="42.76614" lon="1.4143">
        <ele>1659.763</ele>
        <time>2012-06-24T11:55:05Z</time>
      </trkpt>
      <trkpt lat="42.76618" lon="1.41432">
        <ele>1661.155</ele>
        <time>2012-06-24T11:55:11Z</time>
      </trkpt>
      <trkpt lat="42.76621" lon="1.41434">
        <ele>1661.768</ele>
        <time>2012-06-24T11:55:17Z</time>
      </trkpt>
      <trkpt lat="42.76623" lon="1.41437">
        <ele>1663.02</ele>
        <time>2012-06-24T11:55:21Z</time>
      </trkpt>
      <trkpt lat="42.76626" lon="1.41438">
        <ele>1662.352</ele>
        <time>2012-06-24T11:55:24Z</time>
      </trkpt>
      <trkpt lat="42.76628" lon="1.41444">
        <ele>1662.188</ele>
        <time>2012-06-24T11:55:28Z</time>
      </trkpt>
      <trkpt lat="42.76631" lon="1.41456">
        <ele>1661.196</ele>
        <time>2012-06-24T11:55:36Z</time>
      </trkpt>
      <trkpt lat="42.76636" lon="1.41469">
        <ele>1661.034</ele>
        <time>2012-06-24T11:55:46Z</time>
      </trkpt>
      <trkpt lat="42.76637" lon="1.4147">
        <ele>1660.564</ele>
        <time>2012-06-24T11:55:53Z</time>
      </trkpt>
      <trkpt lat="42.7664" lon="1.41469">
        <ele>1660.462</ele>
        <time>2012-06-24T11:56:14Z</time>
      </trkpt>
      <trkpt lat="42.76642" lon="1.41468">
        <ele>1661.03</ele>
        <time>2012-06-24T11:56:20Z</time>
      </trkpt>
      <trkpt lat="42.76644" lon="1.41472">
        <ele>1660.413</ele>
        <time>2012-06-24T11:56:26Z</time>
      </trkpt>
      <trkpt lat="42.76647" lon="1.41474">
        <ele>1661.399</ele>
        <time>2012-06-24T11:56:30Z</time>
      </trkpt>
      <trkpt lat="42.76648" lon="1.41476">
        <ele>1662.278</ele>
        <time>2012-06-24T11:56:32Z</time>
      </trkpt>
      <trkpt lat="42.7665" lon="1.41478">
        <ele>1661.171</ele>
        <time>2012-06-24T11:56:35Z</time>
      </trkpt>
      <trkpt lat="42.76653" lon="1.41479">
        <ele>1662.47</ele>
        <time>2012-06-24T11:56:38Z</time>
      </trkpt>
      <trkpt lat="42.76654" lon="1.41484">
        <ele>1662.593</ele>
        <time>2012-06-24T11:56:46Z</time>
      </trkpt>
      <trkpt lat="42.76655" lon="1.41485">
        <ele>1662.551</ele>
        <time>2012-06-24T11:57:03Z</time>
      </trkpt>
      <trkpt lat="42.76657" lon="1.41484">
        <ele>1662.465</ele>
        <time>2012-06-24T11:57:28Z</time>
      </trkpt>
      <trkpt lat="42.76656" lon="1.41487">
        <ele>1662.725</ele>
        <time>2012-06-24T11:57:39Z</time>
      </trkpt>
      <trkpt lat="42.76657" lon="1.41487">
        <ele>1662.689</ele>
        <time>2012-06-24T11:57:40Z</time>
      </trkpt>
      <trkpt lat="42.76657" lon="1.41496">
        <ele>1660.752</ele>
        <time>2012-06-24T11:57:48Z</time>
      </trkpt>
      <trkpt lat="42.76657" lon="1.415">
        <ele>1660.144</ele>
        <time>2012-06-24T11:57:51Z</time>
      </trkpt>
      <trkpt lat="42.76656" lon="1.41505">
        <ele>1659.87</ele>
        <time>2012-06-24T11:57:55Z</time>
      </trkpt>
      <trkpt lat="42.76654" lon="1.41511">
        <ele>1660.521</ele>
        <time>2012-06-24T11:58:00Z</time>
      </trkpt>
      <trkpt lat="42.76653" lon="1.41514">
        <ele>1659.735</ele>
        <time>2012-06-24T11:58:02Z</time>
      </trkpt>
      <trkpt lat="42.76647" lon="1.41527">
        <ele>1657.71</ele>
        <time>2012-06-24T11:58:12Z</time>
      </trkpt>
      <trkpt lat="42.76642" lon="1.41534">
        <ele>1658.275</ele>
        <time>2012-06-24T11:58:18Z</time>
      </trkpt>
      <trkpt lat="42.7664" lon="1.4154">
        <ele>1658.719</ele>
        <time>2012-06-24T11:58:28Z</time>
      </trkpt>
      <trkpt lat="42.76639" lon="1.41554">
        <ele>1657.755</ele>
        <time>2012-06-24T11:58:37Z</time>
      </trkpt>
      <trkpt lat="42.76636" lon="1.41559">
        <ele>1657.591</ele>
        <time>2012-06-24T11:58:42Z</time>
      </trkpt>
      <trkpt lat="42.76635" lon="1.41567">
        <ele>1657.815</ele>
        <time>2012-06-24T11:58:47Z</time>
      </trkpt>
      <trkpt lat="42.76633" lon="1.41571">
        <ele>1658.411</ele>
        <time>2012-06-24T11:58:50Z</time>
      </trkpt>
      <trkpt lat="42.76634" lon="1.41579">
        <ele>1658.421</ele>
        <time>2012-06-24T11:58:58Z</time>
      </trkpt>
      <trkpt lat="42.76634" lon="1.4158">
        <ele>1658.421</ele>
        <time>2012-06-24T11:59:15Z</time>
      </trkpt>
      <trkpt lat="42.76634" lon="1.41588">
        <ele>1658.664</ele>
        <time>2012-06-24T11:59:24Z</time>
      </trkpt>
      <trkpt lat="42.76634" lon="1.4159">
        <ele>1658.662</ele>
        <time>2012-06-24T11:59:25Z</time>
      </trkpt>
      <trkpt lat="42.76633" lon="1.41601">
        <ele>1658.623</ele>
        <time>2012-06-24T11:59:32Z</time>
      </trkpt>
      <trkpt lat="42.76631" lon="1.41608">
        <ele>1659.059</ele>
        <time>2012-06-24T11:59:37Z</time>
      </trkpt>
      <trkpt lat="42.76624" lon="1.4162">
        <ele>1660.403</ele>
        <time>2012-06-24T11:59:47Z</time>
      </trkpt>
      <trkpt lat="42.76623" lon="1.41622">
        <ele>1660.929</ele>
        <time>2012-06-24T11:59:49Z</time>
      </trkpt>
      <trkpt lat="42.76618" lon="1.4163">
        <ele>1660.599</ele>
        <time>2012-06-24T11:59:56Z</time>
      </trkpt>
      <trkpt lat="42.76613" lon="1.41645">
        <ele>1662.114</ele>
        <time>2012-06-24T12:00:07Z</time>
      </trkpt>
      <trkpt lat="42.76612" lon="1.41648">
        <ele>1663.232</ele>
        <time>2012-06-24T12:00:09Z</time>
      </trkpt>
      <trkpt lat="42.76612" lon="1.4165">
        <ele>1663.238</ele>
        <time>2012-06-24T12:00:10Z</time>
      </trkpt>
      <trkpt lat="42.76604" lon="1.41658">
        <ele>1663.704</ele>
        <time>2012-06-24T12:00:19Z</time>
      </trkpt>
      <trkpt lat="42.76599" lon="1.41661">
        <ele>1661.552</ele>
        <time>2012-06-24T12:00:25Z</time>
      </trkpt>
      <trkpt lat="42.76597" lon="1.41663">
        <ele>1660.233</ele>
        <time>2012-06-24T12:00:28Z</time>
      </trkpt>
      <trkpt lat="42.76592" lon="1.41672">
        <ele>1658.948</ele>
        <time>2012-06-24T12:00:35Z</time>
      </trkpt>
      <trkpt lat="42.7659" lon="1.41685">
        <ele>1657.692</ele>
        <time>2012-06-24T12:00:43Z</time>
      </trkpt>
      <trkpt lat="42.76593" lon="1.41702">
        <ele>1657.46</ele>
        <time>2012-06-24T12:00:53Z</time>
      </trkpt>
      <trkpt lat="42.76593" lon="1.41703">
        <ele>1657.439</ele>
        <time>2012-06-24T12:00:58Z</time>
      </trkpt>
      <trkpt lat="42.76594" lon="1.41702">
        <ele>1657.855</ele>
        <time>2012-06-24T12:01:12Z</time>
      </trkpt>
      <trkpt lat="42.76595" lon="1.41708">
        <ele>1657.48</ele>
        <time>2012-06-24T12:01:20Z</time>
      </trkpt>
      <trkpt lat="42.76602" lon="1.41716">
        <ele>1657.509</ele>
        <time>2012-06-24T12:01:29Z</time>
      </trkpt>
      <trkpt lat="42.76604" lon="1.41724">
        <ele>1658.293</ele>
        <time>2012-06-24T12:01:35Z</time>
      </trkpt>
      <trkpt lat="42.7661" lon="1.41733">
        <ele>1659.118</ele>
        <time>2012-06-24T12:01:44Z</time>
      </trkpt>
      <trkpt lat="42.76613" lon="1.41737">
        <ele>1659.288</ele>
        <time>2012-06-24T12:01:48Z</time>
      </trkpt>
      <trkpt lat="42.76615" lon="1.41743">
        <ele>1659.884</ele>
        <time>2012-06-24T12:01:53Z</time>
      </trkpt>
      <trkpt lat="42.76619" lon="1.4175">
        <ele>1660.166</ele>
        <time>2012-06-24T12:02:00Z</time>
      </trkpt>
      <trkpt lat="42.76622" lon="1.41752">
        <ele>1660.252</ele>
        <time>2012-06-24T12:02:07Z</time>
      </trkpt>
      <trkpt lat="42.76624" lon="1.41758">
        <ele>1658.906</ele>
        <time>2012-06-24T12:02:12Z</time>
      </trkpt>
      <trkpt lat="42.76627" lon="1.41763">
        <ele>1658.787</ele>
        <time>2012-06-24T12:02:19Z</time>
      </trkpt>
      <trkpt lat="42.76628" lon="1.41767">
        <ele>1659.351</ele>
        <time>2012-06-24T12:02:23Z</time>
      </trkpt>
      <trkpt lat="42.76626" lon="1.41771">
        <ele>1659.304</ele>
        <time>2012-06-24T12:02:26Z</time>
      </trkpt>
      <trkpt lat="42.76626" lon="1.4178">
        <ele>1660.062</ele>
        <time>2012-06-24T12:02:34Z</time>
      </trkpt>
      <trkpt lat="42.76621" lon="1.41789">
        <ele>1660.393</ele>
        <time>2012-06-24T12:02:41Z</time>
      </trkpt>
      <trkpt lat="42.76619" lon="1.41799">
        <ele>1660.89</ele>
        <time>2012-06-24T12:02:50Z</time>
      </trkpt>
      <trkpt lat="42.76615" lon="1.41806">
        <ele>1660.834</ele>
        <time>2012-06-24T12:02:57Z</time>
      </trkpt>
      <trkpt lat="42.76609" lon="1.41813">
        <ele>1660.22</ele>
        <time>2012-06-24T12:03:04Z</time>
      </trkpt>
      <trkpt lat="42.76606" lon="1.4182">
        <ele>1660.667</ele>
        <time>2012-06-24T12:03:10Z</time>
      </trkpt>
      <trkpt lat="42.76605" lon="1.41827">
        <ele>1660.195</ele>
        <time>2012-06-24T12:03:16Z</time>
      </trkpt>
      <trkpt lat="42.76604" lon="1.41831">
        <ele>1660.101</ele>
        <time>2012-06-24T12:03:19Z</time>
      </trkpt>
      <trkpt lat="42.76604" lon="1.41833">
        <ele>1659.765</ele>
        <time>2012-06-24T12:03:21Z</time>
      </trkpt>
      <trkpt lat="42.76603" lon="1.41837">
        <ele>1659.023</ele>
        <time>2012-06-24T12:03:24Z</time>
      </trkpt>
      <trkpt lat="42.76605" lon="1.41842">
        <ele>1659.222</ele>
        <time>2012-06-24T12:03:27Z</time>
      </trkpt>
      <trkpt lat="42.76605" lon="1.41851">
        <ele>1659.169</ele>
        <time>2012-06-24T12:03:34Z</time>
      </trkpt>
      <trkpt lat="42.76607" lon="1.41854">
        <ele>1660.03</ele>
        <time>2012-06-24T12:03:37Z</time>
      </trkpt>
      <trkpt lat="42.76605" lon="1.41859">
        <ele>1660.219</ele>
        <time>2012-06-24T12:03:42Z</time>
      </trkpt>
      <trkpt lat="42.76607" lon="1.41864">
        <ele>1660.977</ele>
        <time>2012-06-24T12:03:47Z</time>
      </trkpt>
      <trkpt lat="42.76605" lon="1.41867">
        <ele>1660.937</ele>
        <time>2012-06-24T12:03:51Z</time>
      </trkpt>
      <trkpt lat="42.76599" lon="1.41875">
        <ele>1661.008</ele>
        <time>2012-06-24T12:03:59Z</time>
      </trkpt>
      <trkpt lat="42.76596" lon="1.4188">
        <ele>1662.007</ele>
        <time>2012-06-24T12:04:06Z</time>
      </trkpt>
      <trkpt lat="42.76595" lon="1.41881">
        <ele>1661.59</ele>
        <time>2012-06-24T12:04:08Z</time>
      </trkpt>
      <trkpt lat="42.76588" lon="1.41889">
        <ele>1661.456</ele>
        <time>2012-06-24T12:04:16Z</time>
      </trkpt>
      <trkpt lat="42.76582" lon="1.41897">
        <ele>1662.154</ele>
        <time>2012-06-24T12:04:24Z</time>
      </trkpt>
      <trkpt lat="42.7658" lon="1.41902">
        <ele>1662.528</ele>
        <time>2012-06-24T12:04:28Z</time>
      </trkpt>
      <trkpt lat="42.76578" lon="1.41903">
        <ele>1663.075</ele>
        <time>2012-06-24T12:04:30Z</time>
      </trkpt>
      <trkpt lat="42.76575" lon="1.41911">
        <ele>1661.268</ele>
        <time>2012-06-24T12:04:37Z</time>
      </trkpt>
      <trkpt lat="42.76574" lon="1.41912">
        <ele>1661.928</ele>
        <time>2012-06-24T12:04:39Z</time>
      </trkpt>
      <trkpt lat="42.76571" lon="1.41916">
        <ele>1661.703</ele>
        <time>2012-06-24T12:04:43Z</time>
      </trkpt>
      <trkpt lat="42.76569" lon="1.4192">
        <ele>1660.426</ele>
        <time>2012-06-24T12:04:48Z</time>
      </trkpt>
      <trkpt lat="42.76565" lon="1.41919">
        <ele>1659.569</ele>
        <time>2012-06-24T12:04:52Z</time>
      </trkpt>
      <trkpt lat="42.76559" lon="1.41924">
        <ele>1659.488</ele>
        <time>2012-06-24T12:05:00Z</time>
      </trkpt>
      <trkpt lat="42.76557" lon="1.41928">
        <ele>1659.326</ele>
        <time>2012-06-24T12:05:04Z</time>
      </trkpt>
      <trkpt lat="42.76556" lon="1.41932">
        <ele>1659.416</ele>
        <time>2012-06-24T12:05:07Z</time>
      </trkpt>
      <trkpt lat="42.76552" lon="1.4194">
        <ele>1659.303</ele>
        <time>2012-06-24T12:05:14Z</time>
      </trkpt>
      <trkpt lat="42.7655" lon="1.41947">
        <ele>1658.953</ele>
        <time>2012-06-24T12:05:21Z</time>
      </trkpt>
      <trkpt lat="42.76549" lon="1.41949">
        <ele>1658.531</ele>
        <time>2012-06-24T12:05:23Z</time>
      </trkpt>
      <trkpt lat="42.76543" lon="1.4195">
        <ele>1656.811</ele>
        <time>2012-06-24T12:05:29Z</time>
      </trkpt>
      <trkpt lat="42.7654" lon="1.41956">
        <ele>1656.546</ele>
        <time>2012-06-24T12:05:34Z</time>
      </trkpt>
      <trkpt lat="42.76536" lon="1.41957">
        <ele>1656.661</ele>
        <time>2012-06-24T12:05:37Z</time>
      </trkpt>
      <trkpt lat="42.76531" lon="1.41966">
        <ele>1656.024</ele>
        <time>2012-06-24T12:05:46Z</time>
      </trkpt>
      <trkpt lat="42.7653" lon="1.41973">
        <ele>1654.871</ele>
        <time>2012-06-24T12:05:53Z</time>
      </trkpt>
      <trkpt lat="42.76529" lon="1.41978">
        <ele>1654.1</ele>
        <time>2012-06-24T12:05:59Z</time>
      </trkpt>
      <trkpt lat="42.76528" lon="1.41981">
        <ele>1653.757</ele>
        <time>2012-06-24T12:06:04Z</time>
      </trkpt>
      <trkpt lat="42.76526" lon="1.41981">
        <ele>1653.115</ele>
        <time>2012-06-24T12:06:06Z</time>
      </trkpt>
      <trkpt lat="42.76521" lon="1.41987">
        <ele>1651.529</ele>
        <time>2012-06-24T12:06:13Z</time>
      </trkpt>
      <trkpt lat="42.76519" lon="1.41991">
        <ele>1650.453</ele>
        <time>2012-06-24T12:06:17Z</time>
      </trkpt>
      <trkpt lat="42.76516" lon="1.41998">
        <ele>1649.475</ele>
        <time>2012-06-24T12:06:23Z</time>
      </trkpt>
      <trkpt lat="42.7651" lon="1.42003">
        <ele>1648.293</ele>
        <time>2012-06-24T12:06:30Z</time>
      </trkpt>
      <trkpt lat="42.76509" lon="1.42014">
        <ele>1648.065</ele>
        <time>2012-06-24T12:06:38Z</time>
      </trkpt>
      <trkpt lat="42.76508" lon="1.42016">
        <ele>1648.186</ele>
        <time>2012-06-24T12:06:40Z</time>
      </trkpt>
      <trkpt lat="42.76506" lon="1.42023">
        <ele>1648.508</ele>
        <time>2012-06-24T12:06:46Z</time>
      </trkpt>
      <trkpt lat="42.76503" lon="1.42027">
        <ele>1648.029</ele>
        <time>2012-06-24T12:06:52Z</time>
      </trkpt>
      <trkpt lat="42.76503" lon="1.4203">
        <ele>1648.34</ele>
        <time>2012-06-24T12:06:55Z</time>
      </trkpt>
      <trkpt lat="42.76501" lon="1.42039">
        <ele>1649.477</ele>
        <time>2012-06-24T12:07:04Z</time>
      </trkpt>
      <trkpt lat="42.765" lon="1.42041">
        <ele>1650.926</ele>
        <time>2012-06-24T12:07:08Z</time>
      </trkpt>
      <trkpt lat="42.76498" lon="1.42044">
        <ele>1649.757</ele>
        <time>2012-06-24T12:07:13Z</time>
      </trkpt>
      <trkpt lat="42.76494" lon="1.4205">
        <ele>1649.429</ele>
        <time>2012-06-24T12:07:21Z</time>
      </trkpt>
      <trkpt lat="42.76492" lon="1.42056">
        <ele>1649.172</ele>
        <time>2012-06-24T12:07:28Z</time>
      </trkpt>
      <trkpt lat="42.7649" lon="1.42061">
        <ele>1649.489</ele>
        <time>2012-06-24T12:07:33Z</time>
      </trkpt>
      <trkpt lat="42.76487" lon="1.42065">
        <ele>1649.823</ele>
        <time>2012-06-24T12:07:37Z</time>
      </trkpt>
      <trkpt lat="42.76483" lon="1.42071">
        <ele>1650.207</ele>
        <time>2012-06-24T12:07:44Z</time>
      </trkpt>
      <trkpt lat="42.76479" lon="1.42076">
        <ele>1651.718</ele>
        <time>2012-06-24T12:07:51Z</time>
      </trkpt>
      <trkpt lat="42.76479" lon="1.4208">
        <ele>1652.686</ele>
        <time>2012-06-24T12:07:55Z</time>
      </trkpt>
      <trkpt lat="42.76477" lon="1.42087">
        <ele>1653.805</ele>
        <time>2012-06-24T12:08:02Z</time>
      </trkpt>
      <trkpt lat="42.76476" lon="1.42089">
        <ele>1654.319</ele>
        <time>2012-06-24T12:08:04Z</time>
      </trkpt>
      <trkpt lat="42.7647" lon="1.42096">
        <ele>1654.731</ele>
        <time>2012-06-24T12:08:12Z</time>
      </trkpt>
      <trkpt lat="42.76465" lon="1.42104">
        <ele>1655.043</ele>
        <time>2012-06-24T12:08:20Z</time>
      </trkpt>
      <trkpt lat="42.76458" lon="1.42113">
        <ele>1654.87</ele>
        <time>2012-06-24T12:08:29Z</time>
      </trkpt>
      <trkpt lat="42.76457" lon="1.42115">
        <ele>1655.261</ele>
        <time>2012-06-24T12:08:31Z</time>
      </trkpt>
      <trkpt lat="42.76455" lon="1.42124">
        <ele>1656.415</ele>
        <time>2012-06-24T12:08:38Z</time>
      </trkpt>
      <trkpt lat="42.76453" lon="1.42128">
        <ele>1656.601</ele>
        <time>2012-06-24T12:08:42Z</time>
      </trkpt>
      <trkpt lat="42.76451" lon="1.42131">
        <ele>1657.096</ele>
        <time>2012-06-24T12:08:45Z</time>
      </trkpt>
      <trkpt lat="42.76449" lon="1.42139">
        <ele>1657.008</ele>
        <time>2012-06-24T12:08:51Z</time>
      </trkpt>
      <trkpt lat="42.76448" lon="1.4215">
        <ele>1658.006</ele>
        <time>2012-06-24T12:09:00Z</time>
      </trkpt>
      <trkpt lat="42.76449" lon="1.42151">
        <ele>1658.153</ele>
        <time>2012-06-24T12:09:01Z</time>
      </trkpt>
      <trkpt lat="42.76449" lon="1.42155">
        <ele>1658.315</ele>
        <time>2012-06-24T12:09:04Z</time>
      </trkpt>
      <trkpt lat="42.76447" lon="1.42159">
        <ele>1658.873</ele>
        <time>2012-06-24T12:09:08Z</time>
      </trkpt>
      <trkpt lat="42.76449" lon="1.4217">
        <ele>1658.926</ele>
        <time>2012-06-24T12:09:15Z</time>
      </trkpt>
      <trkpt lat="42.76452" lon="1.42174">
        <ele>1658.762</ele>
        <time>2012-06-24T12:09:20Z</time>
      </trkpt>
      <trkpt lat="42.76452" lon="1.42178">
        <ele>1658.83</ele>
        <time>2012-06-24T12:09:23Z</time>
      </trkpt>
      <trkpt lat="42.76448" lon="1.42183">
        <ele>1659.235</ele>
        <time>2012-06-24T12:09:28Z</time>
      </trkpt>
      <trkpt lat="42.76441" lon="1.42189">
        <ele>1658.858</ele>
        <time>2012-06-24T12:09:36Z</time>
      </trkpt>
      <trkpt lat="42.7644" lon="1.42191">
        <ele>1659.121</ele>
        <time>2012-06-24T12:09:38Z</time>
      </trkpt>
      <trkpt lat="42.76439" lon="1.42197">
        <ele>1659.799</ele>
        <time>2012-06-24T12:09:42Z</time>
      </trkpt>
      <trkpt lat="42.76442" lon="1.42211">
        <ele>1658.774</ele>
        <time>2012-06-24T12:09:52Z</time>
      </trkpt>
      <trkpt lat="42.76443" lon="1.42217">
        <ele>1658.841</ele>
        <time>2012-06-24T12:09:56Z</time>
      </trkpt>
      <trkpt lat="42.76444" lon="1.42225">
        <ele>1657.989</ele>
        <time>2012-06-24T12:10:04Z</time>
      </trkpt>
      <trkpt lat="42.76446" lon="1.42231">
        <ele>1658.528</ele>
        <time>2012-06-24T12:10:10Z</time>
      </trkpt>
      <trkpt lat="42.76441" lon="1.42235">
        <ele>1658.271</ele>
        <time>2012-06-24T12:10:17Z</time>
      </trkpt>
      <trkpt lat="42.76436" lon="1.42239">
        <ele>1658.532</ele>
        <time>2012-06-24T12:10:24Z</time>
      </trkpt>
      <trkpt lat="42.76435" lon="1.42241">
        <ele>1659.036</ele>
        <time>2012-06-24T12:10:26Z</time>
      </trkpt>
      <trkpt lat="42.76433" lon="1.42243">
        <ele>1658.768</ele>
        <time>2012-06-24T12:10:29Z</time>
      </trkpt>
      <trkpt lat="42.76428" lon="1.4225">
        <ele>1659.608</ele>
        <time>2012-06-24T12:10:36Z</time>
      </trkpt>
      <trkpt lat="42.76421" lon="1.4226">
        <ele>1659.408</ele>
        <time>2012-06-24T12:10:45Z</time>
      </trkpt>
      <trkpt lat="42.76415" lon="1.42267">
        <ele>1660.251</ele>
        <time>2012-06-24T12:10:53Z</time>
      </trkpt>
      <trkpt lat="42.76413" lon="1.42272">
        <ele>1660.341</ele>
        <time>2012-06-24T12:10:58Z</time>
      </trkpt>
      <trkpt lat="42.76412" lon="1.42277">
        <ele>1660.996</ele>
        <time>2012-06-24T12:11:01Z</time>
      </trkpt>
      <trkpt lat="42.76409" lon="1.42285">
        <ele>1661.349</ele>
        <time>2012-06-24T12:11:08Z</time>
      </trkpt>
      <trkpt lat="42.76408" lon="1.42293">
        <ele>1663.052</ele>
        <time>2012-06-24T12:11:16Z</time>
      </trkpt>
      <trkpt lat="42.76405" lon="1.42302">
        <ele>1663.803</ele>
        <time>2012-06-24T12:11:24Z</time>
      </trkpt>
      <trkpt lat="42.76405" lon="1.42303">
        <ele>1663.968</ele>
        <time>2012-06-24T12:11:25Z</time>
      </trkpt>
      <trkpt lat="42.76404" lon="1.4231">
        <ele>1664.601</ele>
        <time>2012-06-24T12:11:30Z</time>
      </trkpt>
      <trkpt lat="42.76403" lon="1.42315">
        <ele>1664.751</ele>
        <time>2012-06-24T12:11:34Z</time>
      </trkpt>
      <trkpt lat="42.76405" lon="1.42327">
        <ele>1666.594</ele>
        <time>2012-06-24T12:11:44Z</time>
      </trkpt>
      <trkpt lat="42.76407" lon="1.42338">
        <ele>1667.195</ele>
        <time>2012-06-24T12:11:52Z</time>
      </trkpt>
      <trkpt lat="42.76407" lon="1.42343">
        <ele>1667.183</ele>
        <time>2012-06-24T12:11:56Z</time>
      </trkpt>
      <trkpt lat="42.76407" lon="1.42348">
        <ele>1667.254</ele>
        <time>2012-06-24T12:11:59Z</time>
      </trkpt>
      <trkpt lat="42.76411" lon="1.42353">
        <ele>1667.761</ele>
        <time>2012-06-24T12:12:06Z</time>
      </trkpt>
      <trkpt lat="42.76412" lon="1.42355">
        <ele>1667.354</ele>
        <time>2012-06-24T12:12:08Z</time>
      </trkpt>
      <trkpt lat="42.76415" lon="1.42363">
        <ele>1667.981</ele>
        <time>2012-06-24T12:12:14Z</time>
      </trkpt>
      <trkpt lat="42.76414" lon="1.42371">
        <ele>1667.877</ele>
        <time>2012-06-24T12:12:21Z</time>
      </trkpt>
      <trkpt lat="42.76413" lon="1.42381">
        <ele>1668.294</ele>
        <time>2012-06-24T12:12:29Z</time>
      </trkpt>
      <trkpt lat="42.76413" lon="1.42382">
        <ele>1668.537</ele>
        <time>2012-06-24T12:12:30Z</time>
      </trkpt>
      <trkpt lat="42.76415" lon="1.42393">
        <ele>1667.209</ele>
        <time>2012-06-24T12:12:38Z</time>
      </trkpt>
      <trkpt lat="42.76414" lon="1.42398">
        <ele>1667.168</ele>
        <time>2012-06-24T12:12:41Z</time>
      </trkpt>
      <trkpt lat="42.76411" lon="1.42406">
        <ele>1668.175</ele>
        <time>2012-06-24T12:12:48Z</time>
      </trkpt>
      <trkpt lat="42.76411" lon="1.42407">
        <ele>1668.26</ele>
        <time>2012-06-24T12:12:49Z</time>
      </trkpt>
      <trkpt lat="42.76415" lon="1.42413">
        <ele>1667.898</ele>
        <time>2012-06-24T12:12:54Z</time>
      </trkpt>
      <trkpt lat="42.76415" lon="1.42419">
        <ele>1667.556</ele>
        <time>2012-06-24T12:12:58Z</time>
      </trkpt>
      <trkpt lat="42.76415" lon="1.42422">
        <ele>1667.791</ele>
        <time>2012-06-24T12:13:01Z</time>
      </trkpt>
      <trkpt lat="42.76417" lon="1.4243">
        <ele>1667.687</ele>
        <time>2012-06-24T12:13:08Z</time>
      </trkpt>
      <trkpt lat="42.76415" lon="1.42432">
        <ele>1667.35</ele>
        <time>2012-06-24T12:13:10Z</time>
      </trkpt>
      <trkpt lat="42.76417" lon="1.42438">
        <ele>1667.026</ele>
        <time>2012-06-24T12:13:14Z</time>
      </trkpt>
      <trkpt lat="42.76417" lon="1.42441">
        <ele>1666.178</ele>
        <time>2012-06-24T12:13:16Z</time>
      </trkpt>
      <trkpt lat="42.76415" lon="1.42458">
        <ele>1666.719</ele>
        <time>2012-06-24T12:13:27Z</time>
      </trkpt>
      <trkpt lat="42.76413" lon="1.42465">
        <ele>1667.677</ele>
        <time>2012-06-24T12:13:32Z</time>
      </trkpt>
      <trkpt lat="42.76413" lon="1.4247">
        <ele>1668.056</ele>
        <time>2012-06-24T12:13:40Z</time>
      </trkpt>
      <trkpt lat="42.76413" lon="1.42479">
        <ele>1667.219</ele>
        <time>2012-06-24T12:13:47Z</time>
      </trkpt>
      <trkpt lat="42.7641" lon="1.42486">
        <ele>1667.521</ele>
        <time>2012-06-24T12:13:54Z</time>
      </trkpt>
      <trkpt lat="42.76408" lon="1.42493">
        <ele>1667.515</ele>
        <time>2012-06-24T12:14:00Z</time>
      </trkpt>
      <trkpt lat="42.76407" lon="1.42494">
        <ele>1667.88</ele>
        <time>2012-06-24T12:14:01Z</time>
      </trkpt>
      <trkpt lat="42.76408" lon="1.42506">
        <ele>1667.135</ele>
        <time>2012-06-24T12:14:09Z</time>
      </trkpt>
      <trkpt lat="42.76404" lon="1.42509">
        <ele>1668.286</ele>
        <time>2012-06-24T12:14:15Z</time>
      </trkpt>
      <trkpt lat="42.76404" lon="1.42514">
        <ele>1669.549</ele>
        <time>2012-06-24T12:14:21Z</time>
      </trkpt>
      <trkpt lat="42.76403" lon="1.42517">
        <ele>1670.299</ele>
        <time>2012-06-24T12:14:26Z</time>
      </trkpt>
      <trkpt lat="42.76399" lon="1.42519">
        <ele>1670.812</ele>
        <time>2012-06-24T12:14:33Z</time>
      </trkpt>
      <trkpt lat="42.76395" lon="1.42523">
        <ele>1673.008</ele>
        <time>2012-06-24T12:14:40Z</time>
      </trkpt>
      <trkpt lat="42.76389" lon="1.42528">
        <ele>1672.501</ele>
        <time>2012-06-24T12:14:48Z</time>
      </trkpt>
      <trkpt lat="42.76386" lon="1.42531">
        <ele>1671.858</ele>
        <time>2012-06-24T12:14:53Z</time>
      </trkpt>
      <trkpt lat="42.76385" lon="1.42531">
        <ele>1671.699</ele>
        <time>2012-06-24T12:14:54Z</time>
      </trkpt>
      <trkpt lat="42.76382" lon="1.42533">
        <ele>1671.859</ele>
        <time>2012-06-24T12:14:58Z</time>
      </trkpt>
      <trkpt lat="42.76376" lon="1.42542">
        <ele>1671.342</ele>
        <time>2012-06-24T12:15:07Z</time>
      </trkpt>
      <trkpt lat="42.76374" lon="1.42549">
        <ele>1671.524</ele>
        <time>2012-06-24T12:15:13Z</time>
      </trkpt>
      <trkpt lat="42.76369" lon="1.42553">
        <ele>1671.824</ele>
        <time>2012-06-24T12:15:21Z</time>
      </trkpt>
      <trkpt lat="42.76366" lon="1.42558">
        <ele>1670.345</ele>
        <time>2012-06-24T12:15:28Z</time>
      </trkpt>
      <trkpt lat="42.76365" lon="1.42562">
        <ele>1669.447</ele>
        <time>2012-06-24T12:15:37Z</time>
      </trkpt>
      <trkpt lat="42.76367" lon="1.42566">
        <ele>1669.669</ele>
        <time>2012-06-24T12:15:42Z</time>
      </trkpt>
      <trkpt lat="42.76367" lon="1.42578">
        <ele>1668.015</ele>
        <time>2012-06-24T12:15:50Z</time>
      </trkpt>
      <trkpt lat="42.76367" lon="1.42579">
        <ele>1667.61</ele>
        <time>2012-06-24T12:15:51Z</time>
      </trkpt>
      <trkpt lat="42.76367" lon="1.42585">
        <ele>1668.206</ele>
        <time>2012-06-24T12:15:56Z</time>
      </trkpt>
      <trkpt lat="42.76363" lon="1.42591">
        <ele>1668.519</ele>
        <time>2012-06-24T12:16:01Z</time>
      </trkpt>
      <trkpt lat="42.76357" lon="1.42598">
        <ele>1669.173</ele>
        <time>2012-06-24T12:16:07Z</time>
      </trkpt>
      <trkpt lat="42.76351" lon="1.42604">
        <ele>1669.578</ele>
        <time>2012-06-24T12:16:14Z</time>
      </trkpt>
      <trkpt lat="42.76351" lon="1.42605">
        <ele>1669.764</ele>
        <time>2012-06-24T12:16:15Z</time>
      </trkpt>
      <trkpt lat="42.76345" lon="1.42613">
        <ele>1669.515</ele>
        <time>2012-06-24T12:16:23Z</time>
      </trkpt>
      <trkpt lat="42.76343" lon="1.42621">
        <ele>1669.981</ele>
        <time>2012-06-24T12:16:30Z</time>
      </trkpt>
      <trkpt lat="42.76344" lon="1.42623">
        <ele>1669.76</ele>
        <time>2012-06-24T12:16:38Z</time>
      </trkpt>
      <trkpt lat="42.76343" lon="1.42628">
        <ele>1669.773</ele>
        <time>2012-06-24T12:16:49Z</time>
      </trkpt>
      <trkpt lat="42.76344" lon="1.42636">
        <ele>1668.903</ele>
        <time>2012-06-24T12:16:57Z</time>
      </trkpt>
      <trkpt lat="42.76344" lon="1.42639">
        <ele>1668.768</ele>
        <time>2012-06-24T12:17:00Z</time>
      </trkpt>
      <trkpt lat="42.76341" lon="1.42646">
        <ele>1666.64</ele>
        <time>2012-06-24T12:17:08Z</time>
      </trkpt>
      <trkpt lat="42.76338" lon="1.42647">
        <ele>1665.769</ele>
        <time>2012-06-24T12:17:13Z</time>
      </trkpt>
      <trkpt lat="42.76335" lon="1.42646">
        <ele>1664.939</ele>
        <time>2012-06-24T12:17:20Z</time>
      </trkpt>
      <trkpt lat="42.76332" lon="1.4265">
        <ele>1663.076</ele>
        <time>2012-06-24T12:17:27Z</time>
      </trkpt>
      <trkpt lat="42.76331" lon="1.42651">
        <ele>1662.83</ele>
        <time>2012-06-24T12:17:28Z</time>
      </trkpt>
      <trkpt lat="42.76328" lon="1.4266">
        <ele>1661.303</ele>
        <time>2012-06-24T12:17:37Z</time>
      </trkpt>
      <trkpt lat="42.76326" lon="1.42664">
        <ele>1660.51</ele>
        <time>2012-06-24T12:17:42Z</time>
      </trkpt>
      <trkpt lat="42.76326" lon="1.42665">
        <ele>1659.582</ele>
        <time>2012-06-24T12:17:43Z</time>
      </trkpt>
      <trkpt lat="42.76321" lon="1.42665">
        <ele>1657.949</ele>
        <time>2012-06-24T12:17:52Z</time>
      </trkpt>
      <trkpt lat="42.76317" lon="1.42663">
        <ele>1655.919</ele>
        <time>2012-06-24T12:17:59Z</time>
      </trkpt>
      <trkpt lat="42.76316" lon="1.42669">
        <ele>1654.965</ele>
        <time>2012-06-24T12:18:05Z</time>
      </trkpt>
      <trkpt lat="42.76314" lon="1.42672">
        <ele>1654.245</ele>
        <time>2012-06-24T12:18:09Z</time>
      </trkpt>
      <trkpt lat="42.76311" lon="1.42675">
        <ele>1652.697</ele>
        <time>2012-06-24T12:18:14Z</time>
      </trkpt>
      <trkpt lat="42.76309" lon="1.42679">
        <ele>1651.657</ele>
        <time>2012-06-24T12:18:20Z</time>
      </trkpt>
      <trkpt lat="42.76308" lon="1.4268">
        <ele>1650.819</ele>
        <time>2012-06-24T12:18:22Z</time>
      </trkpt>
      <trkpt lat="42.76306" lon="1.42681">
        <ele>1650.095</ele>
        <time>2012-06-24T12:18:24Z</time>
      </trkpt>
      <trkpt lat="42.76303" lon="1.42685">
        <ele>1649.127</ele>
        <time>2012-06-24T12:18:28Z</time>
      </trkpt>
      <trkpt lat="42.76299" lon="1.42692">
        <ele>1648.221</ele>
        <time>2012-06-24T12:18:36Z</time>
      </trkpt>
      <trkpt lat="42.76297" lon="1.42701">
        <ele>1647.861</ele>
        <time>2012-06-24T12:18:45Z</time>
      </trkpt>
      <trkpt lat="42.76296" lon="1.42707">
        <ele>1648.356</ele>
        <time>2012-06-24T12:18:50Z</time>
      </trkpt>
      <trkpt lat="42.76289" lon="1.42715">
        <ele>1648.077</ele>
        <time>2012-06-24T12:18:59Z</time>
      </trkpt>
      <trkpt lat="42.76288" lon="1.42717">
        <ele>1647.375</ele>
        <time>2012-06-24T12:19:02Z</time>
      </trkpt>
      <trkpt lat="42.76283" lon="1.42719">
        <ele>1645.925</ele>
        <time>2012-06-24T12:19:08Z</time>
      </trkpt>
      <trkpt lat="42.76279" lon="1.42721">
        <ele>1645.222</ele>
        <time>2012-06-24T12:19:14Z</time>
      </trkpt>
      <trkpt lat="42.76278" lon="1.42727">
        <ele>1644.744</ele>
        <time>2012-06-24T12:19:19Z</time>
      </trkpt>
      <trkpt lat="42.76275" lon="1.42731">
        <ele>1644.033</ele>
        <time>2012-06-24T12:19:25Z</time>
      </trkpt>
      <trkpt lat="42.76271" lon="1.42735">
        <ele>1643.753</ele>
        <time>2012-06-24T12:19:33Z</time>
      </trkpt>
      <trkpt lat="42.76268" lon="1.42743">
        <ele>1643.663</ele>
        <time>2012-06-24T12:19:40Z</time>
      </trkpt>
      <trkpt lat="42.76266" lon="1.42747">
        <ele>1643.502</ele>
        <time>2012-06-24T12:19:45Z</time>
      </trkpt>
      <trkpt lat="42.76264" lon="1.42751">
        <ele>1644.947</ele>
        <time>2012-06-24T12:19:51Z</time>
      </trkpt>
      <trkpt lat="42.76262" lon="1.42755">
        <ele>1645.198</ele>
        <time>2012-06-24T12:19:57Z</time>
      </trkpt>
      <trkpt lat="42.76259" lon="1.42761">
        <ele>1645.233</ele>
        <time>2012-06-24T12:20:04Z</time>
      </trkpt>
      <trkpt lat="42.76258" lon="1.42762">
        <ele>1645.077</ele>
        <time>2012-06-24T12:20:06Z</time>
      </trkpt>
      <trkpt lat="42.76256" lon="1.42769">
        <ele>1645.707</ele>
        <time>2012-06-24T12:20:12Z</time>
      </trkpt>
      <trkpt lat="42.76253" lon="1.42773">
        <ele>1646.255</ele>
        <time>2012-06-24T12:20:17Z</time>
      </trkpt>
      <trkpt lat="42.76248" lon="1.42779">
        <ele>1646.167</ele>
        <time>2012-06-24T12:20:26Z</time>
      </trkpt>
      <trkpt lat="42.76244" lon="1.42783">
        <ele>1645.611</ele>
        <time>2012-06-24T12:20:33Z</time>
      </trkpt>
      <trkpt lat="42.76241" lon="1.42786">
        <ele>1644.532</ele>
        <time>2012-06-24T12:20:40Z</time>
      </trkpt>
      <trkpt lat="42.76238" lon="1.42791">
        <ele>1644.052</ele>
        <time>2012-06-24T12:20:46Z</time>
      </trkpt>
      <trkpt lat="42.76236" lon="1.42795">
        <ele>1643.93</ele>
        <time>2012-06-24T12:20:53Z</time>
      </trkpt>
      <trkpt lat="42.76231" lon="1.42804">
        <ele>1643.788</ele>
        <time>2012-06-24T12:21:01Z</time>
      </trkpt>
      <trkpt lat="42.76232" lon="1.42805">
        <ele>1643.716</ele>
        <time>2012-06-24T12:21:02Z</time>
      </trkpt>
      <trkpt lat="42.7623" lon="1.42815">
        <ele>1642.67</ele>
        <time>2012-06-24T12:21:09Z</time>
      </trkpt>
      <trkpt lat="42.76229" lon="1.42819">
        <ele>1641.421</ele>
        <time>2012-06-24T12:21:13Z</time>
      </trkpt>
      <trkpt lat="42.76222" lon="1.42824">
        <ele>1639.833</ele>
        <time>2012-06-24T12:21:21Z</time>
      </trkpt>
      <trkpt lat="42.76215" lon="1.42829">
        <ele>1637.551</ele>
        <time>2012-06-24T12:21:29Z</time>
      </trkpt>
      <trkpt lat="42.76217" lon="1.42839">
        <ele>1637.227</ele>
        <time>2012-06-24T12:21:36Z</time>
      </trkpt>
      <trkpt lat="42.76218" lon="1.42842">
        <ele>1636.546</ele>
        <time>2012-06-24T12:21:39Z</time>
      </trkpt>
      <trkpt lat="42.76219" lon="1.42848">
        <ele>1635.988</ele>
        <time>2012-06-24T12:21:43Z</time>
      </trkpt>
      <trkpt lat="42.7622" lon="1.42855">
        <ele>1635.584</ele>
        <time>2012-06-24T12:21:48Z</time>
      </trkpt>
      <trkpt lat="42.76218" lon="1.42859">
        <ele>1635.096</ele>
        <time>2012-06-24T12:21:51Z</time>
      </trkpt>
      <trkpt lat="42.76218" lon="1.42869">
        <ele>1634.315</ele>
        <time>2012-06-24T12:21:58Z</time>
      </trkpt>
      <trkpt lat="42.76217" lon="1.4288">
        <ele>1633.72</ele>
        <time>2012-06-24T12:22:05Z</time>
      </trkpt>
      <trkpt lat="42.76217" lon="1.42883">
        <ele>1633.073</ele>
        <time>2012-06-24T12:22:08Z</time>
      </trkpt>
      <trkpt lat="42.76217" lon="1.42888">
        <ele>1633.262</ele>
        <time>2012-06-24T12:22:13Z</time>
      </trkpt>
      <trkpt lat="42.76216" lon="1.42893">
        <ele>1633.61</ele>
        <time>2012-06-24T12:22:18Z</time>
      </trkpt>
      <trkpt lat="42.76211" lon="1.42901">
        <ele>1634.283</ele>
        <time>2012-06-24T12:22:25Z</time>
      </trkpt>
      <trkpt lat="42.76208" lon="1.42912">
        <ele>1634.87</ele>
        <time>2012-06-24T12:22:32Z</time>
      </trkpt>
      <trkpt lat="42.76206" lon="1.42921">
        <ele>1635.8</ele>
        <time>2012-06-24T12:22:39Z</time>
      </trkpt>
      <trkpt lat="42.76205" lon="1.42924">
        <ele>1636.031</ele>
        <time>2012-06-24T12:22:41Z</time>
      </trkpt>
      <trkpt lat="42.76201" lon="1.42927">
        <ele>1636.1</ele>
        <time>2012-06-24T12:22:45Z</time>
      </trkpt>
      <trkpt lat="42.76197" lon="1.42938">
        <ele>1635.372</ele>
        <time>2012-06-24T12:22:53Z</time>
      </trkpt>
      <trkpt lat="42.76197" lon="1.4295">
        <ele>1633.665</ele>
        <time>2012-06-24T12:23:02Z</time>
      </trkpt>
      <trkpt lat="42.76194" lon="1.42962">
        <ele>1633.015</ele>
        <time>2012-06-24T12:23:10Z</time>
      </trkpt>
      <trkpt lat="42.76192" lon="1.42969">
        <ele>1632.965</ele>
        <time>2012-06-24T12:23:16Z</time>
      </trkpt>
      <trkpt lat="42.76191" lon="1.42978">
        <ele>1631.888</ele>
        <time>2012-06-24T12:23:23Z</time>
      </trkpt>
      <trkpt lat="42.76189" lon="1.42983">
        <ele>1631.216</ele>
        <time>2012-06-24T12:23:27Z</time>
      </trkpt>
      <trkpt lat="42.76188" lon="1.42989">
        <ele>1631.031</ele>
        <time>2012-06-24T12:23:31Z</time>
      </trkpt>
      <trkpt lat="42.76181" lon="1.42994">
        <ele>1631.464</ele>
        <time>2012-06-24T12:23:38Z</time>
      </trkpt>
      <trkpt lat="42.76181" lon="1.42995">
        <ele>1631.015</ele>
        <time>2012-06-24T12:23:39Z</time>
      </trkpt>
      <trkpt lat="42.76178" lon="1.43003">
        <ele>1631.285</ele>
        <time>2012-06-24T12:23:44Z</time>
      </trkpt>
      <trkpt lat="42.7617" lon="1.43006">
        <ele>1631.444</ele>
        <time>2012-06-24T12:23:52Z</time>
      </trkpt>
      <trkpt lat="42.7617" lon="1.4301">
        <ele>1631.931</ele>
        <time>2012-06-24T12:23:55Z</time>
      </trkpt>
      <trkpt lat="42.76166" lon="1.43024">
        <ele>1631.588</ele>
        <time>2012-06-24T12:24:04Z</time>
      </trkpt>
      <trkpt lat="42.76164" lon="1.43027">
        <ele>1631.684</ele>
        <time>2012-06-24T12:24:06Z</time>
      </trkpt>
      <trkpt lat="42.76157" lon="1.4304">
        <ele>1630.784</ele>
        <time>2012-06-24T12:24:15Z</time>
      </trkpt>
      <trkpt lat="42.76153" lon="1.43045">
        <ele>1629.964</ele>
        <time>2012-06-24T12:24:21Z</time>
      </trkpt>
      <trkpt lat="42.76154" lon="1.43044">
        <ele>1629.978</ele>
        <time>2012-06-24T12:24:33Z</time>
      </trkpt>
      <trkpt lat="42.76153" lon="1.43045">
        <ele>1630.365</ele>
        <time>2012-06-24T12:24:49Z</time>
      </trkpt>
      <trkpt lat="42.76154" lon="1.43047">
        <ele>1630.019</ele>
        <time>2012-06-24T12:25:04Z</time>
      </trkpt>
      <trkpt lat="42.76151" lon="1.43055">
        <ele>1630.347</ele>
        <time>2012-06-24T12:25:09Z</time>
      </trkpt>
      <trkpt lat="42.7615" lon="1.43057">
        <ele>1630.177</ele>
        <time>2012-06-24T12:25:11Z</time>
      </trkpt>
      <trkpt lat="42.76147" lon="1.43059">
        <ele>1630.007</ele>
        <time>2012-06-24T12:25:14Z</time>
      </trkpt>
      <trkpt lat="42.76146" lon="1.43062">
        <ele>1630.094</ele>
        <time>2012-06-24T12:25:16Z</time>
      </trkpt>
      <trkpt lat="42.76148" lon="1.43071">
        <ele>1629.517</ele>
        <time>2012-06-24T12:25:22Z</time>
      </trkpt>
      <trkpt lat="42.76143" lon="1.43084">
        <ele>1629.741</ele>
        <time>2012-06-24T12:25:32Z</time>
      </trkpt>
      <trkpt lat="42.76136" lon="1.4309">
        <ele>1629.466</ele>
        <time>2012-06-24T12:25:40Z</time>
      </trkpt>
      <trkpt lat="42.76136" lon="1.43091">
        <ele>1629.387</ele>
        <time>2012-06-24T12:25:41Z</time>
      </trkpt>
      <trkpt lat="42.76131" lon="1.43101">
        <ele>1629.677</ele>
        <time>2012-06-24T12:25:49Z</time>
      </trkpt>
      <trkpt lat="42.76126" lon="1.43109">
        <ele>1630.795</ele>
        <time>2012-06-24T12:25:56Z</time>
      </trkpt>
      <trkpt lat="42.76123" lon="1.43112">
        <ele>1631.023</ele>
        <time>2012-06-24T12:25:59Z</time>
      </trkpt>
      <trkpt lat="42.76112" lon="1.43114">
        <ele>1631.906</ele>
        <time>2012-06-24T12:26:08Z</time>
      </trkpt>
      <trkpt lat="42.76102" lon="1.43115">
        <ele>1632.045</ele>
        <time>2012-06-24T12:26:17Z</time>
      </trkpt>
      <trkpt lat="42.761" lon="1.43117">
        <ele>1632.126</ele>
        <time>2012-06-24T12:26:19Z</time>
      </trkpt>
      <trkpt lat="42.76099" lon="1.43119">
        <ele>1632.032</ele>
        <time>2012-06-24T12:26:21Z</time>
      </trkpt>
      <trkpt lat="42.76093" lon="1.43129">
        <ele>1631.513</ele>
        <time>2012-06-24T12:26:29Z</time>
      </trkpt>
      <trkpt lat="42.76092" lon="1.43131">
        <ele>1631.345</ele>
        <time>2012-06-24T12:26:31Z</time>
      </trkpt>
      <trkpt lat="42.76091" lon="1.43137">
        <ele>1631.246</ele>
        <time>2012-06-24T12:26:35Z</time>
      </trkpt>
      <trkpt lat="42.76092" lon="1.43145">
        <ele>1630.467</ele>
        <time>2012-06-24T12:26:40Z</time>
      </trkpt>
      <trkpt lat="42.76093" lon="1.43147">
        <ele>1630.777</ele>
        <time>2012-06-24T12:26:42Z</time>
      </trkpt>
      <trkpt lat="42.76092" lon="1.43158">
        <ele>1630.933</ele>
        <time>2012-06-24T12:26:49Z</time>
      </trkpt>
      <trkpt lat="42.76091" lon="1.43168">
        <ele>1629.407</ele>
        <time>2012-06-24T12:26:57Z</time>
      </trkpt>
      <trkpt lat="42.76091" lon="1.43182">
        <ele>1629.039</ele>
        <time>2012-06-24T12:27:05Z</time>
      </trkpt>
      <trkpt lat="42.76085" lon="1.4319">
        <ele>1629.197</ele>
        <time>2012-06-24T12:27:12Z</time>
      </trkpt>
      <trkpt lat="42.76081" lon="1.43193">
        <ele>1629.331</ele>
        <time>2012-06-24T12:27:16Z</time>
      </trkpt>
      <trkpt lat="42.76071" lon="1.43202">
        <ele>1629.127</ele>
        <time>2012-06-24T12:27:26Z</time>
      </trkpt>
      <trkpt lat="42.76064" lon="1.43207">
        <ele>1629.278</ele>
        <time>2012-06-24T12:27:34Z</time>
      </trkpt>
      <trkpt lat="42.76055" lon="1.43212">
        <ele>1629.748</ele>
        <time>2012-06-24T12:27:42Z</time>
      </trkpt>
      <trkpt lat="42.76047" lon="1.43214">
        <ele>1629.284</ele>
        <time>2012-06-24T12:27:49Z</time>
      </trkpt>
      <trkpt lat="42.76041" lon="1.4322">
        <ele>1629.765</ele>
        <time>2012-06-24T12:27:56Z</time>
      </trkpt>
      <trkpt lat="42.76037" lon="1.43222">
        <ele>1629.773</ele>
        <time>2012-06-24T12:28:00Z</time>
      </trkpt>
      <trkpt lat="42.76028" lon="1.4323">
        <ele>1629.482</ele>
        <time>2012-06-24T12:28:09Z</time>
      </trkpt>
      <trkpt lat="42.76022" lon="1.43233">
        <ele>1628.97</ele>
        <time>2012-06-24T12:28:14Z</time>
      </trkpt>
      <trkpt lat="42.76013" lon="1.43243">
        <ele>1629.309</ele>
        <time>2012-06-24T12:28:23Z</time>
      </trkpt>
      <trkpt lat="42.7601" lon="1.43245">
        <ele>1629.237</ele>
        <time>2012-06-24T12:28:31Z</time>
      </trkpt>
      <trkpt lat="42.7601" lon="1.43246">
        <ele>1629.656</ele>
        <time>2012-06-24T12:28:54Z</time>
      </trkpt>
      <trkpt lat="42.76011" lon="1.43246">
        <ele>1629.654</ele>
        <time>2012-06-24T12:29:12Z</time>
      </trkpt>
      <trkpt lat="42.76011" lon="1.43245">
        <ele>1629.757</ele>
        <time>2012-06-24T12:29:35Z</time>
      </trkpt>
      <trkpt lat="42.7601" lon="1.43245">
        <ele>1629.55</ele>
        <time>2012-06-24T12:29:58Z</time>
      </trkpt>
      <trkpt lat="42.76006" lon="1.4325">
        <ele>1629.318</ele>
        <time>2012-06-24T12:30:24Z</time>
      </trkpt>
      <trkpt lat="42.75998" lon="1.43259">
        <ele>1628.986</ele>
        <time>2012-06-24T12:30:33Z</time>
      </trkpt>
      <trkpt lat="42.75988" lon="1.43268">
        <ele>1628.286</ele>
        <time>2012-06-24T12:30:43Z</time>
      </trkpt>
      <trkpt lat="42.75981" lon="1.43276">
        <ele>1629.104</ele>
        <time>2012-06-24T12:30:51Z</time>
      </trkpt>
      <trkpt lat="42.75974" lon="1.43284">
        <ele>1628.402</ele>
        <time>2012-06-24T12:30:59Z</time>
      </trkpt>
      <trkpt lat="42.75972" lon="1.43288">
        <ele>1628.41</ele>
        <time>2012-06-24T12:31:03Z</time>
      </trkpt>
      <trkpt lat="42.75972" lon="1.43291">
        <ele>1628.072</ele>
        <time>2012-06-24T12:31:05Z</time>
      </trkpt>
      <trkpt lat="42.75972" lon="1.433">
        <ele>1627.486</ele>
        <time>2012-06-24T12:31:11Z</time>
      </trkpt>
      <trkpt lat="42.75972" lon="1.43306">
        <ele>1626.102</ele>
        <time>2012-06-24T12:31:15Z</time>
      </trkpt>
      <trkpt lat="42.75969" lon="1.43321">
        <ele>1625.727</ele>
        <time>2012-06-24T12:31:25Z</time>
      </trkpt>
      <trkpt lat="42.75969" lon="1.43329">
        <ele>1625.408</ele>
        <time>2012-06-24T12:31:31Z</time>
      </trkpt>
      <trkpt lat="42.75968" lon="1.43334">
        <ele>1625.091</ele>
        <time>2012-06-24T12:31:35Z</time>
      </trkpt>
      <trkpt lat="42.75961" lon="1.43346">
        <ele>1625.581</ele>
        <time>2012-06-24T12:31:44Z</time>
      </trkpt>
      <trkpt lat="42.75961" lon="1.43347">
        <ele>1625.612</ele>
        <time>2012-06-24T12:31:45Z</time>
      </trkpt>
      <trkpt lat="42.75956" lon="1.43361">
        <ele>1624.884</ele>
        <time>2012-06-24T12:31:54Z</time>
      </trkpt>
      <trkpt lat="42.75953" lon="1.43373">
        <ele>1624.465</ele>
        <time>2012-06-24T12:32:02Z</time>
      </trkpt>
      <trkpt lat="42.75951" lon="1.43386">
        <ele>1623.541</ele>
        <time>2012-06-24T12:32:10Z</time>
      </trkpt>
      <trkpt lat="42.75952" lon="1.43404">
        <ele>1622.932</ele>
        <time>2012-06-24T12:32:21Z</time>
      </trkpt>
      <trkpt lat="42.75951" lon="1.43409">
        <ele>1622.226</ele>
        <time>2012-06-24T12:32:26Z</time>
      </trkpt>
      <trkpt lat="42.75946" lon="1.43416">
        <ele>1620.987</ele>
        <time>2012-06-24T12:32:34Z</time>
      </trkpt>
      <trkpt lat="42.75945" lon="1.43428">
        <ele>1619.443</ele>
        <time>2012-06-24T12:32:43Z</time>
      </trkpt>
      <trkpt lat="42.75944" lon="1.43432">
        <ele>1618.948</ele>
        <time>2012-06-24T12:32:47Z</time>
      </trkpt>
      <trkpt lat="42.75945" lon="1.43438">
        <ele>1619.356</ele>
        <time>2012-06-24T12:32:51Z</time>
      </trkpt>
      <trkpt lat="42.75944" lon="1.43445">
        <ele>1618.5</ele>
        <time>2012-06-24T12:32:54Z</time>
      </trkpt>
      <trkpt lat="42.7594" lon="1.43446">
        <ele>1618.004</ele>
        <time>2012-06-24T12:32:57Z</time>
      </trkpt>
      <trkpt lat="42.75938" lon="1.43453">
        <ele>1617.484</ele>
        <time>2012-06-24T12:33:03Z</time>
      </trkpt>
      <trkpt lat="42.75935" lon="1.43456">
        <ele>1617.21</ele>
        <time>2012-06-24T12:33:07Z</time>
      </trkpt>
      <trkpt lat="42.75933" lon="1.43468">
        <ele>1616.148</ele>
        <time>2012-06-24T12:33:14Z</time>
      </trkpt>
      <trkpt lat="42.75931" lon="1.43484">
        <ele>1615.46</ele>
        <time>2012-06-24T12:33:25Z</time>
      </trkpt>
      <trkpt lat="42.7593" lon="1.43491">
        <ele>1614.576</ele>
        <time>2012-06-24T12:33:31Z</time>
      </trkpt>
      <trkpt lat="42.75929" lon="1.43499">
        <ele>1614.326</ele>
        <time>2012-06-24T12:33:38Z</time>
      </trkpt>
      <trkpt lat="42.75925" lon="1.43515">
        <ele>1613.626</ele>
        <time>2012-06-24T12:33:47Z</time>
      </trkpt>
      <trkpt lat="42.75924" lon="1.43521">
        <ele>1612.869</ele>
        <time>2012-06-24T12:33:51Z</time>
      </trkpt>
      <trkpt lat="42.75925" lon="1.4353">
        <ele>1612.497</ele>
        <time>2012-06-24T12:33:57Z</time>
      </trkpt>
      <trkpt lat="42.75924" lon="1.43532">
        <ele>1612.62</ele>
        <time>2012-06-24T12:33:59Z</time>
      </trkpt>
      <trkpt lat="42.7592" lon="1.43541">
        <ele>1612.368</ele>
        <time>2012-06-24T12:34:07Z</time>
      </trkpt>
      <trkpt lat="42.75913" lon="1.4355">
        <ele>1613.372</ele>
        <time>2012-06-24T12:34:15Z</time>
      </trkpt>
      <trkpt lat="42.75912" lon="1.43557">
        <ele>1613.719</ele>
        <time>2012-06-24T12:34:20Z</time>
      </trkpt>
      <trkpt lat="42.7591" lon="1.43565">
        <ele>1613.3</ele>
        <time>2012-06-24T12:34:25Z</time>
      </trkpt>
      <trkpt lat="42.75904" lon="1.43573">
        <ele>1613.35</ele>
        <time>2012-06-24T12:34:32Z</time>
      </trkpt>
      <trkpt lat="42.75894" lon="1.43588">
        <ele>1612.299</ele>
        <time>2012-06-24T12:34:44Z</time>
      </trkpt>
      <trkpt lat="42.75892" lon="1.4359">
        <ele>1612.373</ele>
        <time>2012-06-24T12:34:46Z</time>
      </trkpt>
      <trkpt lat="42.75888" lon="1.43603">
        <ele>1611.827</ele>
        <time>2012-06-24T12:34:56Z</time>
      </trkpt>
      <trkpt lat="42.75887" lon="1.4361">
        <ele>1612.36</ele>
        <time>2012-06-24T12:35:00Z</time>
      </trkpt>
      <trkpt lat="42.75884" lon="1.43617">
        <ele>1611.598</ele>
        <time>2012-06-24T12:35:07Z</time>
      </trkpt>
      <trkpt lat="42.75883" lon="1.43628">
        <ele>1611.835</ele>
        <time>2012-06-24T12:35:15Z</time>
      </trkpt>
      <trkpt lat="42.75881" lon="1.43641">
        <ele>1611.945</ele>
        <time>2012-06-24T12:35:24Z</time>
      </trkpt>
      <trkpt lat="42.75879" lon="1.43649">
        <ele>1611.639</ele>
        <time>2012-06-24T12:35:29Z</time>
      </trkpt>
      <trkpt lat="42.75871" lon="1.4366">
        <ele>1611.98</ele>
        <time>2012-06-24T12:35:39Z</time>
      </trkpt>
      <trkpt lat="42.75867" lon="1.43669">
        <ele>1611.559</ele>
        <time>2012-06-24T12:35:46Z</time>
      </trkpt>
      <trkpt lat="42.75866" lon="1.4367">
        <ele>1611.557</ele>
        <time>2012-06-24T12:35:47Z</time>
      </trkpt>
      <trkpt lat="42.75862" lon="1.43677">
        <ele>1611.134</ele>
        <time>2012-06-24T12:35:53Z</time>
      </trkpt>
      <trkpt lat="42.75858" lon="1.43683">
        <ele>1611.432</ele>
        <time>2012-06-24T12:35:57Z</time>
      </trkpt>
      <trkpt lat="42.75849" lon="1.43695">
        <ele>1611.554</ele>
        <time>2012-06-24T12:36:08Z</time>
      </trkpt>
      <trkpt lat="42.75843" lon="1.43698">
        <ele>1610.516</ele>
        <time>2012-06-24T12:36:14Z</time>
      </trkpt>
      <trkpt lat="42.75835" lon="1.43706">
        <ele>1611.179</ele>
        <time>2012-06-24T12:36:23Z</time>
      </trkpt>
      <trkpt lat="42.75832" lon="1.43706">
        <ele>1610.812</ele>
        <time>2012-06-24T12:36:25Z</time>
      </trkpt>
      <trkpt lat="42.7583" lon="1.43707">
        <ele>1611.417</ele>
        <time>2012-06-24T12:36:27Z</time>
      </trkpt>
      <trkpt lat="42.75829" lon="1.43712">
        <ele>1612.789</ele>
        <time>2012-06-24T12:36:33Z</time>
      </trkpt>
      <trkpt lat="42.75823" lon="1.43725">
        <ele>1613.744</ele>
        <time>2012-06-24T12:36:41Z</time>
      </trkpt>
      <trkpt lat="42.75818" lon="1.4373">
        <ele>1612.544</ele>
        <time>2012-06-24T12:36:47Z</time>
      </trkpt>
      <trkpt lat="42.75813" lon="1.43736">
        <ele>1612.124</ele>
        <time>2012-06-24T12:36:54Z</time>
      </trkpt>
      <trkpt lat="42.75812" lon="1.43741">
        <ele>1611.135</ele>
        <time>2012-06-24T12:36:59Z</time>
      </trkpt>
      <trkpt lat="42.7581" lon="1.43746">
        <ele>1611.203</ele>
        <time>2012-06-24T12:37:03Z</time>
      </trkpt>
      <trkpt lat="42.75807" lon="1.43748">
        <ele>1610.871</ele>
        <time>2012-06-24T12:37:07Z</time>
      </trkpt>
      <trkpt lat="42.75804" lon="1.4376">
        <ele>1610.107</ele>
        <time>2012-06-24T12:37:17Z</time>
      </trkpt>
      <trkpt lat="42.75804" lon="1.43762">
        <ele>1610.262</ele>
        <time>2012-06-24T12:37:18Z</time>
      </trkpt>
      <trkpt lat="42.75796" lon="1.43769">
        <ele>1610.25</ele>
        <time>2012-06-24T12:37:26Z</time>
      </trkpt>
      <trkpt lat="42.75791" lon="1.43776">
        <ele>1609.951</ele>
        <time>2012-06-24T12:37:33Z</time>
      </trkpt>
      <trkpt lat="42.75783" lon="1.43784">
        <ele>1609.354</ele>
        <time>2012-06-24T12:37:41Z</time>
      </trkpt>
      <trkpt lat="42.75775" lon="1.43794">
        <ele>1609.623</ele>
        <time>2012-06-24T12:37:50Z</time>
      </trkpt>
      <trkpt lat="42.75766" lon="1.43804">
        <ele>1609.693</ele>
        <time>2012-06-24T12:38:00Z</time>
      </trkpt>
      <trkpt lat="42.75759" lon="1.43809">
        <ele>1609.922</ele>
        <time>2012-06-24T12:38:08Z</time>
      </trkpt>
      <trkpt lat="42.75757" lon="1.43811">
        <ele>1609.753</ele>
        <time>2012-06-24T12:38:10Z</time>
      </trkpt>
      <trkpt lat="42.75753" lon="1.43819">
        <ele>1608.573</ele>
        <time>2012-06-24T12:38:19Z</time>
      </trkpt>
      <trkpt lat="42.75748" lon="1.4383">
        <ele>1608.485</ele>
        <time>2012-06-24T12:38:27Z</time>
      </trkpt>
      <trkpt lat="42.75745" lon="1.43835">
        <ele>1608.324</ele>
        <time>2012-06-24T12:38:31Z</time>
      </trkpt>
      <trkpt lat="42.75738" lon="1.43837">
        <ele>1607.967</ele>
        <time>2012-06-24T12:38:38Z</time>
      </trkpt>
      <trkpt lat="42.75734" lon="1.43843">
        <ele>1608.045</ele>
        <time>2012-06-24T12:38:43Z</time>
      </trkpt>
      <trkpt lat="42.75726" lon="1.4385">
        <ele>1606.899</ele>
        <time>2012-06-24T12:38:51Z</time>
      </trkpt>
      <trkpt lat="42.75722" lon="1.43859">
        <ele>1607.121</ele>
        <time>2012-06-24T12:38:58Z</time>
      </trkpt>
      <trkpt lat="42.75721" lon="1.43862">
        <ele>1606.597</ele>
        <time>2012-06-24T12:39:07Z</time>
      </trkpt>
      <trkpt lat="42.7572" lon="1.43867">
        <ele>1606.901</ele>
        <time>2012-06-24T12:39:16Z</time>
      </trkpt>
      <trkpt lat="42.75717" lon="1.4387">
        <ele>1606.811</ele>
        <time>2012-06-24T12:39:20Z</time>
      </trkpt>
      <trkpt lat="42.75717" lon="1.43872">
        <ele>1606.304</ele>
        <time>2012-06-24T12:39:22Z</time>
      </trkpt>
      <trkpt lat="42.75715" lon="1.43876">
        <ele>1605.543</ele>
        <time>2012-06-24T12:39:26Z</time>
      </trkpt>
      <trkpt lat="42.75714" lon="1.43882">
        <ele>1605.051</ele>
        <time>2012-06-24T12:39:30Z</time>
      </trkpt>
      <trkpt lat="42.7571" lon="1.43892">
        <ele>1604.236</ele>
        <time>2012-06-24T12:39:37Z</time>
      </trkpt>
      <trkpt lat="42.75708" lon="1.43896">
        <ele>1604.312</ele>
        <time>2012-06-24T12:39:40Z</time>
      </trkpt>
      <trkpt lat="42.75705" lon="1.43901">
        <ele>1604.322</ele>
        <time>2012-06-24T12:39:44Z</time>
      </trkpt>
      <trkpt lat="42.75702" lon="1.43905">
        <ele>1604.321</ele>
        <time>2012-06-24T12:39:48Z</time>
      </trkpt>
      <trkpt lat="42.75699" lon="1.43909">
        <ele>1603.926</ele>
        <time>2012-06-24T12:39:52Z</time>
      </trkpt>
      <trkpt lat="42.75695" lon="1.43918">
        <ele>1603.992</ele>
        <time>2012-06-24T12:39:59Z</time>
      </trkpt>
      <trkpt lat="42.75692" lon="1.43926">
        <ele>1603.763</ele>
        <time>2012-06-24T12:40:05Z</time>
      </trkpt>
      <trkpt lat="42.75687" lon="1.4393">
        <ele>1603.253</ele>
        <time>2012-06-24T12:40:10Z</time>
      </trkpt>
      <trkpt lat="42.75685" lon="1.43934">
        <ele>1602.507</ele>
        <time>2012-06-24T12:40:16Z</time>
      </trkpt>
      <trkpt lat="42.75685" lon="1.43936">
        <ele>1602.496</ele>
        <time>2012-06-24T12:40:18Z</time>
      </trkpt>
      <trkpt lat="42.75686" lon="1.4394">
        <ele>1603.573</ele>
        <time>2012-06-24T12:40:21Z</time>
      </trkpt>
      <trkpt lat="42.75684" lon="1.43948">
        <ele>1603.487</ele>
        <time>2012-06-24T12:40:27Z</time>
      </trkpt>
      <trkpt lat="42.75682" lon="1.4395">
        <ele>1603.564</ele>
        <time>2012-06-24T12:40:29Z</time>
      </trkpt>
      <trkpt lat="42.75679" lon="1.43955">
        <ele>1603.635</ele>
        <time>2012-06-24T12:40:33Z</time>
      </trkpt>
      <trkpt lat="42.75677" lon="1.43961">
        <ele>1603.113</ele>
        <time>2012-06-24T12:40:39Z</time>
      </trkpt>
      <trkpt lat="42.75675" lon="1.43966">
        <ele>1603.532</ele>
        <time>2012-06-24T12:40:43Z</time>
      </trkpt>
      <trkpt lat="42.75674" lon="1.43968">
        <ele>1603.614</ele>
        <time>2012-06-24T12:40:45Z</time>
      </trkpt>
      <trkpt lat="42.75667" lon="1.43974">
        <ele>1603.502</ele>
        <time>2012-06-24T12:40:53Z</time>
      </trkpt>
      <trkpt lat="42.75666" lon="1.43974">
        <ele>1603.666</ele>
        <time>2012-06-24T12:40:54Z</time>
      </trkpt>
      <trkpt lat="42.75657" lon="1.43982">
        <ele>1603.708</ele>
        <time>2012-06-24T12:41:03Z</time>
      </trkpt>
      <trkpt lat="42.7565" lon="1.43989">
        <ele>1603.859</ele>
        <time>2012-06-24T12:41:10Z</time>
      </trkpt>
      <trkpt lat="42.75647" lon="1.43993">
        <ele>1603.359</ele>
        <time>2012-06-24T12:41:14Z</time>
      </trkpt>
      <trkpt lat="42.75645" lon="1.43996">
        <ele>1603.52</ele>
        <time>2012-06-24T12:41:18Z</time>
      </trkpt>
      <trkpt lat="42.75642" lon="1.44004">
        <ele>1603.158</ele>
        <time>2012-06-24T12:41:25Z</time>
      </trkpt>
      <trkpt lat="42.75641" lon="1.44006">
        <ele>1603.125</ele>
        <time>2012-06-24T12:41:27Z</time>
      </trkpt>
      <trkpt lat="42.75637" lon="1.4401">
        <ele>1602.969</ele>
        <time>2012-06-24T12:41:32Z</time>
      </trkpt>
      <trkpt lat="42.75633" lon="1.44015">
        <ele>1602.853</ele>
        <time>2012-06-24T12:41:36Z</time>
      </trkpt>
      <trkpt lat="42.75625" lon="1.44025">
        <ele>1602.382</ele>
        <time>2012-06-24T12:41:44Z</time>
      </trkpt>
      <trkpt lat="42.7562" lon="1.44036">
        <ele>1603.012</ele>
        <time>2012-06-24T12:41:52Z</time>
      </trkpt>
      <trkpt lat="42.7562" lon="1.44037">
        <ele>1603.251</ele>
        <time>2012-06-24T12:41:53Z</time>
      </trkpt>
      <trkpt lat="42.75618" lon="1.44039">
        <ele>1603.013</ele>
        <time>2012-06-24T12:41:56Z</time>
      </trkpt>
      <trkpt lat="42.75619" lon="1.44047">
        <ele>1603.21</ele>
        <time>2012-06-24T12:42:03Z</time>
      </trkpt>
      <trkpt lat="42.75614" lon="1.44056">
        <ele>1602.943</ele>
        <time>2012-06-24T12:42:11Z</time>
      </trkpt>
      <trkpt lat="42.75608" lon="1.44066">
        <ele>1603.111</ele>
        <time>2012-06-24T12:42:19Z</time>
      </trkpt>
      <trkpt lat="42.75602" lon="1.44075">
        <ele>1602.461</ele>
        <time>2012-06-24T12:42:26Z</time>
      </trkpt>
      <trkpt lat="42.756" lon="1.44079">
        <ele>1602.801</ele>
        <time>2012-06-24T12:42:29Z</time>
      </trkpt>
      <trkpt lat="42.75592" lon="1.44089">
        <ele>1602.487</ele>
        <time>2012-06-24T12:42:38Z</time>
      </trkpt>
      <trkpt lat="42.7559" lon="1.44094">
        <ele>1602.234</ele>
        <time>2012-06-24T12:42:42Z</time>
      </trkpt>
      <trkpt lat="42.75587" lon="1.44102">
        <ele>1602.252</ele>
        <time>2012-06-24T12:42:48Z</time>
      </trkpt>
      <trkpt lat="42.75586" lon="1.44103">
        <ele>1602.157</ele>
        <time>2012-06-24T12:42:50Z</time>
      </trkpt>
      <trkpt lat="42.75582" lon="1.44107">
        <ele>1602.388</ele>
        <time>2012-06-24T12:42:54Z</time>
      </trkpt>
      <trkpt lat="42.75579" lon="1.44111">
        <ele>1602.378</ele>
        <time>2012-06-24T12:42:57Z</time>
      </trkpt>
      <trkpt lat="42.75575" lon="1.44116">
        <ele>1601.503</ele>
        <time>2012-06-24T12:43:03Z</time>
      </trkpt>
      <trkpt lat="42.75574" lon="1.44119">
        <ele>1600.958</ele>
        <time>2012-06-24T12:43:05Z</time>
      </trkpt>
      <trkpt lat="42.75573" lon="1.44123">
        <ele>1600.65</ele>
        <time>2012-06-24T12:43:08Z</time>
      </trkpt>
      <trkpt lat="42.75571" lon="1.44127">
        <ele>1601.05</ele>
        <time>2012-06-24T12:43:11Z</time>
      </trkpt>
      <trkpt lat="42.75569" lon="1.44134">
        <ele>1600.548</ele>
        <time>2012-06-24T12:43:16Z</time>
      </trkpt>
      <trkpt lat="42.75566" lon="1.44139">
        <ele>1599.766</ele>
        <time>2012-06-24T12:43:20Z</time>
      </trkpt>
      <trkpt lat="42.75565" lon="1.44145">
        <ele>1600.733</ele>
        <time>2012-06-24T12:43:25Z</time>
      </trkpt>
      <trkpt lat="42.75563" lon="1.44158">
        <ele>1601.045</ele>
        <time>2012-06-24T12:43:34Z</time>
      </trkpt>
      <trkpt lat="42.75562" lon="1.4416">
        <ele>1600.704</ele>
        <time>2012-06-24T12:43:35Z</time>
      </trkpt>
      <trkpt lat="42.75561" lon="1.44162">
        <ele>1601.112</ele>
        <time>2012-06-24T12:43:37Z</time>
      </trkpt>
      <trkpt lat="42.75557" lon="1.4417">
        <ele>1601.42</ele>
        <time>2012-06-24T12:43:44Z</time>
      </trkpt>
      <trkpt lat="42.75555" lon="1.44182">
        <ele>1600.838</ele>
        <time>2012-06-24T12:43:52Z</time>
      </trkpt>
      <trkpt lat="42.75551" lon="1.44193">
        <ele>1600.845</ele>
        <time>2012-06-24T12:44:01Z</time>
      </trkpt>
      <trkpt lat="42.75544" lon="1.44206">
        <ele>1601.235</ele>
        <time>2012-06-24T12:44:11Z</time>
      </trkpt>
      <trkpt lat="42.75543" lon="1.44211">
        <ele>1601.466</ele>
        <time>2012-06-24T12:44:17Z</time>
      </trkpt>
      <trkpt lat="42.75541" lon="1.44216">
        <ele>1601.605</ele>
        <time>2012-06-24T12:44:24Z</time>
      </trkpt>
      <trkpt lat="42.75539" lon="1.44218">
        <ele>1601.187</ele>
        <time>2012-06-24T12:44:33Z</time>
      </trkpt>
      <trkpt lat="42.75537" lon="1.44219">
        <ele>1601.039</ele>
        <time>2012-06-24T12:44:48Z</time>
      </trkpt>
      <trkpt lat="42.75537" lon="1.44226">
        <ele>1599.721</ele>
        <time>2012-06-24T12:44:54Z</time>
      </trkpt>
      <trkpt lat="42.75538" lon="1.44232">
        <ele>1599.038</ele>
        <time>2012-06-24T12:44:58Z</time>
      </trkpt>
      <trkpt lat="42.75539" lon="1.44242">
        <ele>1598.672</ele>
        <time>2012-06-24T12:45:07Z</time>
      </trkpt>
      <trkpt lat="42.75539" lon="1.44251">
        <ele>1600.172</ele>
        <time>2012-06-24T12:45:13Z</time>
      </trkpt>
      <trkpt lat="42.75539" lon="1.44256">
        <ele>1599.833</ele>
        <time>2012-06-24T12:45:16Z</time>
      </trkpt>
      <trkpt lat="42.75536" lon="1.44264">
        <ele>1600.108</ele>
        <time>2012-06-24T12:45:23Z</time>
      </trkpt>
      <trkpt lat="42.75528" lon="1.44277">
        <ele>1599.967</ele>
        <time>2012-06-24T12:45:32Z</time>
      </trkpt>
      <trkpt lat="42.75521" lon="1.44285">
        <ele>1599.086</ele>
        <time>2012-06-24T12:45:40Z</time>
      </trkpt>
      <trkpt lat="42.75515" lon="1.44291">
        <ele>1598.862</ele>
        <time>2012-06-24T12:45:48Z</time>
      </trkpt>
      <trkpt lat="42.75511" lon="1.44293">
        <ele>1598.935</ele>
        <time>2012-06-24T12:45:52Z</time>
      </trkpt>
      <trkpt lat="42.75506" lon="1.443">
        <ele>1597.863</ele>
        <time>2012-06-24T12:45:58Z</time>
      </trkpt>
      <trkpt lat="42.75497" lon="1.44304">
        <ele>1596.433</ele>
        <time>2012-06-24T12:46:05Z</time>
      </trkpt>
      <trkpt lat="42.75495" lon="1.44306">
        <ele>1596.348</ele>
        <time>2012-06-24T12:46:08Z</time>
      </trkpt>
      <trkpt lat="42.75493" lon="1.4431">
        <ele>1595.684</ele>
        <time>2012-06-24T12:46:11Z</time>
      </trkpt>
      <trkpt lat="42.7549" lon="1.44312">
        <ele>1595.17</ele>
        <time>2012-06-24T12:46:15Z</time>
      </trkpt>
      <trkpt lat="42.75485" lon="1.44323">
        <ele>1595.157</ele>
        <time>2012-06-24T12:46:23Z</time>
      </trkpt>
      <trkpt lat="42.75482" lon="1.44337">
        <ele>1594.919</ele>
        <time>2012-06-24T12:46:31Z</time>
      </trkpt>
      <trkpt lat="42.75479" lon="1.44343">
        <ele>1593.959</ele>
        <time>2012-06-24T12:46:36Z</time>
      </trkpt>
      <trkpt lat="42.75478" lon="1.44352">
        <ele>1593.557</ele>
        <time>2012-06-24T12:46:42Z</time>
      </trkpt>
      <trkpt lat="42.75474" lon="1.44362">
        <ele>1592.822</ele>
        <time>2012-06-24T12:46:51Z</time>
      </trkpt>
      <trkpt lat="42.7547" lon="1.44372">
        <ele>1592.343</ele>
        <time>2012-06-24T12:46:58Z</time>
      </trkpt>
      <trkpt lat="42.75467" lon="1.44385">
        <ele>1591.252</ele>
        <time>2012-06-24T12:47:06Z</time>
      </trkpt>
      <trkpt lat="42.75465" lon="1.44397">
        <ele>1591.056</ele>
        <time>2012-06-24T12:47:14Z</time>
      </trkpt>
      <trkpt lat="42.75461" lon="1.44409">
        <ele>1591.07</ele>
        <time>2012-06-24T12:47:22Z</time>
      </trkpt>
      <trkpt lat="42.75457" lon="1.44418">
        <ele>1589.536</ele>
        <time>2012-06-24T12:47:30Z</time>
      </trkpt>
      <trkpt lat="42.75453" lon="1.44424">
        <ele>1589.151</ele>
        <time>2012-06-24T12:47:37Z</time>
      </trkpt>
      <trkpt lat="42.75453" lon="1.44426">
        <ele>1589.627</ele>
        <time>2012-06-24T12:47:38Z</time>
      </trkpt>
      <trkpt lat="42.75449" lon="1.44429">
        <ele>1589.061</ele>
        <time>2012-06-24T12:47:42Z</time>
      </trkpt>
      <trkpt lat="42.75447" lon="1.44436">
        <ele>1589.024</ele>
        <time>2012-06-24T12:47:48Z</time>
      </trkpt>
      <trkpt lat="42.75443" lon="1.44446">
        <ele>1588.887</ele>
        <time>2012-06-24T12:47:56Z</time>
      </trkpt>
      <trkpt lat="42.75441" lon="1.44448">
        <ele>1589.207</ele>
        <time>2012-06-24T12:47:59Z</time>
      </trkpt>
      <trkpt lat="42.75438" lon="1.44462">
        <ele>1588.332</ele>
        <time>2012-06-24T12:48:08Z</time>
      </trkpt>
      <trkpt lat="42.75432" lon="1.44464">
        <ele>1587.46</ele>
        <time>2012-06-24T12:48:17Z</time>
      </trkpt>
      <trkpt lat="42.7543" lon="1.44469">
        <ele>1588.668</ele>
        <time>2012-06-24T12:48:21Z</time>
      </trkpt>
      <trkpt lat="42.75428" lon="1.4448">
        <ele>1587.997</ele>
        <time>2012-06-24T12:48:29Z</time>
      </trkpt>
      <trkpt lat="42.75426" lon="1.44484">
        <ele>1587.498</ele>
        <time>2012-06-24T12:48:32Z</time>
      </trkpt>
      <trkpt lat="42.75422" lon="1.44489">
        <ele>1586.938</ele>
        <time>2012-06-24T12:48:37Z</time>
      </trkpt>
      <trkpt lat="42.75422" lon="1.44492">
        <ele>1587.37</ele>
        <time>2012-06-24T12:48:39Z</time>
      </trkpt>
      <trkpt lat="42.7542" lon="1.44497">
        <ele>1586.804</ele>
        <time>2012-06-24T12:48:44Z</time>
      </trkpt>
      <trkpt lat="42.75417" lon="1.44504">
        <ele>1586.783</ele>
        <time>2012-06-24T12:48:51Z</time>
      </trkpt>
      <trkpt lat="42.75413" lon="1.44507">
        <ele>1585.905</ele>
        <time>2012-06-24T12:48:54Z</time>
      </trkpt>
      <trkpt lat="42.75411" lon="1.44509">
        <ele>1586.207</ele>
        <time>2012-06-24T12:48:58Z</time>
      </trkpt>
      <trkpt lat="42.75409" lon="1.44517">
        <ele>1586.104</ele>
        <time>2012-06-24T12:49:03Z</time>
      </trkpt>
      <trkpt lat="42.75407" lon="1.44524">
        <ele>1585.201</ele>
        <time>2012-06-24T12:49:08Z</time>
      </trkpt>
      <trkpt lat="42.75405" lon="1.44531">
        <ele>1585.24</ele>
        <time>2012-06-24T12:49:12Z</time>
      </trkpt>
      <trkpt lat="42.75401" lon="1.44542">
        <ele>1585.437</ele>
        <time>2012-06-24T12:49:20Z</time>
      </trkpt>
      <trkpt lat="42.754" lon="1.44553">
        <ele>1586.053</ele>
        <time>2012-06-24T12:49:27Z</time>
      </trkpt>
      <trkpt lat="42.75398" lon="1.44567">
        <ele>1587.081</ele>
        <time>2012-06-24T12:49:36Z</time>
      </trkpt>
      <trkpt lat="42.75395" lon="1.44573">
        <ele>1587.939</ele>
        <time>2012-06-24T12:49:42Z</time>
      </trkpt>
      <trkpt lat="42.75393" lon="1.44581">
        <ele>1588.842</ele>
        <time>2012-06-24T12:49:49Z</time>
      </trkpt>
      <trkpt lat="42.75393" lon="1.44589">
        <ele>1590.82</ele>
        <time>2012-06-24T12:49:56Z</time>
      </trkpt>
      <trkpt lat="42.75391" lon="1.44595">
        <ele>1592.944</ele>
        <time>2012-06-24T12:50:03Z</time>
      </trkpt>
      <trkpt lat="42.7539" lon="1.44597">
        <ele>1593.068</ele>
        <time>2012-06-24T12:50:05Z</time>
      </trkpt>
      <trkpt lat="42.75389" lon="1.44603">
        <ele>1595.313</ele>
        <time>2012-06-24T12:50:12Z</time>
      </trkpt>
      <trkpt lat="42.75388" lon="1.4461">
        <ele>1595.678</ele>
        <time>2012-06-24T12:50:19Z</time>
      </trkpt>
      <trkpt lat="42.75386" lon="1.44616">
        <ele>1597.286</ele>
        <time>2012-06-24T12:50:24Z</time>
      </trkpt>
      <trkpt lat="42.75384" lon="1.44624">
        <ele>1597.866</ele>
        <time>2012-06-24T12:50:31Z</time>
      </trkpt>
      <trkpt lat="42.75381" lon="1.44639">
        <ele>1596.822</ele>
        <time>2012-06-24T12:50:42Z</time>
      </trkpt>
      <trkpt lat="42.75378" lon="1.44644">
        <ele>1596.803</ele>
        <time>2012-06-24T12:50:46Z</time>
      </trkpt>
      <trkpt lat="42.75376" lon="1.44656">
        <ele>1597.309</ele>
        <time>2012-06-24T12:50:55Z</time>
      </trkpt>
      <trkpt lat="42.75374" lon="1.44666">
        <ele>1594.993</ele>
        <time>2012-06-24T12:51:03Z</time>
      </trkpt>
      <trkpt lat="42.75373" lon="1.44675">
        <ele>1594.701</ele>
        <time>2012-06-24T12:51:10Z</time>
      </trkpt>
      <trkpt lat="42.75376" lon="1.4468">
        <ele>1593.643</ele>
        <time>2012-06-24T12:51:14Z</time>
      </trkpt>
      <trkpt lat="42.75373" lon="1.44689">
        <ele>1593.437</ele>
        <time>2012-06-24T12:51:21Z</time>
      </trkpt>
      <trkpt lat="42.75371" lon="1.44693">
        <ele>1591.866</ele>
        <time>2012-06-24T12:51:24Z</time>
      </trkpt>
      <trkpt lat="42.7537" lon="1.44694">
        <ele>1591.778</ele>
        <time>2012-06-24T12:51:26Z</time>
      </trkpt>
      <trkpt lat="42.75367" lon="1.44705">
        <ele>1589.927</ele>
        <time>2012-06-24T12:51:37Z</time>
      </trkpt>
      <trkpt lat="42.75362" lon="1.44713">
        <ele>1587.521</ele>
        <time>2012-06-24T12:51:46Z</time>
      </trkpt>
      <trkpt lat="42.75359" lon="1.44722">
        <ele>1585.55</ele>
        <time>2012-06-24T12:51:55Z</time>
      </trkpt>
      <trkpt lat="42.75357" lon="1.44731">
        <ele>1584.223</ele>
        <time>2012-06-24T12:52:04Z</time>
      </trkpt>
      <trkpt lat="42.75355" lon="1.44737">
        <ele>1583.627</ele>
        <time>2012-06-24T12:52:10Z</time>
      </trkpt>
      <trkpt lat="42.75354" lon="1.4474">
        <ele>1582.83</ele>
        <time>2012-06-24T12:52:18Z</time>
      </trkpt>
      <trkpt lat="42.75353" lon="1.44748">
        <ele>1581.839</ele>
        <time>2012-06-24T12:52:24Z</time>
      </trkpt>
      <trkpt lat="42.75353" lon="1.4475">
        <ele>1581.676</ele>
        <time>2012-06-24T12:52:25Z</time>
      </trkpt>
      <trkpt lat="42.75352" lon="1.44759">
        <ele>1579.724</ele>
        <time>2012-06-24T12:52:33Z</time>
      </trkpt>
      <trkpt lat="42.7535" lon="1.4477">
        <ele>1578.197</ele>
        <time>2012-06-24T12:52:41Z</time>
      </trkpt>
      <trkpt lat="42.75345" lon="1.4478">
        <ele>1576.22</ele>
        <time>2012-06-24T12:52:51Z</time>
      </trkpt>
      <trkpt lat="42.75341" lon="1.44773">
        <ele>1574.963</ele>
        <time>2012-06-24T12:52:59Z</time>
      </trkpt>
      <trkpt lat="42.75337" lon="1.44767">
        <ele>1573.116</ele>
        <time>2012-06-24T12:53:07Z</time>
      </trkpt>
      <trkpt lat="42.75336" lon="1.44768">
        <ele>1572.569</ele>
        <time>2012-06-24T12:53:08Z</time>
      </trkpt>
      <trkpt lat="42.75337" lon="1.44773">
        <ele>1571.769</ele>
        <time>2012-06-24T12:53:12Z</time>
      </trkpt>
      <trkpt lat="42.75332" lon="1.44783">
        <ele>1569.345</ele>
        <time>2012-06-24T12:53:24Z</time>
      </trkpt>
      <trkpt lat="42.75331" lon="1.4478">
        <ele>1568.599</ele>
        <time>2012-06-24T12:53:27Z</time>
      </trkpt>
      <trkpt lat="42.75326" lon="1.4477">
        <ele>1566.752</ele>
        <time>2012-06-24T12:53:36Z</time>
      </trkpt>
      <trkpt lat="42.75324" lon="1.44762">
        <ele>1565.473</ele>
        <time>2012-06-24T12:53:42Z</time>
      </trkpt>
      <trkpt lat="42.75325" lon="1.44749">
        <ele>1563.441</ele>
        <time>2012-06-24T12:53:51Z</time>
      </trkpt>
      <trkpt lat="42.75324" lon="1.44742">
        <ele>1562.244</ele>
        <time>2012-06-24T12:53:58Z</time>
      </trkpt>
      <trkpt lat="42.75325" lon="1.44734">
        <ele>1561.172</ele>
        <time>2012-06-24T12:54:04Z</time>
      </trkpt>
      <trkpt lat="42.75326" lon="1.44728">
        <ele>1560.878</ele>
        <time>2012-06-24T12:54:10Z</time>
      </trkpt>
      <trkpt lat="42.75325" lon="1.44727">
        <ele>1560.163</ele>
        <time>2012-06-24T12:54:11Z</time>
      </trkpt>
      <trkpt lat="42.75322" lon="1.44726">
        <ele>1560.247</ele>
        <time>2012-06-24T12:54:15Z</time>
      </trkpt>
      <trkpt lat="42.75318" lon="1.44723">
        <ele>1559.958</ele>
        <time>2012-06-24T12:54:19Z</time>
      </trkpt>
      <trkpt lat="42.75311" lon="1.44719">
        <ele>1558.433</ele>
        <time>2012-06-24T12:54:29Z</time>
      </trkpt>
      <trkpt lat="42.75313" lon="1.44722">
        <ele>1557.344</ele>
        <time>2012-06-24T12:54:35Z</time>
      </trkpt>
      <trkpt lat="42.75312" lon="1.44729">
        <ele>1555.508</ele>
        <time>2012-06-24T12:54:43Z</time>
      </trkpt>
      <trkpt lat="42.75306" lon="1.44723">
        <ele>1553.373</ele>
        <time>2012-06-24T12:54:51Z</time>
      </trkpt>
      <trkpt lat="42.75304" lon="1.44725">
        <ele>1553.324</ele>
        <time>2012-06-24T12:54:57Z</time>
      </trkpt>
      <trkpt lat="42.75307" lon="1.4473">
        <ele>1552.018</ele>
        <time>2012-06-24T12:55:03Z</time>
      </trkpt>
      <trkpt lat="42.75306" lon="1.44731">
        <ele>1551.772</ele>
        <time>2012-06-24T12:55:04Z</time>
      </trkpt>
      <trkpt lat="42.75306" lon="1.44733">
        <ele>1551.333</ele>
        <time>2012-06-24T12:55:06Z</time>
      </trkpt>
      <trkpt lat="42.75304" lon="1.4474">
        <ele>1550.122</ele>
        <time>2012-06-24T12:55:14Z</time>
      </trkpt>
      <trkpt lat="42.75308" lon="1.44744">
        <ele>1549.954</ele>
        <time>2012-06-24T12:55:20Z</time>
      </trkpt>
      <trkpt lat="42.75311" lon="1.44749">
        <ele>1548.344</ele>
        <time>2012-06-24T12:55:27Z</time>
      </trkpt>
      <trkpt lat="42.75312" lon="1.44753">
        <ele>1547.29</ele>
        <time>2012-06-24T12:55:32Z</time>
      </trkpt>
      <trkpt lat="42.75311" lon="1.44757">
        <ele>1545.88</ele>
        <time>2012-06-24T12:55:38Z</time>
      </trkpt>
      <trkpt lat="42.75311" lon="1.44758">
        <ele>1545.728</ele>
        <time>2012-06-24T12:55:39Z</time>
      </trkpt>
      <trkpt lat="42.75309" lon="1.4476">
        <ele>1544.887</ele>
        <time>2012-06-24T12:55:41Z</time>
      </trkpt>
      <trkpt lat="42.75304" lon="1.4476">
        <ele>1543.615</ele>
        <time>2012-06-24T12:55:47Z</time>
      </trkpt>
      <trkpt lat="42.75302" lon="1.44766">
        <ele>1542.265</ele>
        <time>2012-06-24T12:55:54Z</time>
      </trkpt>
      <trkpt lat="42.75301" lon="1.44767">
        <ele>1542.676</ele>
        <time>2012-06-24T12:55:55Z</time>
      </trkpt>
      <trkpt lat="42.75301" lon="1.44778">
        <ele>1540.573</ele>
        <time>2012-06-24T12:56:03Z</time>
      </trkpt>
      <trkpt lat="42.75303" lon="1.44784">
        <ele>1539.597</ele>
        <time>2012-06-24T12:56:07Z</time>
      </trkpt>
      <trkpt lat="42.753" lon="1.44788">
        <ele>1539.208</ele>
        <time>2012-06-24T12:56:10Z</time>
      </trkpt>
      <trkpt lat="42.75295" lon="1.44796">
        <ele>1538.895</ele>
        <time>2012-06-24T12:56:17Z</time>
      </trkpt>
      <trkpt lat="42.75295" lon="1.44807">
        <ele>1537.878</ele>
        <time>2012-06-24T12:56:25Z</time>
      </trkpt>
      <trkpt lat="42.75289" lon="1.44819">
        <ele>1536.327</ele>
        <time>2012-06-24T12:56:34Z</time>
      </trkpt>
      <trkpt lat="42.75288" lon="1.44824">
        <ele>1536.498</ele>
        <time>2012-06-24T12:56:37Z</time>
      </trkpt>
      <trkpt lat="42.75288" lon="1.44828">
        <ele>1535.611</ele>
        <time>2012-06-24T12:56:39Z</time>
      </trkpt>
      <trkpt lat="42.75285" lon="1.44837">
        <ele>1534.079</ele>
        <time>2012-06-24T12:56:47Z</time>
      </trkpt>
      <trkpt lat="42.75281" lon="1.44848">
        <ele>1532.578</ele>
        <time>2012-06-24T12:56:54Z</time>
      </trkpt>
      <trkpt lat="42.75277" lon="1.44858">
        <ele>1532.226</ele>
        <time>2012-06-24T12:57:01Z</time>
      </trkpt>
      <trkpt lat="42.75274" lon="1.44868">
        <ele>1531.573</ele>
        <time>2012-06-24T12:57:08Z</time>
      </trkpt>
      <trkpt lat="42.75273" lon="1.44869">
        <ele>1531.343</ele>
        <time>2012-06-24T12:57:09Z</time>
      </trkpt>
      <trkpt lat="42.75271" lon="1.44879">
        <ele>1531.86</ele>
        <time>2012-06-24T12:57:16Z</time>
      </trkpt>
      <trkpt lat="42.75265" lon="1.44889">
        <ele>1531.524</ele>
        <time>2012-06-24T12:57:25Z</time>
      </trkpt>
      <trkpt lat="42.75263" lon="1.44897">
        <ele>1530.763</ele>
        <time>2012-06-24T12:57:33Z</time>
      </trkpt>
      <trkpt lat="42.7527" lon="1.44891">
        <ele>1529.911</ele>
        <time>2012-06-24T12:58:03Z</time>
      </trkpt>
      <trkpt lat="42.75262" lon="1.44894">
        <ele>1529.999</ele>
        <time>2012-06-24T12:58:12Z</time>
      </trkpt>
      <trkpt lat="42.75261" lon="1.44896">
        <ele>1529.5</ele>
        <time>2012-06-24T12:58:34Z</time>
      </trkpt>
      <trkpt lat="42.75263" lon="1.44904">
        <ele>1530.483</ele>
        <time>2012-06-24T12:59:44Z</time>
      </trkpt>
      <trkpt lat="42.75261" lon="1.44903">
        <ele>1530.073</ele>
        <time>2012-06-24T12:59:53Z</time>
      </trkpt>
      <trkpt lat="42.7526" lon="1.44899">
        <ele>1525.945</ele>
        <time>2012-06-24T13:00:03Z</time>
      </trkpt>
      <trkpt lat="42.7526" lon="1.44899">
        <ele>1529.674</ele>
        <time>2012-06-24T13:00:04Z</time>
      </trkpt>
      <trkpt lat="42.7526" lon="1.44899">
        <ele>1533.067</ele>
        <time>2012-06-24T13:00:05Z</time>
      </trkpt>
      <trkpt lat="42.7526" lon="1.44899">
        <ele>1533.066</ele>
        <time>2012-06-24T13:00:06Z</time>
      </trkpt>
      <trkpt lat="42.75259" lon="1.449">
        <ele>1530.754</ele>
        <time>2012-06-24T13:00:09Z</time>
      </trkpt>
      <trkpt lat="42.75258" lon="1.44899">
        <ele>1527.704</ele>
        <time>2012-06-24T13:00:12Z</time>
      </trkpt>
      <trkpt lat="42.75258" lon="1.44898">
        <ele>1528.778</ele>
        <time>2012-06-24T13:00:13Z</time>
      </trkpt>
      <trkpt lat="42.75258" lon="1.44898">
        <ele>1533.496</ele>
        <time>2012-06-24T13:00:15Z</time>
      </trkpt>
      <trkpt lat="42.75258" lon="1.44898">
        <ele>1533.499</ele>
        <time>2012-06-24T13:00:16Z</time>
      </trkpt>
      <trkpt lat="42.75258" lon="1.44898">
        <ele>1530.39</ele>
        <time>2012-06-24T13:00:17Z</time>
      </trkpt>
      <trkpt lat="42.75258" lon="1.44898">
        <ele>1526.251</ele>
        <time>2012-06-24T13:00:19Z</time>
      </trkpt>
      <trkpt lat="42.75257" lon="1.44898">
        <ele>1526.255</ele>
        <time>2012-06-24T13:00:20Z</time>
      </trkpt>
      <trkpt lat="42.75257" lon="1.44898">
        <ele>1529.597</ele>
        <time>2012-06-24T13:00:21Z</time>
      </trkpt>
      <trkpt lat="42.75257" lon="1.44898">
        <ele>1533.154</ele>
        <time>2012-06-24T13:00:22Z</time>
      </trkpt>
      <trkpt lat="42.75257" lon="1.44898">
        <ele>1533.16</ele>
        <time>2012-06-24T13:00:23Z</time>
      </trkpt>
      <trkpt lat="42.75257" lon="1.44898">
        <ele>1530.079</ele>
        <time>2012-06-24T13:00:25Z</time>
      </trkpt>
      <trkpt lat="42.75257" lon="1.44898">
        <ele>1526.712</ele>
        <time>2012-06-24T13:00:26Z</time>
      </trkpt>
      <trkpt lat="42.75257" lon="1.44898">
        <ele>1528.533</ele>
        <time>2012-06-24T13:00:27Z</time>
      </trkpt>
      <trkpt lat="42.75257" lon="1.44899">
        <ele>1532.166</ele>
        <time>2012-06-24T13:00:28Z</time>
      </trkpt>
      <trkpt lat="42.75257" lon="1.44899">
        <ele>1530.456</ele>
        <time>2012-06-24T13:00:29Z</time>
      </trkpt>
      <trkpt lat="42.75257" lon="1.44899">
        <ele>1534.774</ele>
        <time>2012-06-24T13:00:34Z</time>
      </trkpt>
      <trkpt lat="42.75257" lon="1.44899">
        <ele>1530.887</ele>
        <time>2012-06-24T13:00:35Z</time>
      </trkpt>
      <trkpt lat="42.75257" lon="1.449">
        <ele>1526.156</ele>
        <time>2012-06-24T13:00:39Z</time>
      </trkpt>
      <trkpt lat="42.75257" lon="1.449">
        <ele>1531.565</ele>
        <time>2012-06-24T13:00:40Z</time>
      </trkpt>
      <trkpt lat="42.75257" lon="1.449">
        <ele>1531.565</ele>
        <time>2012-06-24T13:00:41Z</time>
      </trkpt>
      <trkpt lat="42.75257" lon="1.449">
        <ele>1527.448</ele>
        <time>2012-06-24T13:00:42Z</time>
      </trkpt>
      <trkpt lat="42.75257" lon="1.449">
        <ele>1529.898</ele>
        <time>2012-06-24T13:00:43Z</time>
      </trkpt>
      <trkpt lat="42.75258" lon="1.44901">
        <ele>1533.045</ele>
        <time>2012-06-24T13:00:48Z</time>
      </trkpt>
      <trkpt lat="42.75258" lon="1.449">
        <ele>1528.33</ele>
        <time>2012-06-24T13:00:50Z</time>
      </trkpt>
      <trkpt lat="42.75258" lon="1.44901">
        <ele>1528.33</ele>
        <time>2012-06-24T13:00:51Z</time>
      </trkpt>
      <trkpt lat="42.75258" lon="1.44901">
        <ele>1532.474</ele>
        <time>2012-06-24T13:00:55Z</time>
      </trkpt>
      <trkpt lat="42.75259" lon="1.44901">
        <ele>1530.689</ele>
        <time>2012-06-24T13:00:56Z</time>
      </trkpt>
      <trkpt lat="42.75261" lon="1.44902">
        <ele>1532.759</ele>
        <time>2012-06-24T13:01:01Z</time>
      </trkpt>
      <trkpt lat="42.75263" lon="1.44902">
        <ele>1530.321</ele>
        <time>2012-06-24T13:01:03Z</time>
      </trkpt>
      <trkpt lat="42.75264" lon="1.44903">
        <ele>1526.751</ele>
        <time>2012-06-24T13:01:04Z</time>
      </trkpt>
      <trkpt lat="42.75265" lon="1.44903">
        <ele>1532.172</ele>
        <time>2012-06-24T13:01:05Z</time>
      </trkpt>
      <trkpt lat="42.75266" lon="1.44903">
        <ele>1527.622</ele>
        <time>2012-06-24T13:01:06Z</time>
      </trkpt>
      <trkpt lat="42.75266" lon="1.44903">
        <ele>1533.622</ele>
        <time>2012-06-24T13:01:08Z</time>
      </trkpt>
      <trkpt lat="42.75267" lon="1.44904">
        <ele>1527.518</ele>
        <time>2012-06-24T13:01:09Z</time>
      </trkpt>
      <trkpt lat="42.75267" lon="1.44904">
        <ele>1533.749</ele>
        <time>2012-06-24T13:01:11Z</time>
      </trkpt>
      <trkpt lat="42.75267" lon="1.44904">
        <ele>1530.64</ele>
        <time>2012-06-24T13:01:12Z</time>
      </trkpt>
      <trkpt lat="42.75263" lon="1.44905">
        <ele>1529.673</ele>
        <time>2012-06-24T13:01:29Z</time>
      </trkpt>
      <trkpt lat="42.75261" lon="1.44908">
        <ele>1528.835</ele>
        <time>2012-06-24T13:01:33Z</time>
      </trkpt>
      <trkpt lat="42.75254" lon="1.44917">
        <ele>1527.189</ele>
        <time>2012-06-24T13:01:41Z</time>
      </trkpt>
      <trkpt lat="42.75248" lon="1.44924">
        <ele>1525.83</ele>
        <time>2012-06-24T13:01:49Z</time>
      </trkpt>
      <trkpt lat="42.75243" lon="1.44934">
        <ele>1523.744</ele>
        <time>2012-06-24T13:01:59Z</time>
      </trkpt>
      <trkpt lat="42.75239" lon="1.44941">
        <ele>1521.952</ele>
        <time>2012-06-24T13:02:06Z</time>
      </trkpt>
      <trkpt lat="42.75236" lon="1.44951">
        <ele>1521.226</ele>
        <time>2012-06-24T13:02:14Z</time>
      </trkpt>
      <trkpt lat="42.75231" lon="1.44959">
        <ele>1519.875</ele>
        <time>2012-06-24T13:02:22Z</time>
      </trkpt>
      <trkpt lat="42.75226" lon="1.44966">
        <ele>1517.686</ele>
        <time>2012-06-24T13:02:29Z</time>
      </trkpt>
      <trkpt lat="42.75226" lon="1.44968">
        <ele>1517.434</ele>
        <time>2012-06-24T13:02:30Z</time>
      </trkpt>
      <trkpt lat="42.75223" lon="1.4498">
        <ele>1515.088</ele>
        <time>2012-06-24T13:02:39Z</time>
      </trkpt>
      <trkpt lat="42.75219" lon="1.44989">
        <ele>1513.643</ele>
        <time>2012-06-24T13:02:46Z</time>
      </trkpt>
      <trkpt lat="42.75219" lon="1.4499">
        <ele>1513.64</ele>
        <time>2012-06-24T13:02:47Z</time>
      </trkpt>
      <trkpt lat="42.75217" lon="1.44992">
        <ele>1513.135</ele>
        <time>2012-06-24T13:02:49Z</time>
      </trkpt>
      <trkpt lat="42.75216" lon="1.44996">
        <ele>1511.921</ele>
        <time>2012-06-24T13:02:53Z</time>
      </trkpt>
      <trkpt lat="42.75213" lon="1.44998">
        <ele>1511.057</ele>
        <time>2012-06-24T13:02:55Z</time>
      </trkpt>
      <trkpt lat="42.75208" lon="1.45007">
        <ele>1509.482</ele>
        <time>2012-06-24T13:03:02Z</time>
      </trkpt>
      <trkpt lat="42.75202" lon="1.45013">
        <ele>1508.341</ele>
        <time>2012-06-24T13:03:08Z</time>
      </trkpt>
      <trkpt lat="42.75199" lon="1.4502">
        <ele>1506.712</ele>
        <time>2012-06-24T13:03:14Z</time>
      </trkpt>
      <trkpt lat="42.75196" lon="1.45026">
        <ele>1505.315</ele>
        <time>2012-06-24T13:03:20Z</time>
      </trkpt>
      <trkpt lat="42.75195" lon="1.45026">
        <ele>1505.39</ele>
        <time>2012-06-24T13:03:21Z</time>
      </trkpt>
      <trkpt lat="42.75188" lon="1.45026">
        <ele>1504.075</ele>
        <time>2012-06-24T13:03:27Z</time>
      </trkpt>
      <trkpt lat="42.75191" lon="1.45016">
        <ele>1502.413</ele>
        <time>2012-06-24T13:03:34Z</time>
      </trkpt>
      <trkpt lat="42.75188" lon="1.4501">
        <ele>1501.262</ele>
        <time>2012-06-24T13:03:40Z</time>
      </trkpt>
      <trkpt lat="42.75184" lon="1.45012">
        <ele>1499.933</ele>
        <time>2012-06-24T13:03:47Z</time>
      </trkpt>
      <trkpt lat="42.75181" lon="1.4501">
        <ele>1499.849</ele>
        <time>2012-06-24T13:03:53Z</time>
      </trkpt>
      <trkpt lat="42.75179" lon="1.45014">
        <ele>1497.885</ele>
        <time>2012-06-24T13:03:59Z</time>
      </trkpt>
      <trkpt lat="42.75175" lon="1.45016">
        <ele>1495.537</ele>
        <time>2012-06-24T13:04:05Z</time>
      </trkpt>
      <trkpt lat="42.75172" lon="1.45021">
        <ele>1494.01</ele>
        <time>2012-06-24T13:04:10Z</time>
      </trkpt>
      <trkpt lat="42.7517" lon="1.45028">
        <ele>1491.838</ele>
        <time>2012-06-24T13:04:17Z</time>
      </trkpt>
      <trkpt lat="42.75166" lon="1.45035">
        <ele>1490.42</ele>
        <time>2012-06-24T13:04:24Z</time>
      </trkpt>
      <trkpt lat="42.75158" lon="1.45041">
        <ele>1488.699</ele>
        <time>2012-06-24T13:04:31Z</time>
      </trkpt>
      <trkpt lat="42.75152" lon="1.45048">
        <ele>1487.787</ele>
        <time>2012-06-24T13:04:38Z</time>
      </trkpt>
      <trkpt lat="42.75149" lon="1.45059">
        <ele>1487.716</ele>
        <time>2012-06-24T13:04:46Z</time>
      </trkpt>
      <trkpt lat="42.75148" lon="1.45061">
        <ele>1487.116</ele>
        <time>2012-06-24T13:04:48Z</time>
      </trkpt>
      <trkpt lat="42.75141" lon="1.45067">
        <ele>1486.268</ele>
        <time>2012-06-24T13:04:57Z</time>
      </trkpt>
      <trkpt lat="42.75135" lon="1.45073">
        <ele>1484.214</ele>
        <time>2012-06-24T13:05:06Z</time>
      </trkpt>
      <trkpt lat="42.75132" lon="1.45076">
        <ele>1482.221</ele>
        <time>2012-06-24T13:05:12Z</time>
      </trkpt>
      <trkpt lat="42.75127" lon="1.45081">
        <ele>1480.248</ele>
        <time>2012-06-24T13:05:19Z</time>
      </trkpt>
      <trkpt lat="42.75124" lon="1.45089">
        <ele>1478.541</ele>
        <time>2012-06-24T13:05:27Z</time>
      </trkpt>
      <trkpt lat="42.75121" lon="1.45095">
        <ele>1476.809</ele>
        <time>2012-06-24T13:05:34Z</time>
      </trkpt>
      <trkpt lat="42.75121" lon="1.45096">
        <ele>1476.411</ele>
        <time>2012-06-24T13:05:35Z</time>
      </trkpt>
      <trkpt lat="42.75119" lon="1.45088">
        <ele>1474.724</ele>
        <time>2012-06-24T13:05:42Z</time>
      </trkpt>
      <trkpt lat="42.75119" lon="1.45086">
        <ele>1474.359</ele>
        <time>2012-06-24T13:05:46Z</time>
      </trkpt>
      <trkpt lat="42.75116" lon="1.45093">
        <ele>1473.765</ele>
        <time>2012-06-24T13:05:52Z</time>
      </trkpt>
      <trkpt lat="42.75113" lon="1.45102">
        <ele>1472.342</ele>
        <time>2012-06-24T13:05:59Z</time>
      </trkpt>
      <trkpt lat="42.75111" lon="1.45107">
        <ele>1471.371</ele>
        <time>2012-06-24T13:06:05Z</time>
      </trkpt>
      <trkpt lat="42.75109" lon="1.45106">
        <ele>1471.004</ele>
        <time>2012-06-24T13:06:07Z</time>
      </trkpt>
      <trkpt lat="42.7511" lon="1.45099">
        <ele>1469.645</ele>
        <time>2012-06-24T13:06:14Z</time>
      </trkpt>
      <trkpt lat="42.7511" lon="1.4509">
        <ele>1468.677</ele>
        <time>2012-06-24T13:06:22Z</time>
      </trkpt>
      <trkpt lat="42.75108" lon="1.4509">
        <ele>1467.4</ele>
        <time>2012-06-24T13:06:26Z</time>
      </trkpt>
      <trkpt lat="42.75104" lon="1.45095">
        <ele>1465.671</ele>
        <time>2012-06-24T13:06:33Z</time>
      </trkpt>
      <trkpt lat="42.75101" lon="1.45099">
        <ele>1464.413</ele>
        <time>2012-06-24T13:06:37Z</time>
      </trkpt>
      <trkpt lat="42.75098" lon="1.45107">
        <ele>1463.222</ele>
        <time>2012-06-24T13:06:44Z</time>
      </trkpt>
      <trkpt lat="42.75092" lon="1.45114">
        <ele>1460.9</ele>
        <time>2012-06-24T13:06:51Z</time>
      </trkpt>
      <trkpt lat="42.7509" lon="1.4512">
        <ele>1459.235</ele>
        <time>2012-06-24T13:06:57Z</time>
      </trkpt>
      <trkpt lat="42.75088" lon="1.45125">
        <ele>1458.648</ele>
        <time>2012-06-24T13:07:01Z</time>
      </trkpt>
      <trkpt lat="42.75086" lon="1.45129">
        <ele>1457.054</ele>
        <time>2012-06-24T13:07:05Z</time>
      </trkpt>
      <trkpt lat="42.75083" lon="1.45136">
        <ele>1455.229</ele>
        <time>2012-06-24T13:07:13Z</time>
      </trkpt>
      <trkpt lat="42.75078" lon="1.45144">
        <ele>1453.264</ele>
        <time>2012-06-24T13:07:21Z</time>
      </trkpt>
      <trkpt lat="42.75074" lon="1.45146">
        <ele>1452.219</ele>
        <time>2012-06-24T13:07:28Z</time>
      </trkpt>
      <trkpt lat="42.75071" lon="1.45138">
        <ele>1450.664</ele>
        <time>2012-06-24T13:07:36Z</time>
      </trkpt>
      <trkpt lat="42.7507" lon="1.45141">
        <ele>1449.491</ele>
        <time>2012-06-24T13:07:41Z</time>
      </trkpt>
      <trkpt lat="42.75068" lon="1.45147">
        <ele>1448.125</ele>
        <time>2012-06-24T13:07:49Z</time>
      </trkpt>
      <trkpt lat="42.75069" lon="1.45152">
        <ele>1447.095</ele>
        <time>2012-06-24T13:07:56Z</time>
      </trkpt>
      <trkpt lat="42.75065" lon="1.45151">
        <ele>1445.635</ele>
        <time>2012-06-24T13:08:01Z</time>
      </trkpt>
      <trkpt lat="42.7506" lon="1.45143">
        <ele>1444.137</ele>
        <time>2012-06-24T13:08:09Z</time>
      </trkpt>
      <trkpt lat="42.75057" lon="1.45132">
        <ele>1441.824</ele>
        <time>2012-06-24T13:08:18Z</time>
      </trkpt>
      <trkpt lat="42.75059" lon="1.45124">
        <ele>1439.487</ele>
        <time>2012-06-24T13:08:24Z</time>
      </trkpt>
      <trkpt lat="42.75063" lon="1.45113">
        <ele>1437.451</ele>
        <time>2012-06-24T13:08:33Z</time>
      </trkpt>
      <trkpt lat="42.7506" lon="1.45109">
        <ele>1434.963</ele>
        <time>2012-06-24T13:08:43Z</time>
      </trkpt>
      <trkpt lat="42.75058" lon="1.45111">
        <ele>1434.137</ele>
        <time>2012-06-24T13:08:47Z</time>
      </trkpt>
      <trkpt lat="42.75054" lon="1.45107">
        <ele>1433.529</ele>
        <time>2012-06-24T13:08:50Z</time>
      </trkpt>
      <trkpt lat="42.75051" lon="1.45093">
        <ele>1432.343</ele>
        <time>2012-06-24T13:08:59Z</time>
      </trkpt>
      <trkpt lat="42.75051" lon="1.45094">
        <ele>1431.29</ele>
        <time>2012-06-24T13:09:03Z</time>
      </trkpt>
      <trkpt lat="42.75048" lon="1.45104">
        <ele>1429.016</ele>
        <time>2012-06-24T13:09:13Z</time>
      </trkpt>
      <trkpt lat="42.75047" lon="1.45111">
        <ele>1427.051</ele>
        <time>2012-06-24T13:09:20Z</time>
      </trkpt>
      <trkpt lat="42.75045" lon="1.45116">
        <ele>1425.426</ele>
        <time>2012-06-24T13:09:25Z</time>
      </trkpt>
      <trkpt lat="42.75044" lon="1.45122">
        <ele>1424.2</ele>
        <time>2012-06-24T13:09:29Z</time>
      </trkpt>
      <trkpt lat="42.75039" lon="1.4513">
        <ele>1422.605</ele>
        <time>2012-06-24T13:09:37Z</time>
      </trkpt>
      <trkpt lat="42.75034" lon="1.45131">
        <ele>1421.2</ele>
        <time>2012-06-24T13:09:43Z</time>
      </trkpt>
      <trkpt lat="42.75034" lon="1.45129">
        <ele>1420.469</ele>
        <time>2012-06-24T13:09:46Z</time>
      </trkpt>
      <trkpt lat="42.75031" lon="1.45119">
        <ele>1419.443</ele>
        <time>2012-06-24T13:09:54Z</time>
      </trkpt>
      <trkpt lat="42.75029" lon="1.45116">
        <ele>1418.276</ele>
        <time>2012-06-24T13:09:59Z</time>
      </trkpt>
      <trkpt lat="42.75022" lon="1.45119">
        <ele>1419.237</ele>
        <time>2012-06-24T13:10:11Z</time>
      </trkpt>
      <trkpt lat="42.75023" lon="1.45121">
        <ele>1418.872</ele>
        <time>2012-06-24T13:10:22Z</time>
      </trkpt>
      <trkpt lat="42.75025" lon="1.4512">
        <ele>1419.505</ele>
        <time>2012-06-24T13:10:44Z</time>
      </trkpt>
      <trkpt lat="42.75027" lon="1.45121">
        <ele>1418.397</ele>
        <time>2012-06-24T13:11:04Z</time>
      </trkpt>
      <trkpt lat="42.75028" lon="1.45118">
        <ele>1417.949</ele>
        <time>2012-06-24T13:11:27Z</time>
      </trkpt>
      <trkpt lat="42.75026" lon="1.45114">
        <ele>1416.821</ele>
        <time>2012-06-24T13:11:33Z</time>
      </trkpt>
      <trkpt lat="42.75026" lon="1.4511">
        <ele>1415.996</ele>
        <time>2012-06-24T13:11:38Z</time>
      </trkpt>
      <trkpt lat="42.75025" lon="1.45114">
        <ele>1413.37</ele>
        <time>2012-06-24T13:11:48Z</time>
      </trkpt>
      <trkpt lat="42.75022" lon="1.45116">
        <ele>1411.573</ele>
        <time>2012-06-24T13:11:55Z</time>
      </trkpt>
      <trkpt lat="42.75019" lon="1.45122">
        <ele>1410.297</ele>
        <time>2012-06-24T13:12:02Z</time>
      </trkpt>
      <trkpt lat="42.75016" lon="1.45125">
        <ele>1408.777</ele>
        <time>2012-06-24T13:12:08Z</time>
      </trkpt>
      <trkpt lat="42.75015" lon="1.45127">
        <ele>1408.415</ele>
        <time>2012-06-24T13:12:10Z</time>
      </trkpt>
      <trkpt lat="42.75008" lon="1.45123">
        <ele>1407.389</ele>
        <time>2012-06-24T13:12:16Z</time>
      </trkpt>
      <trkpt lat="42.75007" lon="1.45122">
        <ele>1405.723</ele>
        <time>2012-06-24T13:12:22Z</time>
      </trkpt>
      <trkpt lat="42.75006" lon="1.45125">
        <ele>1404.719</ele>
        <time>2012-06-24T13:12:28Z</time>
      </trkpt>
      <trkpt lat="42.75004" lon="1.45129">
        <ele>1403.132</ele>
        <time>2012-06-24T13:12:34Z</time>
      </trkpt>
      <trkpt lat="42.75002" lon="1.45134">
        <ele>1402.484</ele>
        <time>2012-06-24T13:12:39Z</time>
      </trkpt>
      <trkpt lat="42.74999" lon="1.45135">
        <ele>1401.422</ele>
        <time>2012-06-24T13:12:44Z</time>
      </trkpt>
      <trkpt lat="42.74994" lon="1.45134">
        <ele>1399.81</ele>
        <time>2012-06-24T13:12:49Z</time>
      </trkpt>
      <trkpt lat="42.74988" lon="1.4513">
        <ele>1397.03</ele>
        <time>2012-06-24T13:12:56Z</time>
      </trkpt>
      <trkpt lat="42.74987" lon="1.45131">
        <ele>1397.043</ele>
        <time>2012-06-24T13:12:57Z</time>
      </trkpt>
      <trkpt lat="42.74986" lon="1.45134">
        <ele>1396.297</ele>
        <time>2012-06-24T13:13:02Z</time>
      </trkpt>
      <trkpt lat="42.74984" lon="1.45138">
        <ele>1395.444</ele>
        <time>2012-06-24T13:13:07Z</time>
      </trkpt>
      <trkpt lat="42.74974" lon="1.45128">
        <ele>1392.564</ele>
        <time>2012-06-24T13:13:16Z</time>
      </trkpt>
      <trkpt lat="42.74975" lon="1.45119">
        <ele>1391.304</ele>
        <time>2012-06-24T13:13:24Z</time>
      </trkpt>
      <trkpt lat="42.74979" lon="1.4511">
        <ele>1389.128</ele>
        <time>2012-06-24T13:13:34Z</time>
      </trkpt>
      <trkpt lat="42.7498" lon="1.4511">
        <ele>1388.366</ele>
        <time>2012-06-24T13:13:35Z</time>
      </trkpt>
      <trkpt lat="42.74977" lon="1.45115">
        <ele>1387.17</ele>
        <time>2012-06-24T13:13:41Z</time>
      </trkpt>
      <trkpt lat="42.74974" lon="1.45119">
        <ele>1384.973</ele>
        <time>2012-06-24T13:13:47Z</time>
      </trkpt>
      <trkpt lat="42.74969" lon="1.45117">
        <ele>1383.188</ele>
        <time>2012-06-24T13:13:54Z</time>
      </trkpt>
      <trkpt lat="42.74967" lon="1.45119">
        <ele>1381.769</ele>
        <time>2012-06-24T13:14:01Z</time>
      </trkpt>
      <trkpt lat="42.74966" lon="1.45119">
        <ele>1381.515</ele>
        <time>2012-06-24T13:14:02Z</time>
      </trkpt>
      <trkpt lat="42.74963" lon="1.45116">
        <ele>1380.274</ele>
        <time>2012-06-24T13:14:08Z</time>
      </trkpt>
      <trkpt lat="42.74959" lon="1.45116">
        <ele>1378.979</ele>
        <time>2012-06-24T13:14:14Z</time>
      </trkpt>
      <trkpt lat="42.74956" lon="1.4512">
        <ele>1377.136</ele>
        <time>2012-06-24T13:14:19Z</time>
      </trkpt>
      <trkpt lat="42.74954" lon="1.45123">
        <ele>1376.638</ele>
        <time>2012-06-24T13:14:23Z</time>
      </trkpt>
      <trkpt lat="42.74953" lon="1.45125">
        <ele>1375.988</ele>
        <time>2012-06-24T13:14:25Z</time>
      </trkpt>
      <trkpt lat="42.74948" lon="1.45129">
        <ele>1373.809</ele>
        <time>2012-06-24T13:14:32Z</time>
      </trkpt>
      <trkpt lat="42.74945" lon="1.45138">
        <ele>1371.919</ele>
        <time>2012-06-24T13:14:41Z</time>
      </trkpt>
      <trkpt lat="42.74943" lon="1.45144">
        <ele>1370.614</ele>
        <time>2012-06-24T13:14:46Z</time>
      </trkpt>
      <trkpt lat="42.74942" lon="1.45148">
        <ele>1369.545</ele>
        <time>2012-06-24T13:14:50Z</time>
      </trkpt>
      <trkpt lat="42.74942" lon="1.45154">
        <ele>1369.131</ele>
        <time>2012-06-24T13:14:54Z</time>
      </trkpt>
      <trkpt lat="42.74945" lon="1.45168">
        <ele>1368.124</ele>
        <time>2012-06-24T13:15:02Z</time>
      </trkpt>
      <trkpt lat="42.74948" lon="1.45176">
        <ele>1367.382</ele>
        <time>2012-06-24T13:15:09Z</time>
      </trkpt>
      <trkpt lat="42.74939" lon="1.45178">
        <ele>1365.676</ele>
        <time>2012-06-24T13:15:16Z</time>
      </trkpt>
      <trkpt lat="42.74937" lon="1.45183">
        <ele>1365.174</ele>
        <time>2012-06-24T13:15:20Z</time>
      </trkpt>
      <trkpt lat="42.74937" lon="1.45192">
        <ele>1363.244</ele>
        <time>2012-06-24T13:15:28Z</time>
      </trkpt>
      <trkpt lat="42.74935" lon="1.45196">
        <ele>1361.834</ele>
        <time>2012-06-24T13:15:35Z</time>
      </trkpt>
      <trkpt lat="42.74934" lon="1.45198">
        <ele>1361.246</ele>
        <time>2012-06-24T13:15:37Z</time>
      </trkpt>
      <trkpt lat="42.74928" lon="1.45202">
        <ele>1359.639</ele>
        <time>2012-06-24T13:15:44Z</time>
      </trkpt>
      <trkpt lat="42.74923" lon="1.45204">
        <ele>1356.274</ele>
        <time>2012-06-24T13:15:51Z</time>
      </trkpt>
      <trkpt lat="42.7492" lon="1.45205">
        <ele>1354.521</ele>
        <time>2012-06-24T13:16:02Z</time>
      </trkpt>
      <trkpt lat="42.74918" lon="1.45203">
        <ele>1353.864</ele>
        <time>2012-06-24T13:16:09Z</time>
      </trkpt>
      <trkpt lat="42.74913" lon="1.45201">
        <ele>1353.818</ele>
        <time>2012-06-24T13:16:20Z</time>
      </trkpt>
      <trkpt lat="42.74905" lon="1.45196">
        <ele>1353.691</ele>
        <time>2012-06-24T13:16:58Z</time>
      </trkpt>
      <trkpt lat="42.74908" lon="1.45199">
        <ele>1348.148</ele>
        <time>2012-06-24T13:17:16Z</time>
      </trkpt>
      <trkpt lat="42.74908" lon="1.45199">
        <ele>1349.331</ele>
        <time>2012-06-24T13:17:21Z</time>
      </trkpt>
      <trkpt lat="42.74908" lon="1.45199">
        <ele>1353.235</ele>
        <time>2012-06-24T13:17:23Z</time>
      </trkpt>
      <trkpt lat="42.74908" lon="1.45199">
        <ele>1353.242</ele>
        <time>2012-06-24T13:17:24Z</time>
      </trkpt>
      <trkpt lat="42.74909" lon="1.45199">
        <ele>1352.634</ele>
        <time>2012-06-24T13:17:56Z</time>
      </trkpt>
      <trkpt lat="42.74906" lon="1.45197">
        <ele>1352.077</ele>
        <time>2012-06-24T13:18:11Z</time>
      </trkpt>
      <trkpt lat="42.74905" lon="1.45194">
        <ele>1352.55</ele>
        <time>2012-06-24T13:18:35Z</time>
      </trkpt>
      <trkpt lat="42.74903" lon="1.45194">
        <ele>1351.055</ele>
        <time>2012-06-24T13:18:38Z</time>
      </trkpt>
      <trkpt lat="42.74902" lon="1.45196">
        <ele>1350.371</ele>
        <time>2012-06-24T13:18:43Z</time>
      </trkpt>
      <trkpt lat="42.74903" lon="1.45203">
        <ele>1348.669</ele>
        <time>2012-06-24T13:18:50Z</time>
      </trkpt>
      <trkpt lat="42.74902" lon="1.4521">
        <ele>1346.914</ele>
        <time>2012-06-24T13:18:58Z</time>
      </trkpt>
      <trkpt lat="42.74902" lon="1.45215">
        <ele>1344.773</ele>
        <time>2012-06-24T13:19:04Z</time>
      </trkpt>
      <trkpt lat="42.74902" lon="1.45222">
        <ele>1343.692</ele>
        <time>2012-06-24T13:19:11Z</time>
      </trkpt>
      <trkpt lat="42.74902" lon="1.45228">
        <ele>1342.599</ele>
        <time>2012-06-24T13:19:17Z</time>
      </trkpt>
      <trkpt lat="42.74902" lon="1.45238">
        <ele>1340.72</ele>
        <time>2012-06-24T13:19:26Z</time>
      </trkpt>
      <trkpt lat="42.74904" lon="1.45245">
        <ele>1339.794</ele>
        <time>2012-06-24T13:19:33Z</time>
      </trkpt>
      <trkpt lat="42.74902" lon="1.45254">
        <ele>1338.095</ele>
        <time>2012-06-24T13:19:41Z</time>
      </trkpt>
      <trkpt lat="42.74902" lon="1.4526">
        <ele>1336.22</ele>
        <time>2012-06-24T13:19:47Z</time>
      </trkpt>
      <trkpt lat="42.74898" lon="1.45263">
        <ele>1334.481</ele>
        <time>2012-06-24T13:19:53Z</time>
      </trkpt>
      <trkpt lat="42.74892" lon="1.45263">
        <ele>1332.398</ele>
        <time>2012-06-24T13:20:01Z</time>
      </trkpt>
      <trkpt lat="42.74891" lon="1.45263">
        <ele>1332.395</ele>
        <time>2012-06-24T13:20:02Z</time>
      </trkpt>
      <trkpt lat="42.74889" lon="1.45263">
        <ele>1331.932</ele>
        <time>2012-06-24T13:20:04Z</time>
      </trkpt>
      <trkpt lat="42.74882" lon="1.45263">
        <ele>1330.765</ele>
        <time>2012-06-24T13:20:11Z</time>
      </trkpt>
      <trkpt lat="42.74881" lon="1.45264">
        <ele>1330.323</ele>
        <time>2012-06-24T13:20:15Z</time>
      </trkpt>
      <trkpt lat="42.74885" lon="1.4527">
        <ele>1328.804</ele>
        <time>2012-06-24T13:20:21Z</time>
      </trkpt>
      <trkpt lat="42.74884" lon="1.45272">
        <ele>1328.794</ele>
        <time>2012-06-24T13:20:23Z</time>
      </trkpt>
      <trkpt lat="42.74877" lon="1.4528">
        <ele>1326.731</ele>
        <time>2012-06-24T13:20:31Z</time>
      </trkpt>
      <trkpt lat="42.74876" lon="1.45281">
        <ele>1326.728</ele>
        <time>2012-06-24T13:20:32Z</time>
      </trkpt>
      <trkpt lat="42.74874" lon="1.45289">
        <ele>1324.94</ele>
        <time>2012-06-24T13:20:39Z</time>
      </trkpt>
      <trkpt lat="42.74874" lon="1.45292">
        <ele>1324.872</ele>
        <time>2012-06-24T13:20:42Z</time>
      </trkpt>
      <trkpt lat="42.74873" lon="1.45299">
        <ele>1323.414</ele>
        <time>2012-06-24T13:20:49Z</time>
      </trkpt>
      <trkpt lat="42.7487" lon="1.45303">
        <ele>1322.115</ele>
        <time>2012-06-24T13:20:57Z</time>
      </trkpt>
      <trkpt lat="42.74863" lon="1.45312">
        <ele>1320.94</ele>
        <time>2012-06-24T13:21:53Z</time>
      </trkpt>
      <trkpt lat="42.74864" lon="1.45313">
        <ele>1320.688</ele>
        <time>2012-06-24T13:21:56Z</time>
      </trkpt>
      <trkpt lat="42.74862" lon="1.45314">
        <ele>1318.846</ele>
        <time>2012-06-24T13:22:03Z</time>
      </trkpt>
      <trkpt lat="42.7486" lon="1.45315">
        <ele>1317.223</ele>
        <time>2012-06-24T13:22:09Z</time>
      </trkpt>
      <trkpt lat="42.74857" lon="1.45312">
        <ele>1315.944</ele>
        <time>2012-06-24T13:22:14Z</time>
      </trkpt>
      <trkpt lat="42.74849" lon="1.45306">
        <ele>1314.012</ele>
        <time>2012-06-24T13:22:22Z</time>
      </trkpt>
      <trkpt lat="42.74847" lon="1.45302">
        <ele>1312.689</ele>
        <time>2012-06-24T13:22:30Z</time>
      </trkpt>
      <trkpt lat="42.74842" lon="1.45298">
        <ele>1311.483</ele>
        <time>2012-06-24T13:22:35Z</time>
      </trkpt>
      <trkpt lat="42.74836" lon="1.45291">
        <ele>1309.483</ele>
        <time>2012-06-24T13:22:43Z</time>
      </trkpt>
      <trkpt lat="42.74834" lon="1.4529">
        <ele>1308.129</ele>
        <time>2012-06-24T13:22:48Z</time>
      </trkpt>
      <trkpt lat="42.7483" lon="1.45293">
        <ele>1306.241</ele>
        <time>2012-06-24T13:22:56Z</time>
      </trkpt>
      <trkpt lat="42.74826" lon="1.45287">
        <ele>1304.397</ele>
        <time>2012-06-24T13:23:02Z</time>
      </trkpt>
      <trkpt lat="42.74825" lon="1.45282">
        <ele>1303.419</ele>
        <time>2012-06-24T13:23:05Z</time>
      </trkpt>
      <trkpt lat="42.74824" lon="1.45274">
        <ele>1300.843</ele>
        <time>2012-06-24T13:23:14Z</time>
      </trkpt>
      <trkpt lat="42.74824" lon="1.45276">
        <ele>1300.359</ele>
        <time>2012-06-24T13:23:16Z</time>
      </trkpt>
      <trkpt lat="42.74822" lon="1.45277">
        <ele>1299.625</ele>
        <time>2012-06-24T13:23:21Z</time>
      </trkpt>
      <trkpt lat="42.74819" lon="1.45264">
        <ele>1297.61</ele>
        <time>2012-06-24T13:23:31Z</time>
      </trkpt>
      <trkpt lat="42.74818" lon="1.45266">
        <ele>1296.459</ele>
        <time>2012-06-24T13:23:36Z</time>
      </trkpt>
      <trkpt lat="42.74814" lon="1.45271">
        <ele>1293.487</ele>
        <time>2012-06-24T13:23:43Z</time>
      </trkpt>
      <trkpt lat="42.74813" lon="1.45274">
        <ele>1292.771</ele>
        <time>2012-06-24T13:23:46Z</time>
      </trkpt>
      <trkpt lat="42.74812" lon="1.45284">
        <ele>1291.356</ele>
        <time>2012-06-24T13:23:54Z</time>
      </trkpt>
      <trkpt lat="42.74813" lon="1.45292">
        <ele>1290.6</ele>
        <time>2012-06-24T13:24:00Z</time>
      </trkpt>
      <trkpt lat="42.74814" lon="1.45301">
        <ele>1290.112</ele>
        <time>2012-06-24T13:24:06Z</time>
      </trkpt>
      <trkpt lat="42.74815" lon="1.45309">
        <ele>1288.262</ele>
        <time>2012-06-24T13:24:13Z</time>
      </trkpt>
      <trkpt lat="42.74813" lon="1.45317">
        <ele>1286.96</ele>
        <time>2012-06-24T13:24:19Z</time>
      </trkpt>
      <trkpt lat="42.74812" lon="1.45323">
        <ele>1286.375</ele>
        <time>2012-06-24T13:24:26Z</time>
      </trkpt>
      <trkpt lat="42.74813" lon="1.45333">
        <ele>1285.345</ele>
        <time>2012-06-24T13:24:32Z</time>
      </trkpt>
      <trkpt lat="42.74812" lon="1.45343">
        <ele>1282.194</ele>
        <time>2012-06-24T13:24:41Z</time>
      </trkpt>
      <trkpt lat="42.74814" lon="1.45351">
        <ele>1279.9</ele>
        <time>2012-06-24T13:24:48Z</time>
      </trkpt>
      <trkpt lat="42.74814" lon="1.45357">
        <ele>1278.827</ele>
        <time>2012-06-24T13:24:54Z</time>
      </trkpt>
      <trkpt lat="42.74817" lon="1.45366">
        <ele>1276.881</ele>
        <time>2012-06-24T13:25:02Z</time>
      </trkpt>
      <trkpt lat="42.74818" lon="1.45367">
        <ele>1276.249</ele>
        <time>2012-06-24T13:25:03Z</time>
      </trkpt>
      <trkpt lat="42.74821" lon="1.45378">
        <ele>1274.415</ele>
        <time>2012-06-24T13:25:13Z</time>
      </trkpt>
      <trkpt lat="42.74823" lon="1.45385">
        <ele>1272.086</ele>
        <time>2012-06-24T13:25:19Z</time>
      </trkpt>
      <trkpt lat="42.74824" lon="1.45393">
        <ele>1269.727</ele>
        <time>2012-06-24T13:25:26Z</time>
      </trkpt>
      <trkpt lat="42.74819" lon="1.45393">
        <ele>1268.452</ele>
        <time>2012-06-24T13:25:31Z</time>
      </trkpt>
      <trkpt lat="42.74813" lon="1.45392">
        <ele>1267.686</ele>
        <time>2012-06-24T13:25:35Z</time>
      </trkpt>
      <trkpt lat="42.74806" lon="1.45392">
        <ele>1265.332</ele>
        <time>2012-06-24T13:25:42Z</time>
      </trkpt>
      <trkpt lat="42.748" lon="1.45397">
        <ele>1263.697</ele>
        <time>2012-06-24T13:25:49Z</time>
      </trkpt>
      <trkpt lat="42.74799" lon="1.45398">
        <ele>1263.205</ele>
        <time>2012-06-24T13:25:50Z</time>
      </trkpt>
      <trkpt lat="42.74799" lon="1.454">
        <ele>1262.458</ele>
        <time>2012-06-24T13:25:52Z</time>
      </trkpt>
      <trkpt lat="42.74792" lon="1.45402">
        <ele>1260.39</ele>
        <time>2012-06-24T13:25:59Z</time>
      </trkpt>
      <trkpt lat="42.74792" lon="1.45403">
        <ele>1259.174</ele>
        <time>2012-06-24T13:26:02Z</time>
      </trkpt>
      <trkpt lat="42.74794" lon="1.4541">
        <ele>1257.665</ele>
        <time>2012-06-24T13:26:07Z</time>
      </trkpt>
      <trkpt lat="42.74785" lon="1.45412">
        <ele>1255.879</ele>
        <time>2012-06-24T13:26:15Z</time>
      </trkpt>
      <trkpt lat="42.74784" lon="1.45412">
        <ele>1255.724</ele>
        <time>2012-06-24T13:26:16Z</time>
      </trkpt>
      <trkpt lat="42.7478" lon="1.45409">
        <ele>1253.995</ele>
        <time>2012-06-24T13:26:22Z</time>
      </trkpt>
      <trkpt lat="42.74777" lon="1.45409">
        <ele>1253.011</ele>
        <time>2012-06-24T13:26:25Z</time>
      </trkpt>
      <trkpt lat="42.74776" lon="1.45416">
        <ele>1250.998</ele>
        <time>2012-06-24T13:26:32Z</time>
      </trkpt>
      <trkpt lat="42.74775" lon="1.45419">
        <ele>1250.277</ele>
        <time>2012-06-24T13:26:36Z</time>
      </trkpt>
      <trkpt lat="42.74764" lon="1.45415">
        <ele>1247.32</ele>
        <time>2012-06-24T13:26:44Z</time>
      </trkpt>
      <trkpt lat="42.74762" lon="1.45415">
        <ele>1246.121</ele>
        <time>2012-06-24T13:26:47Z</time>
      </trkpt>
      <trkpt lat="42.74759" lon="1.45417">
        <ele>1245.252</ele>
        <time>2012-06-24T13:26:50Z</time>
      </trkpt>
      <trkpt lat="42.74759" lon="1.45419">
        <ele>1244.842</ele>
        <time>2012-06-24T13:26:52Z</time>
      </trkpt>
      <trkpt lat="42.74757" lon="1.45419">
        <ele>1244.119</ele>
        <time>2012-06-24T13:26:54Z</time>
      </trkpt>
      <trkpt lat="42.74755" lon="1.45419">
        <ele>1243.481</ele>
        <time>2012-06-24T13:26:56Z</time>
      </trkpt>
      <trkpt lat="42.74751" lon="1.45419">
        <ele>1242.129</ele>
        <time>2012-06-24T13:27:01Z</time>
      </trkpt>
      <trkpt lat="42.74745" lon="1.45418">
        <ele>1239.917</ele>
        <time>2012-06-24T13:27:08Z</time>
      </trkpt>
      <trkpt lat="42.74741" lon="1.45424">
        <ele>1238.153</ele>
        <time>2012-06-24T13:27:15Z</time>
      </trkpt>
      <trkpt lat="42.7474" lon="1.45434">
        <ele>1235.294</ele>
        <time>2012-06-24T13:27:23Z</time>
      </trkpt>
      <trkpt lat="42.74737" lon="1.45443">
        <ele>1233.624</ele>
        <time>2012-06-24T13:27:30Z</time>
      </trkpt>
      <trkpt lat="42.74735" lon="1.45452">
        <ele>1231.765</ele>
        <time>2012-06-24T13:27:37Z</time>
      </trkpt>
      <trkpt lat="42.74734" lon="1.45458">
        <ele>1229.958</ele>
        <time>2012-06-24T13:27:43Z</time>
      </trkpt>
      <trkpt lat="42.74736" lon="1.45462">
        <ele>1229.058</ele>
        <time>2012-06-24T13:27:48Z</time>
      </trkpt>
      <trkpt lat="42.74737" lon="1.45472">
        <ele>1226.475</ele>
        <time>2012-06-24T13:27:57Z</time>
      </trkpt>
      <trkpt lat="42.74734" lon="1.45478">
        <ele>1224.801</ele>
        <time>2012-06-24T13:28:04Z</time>
      </trkpt>
      <trkpt lat="42.74726" lon="1.45476">
        <ele>1222.879</ele>
        <time>2012-06-24T13:28:11Z</time>
      </trkpt>
      <trkpt lat="42.74721" lon="1.45478">
        <ele>1221.105</ele>
        <time>2012-06-24T13:28:18Z</time>
      </trkpt>
      <trkpt lat="42.74719" lon="1.45478">
        <ele>1220.087</ele>
        <time>2012-06-24T13:28:21Z</time>
      </trkpt>
      <trkpt lat="42.74715" lon="1.45485">
        <ele>1218.338</ele>
        <time>2012-06-24T13:28:28Z</time>
      </trkpt>
      <trkpt lat="42.74715" lon="1.45486">
        <ele>1218.242</ele>
        <time>2012-06-24T13:28:29Z</time>
      </trkpt>
      <trkpt lat="42.74714" lon="1.45489">
        <ele>1217.176</ele>
        <time>2012-06-24T13:28:31Z</time>
      </trkpt>
      <trkpt lat="42.74715" lon="1.45496">
        <ele>1215.623</ele>
        <time>2012-06-24T13:28:38Z</time>
      </trkpt>
      <trkpt lat="42.74712" lon="1.45499">
        <ele>1214.913</ele>
        <time>2012-06-24T13:28:41Z</time>
      </trkpt>
      <trkpt lat="42.74708" lon="1.45502">
        <ele>1213.291</ele>
        <time>2012-06-24T13:28:47Z</time>
      </trkpt>
      <trkpt lat="42.74704" lon="1.45503">
        <ele>1212.792</ele>
        <time>2012-06-24T13:28:51Z</time>
      </trkpt>
      <trkpt lat="42.747" lon="1.45503">
        <ele>1212.212</ele>
        <time>2012-06-24T13:28:55Z</time>
      </trkpt>
      <trkpt lat="42.74699" lon="1.45508">
        <ele>1210.042</ele>
        <time>2012-06-24T13:29:01Z</time>
      </trkpt>
      <trkpt lat="42.74695" lon="1.45512">
        <ele>1208.333</ele>
        <time>2012-06-24T13:29:08Z</time>
      </trkpt>
      <trkpt lat="42.74695" lon="1.45512">
        <ele>1208.098</ele>
        <time>2012-06-24T13:29:09Z</time>
      </trkpt>
      <trkpt lat="42.74694" lon="1.45512">
        <ele>1206.58</ele>
        <time>2012-06-24T13:29:12Z</time>
      </trkpt>
      <trkpt lat="42.74694" lon="1.45521">
        <ele>1205.158</ele>
        <time>2012-06-24T13:29:20Z</time>
      </trkpt>
      <trkpt lat="42.74694" lon="1.45525">
        <ele>1204.51</ele>
        <time>2012-06-24T13:29:24Z</time>
      </trkpt>
      <trkpt lat="42.74696" lon="1.45535">
        <ele>1202.937</ele>
        <time>2012-06-24T13:29:31Z</time>
      </trkpt>
      <trkpt lat="42.74695" lon="1.45538">
        <ele>1201.12</ele>
        <time>2012-06-24T13:29:36Z</time>
      </trkpt>
      <trkpt lat="42.74694" lon="1.45539">
        <ele>1200.658</ele>
        <time>2012-06-24T13:29:38Z</time>
      </trkpt>
      <trkpt lat="42.7469" lon="1.45544">
        <ele>1198.408</ele>
        <time>2012-06-24T13:29:43Z</time>
      </trkpt>
      <trkpt lat="42.74686" lon="1.45544">
        <ele>1198.072</ele>
        <time>2012-06-24T13:29:50Z</time>
      </trkpt>
      <trkpt lat="42.74686" lon="1.45545">
        <ele>1197.219</ele>
        <time>2012-06-24T13:29:54Z</time>
      </trkpt>
      <trkpt lat="42.74686" lon="1.45549">
        <ele>1196.268</ele>
        <time>2012-06-24T13:29:58Z</time>
      </trkpt>
      <trkpt lat="42.74684" lon="1.45552">
        <ele>1194.81</ele>
        <time>2012-06-24T13:30:02Z</time>
      </trkpt>
      <trkpt lat="42.74679" lon="1.4555">
        <ele>1193.492</ele>
        <time>2012-06-24T13:30:09Z</time>
      </trkpt>
      <trkpt lat="42.74679" lon="1.45551">
        <ele>1193.072</ele>
        <time>2012-06-24T13:30:10Z</time>
      </trkpt>
      <trkpt lat="42.74681" lon="1.45554">
        <ele>1192.632</ele>
        <time>2012-06-24T13:30:13Z</time>
      </trkpt>
      <trkpt lat="42.74677" lon="1.45559">
        <ele>1190.562</ele>
        <time>2012-06-24T13:30:21Z</time>
      </trkpt>
      <trkpt lat="42.74676" lon="1.45559">
        <ele>1190.833</ele>
        <time>2012-06-24T13:30:22Z</time>
      </trkpt>
      <trkpt lat="42.74673" lon="1.4556">
        <ele>1189.39</ele>
        <time>2012-06-24T13:30:28Z</time>
      </trkpt>
      <trkpt lat="42.74673" lon="1.45566">
        <ele>1188.58</ele>
        <time>2012-06-24T13:30:33Z</time>
      </trkpt>
      <trkpt lat="42.74674" lon="1.45571">
        <ele>1187.572</ele>
        <time>2012-06-24T13:30:37Z</time>
      </trkpt>
      <trkpt lat="42.74671" lon="1.45579">
        <ele>1186.297</ele>
        <time>2012-06-24T13:30:44Z</time>
      </trkpt>
      <trkpt lat="42.74667" lon="1.4558">
        <ele>1185.488</ele>
        <time>2012-06-24T13:30:50Z</time>
      </trkpt>
      <trkpt lat="42.74664" lon="1.4558">
        <ele>1184.141</ele>
        <time>2012-06-24T13:30:55Z</time>
      </trkpt>
      <trkpt lat="42.74662" lon="1.4558">
        <ele>1183.094</ele>
        <time>2012-06-24T13:30:57Z</time>
      </trkpt>
      <trkpt lat="42.74651" lon="1.45576">
        <ele>1181.844</ele>
        <time>2012-06-24T13:31:05Z</time>
      </trkpt>
      <trkpt lat="42.7465" lon="1.45579">
        <ele>1180.832</ele>
        <time>2012-06-24T13:31:10Z</time>
      </trkpt>
      <trkpt lat="42.7465" lon="1.45584">
        <ele>1178.585</ele>
        <time>2012-06-24T13:31:17Z</time>
      </trkpt>
      <trkpt lat="42.74651" lon="1.45585">
        <ele>1177.19</ele>
        <time>2012-06-24T13:31:19Z</time>
      </trkpt>
      <trkpt lat="42.74649" lon="1.4559">
        <ele>1175.305</ele>
        <time>2012-06-24T13:31:27Z</time>
      </trkpt>
      <trkpt lat="42.74647" lon="1.45591">
        <ele>1174.664</ele>
        <time>2012-06-24T13:31:34Z</time>
      </trkpt>
      <trkpt lat="42.74645" lon="1.45591">
        <ele>1174.719</ele>
        <time>2012-06-24T13:31:45Z</time>
      </trkpt>
      <trkpt lat="42.74645" lon="1.45593">
        <ele>1174.749</ele>
        <time>2012-06-24T13:31:52Z</time>
      </trkpt>
      <trkpt lat="42.74641" lon="1.4559">
        <ele>1174.731</ele>
        <time>2012-06-24T13:32:04Z</time>
      </trkpt>
      <trkpt lat="42.74641" lon="1.45589">
        <ele>1174.638</ele>
        <time>2012-06-24T13:32:05Z</time>
      </trkpt>
      <trkpt lat="42.74635" lon="1.45577">
        <ele>1175.867</ele>
        <time>2012-06-24T13:32:14Z</time>
      </trkpt>
      <trkpt lat="42.7463" lon="1.45567">
        <ele>1175.895</ele>
        <time>2012-06-24T13:32:20Z</time>
      </trkpt>
      <trkpt lat="42.74627" lon="1.45545">
        <ele>1174.967</ele>
        <time>2012-06-24T13:32:32Z</time>
      </trkpt>
      <trkpt lat="42.74622" lon="1.45526">
        <ele>1174.281</ele>
        <time>2012-06-24T13:32:43Z</time>
      </trkpt>
      <trkpt lat="42.74618" lon="1.45509">
        <ele>1174.376</ele>
        <time>2012-06-24T13:32:53Z</time>
      </trkpt>
      <trkpt lat="42.74616" lon="1.45492">
        <ele>1174.167</ele>
        <time>2012-06-24T13:33:03Z</time>
      </trkpt>
      <trkpt lat="42.74616" lon="1.4549">
        <ele>1173.766</ele>
        <time>2012-06-24T13:33:04Z</time>
      </trkpt>
      <trkpt lat="42.74623" lon="1.45484">
        <ele>1174.088</ele>
        <time>2012-06-24T13:33:10Z</time>
      </trkpt>
      <trkpt lat="42.74622" lon="1.45477">
        <ele>1173.638</ele>
        <time>2012-06-24T13:33:16Z</time>
      </trkpt>
      <trkpt lat="42.74615" lon="1.45466">
        <ele>1173.517</ele>
        <time>2012-06-24T13:33:24Z</time>
      </trkpt>
      <trkpt lat="42.74612" lon="1.45459">
        <ele>1173.655</ele>
        <time>2012-06-24T13:33:33Z</time>
      </trkpt>
      <trkpt lat="42.74613" lon="1.45456">
        <ele>1175.276</ele>
        <time>2012-06-24T13:33:38Z</time>
      </trkpt>
      <trkpt lat="42.74611" lon="1.45453">
        <ele>1174.854</ele>
        <time>2012-06-24T13:33:47Z</time>
      </trkpt>
      <trkpt lat="42.74612" lon="1.45449">
        <ele>1175.337</ele>
        <time>2012-06-24T13:33:54Z</time>
      </trkpt>
      <trkpt lat="42.74608" lon="1.45443">
        <ele>1173.476</ele>
        <time>2012-06-24T13:34:01Z</time>
      </trkpt>
      <trkpt lat="42.74602" lon="1.45444">
        <ele>1174.005</ele>
        <time>2012-06-24T13:34:08Z</time>
      </trkpt>
      <trkpt lat="42.74598" lon="1.45449">
        <ele>1174.026</ele>
        <time>2012-06-24T13:34:14Z</time>
      </trkpt>
      <trkpt lat="42.74592" lon="1.45459">
        <ele>1173.622</ele>
        <time>2012-06-24T13:34:24Z</time>
      </trkpt>
      <trkpt lat="42.74591" lon="1.45461">
        <ele>1173.699</ele>
        <time>2012-06-24T13:34:25Z</time>
      </trkpt>
      <trkpt lat="42.74587" lon="1.45463">
        <ele>1173.628</ele>
        <time>2012-06-24T13:34:29Z</time>
      </trkpt>
      <trkpt lat="42.7458" lon="1.4547">
        <ele>1172.626</ele>
        <time>2012-06-24T13:34:35Z</time>
      </trkpt>
      <trkpt lat="42.74571" lon="1.45476">
        <ele>1172.665</ele>
        <time>2012-06-24T13:34:44Z</time>
      </trkpt>
      <trkpt lat="42.74561" lon="1.45478">
        <ele>1172.029</ele>
        <time>2012-06-24T13:34:53Z</time>
      </trkpt>
      <trkpt lat="42.74553" lon="1.45479">
        <ele>1172.74</ele>
        <time>2012-06-24T13:35:00Z</time>
      </trkpt>
      <trkpt lat="42.74549" lon="1.4548">
        <ele>1172.721</ele>
        <time>2012-06-24T13:35:05Z</time>
      </trkpt>
      <trkpt lat="42.74548" lon="1.45482">
        <ele>1172.637</ele>
        <time>2012-06-24T13:35:06Z</time>
      </trkpt>
      <trkpt lat="42.74537" lon="1.45484">
        <ele>1172.115</ele>
        <time>2012-06-24T13:35:15Z</time>
      </trkpt>
      <trkpt lat="42.74528" lon="1.45488">
        <ele>1172.831</ele>
        <time>2012-06-24T13:35:23Z</time>
      </trkpt>
      <trkpt lat="42.74516" lon="1.45489">
        <ele>1172.138</ele>
        <time>2012-06-24T13:35:32Z</time>
      </trkpt>
      <trkpt lat="42.74501" lon="1.45491">
        <ele>1172.24</ele>
        <time>2012-06-24T13:35:42Z</time>
      </trkpt>
      <trkpt lat="42.74493" lon="1.45497">
        <ele>1172.035</ele>
        <time>2012-06-24T13:35:49Z</time>
      </trkpt>
      <trkpt lat="42.74485" lon="1.45499">
        <ele>1172.037</ele>
        <time>2012-06-24T13:35:55Z</time>
      </trkpt>
      <trkpt lat="42.74481" lon="1.45499">
        <ele>1172.084</ele>
        <time>2012-06-24T13:35:58Z</time>
      </trkpt>
      <trkpt lat="42.74472" lon="1.455">
        <ele>1172.451</ele>
        <time>2012-06-24T13:36:07Z</time>
      </trkpt>
      <trkpt lat="42.74462" lon="1.45506">
        <ele>1172.5</ele>
        <time>2012-06-24T13:36:16Z</time>
      </trkpt>
      <trkpt lat="42.74456" lon="1.45513">
        <ele>1172.346</ele>
        <time>2012-06-24T13:36:22Z</time>
      </trkpt>
      <trkpt lat="42.74454" lon="1.45516">
        <ele>1171.867</ele>
        <time>2012-06-24T13:36:24Z</time>
      </trkpt>
      <trkpt lat="42.74444" lon="1.45519">
        <ele>1171.952</ele>
        <time>2012-06-24T13:36:32Z</time>
      </trkpt>
      <trkpt lat="42.74435" lon="1.45523">
        <ele>1172.277</ele>
        <time>2012-06-24T13:36:40Z</time>
      </trkpt>
      <trkpt lat="42.7443" lon="1.45526">
        <ele>1172.194</ele>
        <time>2012-06-24T13:36:47Z</time>
      </trkpt>
      <trkpt lat="42.7443" lon="1.45527">
        <ele>1172.468</ele>
        <time>2012-06-24T13:36:49Z</time>
      </trkpt>
      <trkpt lat="42.74422" lon="1.45534">
        <ele>1172.288</ele>
        <time>2012-06-24T13:36:58Z</time>
      </trkpt>
      <trkpt lat="42.7441" lon="1.45541">
        <ele>1172.069</ele>
        <time>2012-06-24T13:37:08Z</time>
      </trkpt>
      <trkpt lat="42.74398" lon="1.45552">
        <ele>1172.453</ele>
        <time>2012-06-24T13:37:18Z</time>
      </trkpt>
      <trkpt lat="42.74388" lon="1.45565">
        <ele>1172.35</ele>
        <time>2012-06-24T13:37:26Z</time>
      </trkpt>
      <trkpt lat="42.74381" lon="1.45578">
        <ele>1172.55</ele>
        <time>2012-06-24T13:37:35Z</time>
      </trkpt>
      <trkpt lat="42.74373" lon="1.45579">
        <ele>1172.528</ele>
        <time>2012-06-24T13:37:42Z</time>
      </trkpt>
      <trkpt lat="42.74363" lon="1.45578">
        <ele>1172.832</ele>
        <time>2012-06-24T13:37:50Z</time>
      </trkpt>
      <trkpt lat="42.74352" lon="1.45581">
        <ele>1172.874</ele>
        <time>2012-06-24T13:37:58Z</time>
      </trkpt>
      <trkpt lat="42.74348" lon="1.45583">
        <ele>1172.509</ele>
        <time>2012-06-24T13:38:01Z</time>
      </trkpt>
      <trkpt lat="42.7434" lon="1.45587">
        <ele>1172.937</ele>
        <time>2012-06-24T13:38:06Z</time>
      </trkpt>
      <trkpt lat="42.74335" lon="1.45592">
        <ele>1172.745</ele>
        <time>2012-06-24T13:38:11Z</time>
      </trkpt>
      <trkpt lat="42.74327" lon="1.456">
        <ele>1172.47</ele>
        <time>2012-06-24T13:38:18Z</time>
      </trkpt>
      <trkpt lat="42.74313" lon="1.45606">
        <ele>1172.786</ele>
        <time>2012-06-24T13:38:28Z</time>
      </trkpt>
      <trkpt lat="42.74303" lon="1.45616">
        <ele>1173.415</ele>
        <time>2012-06-24T13:38:37Z</time>
      </trkpt>
      <trkpt lat="42.74293" lon="1.45625">
        <ele>1173.419</ele>
        <time>2012-06-24T13:38:45Z</time>
      </trkpt>
      <trkpt lat="42.74281" lon="1.45628">
        <ele>1174.127</ele>
        <time>2012-06-24T13:38:53Z</time>
      </trkpt>
      <trkpt lat="42.7428" lon="1.45629">
        <ele>1174.112</ele>
        <time>2012-06-24T13:38:54Z</time>
      </trkpt>
      <trkpt lat="42.74275" lon="1.45634">
        <ele>1174.131</ele>
        <time>2012-06-24T13:38:59Z</time>
      </trkpt>
      <trkpt lat="42.74266" lon="1.45642">
        <ele>1174.232</ele>
        <time>2012-06-24T13:39:07Z</time>
      </trkpt>
      <trkpt lat="42.74262" lon="1.45643">
        <ele>1173.74</ele>
        <time>2012-06-24T13:39:14Z</time>
      </trkpt>
      <trkpt lat="42.7426" lon="1.45642">
        <ele>1174.345</ele>
        <time>2012-06-24T13:39:18Z</time>
      </trkpt>
      <trkpt lat="42.74254" lon="1.45639">
        <ele>1174.161</ele>
        <time>2012-06-24T13:39:26Z</time>
      </trkpt>
      <trkpt lat="42.74241" lon="1.4564">
        <ele>1174.609</ele>
        <time>2012-06-24T13:39:36Z</time>
      </trkpt>
      <trkpt lat="42.74238" lon="1.45638">
        <ele>1174.34</ele>
        <time>2012-06-24T13:39:38Z</time>
      </trkpt>
      <trkpt lat="42.74227" lon="1.45633">
        <ele>1173.937</ele>
        <time>2012-06-24T13:39:47Z</time>
      </trkpt>
      <trkpt lat="42.74216" lon="1.45624">
        <ele>1174.276</ele>
        <time>2012-06-24T13:39:56Z</time>
      </trkpt>
      <trkpt lat="42.74202" lon="1.45614">
        <ele>1173.918</ele>
        <time>2012-06-24T13:40:08Z</time>
      </trkpt>
      <trkpt lat="42.7419" lon="1.45602">
        <ele>1174.618</ele>
        <time>2012-06-24T13:40:20Z</time>
      </trkpt>
      <trkpt lat="42.74181" lon="1.4559">
        <ele>1173.128</ele>
        <time>2012-06-24T13:40:29Z</time>
      </trkpt>
      <trkpt lat="42.74176" lon="1.45585">
        <ele>1173.347</ele>
        <time>2012-06-24T13:40:33Z</time>
      </trkpt>
      <trkpt lat="42.7417" lon="1.45576">
        <ele>1172.859</ele>
        <time>2012-06-24T13:40:41Z</time>
      </trkpt>
      <trkpt lat="42.74164" lon="1.45564">
        <ele>1172.415</ele>
        <time>2012-06-24T13:40:50Z</time>
      </trkpt>
      <trkpt lat="42.74163" lon="1.45562">
        <ele>1172.643</ele>
        <time>2012-06-24T13:40:51Z</time>
      </trkpt>
      <trkpt lat="42.74162" lon="1.45548">
        <ele>1173.274</ele>
        <time>2012-06-24T13:40:59Z</time>
      </trkpt>
      <trkpt lat="42.74163" lon="1.45529">
        <ele>1172.564</ele>
        <time>2012-06-24T13:41:09Z</time>
      </trkpt>
      <trkpt lat="42.74164" lon="1.45524">
        <ele>1172.698</ele>
        <time>2012-06-24T13:41:13Z</time>
      </trkpt>
      <trkpt lat="42.74163" lon="1.45519">
        <ele>1172.832</ele>
        <time>2012-06-24T13:41:16Z</time>
      </trkpt>
      <trkpt lat="42.74162" lon="1.4551">
        <ele>1174.085</ele>
        <time>2012-06-24T13:41:23Z</time>
      </trkpt>
      <trkpt lat="42.74162" lon="1.45503">
        <ele>1174.141</ele>
        <time>2012-06-24T13:41:29Z</time>
      </trkpt>
      <trkpt lat="42.74159" lon="1.45499">
        <ele>1172.731</ele>
        <time>2012-06-24T13:41:35Z</time>
      </trkpt>
      <trkpt lat="42.74157" lon="1.45498">
        <ele>1172.03</ele>
        <time>2012-06-24T13:41:37Z</time>
      </trkpt>
      <trkpt lat="42.74155" lon="1.45494">
        <ele>1170.823</ele>
        <time>2012-06-24T13:41:44Z</time>
      </trkpt>
      <trkpt lat="42.74155" lon="1.45496">
        <ele>1169.36</ele>
        <time>2012-06-24T13:41:50Z</time>
      </trkpt>
      <trkpt lat="42.74155" lon="1.45499">
        <ele>1168.01</ele>
        <time>2012-06-24T13:41:53Z</time>
      </trkpt>
      <trkpt lat="42.74154" lon="1.45505">
        <ele>1166.402</ele>
        <time>2012-06-24T13:42:00Z</time>
      </trkpt>
      <trkpt lat="42.74151" lon="1.45506">
        <ele>1164.599</ele>
        <time>2012-06-24T13:42:06Z</time>
      </trkpt>
      <trkpt lat="42.74146" lon="1.45507">
        <ele>1163.786</ele>
        <time>2012-06-24T13:42:12Z</time>
      </trkpt>
      <trkpt lat="42.74143" lon="1.45507">
        <ele>1162.437</ele>
        <time>2012-06-24T13:42:17Z</time>
      </trkpt>
      <trkpt lat="42.74139" lon="1.45503">
        <ele>1160.718</ele>
        <time>2012-06-24T13:42:22Z</time>
      </trkpt>
      <trkpt lat="42.74132" lon="1.45501">
        <ele>1158.423</ele>
        <time>2012-06-24T13:42:29Z</time>
      </trkpt>
      <trkpt lat="42.7413" lon="1.45498">
        <ele>1156.786</ele>
        <time>2012-06-24T13:42:36Z</time>
      </trkpt>
      <trkpt lat="42.7413" lon="1.45502">
        <ele>1154.755</ele>
        <time>2012-06-24T13:42:42Z</time>
      </trkpt>
      <trkpt lat="42.7413" lon="1.45507">
        <ele>1152.638</ele>
        <time>2012-06-24T13:42:49Z</time>
      </trkpt>
      <trkpt lat="42.74128" lon="1.45512">
        <ele>1151.49</ele>
        <time>2012-06-24T13:42:54Z</time>
      </trkpt>
      <trkpt lat="42.74122" lon="1.45508">
        <ele>1149.422</ele>
        <time>2012-06-24T13:43:04Z</time>
      </trkpt>
      <trkpt lat="42.74119" lon="1.45509">
        <ele>1148.373</ele>
        <time>2012-06-24T13:43:09Z</time>
      </trkpt>
      <trkpt lat="42.74118" lon="1.45511">
        <ele>1147.135</ele>
        <time>2012-06-24T13:43:15Z</time>
      </trkpt>
      <trkpt lat="42.74115" lon="1.4551">
        <ele>1145.764</ele>
        <time>2012-06-24T13:43:21Z</time>
      </trkpt>
      <trkpt lat="42.74112" lon="1.45512">
        <ele>1144.209</ele>
        <time>2012-06-24T13:43:27Z</time>
      </trkpt>
      <trkpt lat="42.74111" lon="1.45512">
        <ele>1143.535</ele>
        <time>2012-06-24T13:43:28Z</time>
      </trkpt>
      <trkpt lat="42.74112" lon="1.45518">
        <ele>1142.105</ele>
        <time>2012-06-24T13:43:35Z</time>
      </trkpt>
      <trkpt lat="42.74114" lon="1.45522">
        <ele>1139.669</ele>
        <time>2012-06-24T13:43:41Z</time>
      </trkpt>
      <trkpt lat="42.74112" lon="1.45528">
        <ele>1139.15</ele>
        <time>2012-06-24T13:43:46Z</time>
      </trkpt>
      <trkpt lat="42.74109" lon="1.45529">
        <ele>1137.648</ele>
        <time>2012-06-24T13:43:49Z</time>
      </trkpt>
      <trkpt lat="42.74103" lon="1.45528">
        <ele>1135.844</ele>
        <time>2012-06-24T13:43:57Z</time>
      </trkpt>
      <trkpt lat="42.74098" lon="1.45525">
        <ele>1133.745</ele>
        <time>2012-06-24T13:44:04Z</time>
      </trkpt>
      <trkpt lat="42.74096" lon="1.45524">
        <ele>1131.546</ele>
        <time>2012-06-24T13:44:10Z</time>
      </trkpt>
      <trkpt lat="42.74094" lon="1.45526">
        <ele>1130.528</ele>
        <time>2012-06-24T13:44:16Z</time>
      </trkpt>
      <trkpt lat="42.74094" lon="1.45526">
        <ele>1130.064</ele>
        <time>2012-06-24T13:44:17Z</time>
      </trkpt>
      <trkpt lat="42.74095" lon="1.45534">
        <ele>1127.328</ele>
        <time>2012-06-24T13:44:26Z</time>
      </trkpt>
      <trkpt lat="42.74093" lon="1.45536">
        <ele>1126.072</ele>
        <time>2012-06-24T13:44:30Z</time>
      </trkpt>
      <trkpt lat="42.74091" lon="1.45535">
        <ele>1125.778</ele>
        <time>2012-06-24T13:44:32Z</time>
      </trkpt>
      <trkpt lat="42.74085" lon="1.45534">
        <ele>1124.202</ele>
        <time>2012-06-24T13:44:39Z</time>
      </trkpt>
      <trkpt lat="42.74076" lon="1.45529">
        <ele>1122.319</ele>
        <time>2012-06-24T13:44:48Z</time>
      </trkpt>
      <trkpt lat="42.7407" lon="1.45523">
        <ele>1120.014</ele>
        <time>2012-06-24T13:44:56Z</time>
      </trkpt>
      <trkpt lat="42.7407" lon="1.45525">
        <ele>1119.855</ele>
        <time>2012-06-24T13:44:58Z</time>
      </trkpt>
      <trkpt lat="42.7407" lon="1.45528">
        <ele>1118.786</ele>
        <time>2012-06-24T13:45:01Z</time>
      </trkpt>
      <trkpt lat="42.74073" lon="1.45532">
        <ele>1117.898</ele>
        <time>2012-06-24T13:45:05Z</time>
      </trkpt>
      <trkpt lat="42.74076" lon="1.45542">
        <ele>1114.788</ele>
        <time>2012-06-24T13:45:16Z</time>
      </trkpt>
      <trkpt lat="42.74078" lon="1.45548">
        <ele>1112.869</ele>
        <time>2012-06-24T13:45:23Z</time>
      </trkpt>
      <trkpt lat="42.7408" lon="1.45558">
        <ele>1110.709</ele>
        <time>2012-06-24T13:45:32Z</time>
      </trkpt>
      <trkpt lat="42.74083" lon="1.45566">
        <ele>1109.886</ele>
        <time>2012-06-24T13:45:40Z</time>
      </trkpt>
      <trkpt lat="42.74082" lon="1.45568">
        <ele>1107.509</ele>
        <time>2012-06-24T13:45:46Z</time>
      </trkpt>
      <trkpt lat="42.74076" lon="1.45573">
        <ele>1105.995</ele>
        <time>2012-06-24T13:45:53Z</time>
      </trkpt>
      <trkpt lat="42.74075" lon="1.45574">
        <ele>1104.725</ele>
        <time>2012-06-24T13:45:56Z</time>
      </trkpt>
      <trkpt lat="42.74069" lon="1.45572">
        <ele>1103.454</ele>
        <time>2012-06-24T13:46:02Z</time>
      </trkpt>
      <trkpt lat="42.74061" lon="1.45568">
        <ele>1101.369</ele>
        <time>2012-06-24T13:46:10Z</time>
      </trkpt>
      <trkpt lat="42.74057" lon="1.45567">
        <ele>1100.183</ele>
        <time>2012-06-24T13:46:15Z</time>
      </trkpt>
      <trkpt lat="42.74059" lon="1.45571">
        <ele>1098.056</ele>
        <time>2012-06-24T13:46:23Z</time>
      </trkpt>
      <trkpt lat="42.74062" lon="1.45574">
        <ele>1096.054</ele>
        <time>2012-06-24T13:46:31Z</time>
      </trkpt>
      <trkpt lat="42.74064" lon="1.45578">
        <ele>1094.818</ele>
        <time>2012-06-24T13:46:36Z</time>
      </trkpt>
      <trkpt lat="42.74065" lon="1.45581">
        <ele>1093.474</ele>
        <time>2012-06-24T13:46:39Z</time>
      </trkpt>
      <trkpt lat="42.74063" lon="1.45586">
        <ele>1092.217</ele>
        <time>2012-06-24T13:46:45Z</time>
      </trkpt>
      <trkpt lat="42.7406" lon="1.45589">
        <ele>1091.235</ele>
        <time>2012-06-24T13:46:50Z</time>
      </trkpt>
      <trkpt lat="42.74054" lon="1.45593">
        <ele>1089.873</ele>
        <time>2012-06-24T13:46:57Z</time>
      </trkpt>
      <trkpt lat="42.74053" lon="1.45592">
        <ele>1089.628</ele>
        <time>2012-06-24T13:46:58Z</time>
      </trkpt>
      <trkpt lat="42.74048" lon="1.45589">
        <ele>1088.393</ele>
        <time>2012-06-24T13:47:05Z</time>
      </trkpt>
      <trkpt lat="42.74045" lon="1.45589">
        <ele>1087.126</ele>
        <time>2012-06-24T13:47:09Z</time>
      </trkpt>
      <trkpt lat="42.74046" lon="1.45593">
        <ele>1084.934</ele>
        <time>2012-06-24T13:47:17Z</time>
      </trkpt>
      <trkpt lat="42.74047" lon="1.45595">
        <ele>1084.604</ele>
        <time>2012-06-24T13:47:21Z</time>
      </trkpt>
      <trkpt lat="42.74048" lon="1.45596">
        <ele>1083.783</ele>
        <time>2012-06-24T13:47:23Z</time>
      </trkpt>
      <trkpt lat="42.74048" lon="1.45602">
        <ele>1082.449</ele>
        <time>2012-06-24T13:47:29Z</time>
      </trkpt>
      <trkpt lat="42.74045" lon="1.45604">
        <ele>1081.298</ele>
        <time>2012-06-24T13:47:33Z</time>
      </trkpt>
      <trkpt lat="42.74038" lon="1.45607">
        <ele>1080.086</ele>
        <time>2012-06-24T13:47:40Z</time>
      </trkpt>
      <trkpt lat="42.7403" lon="1.45603">
        <ele>1078.585</ele>
        <time>2012-06-24T13:47:48Z</time>
      </trkpt>
      <trkpt lat="42.74025" lon="1.456">
        <ele>1075.852</ele>
        <time>2012-06-24T13:47:57Z</time>
      </trkpt>
      <trkpt lat="42.74023" lon="1.45606">
        <ele>1074.056</ele>
        <time>2012-06-24T13:48:04Z</time>
      </trkpt>
      <trkpt lat="42.74026" lon="1.4561">
        <ele>1072.178</ele>
        <time>2012-06-24T13:48:11Z</time>
      </trkpt>
      <trkpt lat="42.74029" lon="1.45614">
        <ele>1070.544</ele>
        <time>2012-06-24T13:48:18Z</time>
      </trkpt>
      <trkpt lat="42.7403" lon="1.4562">
        <ele>1070.719</ele>
        <time>2012-06-24T13:48:22Z</time>
      </trkpt>
      <trkpt lat="42.74028" lon="1.45631">
        <ele>1068.662</ele>
        <time>2012-06-24T13:48:32Z</time>
      </trkpt>
      <trkpt lat="42.74025" lon="1.45631">
        <ele>1067.573</ele>
        <time>2012-06-24T13:48:36Z</time>
      </trkpt>
      <trkpt lat="42.74025" lon="1.45634">
        <ele>1066.944</ele>
        <time>2012-06-24T13:48:38Z</time>
      </trkpt>
      <trkpt lat="42.74017" lon="1.45629">
        <ele>1065.202</ele>
        <time>2012-06-24T13:48:46Z</time>
      </trkpt>
      <trkpt lat="42.74016" lon="1.45629">
        <ele>1064.578</ele>
        <time>2012-06-24T13:48:49Z</time>
      </trkpt>
      <trkpt lat="42.74011" lon="1.45627">
        <ele>1062.393</ele>
        <time>2012-06-24T13:48:55Z</time>
      </trkpt>
      <trkpt lat="42.74009" lon="1.45625">
        <ele>1061.937</ele>
        <time>2012-06-24T13:48:57Z</time>
      </trkpt>
      <trkpt lat="42.74005" lon="1.45617">
        <ele>1061.143</ele>
        <time>2012-06-24T13:49:05Z</time>
      </trkpt>
      <trkpt lat="42.74004" lon="1.45616">
        <ele>1059.26</ele>
        <time>2012-06-24T13:49:12Z</time>
      </trkpt>
      <trkpt lat="42.74005" lon="1.45618">
        <ele>1058.456</ele>
        <time>2012-06-24T13:49:15Z</time>
      </trkpt>
      <trkpt lat="42.74004" lon="1.45624">
        <ele>1056.052</ele>
        <time>2012-06-24T13:49:23Z</time>
      </trkpt>
      <trkpt lat="42.74002" lon="1.4563">
        <ele>1054.365</ele>
        <time>2012-06-24T13:49:31Z</time>
      </trkpt>
      <trkpt lat="42.74002" lon="1.45632">
        <ele>1053.429</ele>
        <time>2012-06-24T13:49:33Z</time>
      </trkpt>
      <trkpt lat="42.74002" lon="1.45634">
        <ele>1053.027</ele>
        <time>2012-06-24T13:49:35Z</time>
      </trkpt>
      <trkpt lat="42.74001" lon="1.45637">
        <ele>1052.458</ele>
        <time>2012-06-24T13:49:37Z</time>
      </trkpt>
      <trkpt lat="42.73993" lon="1.45639">
        <ele>1050.495</ele>
        <time>2012-06-24T13:49:45Z</time>
      </trkpt>
      <trkpt lat="42.73989" lon="1.45636">
        <ele>1049.453</ele>
        <time>2012-06-24T13:49:51Z</time>
      </trkpt>
      <trkpt lat="42.73987" lon="1.45632">
        <ele>1047.059</ele>
        <time>2012-06-24T13:49:58Z</time>
      </trkpt>
      <trkpt lat="42.73988" lon="1.45633">
        <ele>1046.591</ele>
        <time>2012-06-24T13:49:59Z</time>
      </trkpt>
      <trkpt lat="42.7399" lon="1.45638">
        <ele>1044.816</ele>
        <time>2012-06-24T13:50:06Z</time>
      </trkpt>
      <trkpt lat="42.73988" lon="1.45645">
        <ele>1043.359</ele>
        <time>2012-06-24T13:50:13Z</time>
      </trkpt>
      <trkpt lat="42.73988" lon="1.45646">
        <ele>1042.976</ele>
        <time>2012-06-24T13:50:14Z</time>
      </trkpt>
      <trkpt lat="42.7399" lon="1.45656">
        <ele>1040.814</ele>
        <time>2012-06-24T13:50:22Z</time>
      </trkpt>
      <trkpt lat="42.7399" lon="1.45657">
        <ele>1040.594</ele>
        <time>2012-06-24T13:50:23Z</time>
      </trkpt>
      <trkpt lat="42.73996" lon="1.45662">
        <ele>1039.432</ele>
        <time>2012-06-24T13:50:30Z</time>
      </trkpt>
      <trkpt lat="42.74002" lon="1.4567">
        <ele>1036.25</ele>
        <time>2012-06-24T13:50:39Z</time>
      </trkpt>
      <trkpt lat="42.74009" lon="1.45678">
        <ele>1034.678</ele>
        <time>2012-06-24T13:50:47Z</time>
      </trkpt>
      <trkpt lat="42.74015" lon="1.4568">
        <ele>1032.831</ele>
        <time>2012-06-24T13:50:53Z</time>
      </trkpt>
      <trkpt lat="42.7402" lon="1.45682">
        <ele>1032.325</ele>
        <time>2012-06-24T13:50:57Z</time>
      </trkpt>
      <trkpt lat="42.7402" lon="1.45685">
        <ele>1031.358</ele>
        <time>2012-06-24T13:50:59Z</time>
      </trkpt>
      <trkpt lat="42.74017" lon="1.4569">
        <ele>1030.234</ele>
        <time>2012-06-24T13:51:04Z</time>
      </trkpt>
      <trkpt lat="42.74011" lon="1.45694">
        <ele>1027.413</ele>
        <time>2012-06-24T13:51:11Z</time>
      </trkpt>
      <trkpt lat="42.74" lon="1.45701">
        <ele>1025.812</ele>
        <time>2012-06-24T13:51:20Z</time>
      </trkpt>
      <trkpt lat="42.73998" lon="1.45702">
        <ele>1025.334</ele>
        <time>2012-06-24T13:51:22Z</time>
      </trkpt>
      <trkpt lat="42.73989" lon="1.45705">
        <ele>1023.803</ele>
        <time>2012-06-24T13:51:30Z</time>
      </trkpt>
      <trkpt lat="42.73981" lon="1.45701">
        <ele>1021.935</ele>
        <time>2012-06-24T13:51:38Z</time>
      </trkpt>
      <trkpt lat="42.7398" lon="1.457">
        <ele>1020.991</ele>
        <time>2012-06-24T13:51:41Z</time>
      </trkpt>
      <trkpt lat="42.73972" lon="1.45695">
        <ele>1018.27</ele>
        <time>2012-06-24T13:51:50Z</time>
      </trkpt>
      <trkpt lat="42.73968" lon="1.45693">
        <ele>1017.355</ele>
        <time>2012-06-24T13:51:54Z</time>
      </trkpt>
      <trkpt lat="42.73961" lon="1.45694">
        <ele>1015.516</ele>
        <time>2012-06-24T13:52:01Z</time>
      </trkpt>
      <trkpt lat="42.73958" lon="1.45695">
        <ele>1015.372</ele>
        <time>2012-06-24T13:52:02Z</time>
      </trkpt>
      <trkpt lat="42.73949" lon="1.45692">
        <ele>1014.102</ele>
        <time>2012-06-24T13:52:10Z</time>
      </trkpt>
      <trkpt lat="42.73945" lon="1.45691">
        <ele>1012.211</ele>
        <time>2012-06-24T13:52:16Z</time>
      </trkpt>
      <trkpt lat="42.7395" lon="1.45699">
        <ele>1010.565</ele>
        <time>2012-06-24T13:52:25Z</time>
      </trkpt>
      <trkpt lat="42.7395" lon="1.457">
        <ele>1010.062</ele>
        <time>2012-06-24T13:52:27Z</time>
      </trkpt>
      <trkpt lat="42.73956" lon="1.45708">
        <ele>1007.981</ele>
        <time>2012-06-24T13:52:35Z</time>
      </trkpt>
      <trkpt lat="42.73957" lon="1.45709">
        <ele>1007.519</ele>
        <time>2012-06-24T13:52:37Z</time>
      </trkpt>
      <trkpt lat="42.73967" lon="1.45716">
        <ele>1005.909</ele>
        <time>2012-06-24T13:52:46Z</time>
      </trkpt>
      <trkpt lat="42.7397" lon="1.45721">
        <ele>1005.565</ele>
        <time>2012-06-24T13:52:50Z</time>
      </trkpt>
      <trkpt lat="42.73965" lon="1.45723">
        <ele>1004.721</ele>
        <time>2012-06-24T13:52:57Z</time>
      </trkpt>
      <trkpt lat="42.73963" lon="1.45725">
        <ele>1004.038</ele>
        <time>2012-06-24T13:52:58Z</time>
      </trkpt>
      <trkpt lat="42.73955" lon="1.45729">
        <ele>1002.727</ele>
        <time>2012-06-24T13:53:05Z</time>
      </trkpt>
      <trkpt lat="42.7395" lon="1.45727">
        <ele>1002.621</ele>
        <time>2012-06-24T13:53:09Z</time>
      </trkpt>
      <trkpt lat="42.73947" lon="1.45728">
        <ele>1000.754</ele>
        <time>2012-06-24T13:53:13Z</time>
      </trkpt>
      <trkpt lat="42.73939" lon="1.45731">
        <ele>999.498</ele>
        <time>2012-06-24T13:53:21Z</time>
      </trkpt>
      <trkpt lat="42.73936" lon="1.45733">
        <ele>999.07</ele>
        <time>2012-06-24T13:53:26Z</time>
      </trkpt>
      <trkpt lat="42.7393" lon="1.45734">
        <ele>996.574</ele>
        <time>2012-06-24T13:53:33Z</time>
      </trkpt>
      <trkpt lat="42.73924" lon="1.45736">
        <ele>996.039</ele>
        <time>2012-06-24T13:53:35Z</time>
      </trkpt>
      <trkpt lat="42.7392" lon="1.45738">
        <ele>994.927</ele>
        <time>2012-06-24T13:53:41Z</time>
      </trkpt>
      <trkpt lat="42.73918" lon="1.45741">
        <ele>993.242</ele>
        <time>2012-06-24T13:53:46Z</time>
      </trkpt>
      <trkpt lat="42.73914" lon="1.45738">
        <ele>992.24</ele>
        <time>2012-06-24T13:53:53Z</time>
      </trkpt>
      <trkpt lat="42.73915" lon="1.45733">
        <ele>990.766</ele>
        <time>2012-06-24T13:54:00Z</time>
      </trkpt>
      <trkpt lat="42.73909" lon="1.45736">
        <ele>987.43</ele>
        <time>2012-06-24T13:54:10Z</time>
      </trkpt>
      <trkpt lat="42.73907" lon="1.4574">
        <ele>985.534</ele>
        <time>2012-06-24T13:54:16Z</time>
      </trkpt>
      <trkpt lat="42.73899" lon="1.45739">
        <ele>982.199</ele>
        <time>2012-06-24T13:54:28Z</time>
      </trkpt>
      <trkpt lat="42.73895" lon="1.45744">
        <ele>980.475</ele>
        <time>2012-06-24T13:54:36Z</time>
      </trkpt>
      <trkpt lat="42.73888" lon="1.45745">
        <ele>976.948</ele>
        <time>2012-06-24T13:54:43Z</time>
      </trkpt>
      <trkpt lat="42.73886" lon="1.45748">
        <ele>975.956</ele>
        <time>2012-06-24T13:54:50Z</time>
      </trkpt>
      <trkpt lat="42.7388" lon="1.45751">
        <ele>973.864</ele>
        <time>2012-06-24T13:54:58Z</time>
      </trkpt>
      <trkpt lat="42.73882" lon="1.45754">
        <ele>972.196</ele>
        <time>2012-06-24T13:55:06Z</time>
      </trkpt>
      <trkpt lat="42.73879" lon="1.45756">
        <ele>971.148</ele>
        <time>2012-06-24T13:55:12Z</time>
      </trkpt>
      <trkpt lat="42.73872" lon="1.4576">
        <ele>969.27</ele>
        <time>2012-06-24T13:55:19Z</time>
      </trkpt>
      <trkpt lat="42.73865" lon="1.45762">
        <ele>968.796</ele>
        <time>2012-06-24T13:55:25Z</time>
      </trkpt>
      <trkpt lat="42.73859" lon="1.45767">
        <ele>967.973</ele>
        <time>2012-06-24T13:55:32Z</time>
      </trkpt>
      <trkpt lat="42.73858" lon="1.45772">
        <ele>966.074</ele>
        <time>2012-06-24T13:55:40Z</time>
      </trkpt>
      <trkpt lat="42.73851" lon="1.45776">
        <ele>965.172</ele>
        <time>2012-06-24T13:55:46Z</time>
      </trkpt>
      <trkpt lat="42.73848" lon="1.45782">
        <ele>962.709</ele>
        <time>2012-06-24T13:55:57Z</time>
      </trkpt>
      <trkpt lat="42.7385" lon="1.45785">
        <ele>961.174</ele>
        <time>2012-06-24T13:56:04Z</time>
      </trkpt>
      <trkpt lat="42.73847" lon="1.45789">
        <ele>959.991</ele>
        <time>2012-06-24T13:56:12Z</time>
      </trkpt>
      <trkpt lat="42.73843" lon="1.45795">
        <ele>959.558</ele>
        <time>2012-06-24T13:56:19Z</time>
      </trkpt>
      <trkpt lat="42.73843" lon="1.45799">
        <ele>959.475</ele>
        <time>2012-06-24T13:56:22Z</time>
      </trkpt>
      <trkpt lat="42.73841" lon="1.45801">
        <ele>959.11</ele>
        <time>2012-06-24T13:56:24Z</time>
      </trkpt>
      <trkpt lat="42.73839" lon="1.45807">
        <ele>957.947</ele>
        <time>2012-06-24T13:56:30Z</time>
      </trkpt>
      <trkpt lat="42.73836" lon="1.45816">
        <ele>956.298</ele>
        <time>2012-06-24T13:56:37Z</time>
      </trkpt>
      <trkpt lat="42.73837" lon="1.45823">
        <ele>955.62</ele>
        <time>2012-06-24T13:56:44Z</time>
      </trkpt>
      <trkpt lat="42.73838" lon="1.45826">
        <ele>954.777</ele>
        <time>2012-06-24T13:56:47Z</time>
      </trkpt>
      <trkpt lat="42.73839" lon="1.4583">
        <ele>953.957</ele>
        <time>2012-06-24T13:56:50Z</time>
      </trkpt>
      <trkpt lat="42.73843" lon="1.45836">
        <ele>952.607</ele>
        <time>2012-06-24T13:56:56Z</time>
      </trkpt>
      <trkpt lat="42.73846" lon="1.45837">
        <ele>951.685</ele>
        <time>2012-06-24T13:56:59Z</time>
      </trkpt>
      <trkpt lat="42.73851" lon="1.45847">
        <ele>950.502</ele>
        <time>2012-06-24T13:57:08Z</time>
      </trkpt>
      <trkpt lat="42.73851" lon="1.45854">
        <ele>948.552</ele>
        <time>2012-06-24T13:57:14Z</time>
      </trkpt>
      <trkpt lat="42.73855" lon="1.45862">
        <ele>946.366</ele>
        <time>2012-06-24T13:57:22Z</time>
      </trkpt>
      <trkpt lat="42.73862" lon="1.45869">
        <ele>945.37</ele>
        <time>2012-06-24T13:57:28Z</time>
      </trkpt>
      <trkpt lat="42.73868" lon="1.45875">
        <ele>943.793</ele>
        <time>2012-06-24T13:57:35Z</time>
      </trkpt>
      <trkpt lat="42.73872" lon="1.45879">
        <ele>943.577</ele>
        <time>2012-06-24T13:57:40Z</time>
      </trkpt>
      <trkpt lat="42.73875" lon="1.45883">
        <ele>942.333</ele>
        <time>2012-06-24T13:57:43Z</time>
      </trkpt>
      <trkpt lat="42.7388" lon="1.4589">
        <ele>941.051</ele>
        <time>2012-06-24T13:57:50Z</time>
      </trkpt>
      <trkpt lat="42.73876" lon="1.459">
        <ele>938.776</ele>
        <time>2012-06-24T13:57:57Z</time>
      </trkpt>
      <trkpt lat="42.73877" lon="1.45908">
        <ele>937.193</ele>
        <time>2012-06-24T13:58:03Z</time>
      </trkpt>
      <trkpt lat="42.73878" lon="1.45913">
        <ele>935.458</ele>
        <time>2012-06-24T13:58:08Z</time>
      </trkpt>
      <trkpt lat="42.73879" lon="1.45921">
        <ele>933.424</ele>
        <time>2012-06-24T13:58:16Z</time>
      </trkpt>
      <trkpt lat="42.73883" lon="1.45926">
        <ele>932.001</ele>
        <time>2012-06-24T13:58:23Z</time>
      </trkpt>
      <trkpt lat="42.73887" lon="1.45927">
        <ele>929.992</ele>
        <time>2012-06-24T13:58:30Z</time>
      </trkpt>
      <trkpt lat="42.73892" lon="1.4593">
        <ele>927.673</ele>
        <time>2012-06-24T13:58:34Z</time>
      </trkpt>
      <trkpt lat="42.73898" lon="1.45937">
        <ele>926.246</ele>
        <time>2012-06-24T13:58:41Z</time>
      </trkpt>
      <trkpt lat="42.73905" lon="1.4594">
        <ele>924.541</ele>
        <time>2012-06-24T13:58:48Z</time>
      </trkpt>
      <trkpt lat="42.7391" lon="1.45948">
        <ele>923.057</ele>
        <time>2012-06-24T13:58:55Z</time>
      </trkpt>
      <trkpt lat="42.73914" lon="1.45951">
        <ele>921.824</ele>
        <time>2012-06-24T13:58:59Z</time>
      </trkpt>
      <trkpt lat="42.73925" lon="1.45953">
        <ele>920.015</ele>
        <time>2012-06-24T13:59:08Z</time>
      </trkpt>
      <trkpt lat="42.7393" lon="1.45956">
        <ele>918.899</ele>
        <time>2012-06-24T13:59:15Z</time>
      </trkpt>
      <trkpt lat="42.73937" lon="1.45959">
        <ele>917.609</ele>
        <time>2012-06-24T13:59:20Z</time>
      </trkpt>
      <trkpt lat="42.73943" lon="1.45959">
        <ele>916.72</ele>
        <time>2012-06-24T13:59:24Z</time>
      </trkpt>
      <trkpt lat="42.73949" lon="1.45965">
        <ele>916.082</ele>
        <time>2012-06-24T13:59:32Z</time>
      </trkpt>
      <trkpt lat="42.73951" lon="1.45966">
        <ele>915.612</ele>
        <time>2012-06-24T13:59:34Z</time>
      </trkpt>
      <trkpt lat="42.73964" lon="1.45966">
        <ele>914.248</ele>
        <time>2012-06-24T13:59:42Z</time>
      </trkpt>
      <trkpt lat="42.73971" lon="1.45964">
        <ele>914.791</ele>
        <time>2012-06-24T13:59:48Z</time>
      </trkpt>
      <trkpt lat="42.73977" lon="1.4597">
        <ele>914.96</ele>
        <time>2012-06-24T13:59:54Z</time>
      </trkpt>
      <trkpt lat="42.73986" lon="1.45982">
        <ele>913.207</ele>
        <time>2012-06-24T14:00:04Z</time>
      </trkpt>
      <trkpt lat="42.73993" lon="1.45989">
        <ele>911.251</ele>
        <time>2012-06-24T14:00:13Z</time>
      </trkpt>
      <trkpt lat="42.74001" lon="1.45995">
        <ele>909.804</ele>
        <time>2012-06-24T14:00:21Z</time>
      </trkpt>
      <trkpt lat="42.74005" lon="1.45998">
        <ele>908.539</ele>
        <time>2012-06-24T14:00:26Z</time>
      </trkpt>
      <trkpt lat="42.74007" lon="1.46002">
        <ele>906.84</ele>
        <time>2012-06-24T14:00:31Z</time>
      </trkpt>
      <trkpt lat="42.74012" lon="1.46005">
        <ele>905.08</ele>
        <time>2012-06-24T14:00:36Z</time>
      </trkpt>
      <trkpt lat="42.74016" lon="1.46008">
        <ele>904.581</ele>
        <time>2012-06-24T14:00:40Z</time>
      </trkpt>
      <trkpt lat="42.74023" lon="1.46016">
        <ele>903.139</ele>
        <time>2012-06-24T14:00:48Z</time>
      </trkpt>
      <trkpt lat="42.74028" lon="1.46019">
        <ele>902.257</ele>
        <time>2012-06-24T14:00:53Z</time>
      </trkpt>
      <trkpt lat="42.74032" lon="1.46025">
        <ele>901.138</ele>
        <time>2012-06-24T14:00:59Z</time>
      </trkpt>
      <trkpt lat="42.74035" lon="1.46027">
        <ele>900.35</ele>
        <time>2012-06-24T14:01:01Z</time>
      </trkpt>
      <trkpt lat="42.74036" lon="1.46029">
        <ele>899.253</ele>
        <time>2012-06-24T14:01:04Z</time>
      </trkpt>
      <trkpt lat="42.74042" lon="1.46035">
        <ele>897.604</ele>
        <time>2012-06-24T14:01:10Z</time>
      </trkpt>
      <trkpt lat="42.74046" lon="1.46036">
        <ele>897.101</ele>
        <time>2012-06-24T14:01:12Z</time>
      </trkpt>
      <trkpt lat="42.74053" lon="1.46044">
        <ele>895.988</ele>
        <time>2012-06-24T14:01:21Z</time>
      </trkpt>
      <trkpt lat="42.74055" lon="1.46047">
        <ele>894.744</ele>
        <time>2012-06-24T14:01:26Z</time>
      </trkpt>
      <trkpt lat="42.74062" lon="1.4605">
        <ele>892.427</ele>
        <time>2012-06-24T14:01:35Z</time>
      </trkpt>
      <trkpt lat="42.74063" lon="1.4605">
        <ele>891.261</ele>
        <time>2012-06-24T14:01:36Z</time>
      </trkpt>
      <trkpt lat="42.7407" lon="1.46057">
        <ele>890.48</ele>
        <time>2012-06-24T14:01:43Z</time>
      </trkpt>
      <trkpt lat="42.74078" lon="1.46059">
        <ele>889.066</ele>
        <time>2012-06-24T14:01:48Z</time>
      </trkpt>
      <trkpt lat="42.74082" lon="1.46062">
        <ele>888.106</ele>
        <time>2012-06-24T14:01:54Z</time>
      </trkpt>
      <trkpt lat="42.74085" lon="1.46061">
        <ele>888.223</ele>
        <time>2012-06-24T14:01:57Z</time>
      </trkpt>
      <trkpt lat="42.74092" lon="1.46065">
        <ele>887.416</ele>
        <time>2012-06-24T14:02:05Z</time>
      </trkpt>
      <trkpt lat="42.74093" lon="1.46065">
        <ele>887.268</ele>
        <time>2012-06-24T14:02:06Z</time>
      </trkpt>
      <trkpt lat="42.74102" lon="1.46075">
        <ele>887.003</ele>
        <time>2012-06-24T14:02:14Z</time>
      </trkpt>
      <trkpt lat="42.74103" lon="1.46077">
        <ele>887.315</ele>
        <time>2012-06-24T14:02:15Z</time>
      </trkpt>
      <trkpt lat="42.74103" lon="1.46082">
        <ele>887.329</ele>
        <time>2012-06-24T14:02:17Z</time>
      </trkpt>
      <trkpt lat="42.74111" lon="1.4609">
        <ele>886.908</ele>
        <time>2012-06-24T14:02:24Z</time>
      </trkpt>
      <trkpt lat="42.74116" lon="1.46091">
        <ele>887.128</ele>
        <time>2012-06-24T14:02:28Z</time>
      </trkpt>
      <trkpt lat="42.74121" lon="1.46093">
        <ele>886.719</ele>
        <time>2012-06-24T14:02:32Z</time>
      </trkpt>
      <trkpt lat="42.74131" lon="1.46107">
        <ele>887.942</ele>
        <time>2012-06-24T14:02:42Z</time>
      </trkpt>
      <trkpt lat="42.74138" lon="1.46115">
        <ele>888.969</ele>
        <time>2012-06-24T14:02:50Z</time>
      </trkpt>
      <trkpt lat="42.74142" lon="1.46119">
        <ele>888.468</ele>
        <time>2012-06-24T14:02:55Z</time>
      </trkpt>
      <trkpt lat="42.74143" lon="1.4612">
        <ele>888.324</ele>
        <time>2012-06-24T14:02:56Z</time>
      </trkpt>
      <trkpt lat="42.74149" lon="1.4613">
        <ele>889.078</ele>
        <time>2012-06-24T14:03:04Z</time>
      </trkpt>
      <trkpt lat="42.74151" lon="1.46131">
        <ele>889.074</ele>
        <time>2012-06-24T14:03:06Z</time>
      </trkpt>
      <trkpt lat="42.74152" lon="1.46141">
        <ele>889.253</ele>
        <time>2012-06-24T14:03:11Z</time>
      </trkpt>
      <trkpt lat="42.74154" lon="1.46154">
        <ele>888.535</ele>
        <time>2012-06-24T14:03:20Z</time>
      </trkpt>
      <trkpt lat="42.74155" lon="1.46155">
        <ele>888.55</ele>
        <time>2012-06-24T14:03:22Z</time>
      </trkpt>
      <trkpt lat="42.74163" lon="1.46161">
        <ele>886.545</ele>
        <time>2012-06-24T14:03:31Z</time>
      </trkpt>
      <trkpt lat="42.74169" lon="1.4616">
        <ele>883.958</ele>
        <time>2012-06-24T14:03:38Z</time>
      </trkpt>
      <trkpt lat="42.74176" lon="1.46162">
        <ele>882.081</ele>
        <time>2012-06-24T14:03:45Z</time>
      </trkpt>
      <trkpt lat="42.74177" lon="1.46162">
        <ele>881.786</ele>
        <time>2012-06-24T14:03:46Z</time>
      </trkpt>
      <trkpt lat="42.74178" lon="1.46164">
        <ele>881.474</ele>
        <time>2012-06-24T14:03:48Z</time>
      </trkpt>
      <trkpt lat="42.74182" lon="1.46164">
        <ele>879.827</ele>
        <time>2012-06-24T14:03:52Z</time>
      </trkpt>
      <trkpt lat="42.74188" lon="1.46165">
        <ele>878.427</ele>
        <time>2012-06-24T14:03:59Z</time>
      </trkpt>
      <trkpt lat="42.74192" lon="1.46167">
        <ele>876.842</ele>
        <time>2012-06-24T14:04:04Z</time>
      </trkpt>
      <trkpt lat="42.74201" lon="1.46171">
        <ele>875.141</ele>
        <time>2012-06-24T14:04:11Z</time>
      </trkpt>
      <trkpt lat="42.7421" lon="1.46175">
        <ele>874.366</ele>
        <time>2012-06-24T14:04:19Z</time>
      </trkpt>
      <trkpt lat="42.74217" lon="1.46179">
        <ele>873.419</ele>
        <time>2012-06-24T14:04:26Z</time>
      </trkpt>
      <trkpt lat="42.7422" lon="1.46181">
        <ele>872.39</ele>
        <time>2012-06-24T14:04:29Z</time>
      </trkpt>
      <trkpt lat="42.74225" lon="1.46187">
        <ele>870.777</ele>
        <time>2012-06-24T14:04:36Z</time>
      </trkpt>
      <trkpt lat="42.74234" lon="1.46195">
        <ele>869.279</ele>
        <time>2012-06-24T14:04:44Z</time>
      </trkpt>
      <trkpt lat="42.74243" lon="1.46196">
        <ele>868.163</ele>
        <time>2012-06-24T14:04:52Z</time>
      </trkpt>
      <trkpt lat="42.74244" lon="1.46196">
        <ele>867.776</ele>
        <time>2012-06-24T14:04:53Z</time>
      </trkpt>
      <trkpt lat="42.74249" lon="1.46198">
        <ele>866.38</ele>
        <time>2012-06-24T14:04:58Z</time>
      </trkpt>
      <trkpt lat="42.74253" lon="1.46204">
        <ele>865.186</ele>
        <time>2012-06-24T14:05:05Z</time>
      </trkpt>
      <trkpt lat="42.74257" lon="1.46205">
        <ele>864.199</ele>
        <time>2012-06-24T14:05:09Z</time>
      </trkpt>
      <trkpt lat="42.74265" lon="1.46207">
        <ele>863.007</ele>
        <time>2012-06-24T14:05:16Z</time>
      </trkpt>
      <trkpt lat="42.74272" lon="1.46208">
        <ele>861.872</ele>
        <time>2012-06-24T14:05:23Z</time>
      </trkpt>
      <trkpt lat="42.74274" lon="1.46208">
        <ele>860.674</ele>
        <time>2012-06-24T14:05:27Z</time>
      </trkpt>
      <trkpt lat="42.74276" lon="1.4621">
        <ele>859.757</ele>
        <time>2012-06-24T14:05:29Z</time>
      </trkpt>
      <trkpt lat="42.74285" lon="1.46213">
        <ele>858.509</ele>
        <time>2012-06-24T14:05:36Z</time>
      </trkpt>
      <trkpt lat="42.74288" lon="1.46216">
        <ele>857.996</ele>
        <time>2012-06-24T14:05:40Z</time>
      </trkpt>
      <trkpt lat="42.74287" lon="1.46226">
        <ele>856.94</ele>
        <time>2012-06-24T14:05:47Z</time>
      </trkpt>
      <trkpt lat="42.74285" lon="1.46227">
        <ele>857.243</ele>
        <time>2012-06-24T14:05:49Z</time>
      </trkpt>
      <trkpt lat="42.74282" lon="1.46228">
        <ele>856.727</ele>
        <time>2012-06-24T14:05:51Z</time>
      </trkpt>
      <trkpt lat="42.74277" lon="1.46234">
        <ele>856.467</ele>
        <time>2012-06-24T14:05:56Z</time>
      </trkpt>
      <trkpt lat="42.74273" lon="1.46244">
        <ele>857.952</ele>
        <time>2012-06-24T14:06:03Z</time>
      </trkpt>
      <trkpt lat="42.74272" lon="1.4625">
        <ele>857.406</ele>
        <time>2012-06-24T14:06:08Z</time>
      </trkpt>
      <trkpt lat="42.74275" lon="1.46254">
        <ele>857.691</ele>
        <time>2012-06-24T14:06:11Z</time>
      </trkpt>
      <trkpt lat="42.74277" lon="1.46254">
        <ele>858.828</ele>
        <time>2012-06-24T14:06:17Z</time>
      </trkpt>
      <trkpt lat="42.74285" lon="1.46257">
        <ele>860.021</ele>
        <time>2012-06-24T14:06:25Z</time>
      </trkpt>
      <trkpt lat="42.74289" lon="1.4626">
        <ele>860.743</ele>
        <time>2012-06-24T14:06:30Z</time>
      </trkpt>
      <trkpt lat="42.74292" lon="1.46267">
        <ele>861.771</ele>
        <time>2012-06-24T14:06:36Z</time>
      </trkpt>
      <trkpt lat="42.74295" lon="1.46272">
        <ele>862.327</ele>
        <time>2012-06-24T14:06:42Z</time>
      </trkpt>
      <trkpt lat="42.74296" lon="1.46276">
        <ele>860.421</ele>
        <time>2012-06-24T14:06:53Z</time>
      </trkpt>
      <trkpt lat="42.74297" lon="1.46276">
        <ele>863.563</ele>
        <time>2012-06-24T14:06:54Z</time>
      </trkpt>
      <trkpt lat="42.74301" lon="1.46279">
        <ele>859.674</ele>
        <time>2012-06-24T14:07:14Z</time>
      </trkpt>
      <trkpt lat="42.743" lon="1.46279">
        <ele>864.095</ele>
        <time>2012-06-24T14:07:15Z</time>
      </trkpt>
      <trkpt lat="42.743" lon="1.46279">
        <ele>860.562</ele>
        <time>2012-06-24T14:07:24Z</time>
      </trkpt>
      <trkpt lat="42.743" lon="1.46279">
        <ele>863.634</ele>
        <time>2012-06-24T14:07:25Z</time>
      </trkpt>
      <trkpt lat="42.743" lon="1.46279">
        <ele>860.342</ele>
        <time>2012-06-24T14:07:26Z</time>
      </trkpt>
      <trkpt lat="42.743" lon="1.4628">
        <ele>864.067</ele>
        <time>2012-06-24T14:07:37Z</time>
      </trkpt>
      <trkpt lat="42.743" lon="1.4628">
        <ele>860.773</ele>
        <time>2012-06-24T14:07:38Z</time>
      </trkpt>
      <trkpt lat="42.74301" lon="1.46279">
        <ele>864.116</ele>
        <time>2012-06-24T14:07:50Z</time>
      </trkpt>
      <trkpt lat="42.74301" lon="1.46279">
        <ele>859.857</ele>
        <time>2012-06-24T14:07:51Z</time>
      </trkpt>
      <trkpt lat="42.743" lon="1.46279">
        <ele>863.819</ele>
        <time>2012-06-24T14:07:52Z</time>
      </trkpt>
      <trkpt lat="42.74299" lon="1.46277">
        <ele>861.285</ele>
        <time>2012-06-24T14:07:59Z</time>
      </trkpt>
      <trkpt lat="42.743" lon="1.46282">
        <ele>861.471</ele>
        <time>2012-06-24T14:08:16Z</time>
      </trkpt>
      <trkpt lat="42.74303" lon="1.46297">
        <ele>861.164</ele>
        <time>2012-06-24T14:08:25Z</time>
      </trkpt>
      <trkpt lat="42.74304" lon="1.46299">
        <ele>860.999</ele>
        <time>2012-06-24T14:08:26Z</time>
      </trkpt>
      <trkpt lat="42.74305" lon="1.46305">
        <ele>861.129</ele>
        <time>2012-06-24T14:08:30Z</time>
      </trkpt>
      <trkpt lat="42.74305" lon="1.46307">
        <ele>861.628</ele>
        <time>2012-06-24T14:08:32Z</time>
      </trkpt>
      <trkpt lat="42.74308" lon="1.46312">
        <ele>861.82</ele>
        <time>2012-06-24T14:08:36Z</time>
      </trkpt>
      <trkpt lat="42.74317" lon="1.46326">
        <ele>862.549</ele>
        <time>2012-06-24T14:08:47Z</time>
      </trkpt>
      <trkpt lat="42.74322" lon="1.46337">
        <ele>863.098</ele>
        <time>2012-06-24T14:08:54Z</time>
      </trkpt>
      <trkpt lat="42.74322" lon="1.46352">
        <ele>863.589</ele>
        <time>2012-06-24T14:09:03Z</time>
      </trkpt>
      <trkpt lat="42.74322" lon="1.46358">
        <ele>863.851</ele>
        <time>2012-06-24T14:09:09Z</time>
      </trkpt>
      <trkpt lat="42.74325" lon="1.46364">
        <ele>863.631</ele>
        <time>2012-06-24T14:09:19Z</time>
      </trkpt>
      <trkpt lat="42.74324" lon="1.46366">
        <ele>863.041</ele>
        <time>2012-06-24T14:09:38Z</time>
      </trkpt>
      <trkpt lat="42.74322" lon="1.46365">
        <ele>863.14</ele>
        <time>2012-06-24T14:10:06Z</time>
      </trkpt>
      <trkpt lat="42.74321" lon="1.46367">
        <ele>862.749</ele>
        <time>2012-06-24T14:10:11Z</time>
      </trkpt>
      <trkpt lat="42.74324" lon="1.46366">
        <ele>862.821</ele>
        <time>2012-06-24T14:10:29Z</time>
      </trkpt>
      <trkpt lat="42.74325" lon="1.46363">
        <ele>855.618</ele>
        <time>2012-06-24T14:10:38Z</time>
      </trkpt>
      <trkpt lat="42.74325" lon="1.46363">
        <ele>869.341</ele>
        <time>2012-06-24T14:10:39Z</time>
      </trkpt>
      <trkpt lat="42.74325" lon="1.46363">
        <ele>863.876</ele>
        <time>2012-06-24T14:10:40Z</time>
      </trkpt>
      <trkpt lat="42.74325" lon="1.46363">
        <ele>862.887</ele>
        <time>2012-06-24T14:10:42Z</time>
      </trkpt>
      <trkpt lat="42.74325" lon="1.46368">
        <ele>860.329</ele>
        <time>2012-06-24T14:11:51Z</time>
      </trkpt>
      <trkpt lat="42.74325" lon="1.46367">
        <ele>862.41</ele>
        <time>2012-06-24T14:11:54Z</time>
      </trkpt>
      <trkpt lat="42.74324" lon="1.4637">
        <ele>863.982</ele>
        <time>2012-06-24T14:12:48Z</time>
      </trkpt>
      <trkpt lat="42.74325" lon="1.46369">
        <ele>860.667</ele>
        <time>2012-06-24T14:12:56Z</time>
      </trkpt>
      <trkpt lat="42.74326" lon="1.46369">
        <ele>863.717</ele>
        <time>2012-06-24T14:13:22Z</time>
      </trkpt>
      <trkpt lat="42.74326" lon="1.46369">
        <ele>860.397</ele>
        <time>2012-06-24T14:13:23Z</time>
      </trkpt>
      <trkpt lat="42.74326" lon="1.46369">
        <ele>863.669</ele>
        <time>2012-06-24T14:13:24Z</time>
      </trkpt>
      <trkpt lat="42.74326" lon="1.46368">
        <ele>859.895</ele>
        <time>2012-06-24T14:13:41Z</time>
      </trkpt>
      <trkpt lat="42.74326" lon="1.46368">
        <ele>863.942</ele>
        <time>2012-06-24T14:13:42Z</time>
      </trkpt>
      <trkpt lat="42.74327" lon="1.46367">
        <ele>863.232</ele>
        <time>2012-06-24T14:13:54Z</time>
      </trkpt>
    </trkseg>
  </trk>
</gpx>